<?xml version="1.0" encoding="UTF-8"?>
<gpx version="1.1" creator="https://www.youtrack.es" xsi:schemaLocation="http://www.topografix.com/GPX/1/1 http://www.topografix.com/GPX/1/1/gpx.xsd http://www.garmin.com/xmlschemas/GpxExtensions/v3 http://www.garmin.com/xmlschemas/GpxExtensionsv3.xsd http://www.garmin.com/xmlschemas/TrackPointExtension/v1 http://www.garmin.com/xmlschemas/TrackPointExtensionv1.xsd" xmlns:gpxtpx="http://www.garmin.com/xmlschemas/TrackPointExtension/v1" xmlns:gpxx="http://www.garmin.com/xmlschemas/GpxExtensions/v3" xmlns:xsi="http://www.w3.org/2001/XMLSchema-instance">
  <metadata>
    <link href="https://www.youtrack.es">
      <text>YouTrack.es</text>
    </link>
    <time>2026-05-08T20:19:14Z</time>
  </metadata>
  <trk>
    <src>https://www.youtrack.es</src>
    <link href="https://www.youtrack.es/ruta/28142-anada-poncebos">
      <text>YouTrack.es</text>
    </link>
    <trkseg>
      <trkpt lat="43.258070000000004" lon="-4.8304100000000005">
        <ele>220.18</ele>
        <time>2021-12-21T10:29:28Z</time>
      </trkpt>
      <trkpt lat="43.258120000000005" lon="-4.83044">
        <ele>220.21</ele>
        <time>2021-12-21T10:29:40Z</time>
      </trkpt>
      <trkpt lat="43.258340000000004" lon="-4.83082">
        <ele>220.35000000000002</ele>
        <time>2021-12-21T10:29:42Z</time>
      </trkpt>
      <trkpt lat="43.258030000000005" lon="-4.83115">
        <ele>230.20000000000002</ele>
        <time>2021-12-21T10:29:47Z</time>
      </trkpt>
      <trkpt lat="43.257830000000006" lon="-4.83141">
        <ele>236.28</ele>
        <time>2021-12-21T10:29:53Z</time>
      </trkpt>
      <trkpt lat="43.25748" lon="-4.83195">
        <ele>250.92000000000002</ele>
        <time>2021-12-21T10:29:57Z</time>
      </trkpt>
      <trkpt lat="43.25721000098068" lon="-4.832445002353401">
        <ele>269.09</ele>
        <time>2021-12-21T10:30:05Z</time>
      </trkpt>
      <trkpt lat="43.25694" lon="-4.832940000000001">
        <ele>289.04</ele>
        <time>2021-12-21T10:30:10Z</time>
      </trkpt>
      <trkpt lat="43.256620000000005" lon="-4.83342">
        <ele>292.08</ele>
        <time>2021-12-21T10:30:16Z</time>
      </trkpt>
      <trkpt lat="43.25659" lon="-4.83352">
        <ele>292.33000000000004</ele>
        <time>2021-12-21T10:30:21Z</time>
      </trkpt>
      <trkpt lat="43.256550000000004" lon="-4.8340000000000005">
        <ele>293.97</ele>
        <time>2021-12-21T10:30:26Z</time>
      </trkpt>
      <trkpt lat="43.256550000000004" lon="-4.83401">
        <ele>293.98</ele>
        <time>2021-12-21T10:30:31Z</time>
      </trkpt>
      <trkpt lat="43.25654" lon="-4.83422">
        <ele>294.21000000000004</ele>
        <time>2021-12-21T10:30:36Z</time>
      </trkpt>
      <trkpt lat="43.2565" lon="-4.83439">
        <ele>294.31</ele>
        <time>2021-12-21T10:30:42Z</time>
      </trkpt>
      <trkpt lat="43.256170000000004" lon="-4.8349400000000005">
        <ele>294.18</ele>
        <time>2021-12-21T10:30:47Z</time>
      </trkpt>
      <trkpt lat="43.25603" lon="-4.83532">
        <ele>293.45000000000005</ele>
        <time>2021-12-21T10:30:52Z</time>
      </trkpt>
      <trkpt lat="43.255950000000006" lon="-4.83549">
        <ele>292.89000000000004</ele>
        <time>2021-12-21T10:30:57Z</time>
      </trkpt>
      <trkpt lat="43.255320000000005" lon="-4.836010000000001">
        <ele>286.19</ele>
        <time>2021-12-21T10:31:02Z</time>
      </trkpt>
      <trkpt lat="43.25531" lon="-4.836010000000001">
        <ele>286.14</ele>
        <time>2021-12-21T10:31:07Z</time>
      </trkpt>
      <trkpt lat="43.25518" lon="-4.83612">
        <ele>285.59000000000003</ele>
        <time>2021-12-21T10:31:12Z</time>
      </trkpt>
      <trkpt lat="43.255030000000005" lon="-4.83629">
        <ele>284.54</ele>
        <time>2021-12-21T10:31:18Z</time>
      </trkpt>
      <trkpt lat="43.254830000000005" lon="-4.83657">
        <ele>282.90000000000003</ele>
        <time>2021-12-21T10:31:23Z</time>
      </trkpt>
      <trkpt lat="43.25453" lon="-4.836720000000001">
        <ele>281.45000000000005</ele>
        <time>2021-12-21T10:31:28Z</time>
      </trkpt>
      <trkpt lat="43.254400000000004" lon="-4.83687">
        <ele>280.75</ele>
        <time>2021-12-21T10:31:33Z</time>
      </trkpt>
      <trkpt lat="43.253840000000004" lon="-4.83758">
        <ele>290.21000000000004</ele>
        <time>2021-12-21T10:31:38Z</time>
      </trkpt>
      <trkpt lat="43.25374" lon="-4.83779">
        <ele>292.78000000000003</ele>
        <time>2021-12-21T10:31:46Z</time>
      </trkpt>
      <trkpt lat="43.25372" lon="-4.83792">
        <ele>293.34000000000003</ele>
        <time>2021-12-21T10:31:51Z</time>
      </trkpt>
      <trkpt lat="43.253710000000005" lon="-4.837980000000001">
        <ele>293.89000000000004</ele>
        <time>2021-12-21T10:31:56Z</time>
      </trkpt>
      <trkpt lat="43.25383" lon="-4.83779">
        <ele>295.27000000000004</ele>
        <time>2021-12-21T10:32:01Z</time>
      </trkpt>
      <trkpt lat="43.25405000000001" lon="-4.83758">
        <ele>296.79</ele>
        <time>2021-12-21T10:32:09Z</time>
      </trkpt>
      <trkpt lat="43.25406" lon="-4.8376">
        <ele>296.95000000000005</ele>
        <time>2021-12-21T10:32:14Z</time>
      </trkpt>
      <trkpt lat="43.2539" lon="-4.83802">
        <ele>297.74</ele>
        <time>2021-12-21T10:32:17Z</time>
      </trkpt>
      <trkpt lat="43.25388" lon="-4.83811">
        <ele>298.06000000000006</ele>
        <time>2021-12-21T10:32:22Z</time>
      </trkpt>
      <trkpt lat="43.25388" lon="-4.83812">
        <ele>298.03000000000003</ele>
        <time>2021-12-21T10:32:35Z</time>
      </trkpt>
      <trkpt lat="43.253840000000004" lon="-4.83847">
        <ele>298.35</ele>
        <time>2021-12-21T10:32:40Z</time>
      </trkpt>
      <trkpt lat="43.25376000000001" lon="-4.83854">
        <ele>298.23</ele>
        <time>2021-12-21T10:32:45Z</time>
      </trkpt>
      <trkpt lat="43.2537" lon="-4.83868">
        <ele>297.59000000000003</ele>
        <time>2021-12-21T10:32:50Z</time>
      </trkpt>
      <trkpt lat="43.25359" lon="-4.8388">
        <ele>297.25</ele>
        <time>2021-12-21T10:32:55Z</time>
      </trkpt>
      <trkpt lat="43.25336" lon="-4.83896">
        <ele>298.77000000000004</ele>
        <time>2021-12-21T10:33:01Z</time>
      </trkpt>
      <trkpt lat="43.253330000000005" lon="-4.83901">
        <ele>298.77000000000004</ele>
        <time>2021-12-21T10:33:06Z</time>
      </trkpt>
      <trkpt lat="43.25332" lon="-4.83922">
        <ele>299.15000000000003</ele>
        <time>2021-12-21T10:33:11Z</time>
      </trkpt>
      <trkpt lat="43.253350000000005" lon="-4.83933">
        <ele>298.56000000000006</ele>
        <time>2021-12-21T10:33:16Z</time>
      </trkpt>
      <trkpt lat="43.25338000000001" lon="-4.83948">
        <ele>298.56000000000006</ele>
        <time>2021-12-21T10:33:21Z</time>
      </trkpt>
      <trkpt lat="43.253440000000005" lon="-4.83959">
        <ele>298.56000000000006</ele>
        <time>2021-12-21T10:33:26Z</time>
      </trkpt>
      <trkpt lat="43.25347" lon="-4.83978">
        <ele>298.56000000000006</ele>
        <time>2021-12-21T10:33:29Z</time>
      </trkpt>
      <trkpt lat="43.253440000000005" lon="-4.83995">
        <ele>298.56000000000006</ele>
        <time>2021-12-21T10:33:34Z</time>
      </trkpt>
      <trkpt lat="43.253330000000005" lon="-4.8402">
        <ele>298.56000000000006</ele>
        <time>2021-12-21T10:33:39Z</time>
      </trkpt>
      <trkpt lat="43.253240000000005" lon="-4.8403">
        <ele>320.53000000000003</ele>
        <time>2021-12-21T10:33:44Z</time>
      </trkpt>
      <trkpt lat="43.25321" lon="-4.84049">
        <ele>320.53000000000003</ele>
        <time>2021-12-21T10:33:50Z</time>
      </trkpt>
      <trkpt lat="43.25321" lon="-4.8406">
        <ele>320.53000000000003</ele>
        <time>2021-12-21T10:34:28Z</time>
      </trkpt>
      <trkpt lat="43.253310000000006" lon="-4.84067">
        <ele>320.53000000000003</ele>
        <time>2021-12-21T10:34:31Z</time>
      </trkpt>
      <trkpt lat="43.25336" lon="-4.84093">
        <ele>320.53000000000003</ele>
        <time>2021-12-21T10:34:36Z</time>
      </trkpt>
      <trkpt lat="43.253440000000005" lon="-4.84105">
        <ele>319.69</ele>
        <time>2021-12-21T10:34:41Z</time>
      </trkpt>
      <trkpt lat="43.253370000000004" lon="-4.84131">
        <ele>319.69</ele>
        <time>2021-12-21T10:34:44Z</time>
      </trkpt>
      <trkpt lat="43.25338000000001" lon="-4.84145">
        <ele>319.69</ele>
        <time>2021-12-21T10:34:49Z</time>
      </trkpt>
      <trkpt lat="43.25343" lon="-4.84168">
        <ele>319.69</ele>
        <time>2021-12-21T10:34:54Z</time>
      </trkpt>
      <trkpt lat="43.25341" lon="-4.84201">
        <ele>319.69</ele>
        <time>2021-12-21T10:34:59Z</time>
      </trkpt>
      <trkpt lat="43.253280000000004" lon="-4.84234">
        <ele>354.56000000000006</ele>
        <time>2021-12-21T10:35:04Z</time>
      </trkpt>
      <trkpt lat="43.25327" lon="-4.84243">
        <ele>354.56000000000006</ele>
        <time>2021-12-21T10:37:34Z</time>
      </trkpt>
      <trkpt lat="43.253280000000004" lon="-4.84257">
        <ele>354.56000000000006</ele>
        <time>2021-12-21T10:37:36Z</time>
      </trkpt>
      <trkpt lat="43.25332" lon="-4.84267">
        <ele>354.56000000000006</ele>
        <time>2021-12-21T10:37:42Z</time>
      </trkpt>
      <trkpt lat="43.25338000000001" lon="-4.843">
        <ele>354.56000000000006</ele>
        <time>2021-12-21T10:37:47Z</time>
      </trkpt>
      <trkpt lat="43.25336" lon="-4.84321">
        <ele>354.56000000000006</ele>
        <time>2021-12-21T10:37:52Z</time>
      </trkpt>
      <trkpt lat="43.253370000000004" lon="-4.84334">
        <ele>354.56000000000006</ele>
        <time>2021-12-21T10:38:00Z</time>
      </trkpt>
      <trkpt lat="43.253330000000005" lon="-4.84354">
        <ele>354.56000000000006</ele>
        <time>2021-12-21T10:38:06Z</time>
      </trkpt>
      <trkpt lat="43.253260000000004" lon="-4.84374">
        <ele>354.56000000000006</ele>
        <time>2021-12-21T10:40:57Z</time>
      </trkpt>
      <trkpt lat="43.253260000000004" lon="-4.84375">
        <ele>353.84000000000003</ele>
        <time>2021-12-21T10:41:00Z</time>
      </trkpt>
      <trkpt lat="43.25321" lon="-4.84389">
        <ele>353.84000000000003</ele>
        <time>2021-12-21T10:41:05Z</time>
      </trkpt>
      <trkpt lat="43.252970000000005" lon="-4.84422">
        <ele>353.84000000000003</ele>
        <time>2021-12-21T10:41:08Z</time>
      </trkpt>
      <trkpt lat="43.252970000000005" lon="-4.84429">
        <ele>353.84000000000003</ele>
        <time>2021-12-21T10:41:13Z</time>
      </trkpt>
      <trkpt lat="43.253" lon="-4.84436">
        <ele>353.84000000000003</ele>
        <time>2021-12-21T10:41:18Z</time>
      </trkpt>
      <trkpt lat="43.253040000000006" lon="-4.84429">
        <ele>353.84000000000003</ele>
        <time>2021-12-21T10:41:23Z</time>
      </trkpt>
      <trkpt lat="43.25305" lon="-4.84429">
        <ele>353.84000000000003</ele>
        <time>2021-12-21T10:41:26Z</time>
      </trkpt>
      <trkpt lat="43.25305" lon="-4.84452">
        <ele>353.84000000000003</ele>
        <time>2021-12-21T10:41:28Z</time>
      </trkpt>
      <trkpt lat="43.25302000000001" lon="-4.8447000000000005">
        <ele>353.84000000000003</ele>
        <time>2021-12-21T10:41:34Z</time>
      </trkpt>
      <trkpt lat="43.253" lon="-4.84471">
        <ele>353.84000000000003</ele>
        <time>2021-12-21T10:41:36Z</time>
      </trkpt>
      <trkpt lat="43.252990000000004" lon="-4.84483">
        <ele>353.84000000000003</ele>
        <time>2021-12-21T10:41:41Z</time>
      </trkpt>
      <trkpt lat="43.253130000000006" lon="-4.84492">
        <ele>353.84000000000003</ele>
        <time>2021-12-21T10:41:44Z</time>
      </trkpt>
      <trkpt lat="43.253150000000005" lon="-4.84515">
        <ele>353.84000000000003</ele>
        <time>2021-12-21T10:41:49Z</time>
      </trkpt>
      <trkpt lat="43.25303" lon="-4.84534">
        <ele>353.84000000000003</ele>
        <time>2021-12-21T10:41:54Z</time>
      </trkpt>
      <trkpt lat="43.25302000000001" lon="-4.84539">
        <ele>353.84000000000003</ele>
        <time>2021-12-21T10:41:57Z</time>
      </trkpt>
      <trkpt lat="43.253150000000005" lon="-4.84555">
        <ele>353.84000000000003</ele>
        <time>2021-12-21T10:42:02Z</time>
      </trkpt>
      <trkpt lat="43.253220000000006" lon="-4.84572">
        <ele>353.84000000000003</ele>
        <time>2021-12-21T10:42:04Z</time>
      </trkpt>
      <trkpt lat="43.25334" lon="-4.8459200000000004">
        <ele>353.84000000000003</ele>
        <time>2021-12-21T10:42:10Z</time>
      </trkpt>
      <trkpt lat="43.253370000000004" lon="-4.846">
        <ele>353.84000000000003</ele>
        <time>2021-12-21T10:42:15Z</time>
      </trkpt>
      <trkpt lat="43.25339" lon="-4.8463">
        <ele>353.84000000000003</ele>
        <time>2021-12-21T10:42:17Z</time>
      </trkpt>
      <trkpt lat="43.25343" lon="-4.846450000000001">
        <ele>353.84000000000003</ele>
        <time>2021-12-21T10:42:23Z</time>
      </trkpt>
      <trkpt lat="43.253460000000004" lon="-4.84666">
        <ele>353.84000000000003</ele>
        <time>2021-12-21T10:42:28Z</time>
      </trkpt>
      <trkpt lat="43.25347" lon="-4.84701">
        <ele>439.76000000000005</ele>
        <time>2021-12-21T10:42:33Z</time>
      </trkpt>
      <trkpt lat="43.253510000000006" lon="-4.84722">
        <ele>439.76000000000005</ele>
        <time>2021-12-21T10:43:42Z</time>
      </trkpt>
      <trkpt lat="43.253530000000005" lon="-4.84745">
        <ele>439.76000000000005</ele>
        <time>2021-12-21T10:43:48Z</time>
      </trkpt>
      <trkpt lat="43.25352" lon="-4.84759">
        <ele>439.76000000000005</ele>
        <time>2021-12-21T10:43:50Z</time>
      </trkpt>
      <trkpt lat="43.25345" lon="-4.84771">
        <ele>439.76000000000005</ele>
        <time>2021-12-21T10:43:55Z</time>
      </trkpt>
      <trkpt lat="43.253460000000004" lon="-4.84792">
        <ele>439.76000000000005</ele>
        <time>2021-12-21T10:44:01Z</time>
      </trkpt>
      <trkpt lat="43.253490000000006" lon="-4.84809">
        <ele>439.76000000000005</ele>
        <time>2021-12-21T10:44:06Z</time>
      </trkpt>
      <trkpt lat="43.253440000000005" lon="-4.8483">
        <ele>439.76000000000005</ele>
        <time>2021-12-21T10:44:11Z</time>
      </trkpt>
      <trkpt lat="43.25345" lon="-4.84844">
        <ele>439.76000000000005</ele>
        <time>2021-12-21T10:44:13Z</time>
      </trkpt>
      <trkpt lat="43.253420000000006" lon="-4.84863">
        <ele>439.76000000000005</ele>
        <time>2021-12-21T10:44:19Z</time>
      </trkpt>
      <trkpt lat="43.2535" lon="-4.84891">
        <ele>439.76000000000005</ele>
        <time>2021-12-21T10:44:24Z</time>
      </trkpt>
      <trkpt lat="43.25338000000001" lon="-4.84921">
        <ele>439.76000000000005</ele>
        <time>2021-12-21T10:44:26Z</time>
      </trkpt>
      <trkpt lat="43.253400000000006" lon="-4.84938">
        <ele>439.76000000000005</ele>
        <time>2021-12-21T10:44:31Z</time>
      </trkpt>
      <trkpt lat="43.253330000000005" lon="-4.84971">
        <ele>439.76000000000005</ele>
        <time>2021-12-21T10:44:34Z</time>
      </trkpt>
      <trkpt lat="43.253240000000005" lon="-4.84987">
        <ele>439.76000000000005</ele>
        <time>2021-12-21T10:44:39Z</time>
      </trkpt>
      <trkpt lat="43.25302000000001" lon="-4.850090000000001">
        <ele>439.76000000000005</ele>
        <time>2021-12-21T10:44:42Z</time>
      </trkpt>
      <trkpt lat="43.252880000000005" lon="-4.85013">
        <ele>438.64000000000004</ele>
        <time>2021-12-21T10:44:47Z</time>
      </trkpt>
      <trkpt lat="43.25287" lon="-4.8502">
        <ele>437.49</ele>
        <time>2021-12-21T10:44:52Z</time>
      </trkpt>
      <trkpt lat="43.252970000000005" lon="-4.85027">
        <ele>436.35</ele>
        <time>2021-12-21T10:44:57Z</time>
      </trkpt>
      <trkpt lat="43.252900000000004" lon="-4.85032">
        <ele>436.35</ele>
        <time>2021-12-21T10:45:02Z</time>
      </trkpt>
      <trkpt lat="43.25296" lon="-4.85036">
        <ele>435.94000000000005</ele>
        <time>2021-12-21T10:45:08Z</time>
      </trkpt>
      <trkpt lat="43.252900000000004" lon="-4.85041">
        <ele>435.66</ele>
        <time>2021-12-21T10:45:13Z</time>
      </trkpt>
      <trkpt lat="43.252880000000005" lon="-4.85067">
        <ele>433.56000000000006</ele>
        <time>2021-12-21T10:45:15Z</time>
      </trkpt>
      <trkpt lat="43.252880000000005" lon="-4.8506800000000005">
        <ele>433.70000000000005</ele>
        <time>2021-12-21T10:45:20Z</time>
      </trkpt>
      <trkpt lat="43.252840000000006" lon="-4.85097">
        <ele>431.94000000000005</ele>
        <time>2021-12-21T10:45:26Z</time>
      </trkpt>
      <trkpt lat="43.25260500120444" lon="-4.851500002087828">
        <ele>429.55</ele>
        <time>2021-12-21T10:45:31Z</time>
      </trkpt>
      <trkpt lat="43.252370000000006" lon="-4.85203">
        <ele>427.07000000000005</ele>
        <time>2021-12-21T10:45:33Z</time>
      </trkpt>
      <trkpt lat="43.252250000000004" lon="-4.85215">
        <ele>425.19</ele>
        <time>2021-12-21T10:45:36Z</time>
      </trkpt>
      <trkpt lat="43.252210000000005" lon="-4.85217">
        <ele>425.19</ele>
        <time>2021-12-21T10:45:38Z</time>
      </trkpt>
      <trkpt lat="43.25211" lon="-4.85217">
        <ele>423.74000000000007</ele>
        <time>2021-12-21T10:45:41Z</time>
      </trkpt>
      <trkpt lat="43.25204" lon="-4.85222">
        <ele>423.74000000000007</ele>
        <time>2021-12-21T10:45:44Z</time>
      </trkpt>
      <trkpt lat="43.25186" lon="-4.85243">
        <ele>421.27000000000004</ele>
        <time>2021-12-21T10:45:46Z</time>
      </trkpt>
      <trkpt lat="43.251780000000004" lon="-4.85257">
        <ele>420.31</ele>
        <time>2021-12-21T10:45:51Z</time>
      </trkpt>
      <trkpt lat="43.25177" lon="-4.85263">
        <ele>419.80000000000007</ele>
        <time>2021-12-21T10:45:54Z</time>
      </trkpt>
      <trkpt lat="43.25179000000001" lon="-4.85276">
        <ele>418.65000000000003</ele>
        <time>2021-12-21T10:45:59Z</time>
      </trkpt>
      <trkpt lat="43.25193" lon="-4.85301">
        <ele>414.86</ele>
        <time>2021-12-21T10:46:02Z</time>
      </trkpt>
      <trkpt lat="43.252" lon="-4.8533100000000005">
        <ele>412.49</ele>
        <time>2021-12-21T10:46:04Z</time>
      </trkpt>
      <trkpt lat="43.25204" lon="-4.85355">
        <ele>418.79</ele>
        <time>2021-12-21T10:46:07Z</time>
      </trkpt>
      <trkpt lat="43.252230000000004" lon="-4.85405">
        <ele>427.27000000000004</ele>
        <time>2021-12-21T10:46:12Z</time>
      </trkpt>
      <trkpt lat="43.25224" lon="-4.85416">
        <ele>432.70000000000005</ele>
        <time>2021-12-21T10:46:15Z</time>
      </trkpt>
      <trkpt lat="43.2523290" lon="-4.8540380">
        <ele>430.7</ele>
        <time>2021-12-21T10:46:20Z</time>
      </trkpt>
      <trkpt lat="43.2523280" lon="-4.8541760">
        <ele>433.8</ele>
        <time>2021-12-21T10:46:25Z</time>
      </trkpt>
      <trkpt lat="43.2523290" lon="-4.8542040">
        <ele>434.5</ele>
        <time>2021-12-21T10:46:27Z</time>
      </trkpt>
      <trkpt lat="43.2523260" lon="-4.8542460">
        <ele>435.4</ele>
        <time>2021-12-21T10:46:30Z</time>
      </trkpt>
      <trkpt lat="43.2523310" lon="-4.8542980">
        <ele>436.7</ele>
        <time>2021-12-21T10:46:35Z</time>
      </trkpt>
      <trkpt lat="43.2523330" lon="-4.8543210">
        <ele>437.3</ele>
        <time>2021-12-21T10:46:38Z</time>
      </trkpt>
      <trkpt lat="43.2523360" lon="-4.8543970">
        <ele>439.2</ele>
        <time>2021-12-21T10:46:40Z</time>
      </trkpt>
      <trkpt lat="43.2523290" lon="-4.8544500">
        <ele>440.5</ele>
        <time>2021-12-21T10:46:43Z</time>
      </trkpt>
      <trkpt lat="43.2523220" lon="-4.8545100">
        <ele>442.1</ele>
        <time>2021-12-21T10:46:48Z</time>
      </trkpt>
      <trkpt lat="43.2523210" lon="-4.8545540">
        <ele>443.3</ele>
        <time>2021-12-21T10:46:51Z</time>
      </trkpt>
      <trkpt lat="43.2523140" lon="-4.8546000">
        <ele>444.6</ele>
        <time>2021-12-21T10:46:56Z</time>
      </trkpt>
      <trkpt lat="43.2523180" lon="-4.8546400">
        <ele>445.7</ele>
        <time>2021-12-21T10:47:01Z</time>
      </trkpt>
      <trkpt lat="43.2523070" lon="-4.8546840">
        <ele>447.0</ele>
        <time>2021-12-21T10:47:06Z</time>
      </trkpt>
      <trkpt lat="43.2523000" lon="-4.8547290">
        <ele>448.2</ele>
        <time>2021-12-21T10:47:11Z</time>
      </trkpt>
      <trkpt lat="43.2523080" lon="-4.8547690">
        <ele>449.4</ele>
        <time>2021-12-21T10:47:14Z</time>
      </trkpt>
      <trkpt lat="43.2522970" lon="-4.8548130">
        <ele>450.7</ele>
        <time>2021-12-21T10:47:19Z</time>
      </trkpt>
      <trkpt lat="43.2522800" lon="-4.8548520">
        <ele>451.9</ele>
        <time>2021-12-21T10:47:24Z</time>
      </trkpt>
      <trkpt lat="43.2522620" lon="-4.8548920">
        <ele>453.2</ele>
        <time>2021-12-21T10:47:27Z</time>
      </trkpt>
      <trkpt lat="43.2522490" lon="-4.8549270">
        <ele>454.3</ele>
        <time>2021-12-21T10:47:32Z</time>
      </trkpt>
      <trkpt lat="43.2522400" lon="-4.8549660">
        <ele>455.3</ele>
        <time>2021-12-21T10:47:34Z</time>
      </trkpt>
      <trkpt lat="43.2522210" lon="-4.8550090">
        <ele>456.6</ele>
        <time>2021-12-21T10:47:40Z</time>
      </trkpt>
      <trkpt lat="43.2522040" lon="-4.8550500">
        <ele>457.9</ele>
        <time>2021-12-21T10:47:42Z</time>
      </trkpt>
      <trkpt lat="43.2521880" lon="-4.8550880">
        <ele>459.0</ele>
        <time>2021-12-21T10:47:45Z</time>
      </trkpt>
      <trkpt lat="43.2521800" lon="-4.8551240">
        <ele>460.0</ele>
        <time>2021-12-21T10:47:50Z</time>
      </trkpt>
      <trkpt lat="43.2521740" lon="-4.8551580">
        <ele>460.9</ele>
        <time>2021-12-21T10:47:53Z</time>
      </trkpt>
      <trkpt lat="43.2521710" lon="-4.8552140">
        <ele>462.4</ele>
        <time>2021-12-21T10:47:55Z</time>
      </trkpt>
      <trkpt lat="43.2521590" lon="-4.8552500">
        <ele>463.4</ele>
        <time>2021-12-21T10:47:58Z</time>
      </trkpt>
      <trkpt lat="43.2521430" lon="-4.8552860">
        <ele>464.5</ele>
        <time>2021-12-21T10:48:03Z</time>
      </trkpt>
      <trkpt lat="43.2521370" lon="-4.8553210">
        <ele>465.4</ele>
        <time>2021-12-21T10:48:05Z</time>
      </trkpt>
      <trkpt lat="43.2521310" lon="-4.8553730">
        <ele>466.8</ele>
        <time>2021-12-21T10:48:10Z</time>
      </trkpt>
      <trkpt lat="43.2521190" lon="-4.8554050">
        <ele>467.8</ele>
        <time>2021-12-21T10:48:16Z</time>
      </trkpt>
      <trkpt lat="43.2521160" lon="-4.8554310">
        <ele>468.5</ele>
        <time>2021-12-21T10:48:21Z</time>
      </trkpt>
      <trkpt lat="43.2521000" lon="-4.8554670">
        <ele>469.6</ele>
        <time>2021-12-21T10:48:26Z</time>
      </trkpt>
      <trkpt lat="43.2520970" lon="-4.8555550">
        <ele>471.7</ele>
        <time>2021-12-21T10:48:34Z</time>
      </trkpt>
      <trkpt lat="43.2521080" lon="-4.8555860">
        <ele>472.5</ele>
        <time>2021-12-21T10:48:39Z</time>
      </trkpt>
      <trkpt lat="43.2520990" lon="-4.8556240">
        <ele>473.5</ele>
        <time>2021-12-21T10:48:44Z</time>
      </trkpt>
      <trkpt lat="43.2520990" lon="-4.8556560">
        <ele>474.1</ele>
        <time>2021-12-21T10:48:49Z</time>
      </trkpt>
      <trkpt lat="43.2520940" lon="-4.8556930">
        <ele>474.9</ele>
        <time>2021-12-21T10:48:52Z</time>
      </trkpt>
      <trkpt lat="43.2520870" lon="-4.8557360">
        <ele>475.9</ele>
        <time>2021-12-21T10:48:57Z</time>
      </trkpt>
      <trkpt lat="43.2520820" lon="-4.8557830">
        <ele>476.8</ele>
        <time>2021-12-21T10:49:02Z</time>
      </trkpt>
      <trkpt lat="43.2520920" lon="-4.8558190">
        <ele>477.6</ele>
        <time>2021-12-21T10:49:07Z</time>
      </trkpt>
      <trkpt lat="43.2521000" lon="-4.8558750">
        <ele>478.6</ele>
        <time>2021-12-21T10:49:12Z</time>
      </trkpt>
      <trkpt lat="43.2521040" lon="-4.8559310">
        <ele>479.5</ele>
        <time>2021-12-21T10:49:18Z</time>
      </trkpt>
      <trkpt lat="43.2521100" lon="-4.8560010">
        <ele>480.4</ele>
        <time>2021-12-21T10:49:25Z</time>
      </trkpt>
      <trkpt lat="43.2521200" lon="-4.8560380">
        <ele>480.9</ele>
        <time>2021-12-21T10:49:30Z</time>
      </trkpt>
      <trkpt lat="43.2521260" lon="-4.8561040">
        <ele>481.6</ele>
        <time>2021-12-21T10:49:36Z</time>
      </trkpt>
      <trkpt lat="43.2521310" lon="-4.8561710">
        <ele>482.3</ele>
        <time>2021-12-21T10:49:41Z</time>
      </trkpt>
      <trkpt lat="43.2521400" lon="-4.8562110">
        <ele>482.8</ele>
        <time>2021-12-21T10:49:46Z</time>
      </trkpt>
      <trkpt lat="43.2521390" lon="-4.8562670">
        <ele>483.3</ele>
        <time>2021-12-21T10:49:51Z</time>
      </trkpt>
      <trkpt lat="43.2521090" lon="-4.8564410">
        <ele>485.2</ele>
        <time>2021-12-21T10:49:56Z</time>
      </trkpt>
      <trkpt lat="43.2521090" lon="-4.8564780">
        <ele>485.5</ele>
        <time>2021-12-21T10:50:01Z</time>
      </trkpt>
      <trkpt lat="43.2520980" lon="-4.8565490">
        <ele>486.3</ele>
        <time>2021-12-21T10:50:09Z</time>
      </trkpt>
      <trkpt lat="43.2520860" lon="-4.8566140">
        <ele>486.9</ele>
        <time>2021-12-21T10:50:14Z</time>
      </trkpt>
      <trkpt lat="43.2520730" lon="-4.8566550">
        <ele>487.4</ele>
        <time>2021-12-21T10:50:17Z</time>
      </trkpt>
      <trkpt lat="43.2520710" lon="-4.8567210">
        <ele>488.0</ele>
        <time>2021-12-21T10:50:25Z</time>
      </trkpt>
      <trkpt lat="43.2520660" lon="-4.8567870">
        <ele>488.5</ele>
        <time>2021-12-21T10:50:30Z</time>
      </trkpt>
      <trkpt lat="43.2520690" lon="-4.8568300">
        <ele>488.9</ele>
        <time>2021-12-21T10:50:38Z</time>
      </trkpt>
      <trkpt lat="43.2520660" lon="-4.8568280">
        <ele>488.9</ele>
        <time>2021-12-21T10:50:50Z</time>
      </trkpt>
      <trkpt lat="43.2521410" lon="-4.8569940">
        <ele>490.1</ele>
        <time>2021-12-21T10:52:30Z</time>
      </trkpt>
      <trkpt lat="43.2521440" lon="-4.8570100">
        <ele>490.2</ele>
        <time>2021-12-21T10:52:31Z</time>
      </trkpt>
      <trkpt lat="43.2521560" lon="-4.8570480">
        <ele>490.4</ele>
        <time>2021-12-21T10:52:36Z</time>
      </trkpt>
      <trkpt lat="43.2521780" lon="-4.8570920">
        <ele>490.5</ele>
        <time>2021-12-21T10:52:39Z</time>
      </trkpt>
      <trkpt lat="43.2521750" lon="-4.8571290">
        <ele>490.6</ele>
        <time>2021-12-21T10:52:44Z</time>
      </trkpt>
      <trkpt lat="43.2522070" lon="-4.8571480">
        <ele>490.7</ele>
        <time>2021-12-21T10:52:49Z</time>
      </trkpt>
      <trkpt lat="43.2522160" lon="-4.8571640">
        <ele>490.8</ele>
        <time>2021-12-21T10:52:51Z</time>
      </trkpt>
      <trkpt lat="43.2523610" lon="-4.8574140">
        <ele>491.3</ele>
        <time>2021-12-21T10:52:57Z</time>
      </trkpt>
      <trkpt lat="43.2523920" lon="-4.8574480">
        <ele>491.4</ele>
        <time>2021-12-21T10:53:02Z</time>
      </trkpt>
      <trkpt lat="43.2524340" lon="-4.8574980">
        <ele>491.6</ele>
        <time>2021-12-21T10:53:04Z</time>
      </trkpt>
      <trkpt lat="43.2524330" lon="-4.8575290">
        <ele>491.7</ele>
        <time>2021-12-21T10:53:10Z</time>
      </trkpt>
      <trkpt lat="43.2524580" lon="-4.8575830">
        <ele>491.8</ele>
        <time>2021-12-21T10:53:15Z</time>
      </trkpt>
      <trkpt lat="43.2524810" lon="-4.8576570">
        <ele>492.0</ele>
        <time>2021-12-21T10:53:22Z</time>
      </trkpt>
      <trkpt lat="43.2524950" lon="-4.8577260">
        <ele>492.1</ele>
        <time>2021-12-21T10:53:28Z</time>
      </trkpt>
      <trkpt lat="43.2524970" lon="-4.8577810">
        <ele>492.2</ele>
        <time>2021-12-21T10:53:33Z</time>
      </trkpt>
      <trkpt lat="43.2525120" lon="-4.8578110">
        <ele>492.2</ele>
        <time>2021-12-21T10:53:38Z</time>
      </trkpt>
      <trkpt lat="43.2525250" lon="-4.8579050">
        <ele>492.4</ele>
        <time>2021-12-21T10:53:43Z</time>
      </trkpt>
      <trkpt lat="43.2525120" lon="-4.8579390">
        <ele>492.4</ele>
        <time>2021-12-21T10:53:48Z</time>
      </trkpt>
      <trkpt lat="43.2525270" lon="-4.8580150">
        <ele>492.5</ele>
        <time>2021-12-21T10:53:53Z</time>
      </trkpt>
      <trkpt lat="43.2525360" lon="-4.8580570">
        <ele>492.5</ele>
        <time>2021-12-21T10:53:58Z</time>
      </trkpt>
      <trkpt lat="43.2525250" lon="-4.8581220">
        <ele>492.5</ele>
        <time>2021-12-21T10:54:04Z</time>
      </trkpt>
      <trkpt lat="43.2525210" lon="-4.8581950">
        <ele>492.6</ele>
        <time>2021-12-21T10:54:09Z</time>
      </trkpt>
      <trkpt lat="43.2525150" lon="-4.8582380">
        <ele>492.6</ele>
        <time>2021-12-21T10:54:11Z</time>
      </trkpt>
      <trkpt lat="43.2524880" lon="-4.8583060">
        <ele>492.6</ele>
        <time>2021-12-21T10:54:17Z</time>
      </trkpt>
      <trkpt lat="43.2524690" lon="-4.8583210">
        <ele>492.6</ele>
        <time>2021-12-21T10:54:22Z</time>
      </trkpt>
      <trkpt lat="43.2524160" lon="-4.8583580">
        <ele>492.7</ele>
        <time>2021-12-21T10:54:24Z</time>
      </trkpt>
      <trkpt lat="43.2523710" lon="-4.8584040">
        <ele>492.7</ele>
        <time>2021-12-21T10:54:27Z</time>
      </trkpt>
      <trkpt lat="43.2523590" lon="-4.8584340">
        <ele>492.7</ele>
        <time>2021-12-21T10:54:32Z</time>
      </trkpt>
      <trkpt lat="43.2523080" lon="-4.8584360">
        <ele>492.8</ele>
        <time>2021-12-21T10:54:37Z</time>
      </trkpt>
      <trkpt lat="43.2522750" lon="-4.8584370">
        <ele>492.8</ele>
        <time>2021-12-21T10:54:42Z</time>
      </trkpt>
      <trkpt lat="43.2522290" lon="-4.8584750">
        <ele>492.8</ele>
        <time>2021-12-21T10:54:48Z</time>
      </trkpt>
      <trkpt lat="43.2523130" lon="-4.8585940">
        <ele>492.9</ele>
        <time>2021-12-21T10:54:50Z</time>
      </trkpt>
      <trkpt lat="43.2523590" lon="-4.8586470">
        <ele>493.0</ele>
        <time>2021-12-21T10:54:53Z</time>
      </trkpt>
      <trkpt lat="43.2523740" lon="-4.8586630">
        <ele>493.0</ele>
        <time>2021-12-21T10:54:58Z</time>
      </trkpt>
      <trkpt lat="43.2524060" lon="-4.8587100">
        <ele>493.1</ele>
        <time>2021-12-21T10:55:03Z</time>
      </trkpt>
      <trkpt lat="43.2524220" lon="-4.8587900">
        <ele>493.3</ele>
        <time>2021-12-21T10:55:06Z</time>
      </trkpt>
      <trkpt lat="43.2524280" lon="-4.8588670">
        <ele>493.4</ele>
        <time>2021-12-21T10:55:08Z</time>
      </trkpt>
      <trkpt lat="43.2524120" lon="-4.8589340">
        <ele>493.5</ele>
        <time>2021-12-21T10:55:11Z</time>
      </trkpt>
      <trkpt lat="43.2524160" lon="-4.8589670">
        <ele>493.6</ele>
        <time>2021-12-21T10:55:13Z</time>
      </trkpt>
      <trkpt lat="43.2524300" lon="-4.8590490">
        <ele>493.7</ele>
        <time>2021-12-21T10:55:18Z</time>
      </trkpt>
      <trkpt lat="43.2524510" lon="-4.8591110">
        <ele>493.9</ele>
        <time>2021-12-21T10:55:24Z</time>
      </trkpt>
      <trkpt lat="43.2524680" lon="-4.8591410">
        <ele>493.9</ele>
        <time>2021-12-21T10:55:29Z</time>
      </trkpt>
      <trkpt lat="43.2525060" lon="-4.8592010">
        <ele>494.0</ele>
        <time>2021-12-21T10:55:31Z</time>
      </trkpt>
      <trkpt lat="43.2525100" lon="-4.8592370">
        <ele>494.1</ele>
        <time>2021-12-21T10:55:34Z</time>
      </trkpt>
      <trkpt lat="43.2525460" lon="-4.8592980">
        <ele>494.2</ele>
        <time>2021-12-21T10:55:37Z</time>
      </trkpt>
      <trkpt lat="43.2525630" lon="-4.8593360">
        <ele>494.2</ele>
        <time>2021-12-21T10:55:42Z</time>
      </trkpt>
      <trkpt lat="43.2526010" lon="-4.8593850">
        <ele>494.3</ele>
        <time>2021-12-21T10:55:44Z</time>
      </trkpt>
      <trkpt lat="43.2526310" lon="-4.8594140">
        <ele>494.3</ele>
        <time>2021-12-21T10:55:49Z</time>
      </trkpt>
      <trkpt lat="43.2526660" lon="-4.8594360">
        <ele>494.3</ele>
        <time>2021-12-21T10:55:55Z</time>
      </trkpt>
      <trkpt lat="43.2526870" lon="-4.8594820">
        <ele>494.3</ele>
        <time>2021-12-21T10:56:00Z</time>
      </trkpt>
      <trkpt lat="43.2527090" lon="-4.8595440">
        <ele>494.3</ele>
        <time>2021-12-21T10:56:05Z</time>
      </trkpt>
      <trkpt lat="43.2527430" lon="-4.8595940">
        <ele>494.3</ele>
        <time>2021-12-21T10:56:08Z</time>
      </trkpt>
      <trkpt lat="43.2527630" lon="-4.8596170">
        <ele>494.3</ele>
        <time>2021-12-21T10:56:13Z</time>
      </trkpt>
      <trkpt lat="43.2528010" lon="-4.8596590">
        <ele>494.3</ele>
        <time>2021-12-21T10:56:18Z</time>
      </trkpt>
      <trkpt lat="43.2528440" lon="-4.8597050">
        <ele>494.4</ele>
        <time>2021-12-21T10:56:23Z</time>
      </trkpt>
      <trkpt lat="43.2528930" lon="-4.8597590">
        <ele>494.4</ele>
        <time>2021-12-21T10:56:28Z</time>
      </trkpt>
      <trkpt lat="43.2529100" lon="-4.8597800">
        <ele>494.5</ele>
        <time>2021-12-21T10:56:31Z</time>
      </trkpt>
      <trkpt lat="43.2529500" lon="-4.8598070">
        <ele>494.5</ele>
        <time>2021-12-21T10:56:36Z</time>
      </trkpt>
      <trkpt lat="43.2529700" lon="-4.8598220">
        <ele>494.6</ele>
        <time>2021-12-21T10:56:38Z</time>
      </trkpt>
      <trkpt lat="43.2529910" lon="-4.8598490">
        <ele>494.6</ele>
        <time>2021-12-21T10:56:41Z</time>
      </trkpt>
      <trkpt lat="43.2530130" lon="-4.8598710">
        <ele>494.6</ele>
        <time>2021-12-21T10:56:46Z</time>
      </trkpt>
      <trkpt lat="43.2530260" lon="-4.8598910">
        <ele>494.6</ele>
        <time>2021-12-21T10:56:52Z</time>
      </trkpt>
      <trkpt lat="43.2530760" lon="-4.8599420">
        <ele>494.6</ele>
        <time>2021-12-21T10:56:54Z</time>
      </trkpt>
      <trkpt lat="43.2530720" lon="-4.8599600">
        <ele>494.6</ele>
        <time>2021-12-21T10:56:59Z</time>
      </trkpt>
      <trkpt lat="43.2531210" lon="-4.8600170">
        <ele>494.6</ele>
        <time>2021-12-21T10:57:04Z</time>
      </trkpt>
      <trkpt lat="43.2531330" lon="-4.8600580">
        <ele>494.5</ele>
        <time>2021-12-21T10:57:09Z</time>
      </trkpt>
      <trkpt lat="43.2531430" lon="-4.8600730">
        <ele>494.5</ele>
        <time>2021-12-21T10:57:14Z</time>
      </trkpt>
      <trkpt lat="43.2531480" lon="-4.8601090">
        <ele>494.5</ele>
        <time>2021-12-21T10:57:17Z</time>
      </trkpt>
      <trkpt lat="43.2531820" lon="-4.8601760">
        <ele>494.5</ele>
        <time>2021-12-21T10:57:22Z</time>
      </trkpt>
      <trkpt lat="43.2531870" lon="-4.8602180">
        <ele>494.5</ele>
        <time>2021-12-21T10:57:25Z</time>
      </trkpt>
      <trkpt lat="43.2531830" lon="-4.8602720">
        <ele>494.5</ele>
        <time>2021-12-21T10:57:27Z</time>
      </trkpt>
      <trkpt lat="43.2531730" lon="-4.8603620">
        <ele>494.5</ele>
        <time>2021-12-21T10:57:30Z</time>
      </trkpt>
      <trkpt lat="43.2531710" lon="-4.8603880">
        <ele>494.6</ele>
        <time>2021-12-21T10:57:33Z</time>
      </trkpt>
      <trkpt lat="43.2531710" lon="-4.8604380">
        <ele>494.6</ele>
        <time>2021-12-21T10:57:38Z</time>
      </trkpt>
      <trkpt lat="43.2531540" lon="-4.8605080">
        <ele>494.6</ele>
        <time>2021-12-21T10:57:43Z</time>
      </trkpt>
      <trkpt lat="43.2531660" lon="-4.8605610">
        <ele>494.7</ele>
        <time>2021-12-21T10:57:45Z</time>
      </trkpt>
      <trkpt lat="43.2531610" lon="-4.8605870">
        <ele>494.7</ele>
        <time>2021-12-21T10:57:53Z</time>
      </trkpt>
      <trkpt lat="43.2531470" lon="-4.8606240">
        <ele>494.7</ele>
        <time>2021-12-21T10:57:58Z</time>
      </trkpt>
      <trkpt lat="43.2531250" lon="-4.8606870">
        <ele>494.8</ele>
        <time>2021-12-21T10:58:03Z</time>
      </trkpt>
      <trkpt lat="43.2531130" lon="-4.8607340">
        <ele>494.8</ele>
        <time>2021-12-21T10:58:06Z</time>
      </trkpt>
      <trkpt lat="43.2530940" lon="-4.8608040">
        <ele>494.9</ele>
        <time>2021-12-21T10:58:11Z</time>
      </trkpt>
      <trkpt lat="43.2530770" lon="-4.8608750">
        <ele>494.9</ele>
        <time>2021-12-21T10:58:14Z</time>
      </trkpt>
      <trkpt lat="43.2530750" lon="-4.8609530">
        <ele>494.9</ele>
        <time>2021-12-21T10:58:16Z</time>
      </trkpt>
      <trkpt lat="43.2530650" lon="-4.8610210">
        <ele>495.0</ele>
        <time>2021-12-21T10:58:22Z</time>
      </trkpt>
      <trkpt lat="43.2530660" lon="-4.8610730">
        <ele>495.0</ele>
        <time>2021-12-21T10:58:24Z</time>
      </trkpt>
      <trkpt lat="43.2530460" lon="-4.8611390">
        <ele>495.1</ele>
        <time>2021-12-21T10:58:29Z</time>
      </trkpt>
      <trkpt lat="43.2530200" lon="-4.8612150">
        <ele>495.2</ele>
        <time>2021-12-21T10:58:32Z</time>
      </trkpt>
      <trkpt lat="43.2530200" lon="-4.8612650">
        <ele>495.3</ele>
        <time>2021-12-21T10:58:37Z</time>
      </trkpt>
      <trkpt lat="43.2530080" lon="-4.8613270">
        <ele>495.4</ele>
        <time>2021-12-21T10:58:40Z</time>
      </trkpt>
      <trkpt lat="43.2530040" lon="-4.8613510">
        <ele>495.4</ele>
        <time>2021-12-21T10:58:45Z</time>
      </trkpt>
      <trkpt lat="43.2529610" lon="-4.8614390">
        <ele>495.5</ele>
        <time>2021-12-21T10:58:50Z</time>
      </trkpt>
      <trkpt lat="43.2529620" lon="-4.8614580">
        <ele>495.5</ele>
        <time>2021-12-21T10:58:55Z</time>
      </trkpt>
      <trkpt lat="43.2529470" lon="-4.8614970">
        <ele>495.6</ele>
        <time>2021-12-21T10:58:58Z</time>
      </trkpt>
      <trkpt lat="43.2529230" lon="-4.8615710">
        <ele>495.7</ele>
        <time>2021-12-21T10:59:03Z</time>
      </trkpt>
      <trkpt lat="43.2529120" lon="-4.8616230">
        <ele>495.7</ele>
        <time>2021-12-21T10:59:05Z</time>
      </trkpt>
      <trkpt lat="43.2529050" lon="-4.8616370">
        <ele>495.7</ele>
        <time>2021-12-21T10:59:11Z</time>
      </trkpt>
      <trkpt lat="43.2528860" lon="-4.8616830">
        <ele>495.7</ele>
        <time>2021-12-21T10:59:16Z</time>
      </trkpt>
      <trkpt lat="43.2528720" lon="-4.8617570">
        <ele>495.7</ele>
        <time>2021-12-21T10:59:18Z</time>
      </trkpt>
      <trkpt lat="43.2528640" lon="-4.8617790">
        <ele>495.7</ele>
        <time>2021-12-21T10:59:23Z</time>
      </trkpt>
      <trkpt lat="43.2528630" lon="-4.8618330">
        <ele>495.7</ele>
        <time>2021-12-21T10:59:28Z</time>
      </trkpt>
      <trkpt lat="43.2528980" lon="-4.8618750">
        <ele>495.7</ele>
        <time>2021-12-21T10:59:34Z</time>
      </trkpt>
      <trkpt lat="43.2529280" lon="-4.8619220">
        <ele>495.7</ele>
        <time>2021-12-21T10:59:36Z</time>
      </trkpt>
      <trkpt lat="43.2529260" lon="-4.8619540">
        <ele>495.7</ele>
        <time>2021-12-21T10:59:44Z</time>
      </trkpt>
      <trkpt lat="43.2529390" lon="-4.8620260">
        <ele>495.6</ele>
        <time>2021-12-21T10:59:47Z</time>
      </trkpt>
      <trkpt lat="43.2529320" lon="-4.8620770">
        <ele>495.5</ele>
        <time>2021-12-21T10:59:49Z</time>
      </trkpt>
      <trkpt lat="43.2529500" lon="-4.8621530">
        <ele>495.4</ele>
        <time>2021-12-21T10:59:52Z</time>
      </trkpt>
      <trkpt lat="43.2529600" lon="-4.8622240">
        <ele>495.3</ele>
        <time>2021-12-21T10:59:54Z</time>
      </trkpt>
      <trkpt lat="43.2529650" lon="-4.8622590">
        <ele>495.1</ele>
        <time>2021-12-21T11:00:00Z</time>
      </trkpt>
      <trkpt lat="43.2529750" lon="-4.8622940">
        <ele>495.0</ele>
        <time>2021-12-21T11:00:02Z</time>
      </trkpt>
      <trkpt lat="43.2529780" lon="-4.8623400">
        <ele>494.8</ele>
        <time>2021-12-21T11:00:07Z</time>
      </trkpt>
      <trkpt lat="43.2529890" lon="-4.8623900">
        <ele>494.6</ele>
        <time>2021-12-21T11:00:10Z</time>
      </trkpt>
      <trkpt lat="43.2529630" lon="-4.8624410">
        <ele>494.4</ele>
        <time>2021-12-21T11:00:15Z</time>
      </trkpt>
      <trkpt lat="43.2529820" lon="-4.8624770">
        <ele>494.2</ele>
        <time>2021-12-21T11:00:51Z</time>
      </trkpt>
      <trkpt lat="43.2530280" lon="-4.8624650">
        <ele>494.1</ele>
        <time>2021-12-21T11:01:32Z</time>
      </trkpt>
      <trkpt lat="43.2530500" lon="-4.8624690">
        <ele>494.0</ele>
        <time>2021-12-21T11:01:37Z</time>
      </trkpt>
      <trkpt lat="43.2530940" lon="-4.8624850">
        <ele>493.9</ele>
        <time>2021-12-21T11:01:43Z</time>
      </trkpt>
      <trkpt lat="43.2531360" lon="-4.8624920">
        <ele>493.8</ele>
        <time>2021-12-21T11:01:45Z</time>
      </trkpt>
      <trkpt lat="43.2531650" lon="-4.8624790">
        <ele>493.8</ele>
        <time>2021-12-21T11:01:50Z</time>
      </trkpt>
      <trkpt lat="43.2532000" lon="-4.8624740">
        <ele>493.8</ele>
        <time>2021-12-21T11:01:53Z</time>
      </trkpt>
      <trkpt lat="43.2532310" lon="-4.8624720">
        <ele>493.7</ele>
        <time>2021-12-21T11:01:55Z</time>
      </trkpt>
      <trkpt lat="43.2532580" lon="-4.8624740">
        <ele>493.7</ele>
        <time>2021-12-21T11:02:01Z</time>
      </trkpt>
      <trkpt lat="43.2532990" lon="-4.8625100">
        <ele>493.7</ele>
        <time>2021-12-21T11:02:03Z</time>
      </trkpt>
      <trkpt lat="43.2533080" lon="-4.8625050">
        <ele>493.7</ele>
        <time>2021-12-21T11:02:06Z</time>
      </trkpt>
      <trkpt lat="43.2533190" lon="-4.8625160">
        <ele>493.6</ele>
        <time>2021-12-21T11:02:08Z</time>
      </trkpt>
      <trkpt lat="43.2533570" lon="-4.8625390">
        <ele>493.5</ele>
        <time>2021-12-21T11:02:14Z</time>
      </trkpt>
      <trkpt lat="43.2533810" lon="-4.8625620">
        <ele>493.4</ele>
        <time>2021-12-21T11:02:19Z</time>
      </trkpt>
      <trkpt lat="43.2533780" lon="-4.8625980">
        <ele>493.3</ele>
        <time>2021-12-21T11:02:24Z</time>
      </trkpt>
      <trkpt lat="43.2533870" lon="-4.8626240">
        <ele>493.1</ele>
        <time>2021-12-21T11:02:26Z</time>
      </trkpt>
      <trkpt lat="43.2534750" lon="-4.8627040">
        <ele>492.4</ele>
        <time>2021-12-21T11:02:31Z</time>
      </trkpt>
      <trkpt lat="43.2534810" lon="-4.8627070">
        <ele>492.3</ele>
        <time>2021-12-21T11:02:37Z</time>
      </trkpt>
      <trkpt lat="43.2535140" lon="-4.8627240">
        <ele>492.1</ele>
        <time>2021-12-21T11:02:39Z</time>
      </trkpt>
      <trkpt lat="43.2535300" lon="-4.8627530">
        <ele>491.9</ele>
        <time>2021-12-21T11:02:44Z</time>
      </trkpt>
      <trkpt lat="43.2535460" lon="-4.8628120">
        <ele>491.7</ele>
        <time>2021-12-21T11:02:47Z</time>
      </trkpt>
      <trkpt lat="43.2535540" lon="-4.8628750">
        <ele>491.6</ele>
        <time>2021-12-21T11:02:50Z</time>
      </trkpt>
      <trkpt lat="43.2535630" lon="-4.8629020">
        <ele>491.6</ele>
        <time>2021-12-21T11:02:52Z</time>
      </trkpt>
      <trkpt lat="43.2536050" lon="-4.8629660">
        <ele>491.7</ele>
        <time>2021-12-21T11:02:55Z</time>
      </trkpt>
      <trkpt lat="43.2536380" lon="-4.8630220">
        <ele>491.9</ele>
        <time>2021-12-21T11:02:57Z</time>
      </trkpt>
      <trkpt lat="43.2536590" lon="-4.8630440">
        <ele>492.0</ele>
        <time>2021-12-21T11:03:00Z</time>
      </trkpt>
      <trkpt lat="43.2536680" lon="-4.8631020">
        <ele>492.2</ele>
        <time>2021-12-21T11:03:05Z</time>
      </trkpt>
      <trkpt lat="43.2536810" lon="-4.8631430">
        <ele>492.4</ele>
        <time>2021-12-21T11:03:10Z</time>
      </trkpt>
      <trkpt lat="43.2537140" lon="-4.8632070">
        <ele>492.8</ele>
        <time>2021-12-21T11:03:13Z</time>
      </trkpt>
      <trkpt lat="43.2537300" lon="-4.8632600">
        <ele>493.0</ele>
        <time>2021-12-21T11:03:18Z</time>
      </trkpt>
      <trkpt lat="43.2537510" lon="-4.8633160">
        <ele>493.3</ele>
        <time>2021-12-21T11:03:23Z</time>
      </trkpt>
      <trkpt lat="43.2537820" lon="-4.8633550">
        <ele>493.5</ele>
        <time>2021-12-21T11:03:28Z</time>
      </trkpt>
      <trkpt lat="43.2538040" lon="-4.8633930">
        <ele>494.3</ele>
        <time>2021-12-21T11:03:33Z</time>
      </trkpt>
      <trkpt lat="43.2538210" lon="-4.8634460">
        <ele>495.6</ele>
        <time>2021-12-21T11:03:36Z</time>
      </trkpt>
      <trkpt lat="43.2538300" lon="-4.8635020">
        <ele>496.9</ele>
        <time>2021-12-21T11:03:39Z</time>
      </trkpt>
      <trkpt lat="43.2538370" lon="-4.8635640">
        <ele>498.3</ele>
        <time>2021-12-21T11:03:44Z</time>
      </trkpt>
      <trkpt lat="43.2538420" lon="-4.8636510">
        <ele>500.2</ele>
        <time>2021-12-21T11:03:46Z</time>
      </trkpt>
      <trkpt lat="43.2538680" lon="-4.8637190">
        <ele>501.9</ele>
        <time>2021-12-21T11:03:49Z</time>
      </trkpt>
      <trkpt lat="43.2538850" lon="-4.8637490">
        <ele>502.8</ele>
        <time>2021-12-21T11:03:51Z</time>
      </trkpt>
      <trkpt lat="43.2538830" lon="-4.8638260">
        <ele>504.5</ele>
        <time>2021-12-21T11:03:57Z</time>
      </trkpt>
      <trkpt lat="43.2539110" lon="-4.8639040">
        <ele>506.3</ele>
        <time>2021-12-21T11:04:02Z</time>
      </trkpt>
      <trkpt lat="43.2539120" lon="-4.8639330">
        <ele>506.9</ele>
        <time>2021-12-21T11:04:07Z</time>
      </trkpt>
      <trkpt lat="43.2539010" lon="-4.8639720">
        <ele>507.8</ele>
        <time>2021-12-21T11:04:12Z</time>
      </trkpt>
      <trkpt lat="43.2538830" lon="-4.8640350">
        <ele>509.3</ele>
        <time>2021-12-21T11:04:17Z</time>
      </trkpt>
      <trkpt lat="43.2538660" lon="-4.8640790">
        <ele>510.3</ele>
        <time>2021-12-21T11:04:20Z</time>
      </trkpt>
      <trkpt lat="43.2538250" lon="-4.8641510">
        <ele>512.3</ele>
        <time>2021-12-21T11:04:22Z</time>
      </trkpt>
      <trkpt lat="43.2537840" lon="-4.8642510">
        <ele>514.7</ele>
        <time>2021-12-21T11:04:28Z</time>
      </trkpt>
      <trkpt lat="43.2537850" lon="-4.8642520">
        <ele>514.8</ele>
        <time>2021-12-21T11:04:33Z</time>
      </trkpt>
      <trkpt lat="43.2537590" lon="-4.8642970">
        <ele>516.0</ele>
        <time>2021-12-21T11:04:38Z</time>
      </trkpt>
      <trkpt lat="43.2537210" lon="-4.8643470">
        <ele>517.6</ele>
        <time>2021-12-21T11:04:43Z</time>
      </trkpt>
      <trkpt lat="43.2536950" lon="-4.8644090">
        <ele>519.2</ele>
        <time>2021-12-21T11:04:48Z</time>
      </trkpt>
      <trkpt lat="43.2536780" lon="-4.8644520">
        <ele>520.2</ele>
        <time>2021-12-21T11:04:51Z</time>
      </trkpt>
      <trkpt lat="43.2536730" lon="-4.8644900">
        <ele>521.1</ele>
        <time>2021-12-21T11:04:56Z</time>
      </trkpt>
      <trkpt lat="43.2536720" lon="-4.8645290">
        <ele>521.9</ele>
        <time>2021-12-21T11:05:01Z</time>
      </trkpt>
      <trkpt lat="43.2536730" lon="-4.8645580">
        <ele>522.5</ele>
        <time>2021-12-21T11:05:06Z</time>
      </trkpt>
      <trkpt lat="43.2536910" lon="-4.8646200">
        <ele>523.9</ele>
        <time>2021-12-21T11:05:09Z</time>
      </trkpt>
      <trkpt lat="43.2537190" lon="-4.8647110">
        <ele>526.0</ele>
        <time>2021-12-21T11:05:11Z</time>
      </trkpt>
      <trkpt lat="43.2537760" lon="-4.8647490">
        <ele>527.8</ele>
        <time>2021-12-21T11:05:14Z</time>
      </trkpt>
      <trkpt lat="43.2538040" lon="-4.8647530">
        <ele>528.6</ele>
        <time>2021-12-21T11:05:16Z</time>
      </trkpt>
      <trkpt lat="43.2538390" lon="-4.8647870">
        <ele>529.9</ele>
        <time>2021-12-21T11:05:19Z</time>
      </trkpt>
      <trkpt lat="43.2538670" lon="-4.8648120">
        <ele>530.9</ele>
        <time>2021-12-21T11:05:24Z</time>
      </trkpt>
      <trkpt lat="43.2538950" lon="-4.8648670">
        <ele>532.3</ele>
        <time>2021-12-21T11:05:29Z</time>
      </trkpt>
      <trkpt lat="43.2538960" lon="-4.8648900">
        <ele>532.8</ele>
        <time>2021-12-21T11:05:32Z</time>
      </trkpt>
      <trkpt lat="43.2539390" lon="-4.8649270">
        <ele>534.3</ele>
        <time>2021-12-21T11:05:35Z</time>
      </trkpt>
      <trkpt lat="43.2539780" lon="-4.8649700">
        <ele>539.9</ele>
        <time>2021-12-21T11:05:37Z</time>
      </trkpt>
      <trkpt lat="43.2539900" lon="-4.8649990">
        <ele>542.6</ele>
        <time>2021-12-21T11:05:40Z</time>
      </trkpt>
      <trkpt lat="43.2540390" lon="-4.8651520">
        <ele>555.8</ele>
        <time>2021-12-21T11:05:47Z</time>
      </trkpt>
      <trkpt lat="43.2540910" lon="-4.8652280">
        <ele>564.0</ele>
        <time>2021-12-21T11:05:53Z</time>
      </trkpt>
      <trkpt lat="43.2542630" lon="-4.8652840">
        <ele>583.2</ele>
        <time>2021-12-21T11:05:55Z</time>
      </trkpt>
      <trkpt lat="43.2542660" lon="-4.8655330">
        <ele>602.9</ele>
        <time>2021-12-21T11:05:58Z</time>
      </trkpt>
      <trkpt lat="43.2543780" lon="-4.8654200">
        <ele>618.0</ele>
        <time>2021-12-21T11:06:06Z</time>
      </trkpt>
      <trkpt lat="43.2544580" lon="-4.8652360">
        <ele>618.9</ele>
        <time>2021-12-21T11:06:11Z</time>
      </trkpt>
      <trkpt lat="43.2544570" lon="-4.8651530">
        <ele>620.1</ele>
        <time>2021-12-21T11:06:16Z</time>
      </trkpt>
      <trkpt lat="43.2544450" lon="-4.8651470">
        <ele>620.4</ele>
        <time>2021-12-21T11:06:19Z</time>
      </trkpt>
      <trkpt lat="43.2544060" lon="-4.8652090">
        <ele>621.6</ele>
        <time>2021-12-21T11:06:21Z</time>
      </trkpt>
      <trkpt lat="43.2543670" lon="-4.8652430">
        <ele>622.5</ele>
        <time>2021-12-21T11:06:24Z</time>
      </trkpt>
      <trkpt lat="43.2542710" lon="-4.8654130">
        <ele>625.1</ele>
        <time>2021-12-21T11:06:26Z</time>
      </trkpt>
      <trkpt lat="43.2544760" lon="-4.8655030">
        <ele>627.7</ele>
        <time>2021-12-21T11:06:31Z</time>
      </trkpt>
      <trkpt lat="43.2544790" lon="-4.8655880">
        <ele>628.2</ele>
        <time>2021-12-21T11:06:34Z</time>
      </trkpt>
      <trkpt lat="43.2544420" lon="-4.8656430">
        <ele>628.7</ele>
        <time>2021-12-21T11:06:39Z</time>
      </trkpt>
      <trkpt lat="43.2544220" lon="-4.8657210">
        <ele>629.2</ele>
        <time>2021-12-21T11:06:44Z</time>
      </trkpt>
      <trkpt lat="43.2544030" lon="-4.8658040">
        <ele>629.7</ele>
        <time>2021-12-21T11:06:47Z</time>
      </trkpt>
      <trkpt lat="43.2543560" lon="-4.8658910">
        <ele>630.2</ele>
        <time>2021-12-21T11:06:52Z</time>
      </trkpt>
      <trkpt lat="43.2543340" lon="-4.8658730">
        <ele>630.4</ele>
        <time>2021-12-21T11:06:55Z</time>
      </trkpt>
      <trkpt lat="43.2543020" lon="-4.8657830">
        <ele>630.8</ele>
        <time>2021-12-21T11:06:57Z</time>
      </trkpt>
      <trkpt lat="43.2542750" lon="-4.8657490">
        <ele>631.0</ele>
        <time>2021-12-21T11:07:02Z</time>
      </trkpt>
      <trkpt lat="43.2542670" lon="-4.8657230">
        <ele>631.1</ele>
        <time>2021-12-21T11:07:07Z</time>
      </trkpt>
      <trkpt lat="43.2542490" lon="-4.8656790">
        <ele>631.4</ele>
        <time>2021-12-21T11:07:13Z</time>
      </trkpt>
      <trkpt lat="43.2542250" lon="-4.8656500">
        <ele>626.7</ele>
        <time>2021-12-21T11:07:15Z</time>
      </trkpt>
      <trkpt lat="43.2541730" lon="-4.8656240">
        <ele>618.6</ele>
        <time>2021-12-21T11:07:20Z</time>
      </trkpt>
      <trkpt lat="43.2541450" lon="-4.8656430">
        <ele>614.0</ele>
        <time>2021-12-21T11:07:23Z</time>
      </trkpt>
      <trkpt lat="43.2541220" lon="-4.8656580">
        <ele>610.2</ele>
        <time>2021-12-21T11:07:28Z</time>
      </trkpt>
      <trkpt lat="43.2540780" lon="-4.8657000">
        <ele>602.4</ele>
        <time>2021-12-21T11:07:33Z</time>
      </trkpt>
      <trkpt lat="43.2540380" lon="-4.8657450">
        <ele>596.3</ele>
        <time>2021-12-21T11:07:36Z</time>
      </trkpt>
      <trkpt lat="43.2539980" lon="-4.8658050">
        <ele>595.4</ele>
        <time>2021-12-21T11:07:38Z</time>
      </trkpt>
      <trkpt lat="43.2539850" lon="-4.8658580">
        <ele>594.7</ele>
        <time>2021-12-21T11:07:41Z</time>
      </trkpt>
      <trkpt lat="43.2539840" lon="-4.8659480">
        <ele>593.7</ele>
        <time>2021-12-21T11:07:44Z</time>
      </trkpt>
      <trkpt lat="43.2539700" lon="-4.8659890">
        <ele>593.2</ele>
        <time>2021-12-21T11:07:46Z</time>
      </trkpt>
      <trkpt lat="43.2539730" lon="-4.8660250">
        <ele>592.8</ele>
        <time>2021-12-21T11:07:49Z</time>
      </trkpt>
      <trkpt lat="43.2539430" lon="-4.8661120">
        <ele>591.7</ele>
        <time>2021-12-21T11:07:54Z</time>
      </trkpt>
      <trkpt lat="43.2539400" lon="-4.8661330">
        <ele>591.5</ele>
        <time>2021-12-21T11:07:56Z</time>
      </trkpt>
      <trkpt lat="43.2539350" lon="-4.8661990">
        <ele>590.7</ele>
        <time>2021-12-21T11:07:59Z</time>
      </trkpt>
      <trkpt lat="43.2539340" lon="-4.8662290">
        <ele>590.4</ele>
        <time>2021-12-21T11:08:02Z</time>
      </trkpt>
      <trkpt lat="43.2539340" lon="-4.8662940">
        <ele>589.7</ele>
        <time>2021-12-21T11:08:04Z</time>
      </trkpt>
      <trkpt lat="43.2539270" lon="-4.8663260">
        <ele>589.3</ele>
        <time>2021-12-21T11:08:07Z</time>
      </trkpt>
      <trkpt lat="43.2539220" lon="-4.8663770">
        <ele>588.7</ele>
        <time>2021-12-21T11:08:12Z</time>
      </trkpt>
      <trkpt lat="43.2539340" lon="-4.8664370">
        <ele>588.0</ele>
        <time>2021-12-21T11:08:14Z</time>
      </trkpt>
      <trkpt lat="43.2539330" lon="-4.8664910">
        <ele>587.4</ele>
        <time>2021-12-21T11:08:17Z</time>
      </trkpt>
      <trkpt lat="43.2539380" lon="-4.8665220">
        <ele>587.0</ele>
        <time>2021-12-21T11:08:20Z</time>
      </trkpt>
      <trkpt lat="43.2539450" lon="-4.8666020">
        <ele>586.1</ele>
        <time>2021-12-21T11:08:22Z</time>
      </trkpt>
      <trkpt lat="43.2539390" lon="-4.8666220">
        <ele>585.9</ele>
        <time>2021-12-21T11:09:09Z</time>
      </trkpt>
      <trkpt lat="43.2539190" lon="-4.8667060">
        <ele>584.9</ele>
        <time>2021-12-21T11:09:11Z</time>
      </trkpt>
      <trkpt lat="43.2539220" lon="-4.8667820">
        <ele>584.0</ele>
        <time>2021-12-21T11:09:14Z</time>
      </trkpt>
      <trkpt lat="43.2539260" lon="-4.8668220">
        <ele>583.6</ele>
        <time>2021-12-21T11:09:16Z</time>
      </trkpt>
      <trkpt lat="43.2539240" lon="-4.8668770">
        <ele>583.0</ele>
        <time>2021-12-21T11:09:21Z</time>
      </trkpt>
      <trkpt lat="43.2538850" lon="-4.8669090">
        <ele>582.3</ele>
        <time>2021-12-21T11:09:24Z</time>
      </trkpt>
      <trkpt lat="43.2538320" lon="-4.8669280">
        <ele>581.4</ele>
        <time>2021-12-21T11:09:29Z</time>
      </trkpt>
      <trkpt lat="43.2538320" lon="-4.8669150">
        <ele>581.3</ele>
        <time>2021-12-21T11:09:32Z</time>
      </trkpt>
      <trkpt lat="43.2537310" lon="-4.8668650">
        <ele>579.6</ele>
        <time>2021-12-21T11:09:34Z</time>
      </trkpt>
      <trkpt lat="43.2536920" lon="-4.8668620">
        <ele>579.0</ele>
        <time>2021-12-21T11:09:37Z</time>
      </trkpt>
      <trkpt lat="43.2536700" lon="-4.8668530">
        <ele>578.7</ele>
        <time>2021-12-21T11:09:42Z</time>
      </trkpt>
      <trkpt lat="43.2536390" lon="-4.8668270">
        <ele>578.1</ele>
        <time>2021-12-21T11:09:45Z</time>
      </trkpt>
      <trkpt lat="43.2536140" lon="-4.8668240">
        <ele>577.7</ele>
        <time>2021-12-21T11:09:50Z</time>
      </trkpt>
      <trkpt lat="43.2535450" lon="-4.8667720">
        <ele>576.5</ele>
        <time>2021-12-21T11:09:55Z</time>
      </trkpt>
      <trkpt lat="43.2535290" lon="-4.8667660">
        <ele>576.2</ele>
        <time>2021-12-21T11:10:00Z</time>
      </trkpt>
      <trkpt lat="43.2534900" lon="-4.8668340">
        <ele>575.3</ele>
        <time>2021-12-21T11:10:03Z</time>
      </trkpt>
      <trkpt lat="43.2534660" lon="-4.8668490">
        <ele>574.9</ele>
        <time>2021-12-21T11:10:05Z</time>
      </trkpt>
      <trkpt lat="43.2534520" lon="-4.8668480">
        <ele>574.6</ele>
        <time>2021-12-21T11:10:08Z</time>
      </trkpt>
      <trkpt lat="43.2533860" lon="-4.8668750">
        <ele>573.6</ele>
        <time>2021-12-21T11:10:10Z</time>
      </trkpt>
      <trkpt lat="43.2533610" lon="-4.8670490">
        <ele>571.6</ele>
        <time>2021-12-21T11:10:13Z</time>
      </trkpt>
      <trkpt lat="43.2533510" lon="-4.8671090">
        <ele>570.9</ele>
        <time>2021-12-21T11:10:18Z</time>
      </trkpt>
      <trkpt lat="43.2533330" lon="-4.8671910">
        <ele>569.9</ele>
        <time>2021-12-21T11:10:21Z</time>
      </trkpt>
      <trkpt lat="43.2533230" lon="-4.8672000">
        <ele>569.7</ele>
        <time>2021-12-21T11:10:23Z</time>
      </trkpt>
      <trkpt lat="43.2532960" lon="-4.8672560">
        <ele>569.0</ele>
        <time>2021-12-21T11:10:28Z</time>
      </trkpt>
      <trkpt lat="43.2532680" lon="-4.8673000">
        <ele>568.3</ele>
        <time>2021-12-21T11:10:34Z</time>
      </trkpt>
      <trkpt lat="43.2532590" lon="-4.8673160">
        <ele>568.1</ele>
        <time>2021-12-21T11:10:41Z</time>
      </trkpt>
      <trkpt lat="43.2532200" lon="-4.8674000">
        <ele>567.0</ele>
        <time>2021-12-21T11:10:46Z</time>
      </trkpt>
      <trkpt lat="43.2532010" lon="-4.8674310">
        <ele>566.5</ele>
        <time>2021-12-21T11:10:52Z</time>
      </trkpt>
      <trkpt lat="43.2531800" lon="-4.8674690">
        <ele>566.0</ele>
        <time>2021-12-21T11:11:02Z</time>
      </trkpt>
      <trkpt lat="43.2531710" lon="-4.8674930">
        <ele>565.7</ele>
        <time>2021-12-21T11:11:05Z</time>
      </trkpt>
      <trkpt lat="43.2531430" lon="-4.8675600">
        <ele>564.8</ele>
        <time>2021-12-21T11:11:10Z</time>
      </trkpt>
      <trkpt lat="43.2530970" lon="-4.8676090">
        <ele>563.9</ele>
        <time>2021-12-21T11:11:15Z</time>
      </trkpt>
      <trkpt lat="43.2530630" lon="-4.8676630">
        <ele>563.1</ele>
        <time>2021-12-21T11:11:18Z</time>
      </trkpt>
      <trkpt lat="43.2530440" lon="-4.8676900">
        <ele>562.7</ele>
        <time>2021-12-21T11:11:23Z</time>
      </trkpt>
      <trkpt lat="43.2530080" lon="-4.8677570">
        <ele>561.7</ele>
        <time>2021-12-21T11:11:28Z</time>
      </trkpt>
      <trkpt lat="43.2529700" lon="-4.8678350">
        <ele>560.7</ele>
        <time>2021-12-21T11:11:30Z</time>
      </trkpt>
      <trkpt lat="43.2529670" lon="-4.8678430">
        <ele>560.6</ele>
        <time>2021-12-21T11:11:33Z</time>
      </trkpt>
      <trkpt lat="43.2529330" lon="-4.8679170">
        <ele>559.6</ele>
        <time>2021-12-21T11:14:23Z</time>
      </trkpt>
      <trkpt lat="43.2529090" lon="-4.8679660">
        <ele>558.9</ele>
        <time>2021-12-21T11:14:31Z</time>
      </trkpt>
      <trkpt lat="43.2529000" lon="-4.8680100">
        <ele>558.4</ele>
        <time>2021-12-21T11:14:36Z</time>
      </trkpt>
      <trkpt lat="43.2528960" lon="-4.8680430">
        <ele>558.1</ele>
        <time>2021-12-21T11:14:38Z</time>
      </trkpt>
      <trkpt lat="43.2529050" lon="-4.8680900">
        <ele>557.5</ele>
        <time>2021-12-21T11:14:41Z</time>
      </trkpt>
      <trkpt lat="43.2529150" lon="-4.8681120">
        <ele>557.2</ele>
        <time>2021-12-21T11:14:46Z</time>
      </trkpt>
      <trkpt lat="43.2529380" lon="-4.8681500">
        <ele>556.7</ele>
        <time>2021-12-21T11:14:49Z</time>
      </trkpt>
      <trkpt lat="43.2529430" lon="-4.8682100">
        <ele>556.0</ele>
        <time>2021-12-21T11:14:54Z</time>
      </trkpt>
      <trkpt lat="43.2529580" lon="-4.8682700">
        <ele>555.3</ele>
        <time>2021-12-21T11:14:59Z</time>
      </trkpt>
      <trkpt lat="43.2529560" lon="-4.8683130">
        <ele>554.8</ele>
        <time>2021-12-21T11:15:04Z</time>
      </trkpt>
      <trkpt lat="43.2529300" lon="-4.8683660">
        <ele>554.1</ele>
        <time>2021-12-21T11:15:10Z</time>
      </trkpt>
      <trkpt lat="43.2529090" lon="-4.8684210">
        <ele>553.4</ele>
        <time>2021-12-21T11:15:12Z</time>
      </trkpt>
      <trkpt lat="43.2529060" lon="-4.8684840">
        <ele>552.7</ele>
        <time>2021-12-21T11:15:14Z</time>
      </trkpt>
      <trkpt lat="43.2529350" lon="-4.8685610">
        <ele>551.7</ele>
        <time>2021-12-21T11:15:20Z</time>
      </trkpt>
      <trkpt lat="43.2529460" lon="-4.8685640">
        <ele>551.5</ele>
        <time>2021-12-21T11:15:25Z</time>
      </trkpt>
      <trkpt lat="43.2529540" lon="-4.8686050">
        <ele>551.0</ele>
        <time>2021-12-21T11:15:27Z</time>
      </trkpt>
      <trkpt lat="43.2529210" lon="-4.8687640">
        <ele>549.2</ele>
        <time>2021-12-21T11:15:33Z</time>
      </trkpt>
      <trkpt lat="43.2529220" lon="-4.8688050">
        <ele>548.7</ele>
        <time>2021-12-21T11:15:38Z</time>
      </trkpt>
      <trkpt lat="43.2529060" lon="-4.8688720">
        <ele>547.9</ele>
        <time>2021-12-21T11:15:43Z</time>
      </trkpt>
      <trkpt lat="43.2529000" lon="-4.8688910">
        <ele>547.7</ele>
        <time>2021-12-21T11:15:46Z</time>
      </trkpt>
      <trkpt lat="43.2528690" lon="-4.8689280">
        <ele>547.0</ele>
        <time>2021-12-21T11:15:51Z</time>
      </trkpt>
      <trkpt lat="43.2528290" lon="-4.8689300">
        <ele>546.4</ele>
        <time>2021-12-21T11:15:56Z</time>
      </trkpt>
      <trkpt lat="43.2527780" lon="-4.8689710">
        <ele>545.5</ele>
        <time>2021-12-21T11:15:58Z</time>
      </trkpt>
      <trkpt lat="43.2527250" lon="-4.8690230">
        <ele>544.5</ele>
        <time>2021-12-21T11:16:01Z</time>
      </trkpt>
      <trkpt lat="43.2526810" lon="-4.8690650">
        <ele>543.7</ele>
        <time>2021-12-21T11:16:06Z</time>
      </trkpt>
      <trkpt lat="43.2526450" lon="-4.8690810">
        <ele>543.1</ele>
        <time>2021-12-21T11:16:11Z</time>
      </trkpt>
      <trkpt lat="43.2526260" lon="-4.8690940">
        <ele>542.8</ele>
        <time>2021-12-21T11:16:19Z</time>
      </trkpt>
      <trkpt lat="43.2525710" lon="-4.8691010">
        <ele>541.9</ele>
        <time>2021-12-21T11:16:27Z</time>
      </trkpt>
      <trkpt lat="43.2525280" lon="-4.8691070">
        <ele>541.2</ele>
        <time>2021-12-21T11:16:29Z</time>
      </trkpt>
      <trkpt lat="43.2524810" lon="-4.8691260">
        <ele>540.5</ele>
        <time>2021-12-21T11:16:32Z</time>
      </trkpt>
      <trkpt lat="43.2524650" lon="-4.8692030">
        <ele>539.6</ele>
        <time>2021-12-21T11:16:35Z</time>
      </trkpt>
      <trkpt lat="43.2524570" lon="-4.8692860">
        <ele>538.6</ele>
        <time>2021-12-21T11:16:37Z</time>
      </trkpt>
      <trkpt lat="43.2524570" lon="-4.8693260">
        <ele>538.2</ele>
        <time>2021-12-21T11:16:40Z</time>
      </trkpt>
      <trkpt lat="43.2524530" lon="-4.8693930">
        <ele>537.4</ele>
        <time>2021-12-21T11:16:47Z</time>
      </trkpt>
      <trkpt lat="43.2524240" lon="-4.8694510">
        <ele>536.6</ele>
        <time>2021-12-21T11:16:53Z</time>
      </trkpt>
      <trkpt lat="43.2523440" lon="-4.8695660">
        <ele>537.5</ele>
        <time>2021-12-21T11:16:55Z</time>
      </trkpt>
      <trkpt lat="43.2522830" lon="-4.8696480">
        <ele>520.8</ele>
        <time>2021-12-21T11:16:58Z</time>
      </trkpt>
      <trkpt lat="43.2522580" lon="-4.8696980">
        <ele>521.9</ele>
        <time>2021-12-21T11:17:00Z</time>
      </trkpt>
      <trkpt lat="43.2522460" lon="-4.8697730">
        <ele>518.5</ele>
        <time>2021-12-21T11:17:03Z</time>
      </trkpt>
      <trkpt lat="43.2522520" lon="-4.8698280">
        <ele>515.1</ele>
        <time>2021-12-21T11:17:08Z</time>
      </trkpt>
      <trkpt lat="43.2522460" lon="-4.8699290">
        <ele>515.7</ele>
        <time>2021-12-21T11:17:21Z</time>
      </trkpt>
      <trkpt lat="43.2522930" lon="-4.8699600">
        <ele>512.3</ele>
        <time>2021-12-21T11:17:24Z</time>
      </trkpt>
      <trkpt lat="43.2524530" lon="-4.8700550">
        <ele>526.5</ele>
        <time>2021-12-21T11:17:29Z</time>
      </trkpt>
      <trkpt lat="43.2525010" lon="-4.8700370">
        <ele>539.2</ele>
        <time>2021-12-21T11:17:34Z</time>
      </trkpt>
      <trkpt lat="43.2525390" lon="-4.8700580">
        <ele>535.8</ele>
        <time>2021-12-21T11:17:39Z</time>
      </trkpt>
      <trkpt lat="43.2525380" lon="-4.8700740">
        <ele>532.4</ele>
        <time>2021-12-21T11:17:47Z</time>
      </trkpt>
      <trkpt lat="43.2525520" lon="-4.8700960">
        <ele>529.0</ele>
        <time>2021-12-21T11:17:52Z</time>
      </trkpt>
      <trkpt lat="43.2525070" lon="-4.8701660">
        <ele>527.9</ele>
        <time>2021-12-21T11:17:54Z</time>
      </trkpt>
      <trkpt lat="43.2524490" lon="-4.8703100">
        <ele>526.1</ele>
        <time>2021-12-21T11:18:00Z</time>
      </trkpt>
      <trkpt lat="43.2524440" lon="-4.8703360">
        <ele>525.8</ele>
        <time>2021-12-21T11:18:05Z</time>
      </trkpt>
      <trkpt lat="43.2524370" lon="-4.8703510">
        <ele>525.6</ele>
        <time>2021-12-21T11:18:10Z</time>
      </trkpt>
      <trkpt lat="43.2523890" lon="-4.8703340">
        <ele>524.8</ele>
        <time>2021-12-21T11:18:15Z</time>
      </trkpt>
      <trkpt lat="43.2523650" lon="-4.8702540">
        <ele>523.8</ele>
        <time>2021-12-21T11:18:20Z</time>
      </trkpt>
      <trkpt lat="43.2523520" lon="-4.8701630">
        <ele>522.8</ele>
        <time>2021-12-21T11:18:23Z</time>
      </trkpt>
      <trkpt lat="43.2523380" lon="-4.8701240">
        <ele>522.3</ele>
        <time>2021-12-21T11:18:28Z</time>
      </trkpt>
      <trkpt lat="43.2523270" lon="-4.8700860">
        <ele>521.9</ele>
        <time>2021-12-21T11:18:30Z</time>
      </trkpt>
      <trkpt lat="43.2523020" lon="-4.8700680">
        <ele>521.4</ele>
        <time>2021-12-21T11:18:36Z</time>
      </trkpt>
      <trkpt lat="43.2522710" lon="-4.8700490">
        <ele>520.9</ele>
        <time>2021-12-21T11:18:41Z</time>
      </trkpt>
      <trkpt lat="43.2522310" lon="-4.8699930">
        <ele>520.0</ele>
        <time>2021-12-21T11:18:46Z</time>
      </trkpt>
      <trkpt lat="43.2522030" lon="-4.8699830">
        <ele>519.6</ele>
        <time>2021-12-21T11:18:56Z</time>
      </trkpt>
      <trkpt lat="43.2521510" lon="-4.8699800">
        <ele>518.8</ele>
        <time>2021-12-21T11:19:01Z</time>
      </trkpt>
      <trkpt lat="43.2521100" lon="-4.8700190">
        <ele>518.0</ele>
        <time>2021-12-21T11:19:07Z</time>
      </trkpt>
      <trkpt lat="43.2520930" lon="-4.8700390">
        <ele>517.7</ele>
        <time>2021-12-21T11:19:12Z</time>
      </trkpt>
      <trkpt lat="43.2520420" lon="-4.8700830">
        <ele>516.7</ele>
        <time>2021-12-21T11:19:17Z</time>
      </trkpt>
      <trkpt lat="43.2520090" lon="-4.8700980">
        <ele>516.2</ele>
        <time>2021-12-21T11:19:22Z</time>
      </trkpt>
      <trkpt lat="43.2519820" lon="-4.8701160">
        <ele>515.8</ele>
        <time>2021-12-21T11:19:27Z</time>
      </trkpt>
      <trkpt lat="43.2519350" lon="-4.8701550">
        <ele>514.9</ele>
        <time>2021-12-21T11:19:30Z</time>
      </trkpt>
      <trkpt lat="43.2518810" lon="-4.8701850">
        <ele>514.0</ele>
        <time>2021-12-21T11:19:35Z</time>
      </trkpt>
      <trkpt lat="43.2518220" lon="-4.8702220">
        <ele>513.0</ele>
        <time>2021-12-21T11:19:40Z</time>
      </trkpt>
      <trkpt lat="43.2518000" lon="-4.8702330">
        <ele>512.7</ele>
        <time>2021-12-21T11:19:45Z</time>
      </trkpt>
      <trkpt lat="43.2517490" lon="-4.8702410">
        <ele>511.9</ele>
        <time>2021-12-21T11:19:50Z</time>
      </trkpt>
      <trkpt lat="43.2517170" lon="-4.8702480">
        <ele>511.4</ele>
        <time>2021-12-21T11:19:56Z</time>
      </trkpt>
      <trkpt lat="43.2516670" lon="-4.8702810">
        <ele>510.5</ele>
        <time>2021-12-21T11:20:01Z</time>
      </trkpt>
      <trkpt lat="43.2516260" lon="-4.8703200">
        <ele>509.7</ele>
        <time>2021-12-21T11:20:11Z</time>
      </trkpt>
      <trkpt lat="43.2515990" lon="-4.8703550">
        <ele>509.2</ele>
        <time>2021-12-21T11:20:14Z</time>
      </trkpt>
      <trkpt lat="43.2515870" lon="-4.8703800">
        <ele>508.8</ele>
        <time>2021-12-21T11:20:19Z</time>
      </trkpt>
      <trkpt lat="43.2515660" lon="-4.8704280">
        <ele>508.2</ele>
        <time>2021-12-21T11:20:24Z</time>
      </trkpt>
      <trkpt lat="43.2515470" lon="-4.8704770">
        <ele>507.6</ele>
        <time>2021-12-21T11:20:29Z</time>
      </trkpt>
      <trkpt lat="43.2515360" lon="-4.8705130">
        <ele>507.2</ele>
        <time>2021-12-21T11:20:32Z</time>
      </trkpt>
      <trkpt lat="43.2515220" lon="-4.8705630">
        <ele>506.6</ele>
        <time>2021-12-21T11:20:37Z</time>
      </trkpt>
      <trkpt lat="43.2514910" lon="-4.8706400">
        <ele>505.6</ele>
        <time>2021-12-21T11:20:47Z</time>
      </trkpt>
      <trkpt lat="43.2514790" lon="-4.8706810">
        <ele>505.1</ele>
        <time>2021-12-21T11:20:52Z</time>
      </trkpt>
      <trkpt lat="43.2514640" lon="-4.8707240">
        <ele>504.5</ele>
        <time>2021-12-21T11:20:55Z</time>
      </trkpt>
      <trkpt lat="43.2514420" lon="-4.8707690">
        <ele>503.9</ele>
        <time>2021-12-21T11:20:57Z</time>
      </trkpt>
      <trkpt lat="43.2514280" lon="-4.8707870">
        <ele>503.6</ele>
        <time>2021-12-21T11:21:03Z</time>
      </trkpt>
      <trkpt lat="43.2513970" lon="-4.8708170">
        <ele>503.1</ele>
        <time>2021-12-21T11:21:08Z</time>
      </trkpt>
      <trkpt lat="43.2513600" lon="-4.8708890">
        <ele>502.1</ele>
        <time>2021-12-21T11:21:13Z</time>
      </trkpt>
      <trkpt lat="43.2513430" lon="-4.8709180">
        <ele>501.6</ele>
        <time>2021-12-21T11:21:18Z</time>
      </trkpt>
      <trkpt lat="43.2513280" lon="-4.8709650">
        <ele>501.1</ele>
        <time>2021-12-21T11:21:21Z</time>
      </trkpt>
      <trkpt lat="43.2513070" lon="-4.8710020">
        <ele>500.5</ele>
        <time>2021-12-21T11:21:24Z</time>
      </trkpt>
      <trkpt lat="43.2513210" lon="-4.8710100">
        <ele>500.3</ele>
        <time>2021-12-21T11:21:26Z</time>
      </trkpt>
      <trkpt lat="43.2512650" lon="-4.8712160">
        <ele>497.9</ele>
        <time>2021-12-21T11:21:34Z</time>
      </trkpt>
      <trkpt lat="43.2512690" lon="-4.8712330">
        <ele>497.7</ele>
        <time>2021-12-21T11:21:36Z</time>
      </trkpt>
      <trkpt lat="43.2512660" lon="-4.8712740">
        <ele>497.2</ele>
        <time>2021-12-21T11:21:39Z</time>
      </trkpt>
      <trkpt lat="43.2512460" lon="-4.8712780">
        <ele>496.9</ele>
        <time>2021-12-21T11:21:41Z</time>
      </trkpt>
      <trkpt lat="43.2511950" lon="-4.8713210">
        <ele>496.0</ele>
        <time>2021-12-21T11:21:49Z</time>
      </trkpt>
      <trkpt lat="43.2511810" lon="-4.8713640">
        <ele>495.4</ele>
        <time>2021-12-21T11:21:54Z</time>
      </trkpt>
      <trkpt lat="43.2511730" lon="-4.8714510">
        <ele>494.5</ele>
        <time>2021-12-21T11:21:57Z</time>
      </trkpt>
      <trkpt lat="43.2511660" lon="-4.8715030">
        <ele>493.9</ele>
        <time>2021-12-21T11:22:02Z</time>
      </trkpt>
      <trkpt lat="43.2511600" lon="-4.8715320">
        <ele>493.5</ele>
        <time>2021-12-21T11:22:07Z</time>
      </trkpt>
      <trkpt lat="43.2511560" lon="-4.8715620">
        <ele>493.2</ele>
        <time>2021-12-21T11:22:12Z</time>
      </trkpt>
      <trkpt lat="43.2511410" lon="-4.8716360">
        <ele>492.3</ele>
        <time>2021-12-21T11:22:15Z</time>
      </trkpt>
      <trkpt lat="43.2511330" lon="-4.8716690">
        <ele>491.9</ele>
        <time>2021-12-21T11:24:11Z</time>
      </trkpt>
      <trkpt lat="43.2511230" lon="-4.8717320">
        <ele>491.2</ele>
        <time>2021-12-21T11:24:16Z</time>
      </trkpt>
      <trkpt lat="43.2511130" lon="-4.8717910">
        <ele>490.5</ele>
        <time>2021-12-21T11:24:18Z</time>
      </trkpt>
      <trkpt lat="43.2510960" lon="-4.8718550">
        <ele>489.8</ele>
        <time>2021-12-21T11:24:24Z</time>
      </trkpt>
      <trkpt lat="43.2510700" lon="-4.8718980">
        <ele>489.1</ele>
        <time>2021-12-21T11:24:29Z</time>
      </trkpt>
      <trkpt lat="43.2510720" lon="-4.8719410">
        <ele>488.7</ele>
        <time>2021-12-21T11:24:34Z</time>
      </trkpt>
      <trkpt lat="43.2511010" lon="-4.8719950">
        <ele>487.9</ele>
        <time>2021-12-21T11:24:36Z</time>
      </trkpt>
      <trkpt lat="43.2511150" lon="-4.8720140">
        <ele>487.6</ele>
        <time>2021-12-21T11:24:39Z</time>
      </trkpt>
      <trkpt lat="43.2511370" lon="-4.8720300">
        <ele>487.2</ele>
        <time>2021-12-21T11:24:42Z</time>
      </trkpt>
      <trkpt lat="43.2511750" lon="-4.8720900">
        <ele>486.3</ele>
        <time>2021-12-21T11:24:44Z</time>
      </trkpt>
      <trkpt lat="43.2511870" lon="-4.8721280">
        <ele>485.9</ele>
        <time>2021-12-21T11:24:47Z</time>
      </trkpt>
      <trkpt lat="43.2512090" lon="-4.8721520">
        <ele>485.4</ele>
        <time>2021-12-21T11:24:49Z</time>
      </trkpt>
      <trkpt lat="43.2512420" lon="-4.8722260">
        <ele>484.5</ele>
        <time>2021-12-21T11:24:52Z</time>
      </trkpt>
      <trkpt lat="43.2512650" lon="-4.8722650">
        <ele>483.9</ele>
        <time>2021-12-21T11:24:55Z</time>
      </trkpt>
      <trkpt lat="43.2513010" lon="-4.8723510">
        <ele>482.8</ele>
        <time>2021-12-21T11:24:57Z</time>
      </trkpt>
      <trkpt lat="43.2513200" lon="-4.8723960">
        <ele>482.2</ele>
        <time>2021-12-21T11:25:02Z</time>
      </trkpt>
      <trkpt lat="43.2513260" lon="-4.8724320">
        <ele>481.8</ele>
        <time>2021-12-21T11:25:07Z</time>
      </trkpt>
      <trkpt lat="43.2513590" lon="-4.8725640">
        <ele>480.2</ele>
        <time>2021-12-21T11:25:13Z</time>
      </trkpt>
      <trkpt lat="43.2513590" lon="-4.8726020">
        <ele>479.8</ele>
        <time>2021-12-21T11:25:15Z</time>
      </trkpt>
      <trkpt lat="43.2513720" lon="-4.8726770">
        <ele>478.9</ele>
        <time>2021-12-21T11:25:18Z</time>
      </trkpt>
      <trkpt lat="43.2514000" lon="-4.8727430">
        <ele>478.1</ele>
        <time>2021-12-21T11:25:23Z</time>
      </trkpt>
      <trkpt lat="43.2513930" lon="-4.8727800">
        <ele>477.7</ele>
        <time>2021-12-21T11:25:26Z</time>
      </trkpt>
      <trkpt lat="43.2514140" lon="-4.8728210">
        <ele>477.1</ele>
        <time>2021-12-21T11:25:28Z</time>
      </trkpt>
      <trkpt lat="43.2514730" lon="-4.8728970">
        <ele>475.9</ele>
        <time>2021-12-21T11:25:33Z</time>
      </trkpt>
      <trkpt lat="43.2514830" lon="-4.8729180">
        <ele>475.6</ele>
        <time>2021-12-21T11:25:38Z</time>
      </trkpt>
      <trkpt lat="43.2514940" lon="-4.8729330">
        <ele>475.3</ele>
        <time>2021-12-21T11:25:44Z</time>
      </trkpt>
      <trkpt lat="43.2516290" lon="-4.8732490">
        <ele>479.8</ele>
        <time>2021-12-21T11:25:46Z</time>
      </trkpt>
      <trkpt lat="43.2515860" lon="-4.8733030">
        <ele>479.6</ele>
        <time>2021-12-21T11:25:49Z</time>
      </trkpt>
      <trkpt lat="43.2515350" lon="-4.8732840">
        <ele>479.4</ele>
        <time>2021-12-21T11:25:54Z</time>
      </trkpt>
      <trkpt lat="43.2515170" lon="-4.8732840">
        <ele>479.4</ele>
        <time>2021-12-21T11:25:59Z</time>
      </trkpt>
      <trkpt lat="43.2514860" lon="-4.8732700">
        <ele>479.3</ele>
        <time>2021-12-21T11:26:02Z</time>
      </trkpt>
      <trkpt lat="43.2514240" lon="-4.8732290">
        <ele>479.2</ele>
        <time>2021-12-21T11:26:04Z</time>
      </trkpt>
      <trkpt lat="43.2514090" lon="-4.8732000">
        <ele>479.2</ele>
        <time>2021-12-21T11:26:07Z</time>
      </trkpt>
      <trkpt lat="43.2513750" lon="-4.8731670">
        <ele>479.2</ele>
        <time>2021-12-21T11:26:09Z</time>
      </trkpt>
      <trkpt lat="43.2513420" lon="-4.8731190">
        <ele>479.4</ele>
        <time>2021-12-21T11:26:15Z</time>
      </trkpt>
      <trkpt lat="43.2512870" lon="-4.8731510">
        <ele>479.6</ele>
        <time>2021-12-21T11:26:17Z</time>
      </trkpt>
      <trkpt lat="43.2512170" lon="-4.8731910">
        <ele>479.9</ele>
        <time>2021-12-21T11:26:22Z</time>
      </trkpt>
      <trkpt lat="43.2512020" lon="-4.8732110">
        <ele>480.0</ele>
        <time>2021-12-21T11:26:25Z</time>
      </trkpt>
      <trkpt lat="43.2511840" lon="-4.8732080">
        <ele>480.0</ele>
        <time>2021-12-21T11:26:27Z</time>
      </trkpt>
      <trkpt lat="43.2511350" lon="-4.8731690">
        <ele>480.3</ele>
        <time>2021-12-21T11:26:30Z</time>
      </trkpt>
      <trkpt lat="43.2510700" lon="-4.8731400">
        <ele>480.7</ele>
        <time>2021-12-21T11:26:35Z</time>
      </trkpt>
      <trkpt lat="43.2510530" lon="-4.8731340">
        <ele>480.8</ele>
        <time>2021-12-21T11:26:38Z</time>
      </trkpt>
      <trkpt lat="43.2510060" lon="-4.8731030">
        <ele>481.0</ele>
        <time>2021-12-21T11:26:40Z</time>
      </trkpt>
      <trkpt lat="43.2509700" lon="-4.8730780">
        <ele>481.1</ele>
        <time>2021-12-21T11:26:43Z</time>
      </trkpt>
      <trkpt lat="43.2509290" lon="-4.8730700">
        <ele>481.2</ele>
        <time>2021-12-21T11:26:46Z</time>
      </trkpt>
      <trkpt lat="43.2509140" lon="-4.8730840">
        <ele>481.3</ele>
        <time>2021-12-21T11:26:48Z</time>
      </trkpt>
      <trkpt lat="43.2508960" lon="-4.8731200">
        <ele>481.3</ele>
        <time>2021-12-21T11:26:53Z</time>
      </trkpt>
      <trkpt lat="43.2509000" lon="-4.8731870">
        <ele>481.3</ele>
        <time>2021-12-21T11:26:58Z</time>
      </trkpt>
      <trkpt lat="43.2508960" lon="-4.8732250">
        <ele>481.3</ele>
        <time>2021-12-21T11:27:03Z</time>
      </trkpt>
      <trkpt lat="43.2508920" lon="-4.8732630">
        <ele>481.3</ele>
        <time>2021-12-21T11:27:09Z</time>
      </trkpt>
      <trkpt lat="43.2508900" lon="-4.8733430">
        <ele>481.1</ele>
        <time>2021-12-21T11:27:14Z</time>
      </trkpt>
      <trkpt lat="43.2509010" lon="-4.8733670">
        <ele>481.0</ele>
        <time>2021-12-21T11:27:19Z</time>
      </trkpt>
      <trkpt lat="43.2508910" lon="-4.8734110">
        <ele>480.9</ele>
        <time>2021-12-21T11:27:27Z</time>
      </trkpt>
      <trkpt lat="43.2509240" lon="-4.8735800">
        <ele>480.2</ele>
        <time>2021-12-21T11:27:32Z</time>
      </trkpt>
      <trkpt lat="43.2509410" lon="-4.8736200">
        <ele>480.0</ele>
        <time>2021-12-21T11:27:37Z</time>
      </trkpt>
      <trkpt lat="43.2509660" lon="-4.8737220">
        <ele>479.6</ele>
        <time>2021-12-21T11:27:42Z</time>
      </trkpt>
      <trkpt lat="43.2509790" lon="-4.8738230">
        <ele>479.1</ele>
        <time>2021-12-21T11:27:47Z</time>
      </trkpt>
      <trkpt lat="43.2509830" lon="-4.8738290">
        <ele>479.1</ele>
        <time>2021-12-21T11:27:52Z</time>
      </trkpt>
      <trkpt lat="43.2509700" lon="-4.8738310">
        <ele>479.0</ele>
        <time>2021-12-21T11:27:58Z</time>
      </trkpt>
      <trkpt lat="43.2509820" lon="-4.8739090">
        <ele>478.6</ele>
        <time>2021-12-21T11:28:00Z</time>
      </trkpt>
      <trkpt lat="43.2510330" lon="-4.8739940">
        <ele>478.0</ele>
        <time>2021-12-21T11:28:03Z</time>
      </trkpt>
      <trkpt lat="43.2510310" lon="-4.8741000">
        <ele>477.4</ele>
        <time>2021-12-21T11:28:05Z</time>
      </trkpt>
      <trkpt lat="43.2510450" lon="-4.8742030">
        <ele>476.8</ele>
        <time>2021-12-21T11:28:11Z</time>
      </trkpt>
      <trkpt lat="43.2510570" lon="-4.8742390">
        <ele>476.6</ele>
        <time>2021-12-21T11:28:16Z</time>
      </trkpt>
      <trkpt lat="43.2510580" lon="-4.8743180">
        <ele>476.1</ele>
        <time>2021-12-21T11:28:18Z</time>
      </trkpt>
      <trkpt lat="43.2510970" lon="-4.8742620">
        <ele>475.5</ele>
        <time>2021-12-21T11:28:23Z</time>
      </trkpt>
      <trkpt lat="43.2510560" lon="-4.8743730">
        <ele>474.7</ele>
        <time>2021-12-21T11:28:26Z</time>
      </trkpt>
      <trkpt lat="43.2510260" lon="-4.8743930">
        <ele>474.4</ele>
        <time>2021-12-21T11:28:29Z</time>
      </trkpt>
      <trkpt lat="43.2509800" lon="-4.8744010">
        <ele>474.0</ele>
        <time>2021-12-21T11:28:34Z</time>
      </trkpt>
      <trkpt lat="43.2509290" lon="-4.8743950">
        <ele>473.6</ele>
        <time>2021-12-21T11:28:36Z</time>
      </trkpt>
      <trkpt lat="43.2509100" lon="-4.8743980">
        <ele>473.4</ele>
        <time>2021-12-21T11:28:42Z</time>
      </trkpt>
      <trkpt lat="43.2508640" lon="-4.8744120">
        <ele>473.1</ele>
        <time>2021-12-21T11:28:47Z</time>
      </trkpt>
      <trkpt lat="43.2508160" lon="-4.8744250">
        <ele>472.7</ele>
        <time>2021-12-21T11:28:52Z</time>
      </trkpt>
      <trkpt lat="43.2508040" lon="-4.8744290">
        <ele>472.6</ele>
        <time>2021-12-21T11:28:59Z</time>
      </trkpt>
      <trkpt lat="43.2507670" lon="-4.8744340">
        <ele>472.4</ele>
        <time>2021-12-21T11:29:05Z</time>
      </trkpt>
      <trkpt lat="43.2507330" lon="-4.8744170">
        <ele>472.1</ele>
        <time>2021-12-21T11:29:07Z</time>
      </trkpt>
      <trkpt lat="43.2507050" lon="-4.8743940">
        <ele>471.9</ele>
        <time>2021-12-21T11:29:12Z</time>
      </trkpt>
      <trkpt lat="43.2506680" lon="-4.8743570">
        <ele>471.6</ele>
        <time>2021-12-21T11:29:18Z</time>
      </trkpt>
      <trkpt lat="43.2506230" lon="-4.8743140">
        <ele>471.1</ele>
        <time>2021-12-21T11:29:25Z</time>
      </trkpt>
      <trkpt lat="43.2506030" lon="-4.8742910">
        <ele>470.9</ele>
        <time>2021-12-21T11:29:29Z</time>
      </trkpt>
      <trkpt lat="43.2505580" lon="-4.8742480">
        <ele>470.5</ele>
        <time>2021-12-21T11:29:36Z</time>
      </trkpt>
      <trkpt lat="43.2505390" lon="-4.8742380">
        <ele>470.3</ele>
        <time>2021-12-21T11:29:38Z</time>
      </trkpt>
      <trkpt lat="43.2504890" lon="-4.8741990">
        <ele>469.9</ele>
        <time>2021-12-21T11:29:43Z</time>
      </trkpt>
      <trkpt lat="43.2504580" lon="-4.8741630">
        <ele>469.5</ele>
        <time>2021-12-21T11:29:46Z</time>
      </trkpt>
      <trkpt lat="43.2504520" lon="-4.8741430">
        <ele>469.4</ele>
        <time>2021-12-21T11:29:51Z</time>
      </trkpt>
      <trkpt lat="43.2503910" lon="-4.8741110">
        <ele>468.8</ele>
        <time>2021-12-21T11:29:56Z</time>
      </trkpt>
      <trkpt lat="43.2503520" lon="-4.8741280">
        <ele>468.4</ele>
        <time>2021-12-21T11:29:59Z</time>
      </trkpt>
      <trkpt lat="43.2502970" lon="-4.8741450">
        <ele>467.8</ele>
        <time>2021-12-21T11:30:01Z</time>
      </trkpt>
      <trkpt lat="43.2502590" lon="-4.8741580">
        <ele>467.4</ele>
        <time>2021-12-21T11:30:04Z</time>
      </trkpt>
      <trkpt lat="43.2502020" lon="-4.8741570">
        <ele>466.8</ele>
        <time>2021-12-21T11:30:07Z</time>
      </trkpt>
      <trkpt lat="43.2501550" lon="-4.8741560">
        <ele>466.3</ele>
        <time>2021-12-21T11:30:49Z</time>
      </trkpt>
      <trkpt lat="43.2501040" lon="-4.8741360">
        <ele>465.8</ele>
        <time>2021-12-21T11:30:50Z</time>
      </trkpt>
      <trkpt lat="43.2500770" lon="-4.8741350">
        <ele>465.5</ele>
        <time>2021-12-21T11:30:53Z</time>
      </trkpt>
      <trkpt lat="43.2500290" lon="-4.8741500">
        <ele>465.0</ele>
        <time>2021-12-21T11:30:56Z</time>
      </trkpt>
      <trkpt lat="43.2499940" lon="-4.8741630">
        <ele>464.6</ele>
        <time>2021-12-21T11:30:58Z</time>
      </trkpt>
      <trkpt lat="43.2499470" lon="-4.8741830">
        <ele>464.1</ele>
        <time>2021-12-21T11:31:06Z</time>
      </trkpt>
      <trkpt lat="43.2499100" lon="-4.8742160">
        <ele>463.6</ele>
        <time>2021-12-21T11:31:11Z</time>
      </trkpt>
      <trkpt lat="43.2499120" lon="-4.8742770">
        <ele>463.1</ele>
        <time>2021-12-21T11:31:16Z</time>
      </trkpt>
      <trkpt lat="43.2498990" lon="-4.8743080">
        <ele>462.8</ele>
        <time>2021-12-21T11:31:21Z</time>
      </trkpt>
      <trkpt lat="43.2498880" lon="-4.8743870">
        <ele>462.3</ele>
        <time>2021-12-21T11:31:26Z</time>
      </trkpt>
      <trkpt lat="43.2498920" lon="-4.8744290">
        <ele>462.0</ele>
        <time>2021-12-21T11:31:32Z</time>
      </trkpt>
      <trkpt lat="43.2498890" lon="-4.8744820">
        <ele>461.6</ele>
        <time>2021-12-21T11:31:37Z</time>
      </trkpt>
      <trkpt lat="43.2498650" lon="-4.8745470">
        <ele>461.1</ele>
        <time>2021-12-21T11:31:39Z</time>
      </trkpt>
      <trkpt lat="43.2498220" lon="-4.8745970">
        <ele>460.5</ele>
        <time>2021-12-21T11:31:45Z</time>
      </trkpt>
      <trkpt lat="43.2498040" lon="-4.8746260">
        <ele>460.2</ele>
        <time>2021-12-21T11:31:47Z</time>
      </trkpt>
      <trkpt lat="43.2497940" lon="-4.8746490">
        <ele>460.0</ele>
        <time>2021-12-21T11:31:50Z</time>
      </trkpt>
      <trkpt lat="43.2497670" lon="-4.8747200">
        <ele>459.4</ele>
        <time>2021-12-21T11:31:52Z</time>
      </trkpt>
      <trkpt lat="43.2497730" lon="-4.8747910">
        <ele>458.9</ele>
        <time>2021-12-21T11:31:57Z</time>
      </trkpt>
      <trkpt lat="43.2497600" lon="-4.8748550">
        <ele>458.4</ele>
        <time>2021-12-21T11:32:05Z</time>
      </trkpt>
      <trkpt lat="43.2497590" lon="-4.8748730">
        <ele>458.2</ele>
        <time>2021-12-21T11:32:10Z</time>
      </trkpt>
      <trkpt lat="43.2497530" lon="-4.8749300">
        <ele>457.8</ele>
        <time>2021-12-21T11:32:13Z</time>
      </trkpt>
      <trkpt lat="43.2497830" lon="-4.8750080">
        <ele>457.1</ele>
        <time>2021-12-21T11:32:18Z</time>
      </trkpt>
      <trkpt lat="43.2497950" lon="-4.8750590">
        <ele>456.7</ele>
        <time>2021-12-21T11:32:21Z</time>
      </trkpt>
      <trkpt lat="43.2497920" lon="-4.8751710">
        <ele>455.5</ele>
        <time>2021-12-21T11:32:26Z</time>
      </trkpt>
      <trkpt lat="43.2498280" lon="-4.8752160">
        <ele>454.8</ele>
        <time>2021-12-21T11:32:31Z</time>
      </trkpt>
      <trkpt lat="43.2498480" lon="-4.8752340">
        <ele>454.5</ele>
        <time>2021-12-21T11:32:33Z</time>
      </trkpt>
      <trkpt lat="43.2498490" lon="-4.8752390">
        <ele>454.5</ele>
        <time>2021-12-21T11:32:36Z</time>
      </trkpt>
      <trkpt lat="43.2498740" lon="-4.8753900">
        <ele>453.1</ele>
        <time>2021-12-21T11:32:41Z</time>
      </trkpt>
      <trkpt lat="43.2498960" lon="-4.8754160">
        <ele>452.8</ele>
        <time>2021-12-21T11:32:46Z</time>
      </trkpt>
      <trkpt lat="43.2498840" lon="-4.8754560">
        <ele>452.5</ele>
        <time>2021-12-21T11:32:52Z</time>
      </trkpt>
      <trkpt lat="43.2498750" lon="-4.8754760">
        <ele>452.3</ele>
        <time>2021-12-21T11:32:54Z</time>
      </trkpt>
      <trkpt lat="43.2498110" lon="-4.8754840">
        <ele>451.7</ele>
        <time>2021-12-21T11:32:59Z</time>
      </trkpt>
      <trkpt lat="43.2498070" lon="-4.8754440">
        <ele>451.4</ele>
        <time>2021-12-21T11:33:02Z</time>
      </trkpt>
      <trkpt lat="43.2497280" lon="-4.8754000">
        <ele>450.6</ele>
        <time>2021-12-21T11:33:04Z</time>
      </trkpt>
      <trkpt lat="43.2496830" lon="-4.8754780">
        <ele>449.9</ele>
        <time>2021-12-21T11:33:07Z</time>
      </trkpt>
      <trkpt lat="43.2498670" lon="-4.8756590">
        <ele>448.4</ele>
        <time>2021-12-21T11:33:12Z</time>
      </trkpt>
      <trkpt lat="43.2498680" lon="-4.8757420">
        <ele>448.2</ele>
        <time>2021-12-21T11:33:17Z</time>
      </trkpt>
      <trkpt lat="43.2498750" lon="-4.8757940">
        <ele>448.1</ele>
        <time>2021-12-21T11:33:20Z</time>
      </trkpt>
      <trkpt lat="43.2498820" lon="-4.8759350">
        <ele>447.8</ele>
        <time>2021-12-21T11:33:22Z</time>
      </trkpt>
      <trkpt lat="43.2498960" lon="-4.8760090">
        <ele>447.7</ele>
        <time>2021-12-21T11:33:25Z</time>
      </trkpt>
      <trkpt lat="43.2498910" lon="-4.8760470">
        <ele>447.6</ele>
        <time>2021-12-21T11:33:28Z</time>
      </trkpt>
      <trkpt lat="43.2498840" lon="-4.8761030">
        <ele>447.6</ele>
        <time>2021-12-21T11:33:30Z</time>
      </trkpt>
      <trkpt lat="43.2498740" lon="-4.8761580">
        <ele>447.5</ele>
        <time>2021-12-21T11:33:33Z</time>
      </trkpt>
      <trkpt lat="43.2498690" lon="-4.8762470">
        <ele>447.5</ele>
        <time>2021-12-21T11:33:35Z</time>
      </trkpt>
      <trkpt lat="43.2498560" lon="-4.8762650">
        <ele>447.5</ele>
        <time>2021-12-21T11:33:38Z</time>
      </trkpt>
      <trkpt lat="43.2498100" lon="-4.8762920">
        <ele>447.5</ele>
        <time>2021-12-21T11:33:41Z</time>
      </trkpt>
      <trkpt lat="43.2498430" lon="-4.8763790">
        <ele>447.5</ele>
        <time>2021-12-21T11:33:43Z</time>
      </trkpt>
      <trkpt lat="43.2498390" lon="-4.8764020">
        <ele>447.5</ele>
        <time>2021-12-21T11:33:48Z</time>
      </trkpt>
      <trkpt lat="43.2498620" lon="-4.8764560">
        <ele>447.5</ele>
        <time>2021-12-21T11:33:53Z</time>
      </trkpt>
      <trkpt lat="43.2498840" lon="-4.8764840">
        <ele>447.5</ele>
        <time>2021-12-21T11:33:59Z</time>
      </trkpt>
      <trkpt lat="43.2498950" lon="-4.8765480">
        <ele>447.4</ele>
        <time>2021-12-21T11:34:01Z</time>
      </trkpt>
      <trkpt lat="43.2499080" lon="-4.8765890">
        <ele>447.4</ele>
        <time>2021-12-21T11:34:04Z</time>
      </trkpt>
      <trkpt lat="43.2499060" lon="-4.8766120">
        <ele>447.4</ele>
        <time>2021-12-21T11:34:09Z</time>
      </trkpt>
      <trkpt lat="43.2499220" lon="-4.8766630">
        <ele>447.4</ele>
        <time>2021-12-21T11:34:14Z</time>
      </trkpt>
      <trkpt lat="43.2499310" lon="-4.8767290">
        <ele>447.3</ele>
        <time>2021-12-21T11:34:19Z</time>
      </trkpt>
      <trkpt lat="43.2499300" lon="-4.8768150">
        <ele>447.2</ele>
        <time>2021-12-21T11:34:24Z</time>
      </trkpt>
      <trkpt lat="43.2499150" lon="-4.8768310">
        <ele>447.2</ele>
        <time>2021-12-21T11:34:30Z</time>
      </trkpt>
      <trkpt lat="43.2499230" lon="-4.8768720">
        <ele>447.1</ele>
        <time>2021-12-21T11:34:32Z</time>
      </trkpt>
      <trkpt lat="43.2498650" lon="-4.8769410">
        <ele>446.9</ele>
        <time>2021-12-21T11:34:37Z</time>
      </trkpt>
      <trkpt lat="43.2498440" lon="-4.8769830">
        <ele>446.8</ele>
        <time>2021-12-21T11:34:42Z</time>
      </trkpt>
      <trkpt lat="43.2498220" lon="-4.8770190">
        <ele>446.7</ele>
        <time>2021-12-21T11:34:48Z</time>
      </trkpt>
      <trkpt lat="43.2497950" lon="-4.8770740">
        <ele>446.5</ele>
        <time>2021-12-21T11:34:50Z</time>
      </trkpt>
      <trkpt lat="43.2498010" lon="-4.8771090">
        <ele>446.4</ele>
        <time>2021-12-21T11:34:53Z</time>
      </trkpt>
      <trkpt lat="43.2498010" lon="-4.8772290">
        <ele>446.1</ele>
        <time>2021-12-21T11:34:58Z</time>
      </trkpt>
      <trkpt lat="43.2498040" lon="-4.8772520">
        <ele>446.0</ele>
        <time>2021-12-21T11:35:03Z</time>
      </trkpt>
      <trkpt lat="43.2497860" lon="-4.8773030">
        <ele>445.8</ele>
        <time>2021-12-21T11:35:08Z</time>
      </trkpt>
      <trkpt lat="43.2497960" lon="-4.8773990">
        <ele>445.5</ele>
        <time>2021-12-21T11:35:16Z</time>
      </trkpt>
      <trkpt lat="43.2497930" lon="-4.8774960">
        <ele>445.2</ele>
        <time>2021-12-21T11:35:19Z</time>
      </trkpt>
      <trkpt lat="43.2497990" lon="-4.8775610">
        <ele>445.0</ele>
        <time>2021-12-21T11:35:24Z</time>
      </trkpt>
      <trkpt lat="43.2498030" lon="-4.8775930">
        <ele>444.9</ele>
        <time>2021-12-21T11:35:29Z</time>
      </trkpt>
      <trkpt lat="43.2497950" lon="-4.8776310">
        <ele>444.8</ele>
        <time>2021-12-21T11:35:31Z</time>
      </trkpt>
      <trkpt lat="43.2498030" lon="-4.8776510">
        <ele>444.7</ele>
        <time>2021-12-21T11:35:37Z</time>
      </trkpt>
      <trkpt lat="43.2497840" lon="-4.8777320">
        <ele>444.4</ele>
        <time>2021-12-21T11:35:42Z</time>
      </trkpt>
      <trkpt lat="43.2497660" lon="-4.8777680">
        <ele>444.3</ele>
        <time>2021-12-21T11:35:47Z</time>
      </trkpt>
      <trkpt lat="43.2497490" lon="-4.8778520">
        <ele>444.1</ele>
        <time>2021-12-21T11:35:52Z</time>
      </trkpt>
      <trkpt lat="43.2497240" lon="-4.8778900">
        <ele>444.0</ele>
        <time>2021-12-21T11:35:57Z</time>
      </trkpt>
      <trkpt lat="43.2497150" lon="-4.8779200">
        <ele>443.9</ele>
        <time>2021-12-21T11:36:02Z</time>
      </trkpt>
      <trkpt lat="43.2497020" lon="-4.8779410">
        <ele>443.8</ele>
        <time>2021-12-21T11:36:05Z</time>
      </trkpt>
      <trkpt lat="43.2496800" lon="-4.8780160">
        <ele>443.6</ele>
        <time>2021-12-21T11:36:10Z</time>
      </trkpt>
      <trkpt lat="43.2496770" lon="-4.8780680">
        <ele>443.5</ele>
        <time>2021-12-21T11:36:13Z</time>
      </trkpt>
      <trkpt lat="43.2496600" lon="-4.8780970">
        <ele>443.4</ele>
        <time>2021-12-21T11:36:18Z</time>
      </trkpt>
      <trkpt lat="43.2496380" lon="-4.8781560">
        <ele>443.3</ele>
        <time>2021-12-21T11:36:20Z</time>
      </trkpt>
      <trkpt lat="43.2496100" lon="-4.8781850">
        <ele>443.2</ele>
        <time>2021-12-21T11:36:26Z</time>
      </trkpt>
      <trkpt lat="43.2495940" lon="-4.8781970">
        <ele>443.1</ele>
        <time>2021-12-21T11:36:31Z</time>
      </trkpt>
      <trkpt lat="43.2495670" lon="-4.8782490">
        <ele>442.9</ele>
        <time>2021-12-21T11:36:36Z</time>
      </trkpt>
      <trkpt lat="43.2495420" lon="-4.8782910">
        <ele>442.8</ele>
        <time>2021-12-21T11:36:38Z</time>
      </trkpt>
      <trkpt lat="43.2495410" lon="-4.8783420">
        <ele>442.6</ele>
        <time>2021-12-21T11:36:44Z</time>
      </trkpt>
      <trkpt lat="43.2495440" lon="-4.8783870">
        <ele>442.2</ele>
        <time>2021-12-21T11:36:49Z</time>
      </trkpt>
      <trkpt lat="43.2495190" lon="-4.8784430">
        <ele>441.8</ele>
        <time>2021-12-21T11:36:54Z</time>
      </trkpt>
      <trkpt lat="43.2494610" lon="-4.8785050">
        <ele>441.1</ele>
        <time>2021-12-21T11:36:57Z</time>
      </trkpt>
      <trkpt lat="43.2494410" lon="-4.8785210">
        <ele>440.9</ele>
        <time>2021-12-21T11:36:59Z</time>
      </trkpt>
      <trkpt lat="43.2494840" lon="-4.8785850">
        <ele>440.4</ele>
        <time>2021-12-21T11:37:02Z</time>
      </trkpt>
      <trkpt lat="43.2491820" lon="-4.8787040">
        <ele>437.5</ele>
        <time>2021-12-21T11:37:07Z</time>
      </trkpt>
      <trkpt lat="43.2493990" lon="-4.8787220">
        <ele>435.4</ele>
        <time>2021-12-21T11:37:12Z</time>
      </trkpt>
      <trkpt lat="43.2494030" lon="-4.8787640">
        <ele>435.1</ele>
        <time>2021-12-21T11:37:15Z</time>
      </trkpt>
      <trkpt lat="43.2493780" lon="-4.8788340">
        <ele>434.6</ele>
        <time>2021-12-21T11:37:20Z</time>
      </trkpt>
      <trkpt lat="43.2492840" lon="-4.8789350">
        <ele>433.4</ele>
        <time>2021-12-21T11:37:22Z</time>
      </trkpt>
      <trkpt lat="43.2493120" lon="-4.8789550">
        <ele>433.1</ele>
        <time>2021-12-21T11:37:25Z</time>
      </trkpt>
      <trkpt lat="43.2494000" lon="-4.8790380">
        <ele>432.0</ele>
        <time>2021-12-21T11:37:30Z</time>
      </trkpt>
      <trkpt lat="43.2494250" lon="-4.8790430">
        <ele>431.8</ele>
        <time>2021-12-21T11:37:33Z</time>
      </trkpt>
      <trkpt lat="43.2494380" lon="-4.8790840">
        <ele>431.4</ele>
        <time>2021-12-21T11:37:35Z</time>
      </trkpt>
      <trkpt lat="43.2493440" lon="-4.8791720">
        <ele>430.3</ele>
        <time>2021-12-21T11:37:38Z</time>
      </trkpt>
      <trkpt lat="43.2493190" lon="-4.8791930">
        <ele>431.5</ele>
        <time>2021-12-21T11:37:40Z</time>
      </trkpt>
      <trkpt lat="43.2493640" lon="-4.8793220">
        <ele>433.6</ele>
        <time>2021-12-21T11:37:43Z</time>
      </trkpt>
      <trkpt lat="43.2493320" lon="-4.8793580">
        <ele>434.4</ele>
        <time>2021-12-21T11:37:48Z</time>
      </trkpt>
      <trkpt lat="43.2493440" lon="-4.8794140">
        <ele>435.3</ele>
        <time>2021-12-21T11:37:51Z</time>
      </trkpt>
      <trkpt lat="43.2493580" lon="-4.8794150">
        <ele>435.5</ele>
        <time>2021-12-21T11:37:56Z</time>
      </trkpt>
      <trkpt lat="43.2493680" lon="-4.8794390">
        <ele>435.9</ele>
        <time>2021-12-21T11:38:01Z</time>
      </trkpt>
      <trkpt lat="43.2494170" lon="-4.8795830">
        <ele>438.2</ele>
        <time>2021-12-21T11:38:06Z</time>
      </trkpt>
      <trkpt lat="43.2494350" lon="-4.8796050">
        <ele>438.7</ele>
        <time>2021-12-21T11:38:09Z</time>
      </trkpt>
      <trkpt lat="43.2494260" lon="-4.8796260">
        <ele>439.0</ele>
        <time>2021-12-21T11:38:14Z</time>
      </trkpt>
      <trkpt lat="43.2494440" lon="-4.8796740">
        <ele>439.8</ele>
        <time>2021-12-21T11:38:19Z</time>
      </trkpt>
      <trkpt lat="43.2494190" lon="-4.8797860">
        <ele>441.5</ele>
        <time>2021-12-21T11:38:22Z</time>
      </trkpt>
      <trkpt lat="43.2494170" lon="-4.8798010">
        <ele>441.7</ele>
        <time>2021-12-21T11:38:27Z</time>
      </trkpt>
      <trkpt lat="43.2494360" lon="-4.8798600">
        <ele>442.6</ele>
        <time>2021-12-21T11:38:32Z</time>
      </trkpt>
      <trkpt lat="43.2495130" lon="-4.8799640">
        <ele>444.8</ele>
        <time>2021-12-21T11:38:37Z</time>
      </trkpt>
      <trkpt lat="43.2495600" lon="-4.8800180">
        <ele>446.0</ele>
        <time>2021-12-21T11:38:42Z</time>
      </trkpt>
      <trkpt lat="43.2495810" lon="-4.8800560">
        <ele>446.7</ele>
        <time>2021-12-21T11:38:45Z</time>
      </trkpt>
      <trkpt lat="43.2496470" lon="-4.8801430">
        <ele>448.5</ele>
        <time>2021-12-21T11:38:47Z</time>
      </trkpt>
      <trkpt lat="43.2496540" lon="-4.8801980">
        <ele>449.3</ele>
        <time>2021-12-21T11:38:53Z</time>
      </trkpt>
      <trkpt lat="43.2496680" lon="-4.8802630">
        <ele>450.2</ele>
        <time>2021-12-21T11:38:55Z</time>
      </trkpt>
      <trkpt lat="43.2495970" lon="-4.8803390">
        <ele>452.0</ele>
        <time>2021-12-21T11:38:58Z</time>
      </trkpt>
      <trkpt lat="43.2496770" lon="-4.8802300">
        <ele>454.2</ele>
        <time>2021-12-21T11:39:00Z</time>
      </trkpt>
      <trkpt lat="43.2497920" lon="-4.8802870">
        <ele>456.6</ele>
        <time>2021-12-21T11:39:05Z</time>
      </trkpt>
      <trkpt lat="43.2498350" lon="-4.8802830">
        <ele>457.5</ele>
        <time>2021-12-21T11:39:11Z</time>
      </trkpt>
      <trkpt lat="43.2498420" lon="-4.8803240">
        <ele>458.1</ele>
        <time>2021-12-21T11:39:16Z</time>
      </trkpt>
      <trkpt lat="43.2498990" lon="-4.8805490">
        <ele>461.5</ele>
        <time>2021-12-21T11:39:21Z</time>
      </trkpt>
      <trkpt lat="43.2499200" lon="-4.8807160">
        <ele>463.9</ele>
        <time>2021-12-21T11:39:26Z</time>
      </trkpt>
      <trkpt lat="43.2499400" lon="-4.8808840">
        <ele>466.4</ele>
        <time>2021-12-21T11:39:31Z</time>
      </trkpt>
      <trkpt lat="43.2499600" lon="-4.8810510">
        <ele>468.8</ele>
        <time>2021-12-21T11:39:39Z</time>
      </trkpt>
      <trkpt lat="43.2499860" lon="-4.8810860">
        <ele>469.5</ele>
        <time>2021-12-21T11:39:44Z</time>
      </trkpt>
      <trkpt lat="43.2499740" lon="-4.8811790">
        <ele>470.9</ele>
        <time>2021-12-21T11:39:49Z</time>
      </trkpt>
      <trkpt lat="43.2499750" lon="-4.8812320">
        <ele>471.7</ele>
        <time>2021-12-21T11:39:54Z</time>
      </trkpt>
      <trkpt lat="43.2499510" lon="-4.8813090">
        <ele>472.9</ele>
        <time>2021-12-21T11:39:57Z</time>
      </trkpt>
      <trkpt lat="43.2499050" lon="-4.8813490">
        <ele>473.9</ele>
        <time>2021-12-21T11:40:00Z</time>
      </trkpt>
      <trkpt lat="43.2498920" lon="-4.8813800">
        <ele>474.4</ele>
        <time>2021-12-21T11:40:05Z</time>
      </trkpt>
      <trkpt lat="43.2498490" lon="-4.8813900">
        <ele>475.3</ele>
        <time>2021-12-21T11:40:07Z</time>
      </trkpt>
      <trkpt lat="43.2498060" lon="-4.8813720">
        <ele>476.2</ele>
        <time>2021-12-21T11:40:10Z</time>
      </trkpt>
      <trkpt lat="43.2497550" lon="-4.8814030">
        <ele>477.3</ele>
        <time>2021-12-21T11:40:13Z</time>
      </trkpt>
      <trkpt lat="43.2497130" lon="-4.8814090">
        <ele>478.1</ele>
        <time>2021-12-21T11:40:15Z</time>
      </trkpt>
      <trkpt lat="43.2496890" lon="-4.8814060">
        <ele>478.6</ele>
        <time>2021-12-21T11:40:20Z</time>
      </trkpt>
      <trkpt lat="43.2496260" lon="-4.8813870">
        <ele>479.9</ele>
        <time>2021-12-21T11:40:23Z</time>
      </trkpt>
      <trkpt lat="43.2496030" lon="-4.8813420">
        <ele>480.7</ele>
        <time>2021-12-21T11:40:25Z</time>
      </trkpt>
      <trkpt lat="43.2495820" lon="-4.8813080">
        <ele>481.3</ele>
        <time>2021-12-21T11:40:30Z</time>
      </trkpt>
      <trkpt lat="43.2495690" lon="-4.8812830">
        <ele>481.7</ele>
        <time>2021-12-21T11:40:33Z</time>
      </trkpt>
      <trkpt lat="43.2495280" lon="-4.8812900">
        <ele>482.6</ele>
        <time>2021-12-21T11:40:36Z</time>
      </trkpt>
      <trkpt lat="43.2495190" lon="-4.8813850">
        <ele>483.9</ele>
        <time>2021-12-21T11:40:41Z</time>
      </trkpt>
      <trkpt lat="43.2495140" lon="-4.8814490">
        <ele>484.9</ele>
        <time>2021-12-21T11:40:46Z</time>
      </trkpt>
      <trkpt lat="43.2495210" lon="-4.8814910">
        <ele>485.5</ele>
        <time>2021-12-21T11:40:49Z</time>
      </trkpt>
      <trkpt lat="43.2495190" lon="-4.8815590">
        <ele>486.5</ele>
        <time>2021-12-21T11:40:51Z</time>
      </trkpt>
      <trkpt lat="43.2495170" lon="-4.8816060">
        <ele>487.1</ele>
        <time>2021-12-21T11:40:54Z</time>
      </trkpt>
      <trkpt lat="43.2495040" lon="-4.8816810">
        <ele>488.2</ele>
        <time>2021-12-21T11:40:59Z</time>
      </trkpt>
      <trkpt lat="43.2495020" lon="-4.8817660">
        <ele>489.5</ele>
        <time>2021-12-21T11:41:02Z</time>
      </trkpt>
      <trkpt lat="43.2495100" lon="-4.8818030">
        <ele>490.0</ele>
        <time>2021-12-21T11:41:04Z</time>
      </trkpt>
      <trkpt lat="43.2495100" lon="-4.8818140">
        <ele>490.2</ele>
        <time>2021-12-21T11:41:09Z</time>
      </trkpt>
      <trkpt lat="43.2495250" lon="-4.8818650">
        <ele>491.0</ele>
        <time>2021-12-21T11:41:12Z</time>
      </trkpt>
      <trkpt lat="43.2495420" lon="-4.8819300">
        <ele>492.0</ele>
        <time>2021-12-21T11:41:14Z</time>
      </trkpt>
      <trkpt lat="43.2495460" lon="-4.8820300">
        <ele>493.4</ele>
        <time>2021-12-21T11:41:20Z</time>
      </trkpt>
      <trkpt lat="43.2495430" lon="-4.8820670">
        <ele>493.9</ele>
        <time>2021-12-21T11:41:25Z</time>
      </trkpt>
      <trkpt lat="43.2495530" lon="-4.8821670">
        <ele>495.4</ele>
        <time>2021-12-21T11:41:27Z</time>
      </trkpt>
      <trkpt lat="43.2495660" lon="-4.8822330">
        <ele>496.4</ele>
        <time>2021-12-21T11:41:32Z</time>
      </trkpt>
      <trkpt lat="43.2495540" lon="-4.8822680">
        <ele>496.9</ele>
        <time>2021-12-21T11:41:38Z</time>
      </trkpt>
      <trkpt lat="43.2495490" lon="-4.8823070">
        <ele>497.5</ele>
        <time>2021-12-21T11:41:40Z</time>
      </trkpt>
      <trkpt lat="43.2495270" lon="-4.8823610">
        <ele>498.4</ele>
        <time>2021-12-21T11:41:45Z</time>
      </trkpt>
      <trkpt lat="43.2495150" lon="-4.8824380">
        <ele>499.5</ele>
        <time>2021-12-21T11:41:48Z</time>
      </trkpt>
      <trkpt lat="43.2495090" lon="-4.8825010">
        <ele>500.4</ele>
        <time>2021-12-21T11:41:50Z</time>
      </trkpt>
      <trkpt lat="43.2494890" lon="-4.8825220">
        <ele>500.9</ele>
        <time>2021-12-21T11:41:56Z</time>
      </trkpt>
      <trkpt lat="43.2494620" lon="-4.8825570">
        <ele>501.6</ele>
        <time>2021-12-21T11:41:58Z</time>
      </trkpt>
      <trkpt lat="43.2494340" lon="-4.8826010">
        <ele>502.5</ele>
        <time>2021-12-21T11:42:03Z</time>
      </trkpt>
      <trkpt lat="43.2494150" lon="-4.8826260">
        <ele>503.0</ele>
        <time>2021-12-21T11:42:06Z</time>
      </trkpt>
      <trkpt lat="43.2493840" lon="-4.8826550">
        <ele>503.7</ele>
        <time>2021-12-21T11:42:11Z</time>
      </trkpt>
      <trkpt lat="43.2493710" lon="-4.8826800">
        <ele>504.2</ele>
        <time>2021-12-21T11:42:16Z</time>
      </trkpt>
      <trkpt lat="43.2493310" lon="-4.8826970">
        <ele>505.0</ele>
        <time>2021-12-21T11:42:21Z</time>
      </trkpt>
      <trkpt lat="43.2493190" lon="-4.8827510">
        <ele>505.8</ele>
        <time>2021-12-21T11:42:24Z</time>
      </trkpt>
      <trkpt lat="43.2492880" lon="-4.8827880">
        <ele>506.6</ele>
        <time>2021-12-21T11:42:29Z</time>
      </trkpt>
      <trkpt lat="43.2492450" lon="-4.8828160">
        <ele>507.6</ele>
        <time>2021-12-21T11:42:34Z</time>
      </trkpt>
      <trkpt lat="43.2492310" lon="-4.8828480">
        <ele>508.1</ele>
        <time>2021-12-21T11:42:39Z</time>
      </trkpt>
      <trkpt lat="43.2492140" lon="-4.8830080">
        <ele>510.4</ele>
        <time>2021-12-21T11:42:45Z</time>
      </trkpt>
      <trkpt lat="43.2492120" lon="-4.8830240">
        <ele>510.7</ele>
        <time>2021-12-21T11:42:50Z</time>
      </trkpt>
      <trkpt lat="43.2491910" lon="-4.8830750">
        <ele>511.5</ele>
        <time>2021-12-21T11:42:52Z</time>
      </trkpt>
      <trkpt lat="43.2491680" lon="-4.8831310">
        <ele>512.4</ele>
        <time>2021-12-21T11:42:57Z</time>
      </trkpt>
      <trkpt lat="43.2491490" lon="-4.8831650">
        <ele>513.0</ele>
        <time>2021-12-21T11:43:03Z</time>
      </trkpt>
      <trkpt lat="43.2491280" lon="-4.8832470">
        <ele>514.3</ele>
        <time>2021-12-21T11:43:05Z</time>
      </trkpt>
      <trkpt lat="43.2490970" lon="-4.8832970">
        <ele>515.2</ele>
        <time>2021-12-21T11:43:08Z</time>
      </trkpt>
      <trkpt lat="43.2490400" lon="-4.8833690">
        <ele>516.9</ele>
        <time>2021-12-21T11:43:13Z</time>
      </trkpt>
      <trkpt lat="43.2490100" lon="-4.8833710">
        <ele>517.1</ele>
        <time>2021-12-21T11:43:18Z</time>
      </trkpt>
      <trkpt lat="43.2489910" lon="-4.8833430">
        <ele>517.3</ele>
        <time>2021-12-21T11:43:23Z</time>
      </trkpt>
      <trkpt lat="43.2489510" lon="-4.8833240">
        <ele>517.6</ele>
        <time>2021-12-21T11:43:28Z</time>
      </trkpt>
      <trkpt lat="43.2489080" lon="-4.8832390">
        <ele>517.9</ele>
        <time>2021-12-21T11:43:31Z</time>
      </trkpt>
      <trkpt lat="43.2488840" lon="-4.8832410">
        <ele>518.0</ele>
        <time>2021-12-21T11:43:36Z</time>
      </trkpt>
      <trkpt lat="43.2488380" lon="-4.8832260">
        <ele>518.2</ele>
        <time>2021-12-21T11:43:39Z</time>
      </trkpt>
      <trkpt lat="43.2487890" lon="-4.8831890">
        <ele>518.3</ele>
        <time>2021-12-21T11:43:44Z</time>
      </trkpt>
      <trkpt lat="43.2487420" lon="-4.8831780">
        <ele>518.4</ele>
        <time>2021-12-21T11:43:49Z</time>
      </trkpt>
      <trkpt lat="43.2487180" lon="-4.8831660">
        <ele>518.5</ele>
        <time>2021-12-21T11:57:20Z</time>
      </trkpt>
      <trkpt lat="43.2486610" lon="-4.8831230">
        <ele>518.7</ele>
        <time>2021-12-21T11:57:23Z</time>
      </trkpt>
      <trkpt lat="43.2486490" lon="-4.8831010">
        <ele>518.7</ele>
        <time>2021-12-21T11:57:28Z</time>
      </trkpt>
      <trkpt lat="43.2486010" lon="-4.8830680">
        <ele>518.7</ele>
        <time>2021-12-21T11:57:33Z</time>
      </trkpt>
      <trkpt lat="43.2485510" lon="-4.8830630">
        <ele>518.8</ele>
        <time>2021-12-21T11:57:39Z</time>
      </trkpt>
      <trkpt lat="43.2485340" lon="-4.8830330">
        <ele>518.8</ele>
        <time>2021-12-21T11:57:41Z</time>
      </trkpt>
      <trkpt lat="43.2484680" lon="-4.8830620">
        <ele>518.8</ele>
        <time>2021-12-21T11:57:46Z</time>
      </trkpt>
      <trkpt lat="43.2484430" lon="-4.8830900">
        <ele>518.8</ele>
        <time>2021-12-21T11:57:52Z</time>
      </trkpt>
      <trkpt lat="43.2484070" lon="-4.8831360">
        <ele>518.7</ele>
        <time>2021-12-21T11:57:54Z</time>
      </trkpt>
      <trkpt lat="43.2483890" lon="-4.8832100">
        <ele>518.7</ele>
        <time>2021-12-21T11:57:57Z</time>
      </trkpt>
      <trkpt lat="43.2483590" lon="-4.8832650">
        <ele>518.7</ele>
        <time>2021-12-21T11:57:59Z</time>
      </trkpt>
      <trkpt lat="43.2483170" lon="-4.8833130">
        <ele>518.6</ele>
        <time>2021-12-21T11:58:04Z</time>
      </trkpt>
      <trkpt lat="43.2482870" lon="-4.8833390">
        <ele>518.6</ele>
        <time>2021-12-21T11:58:10Z</time>
      </trkpt>
      <trkpt lat="43.2482440" lon="-4.8833840">
        <ele>518.6</ele>
        <time>2021-12-21T11:58:15Z</time>
      </trkpt>
      <trkpt lat="43.2482220" lon="-4.8833800">
        <ele>518.6</ele>
        <time>2021-12-21T11:58:20Z</time>
      </trkpt>
      <trkpt lat="43.2481710" lon="-4.8834240">
        <ele>518.5</ele>
        <time>2021-12-21T11:58:23Z</time>
      </trkpt>
      <trkpt lat="43.2481550" lon="-4.8834350">
        <ele>518.5</ele>
        <time>2021-12-21T11:58:25Z</time>
      </trkpt>
      <trkpt lat="43.2480950" lon="-4.8834640">
        <ele>518.5</ele>
        <time>2021-12-21T11:58:28Z</time>
      </trkpt>
      <trkpt lat="43.2480480" lon="-4.8834740">
        <ele>518.5</ele>
        <time>2021-12-21T11:58:30Z</time>
      </trkpt>
      <trkpt lat="43.2480090" lon="-4.8835140">
        <ele>518.5</ele>
        <time>2021-12-21T11:58:35Z</time>
      </trkpt>
      <trkpt lat="43.2480080" lon="-4.8835320">
        <ele>518.5</ele>
        <time>2021-12-21T11:58:38Z</time>
      </trkpt>
      <trkpt lat="43.2480010" lon="-4.8835910">
        <ele>518.5</ele>
        <time>2021-12-21T11:58:40Z</time>
      </trkpt>
      <trkpt lat="43.2479710" lon="-4.8836450">
        <ele>518.4</ele>
        <time>2021-12-21T11:58:43Z</time>
      </trkpt>
      <trkpt lat="43.2479800" lon="-4.8837010">
        <ele>518.4</ele>
        <time>2021-12-21T11:58:46Z</time>
      </trkpt>
      <trkpt lat="43.2479700" lon="-4.8838040">
        <ele>518.4</ele>
        <time>2021-12-21T11:58:48Z</time>
      </trkpt>
      <trkpt lat="43.2479580" lon="-4.8838210">
        <ele>518.3</ele>
        <time>2021-12-21T11:58:51Z</time>
      </trkpt>
      <trkpt lat="43.2479530" lon="-4.8838500">
        <ele>518.3</ele>
        <time>2021-12-21T11:58:53Z</time>
      </trkpt>
      <trkpt lat="43.2479300" lon="-4.8839030">
        <ele>518.2</ele>
        <time>2021-12-21T11:58:59Z</time>
      </trkpt>
      <trkpt lat="43.2479030" lon="-4.8839720">
        <ele>518.2</ele>
        <time>2021-12-21T11:59:01Z</time>
      </trkpt>
      <trkpt lat="43.2478730" lon="-4.8840090">
        <ele>518.1</ele>
        <time>2021-12-21T11:59:06Z</time>
      </trkpt>
      <trkpt lat="43.2478420" lon="-4.8840760">
        <ele>518.0</ele>
        <time>2021-12-21T11:59:09Z</time>
      </trkpt>
      <trkpt lat="43.2478390" lon="-4.8840940">
        <ele>518.0</ele>
        <time>2021-12-21T11:59:11Z</time>
      </trkpt>
      <trkpt lat="43.2478220" lon="-4.8841420">
        <ele>518.0</ele>
        <time>2021-12-21T11:59:17Z</time>
      </trkpt>
      <trkpt lat="43.2478010" lon="-4.8842100">
        <ele>517.9</ele>
        <time>2021-12-21T11:59:19Z</time>
      </trkpt>
      <trkpt lat="43.2477760" lon="-4.8842500">
        <ele>517.9</ele>
        <time>2021-12-21T11:59:24Z</time>
      </trkpt>
      <trkpt lat="43.2477610" lon="-4.8842840">
        <ele>517.8</ele>
        <time>2021-12-21T11:59:27Z</time>
      </trkpt>
      <trkpt lat="43.2477380" lon="-4.8843120">
        <ele>517.8</ele>
        <time>2021-12-21T11:59:30Z</time>
      </trkpt>
      <trkpt lat="43.2477280" lon="-4.8843350">
        <ele>517.8</ele>
        <time>2021-12-21T11:59:32Z</time>
      </trkpt>
      <trkpt lat="43.2477140" lon="-4.8843880">
        <ele>517.7</ele>
        <time>2021-12-21T11:59:37Z</time>
      </trkpt>
      <trkpt lat="43.2476910" lon="-4.8844490">
        <ele>517.7</ele>
        <time>2021-12-21T11:59:42Z</time>
      </trkpt>
      <trkpt lat="43.2476770" lon="-4.8844870">
        <ele>517.6</ele>
        <time>2021-12-21T11:59:48Z</time>
      </trkpt>
      <trkpt lat="43.2476560" lon="-4.8845510">
        <ele>517.5</ele>
        <time>2021-12-21T11:59:50Z</time>
      </trkpt>
      <trkpt lat="43.2476310" lon="-4.8846200">
        <ele>517.4</ele>
        <time>2021-12-21T11:59:53Z</time>
      </trkpt>
      <trkpt lat="43.2476100" lon="-4.8846800">
        <ele>517.3</ele>
        <time>2021-12-21T11:59:55Z</time>
      </trkpt>
      <trkpt lat="43.2475950" lon="-4.8847260">
        <ele>517.2</ele>
        <time>2021-12-21T12:00:00Z</time>
      </trkpt>
      <trkpt lat="43.2475730" lon="-4.8847910">
        <ele>517.1</ele>
        <time>2021-12-21T12:00:06Z</time>
      </trkpt>
      <trkpt lat="43.2475580" lon="-4.8848580">
        <ele>517.0</ele>
        <time>2021-12-21T12:00:11Z</time>
      </trkpt>
      <trkpt lat="43.2475540" lon="-4.8849090">
        <ele>516.9</ele>
        <time>2021-12-21T12:00:13Z</time>
      </trkpt>
      <trkpt lat="43.2475230" lon="-4.8849560">
        <ele>516.8</ele>
        <time>2021-12-21T12:00:16Z</time>
      </trkpt>
      <trkpt lat="43.2474950" lon="-4.8850430">
        <ele>516.6</ele>
        <time>2021-12-21T12:00:21Z</time>
      </trkpt>
      <trkpt lat="43.2474860" lon="-4.8851100">
        <ele>516.5</ele>
        <time>2021-12-21T12:00:24Z</time>
      </trkpt>
      <trkpt lat="43.2474570" lon="-4.8851860">
        <ele>516.3</ele>
        <time>2021-12-21T12:00:26Z</time>
      </trkpt>
      <trkpt lat="43.2474470" lon="-4.8852220">
        <ele>516.2</ele>
        <time>2021-12-21T12:00:31Z</time>
      </trkpt>
      <trkpt lat="43.2474340" lon="-4.8852510">
        <ele>516.1</ele>
        <time>2021-12-21T12:00:37Z</time>
      </trkpt>
      <trkpt lat="43.2474040" lon="-4.8853310">
        <ele>515.8</ele>
        <time>2021-12-21T12:00:42Z</time>
      </trkpt>
      <trkpt lat="43.2473900" lon="-4.8853680">
        <ele>515.7</ele>
        <time>2021-12-21T12:00:47Z</time>
      </trkpt>
      <trkpt lat="43.2473740" lon="-4.8854050">
        <ele>515.6</ele>
        <time>2021-12-21T12:00:52Z</time>
      </trkpt>
      <trkpt lat="43.2473560" lon="-4.8854300">
        <ele>515.5</ele>
        <time>2021-12-21T12:00:57Z</time>
      </trkpt>
      <trkpt lat="43.2473230" lon="-4.8854870">
        <ele>515.3</ele>
        <time>2021-12-21T12:01:00Z</time>
      </trkpt>
      <trkpt lat="43.2472870" lon="-4.8855490">
        <ele>515.1</ele>
        <time>2021-12-21T12:01:02Z</time>
      </trkpt>
      <trkpt lat="43.2472650" lon="-4.8856030">
        <ele>514.9</ele>
        <time>2021-12-21T12:01:07Z</time>
      </trkpt>
      <trkpt lat="43.2472300" lon="-4.8856630">
        <ele>514.7</ele>
        <time>2021-12-21T12:01:13Z</time>
      </trkpt>
      <trkpt lat="43.2472030" lon="-4.8857070">
        <ele>514.5</ele>
        <time>2021-12-21T12:01:18Z</time>
      </trkpt>
      <trkpt lat="43.2471810" lon="-4.8857350">
        <ele>514.4</ele>
        <time>2021-12-21T12:01:20Z</time>
      </trkpt>
      <trkpt lat="43.2471690" lon="-4.8858220">
        <ele>514.2</ele>
        <time>2021-12-21T12:01:23Z</time>
      </trkpt>
      <trkpt lat="43.2471560" lon="-4.8858820">
        <ele>514.0</ele>
        <time>2021-12-21T12:01:28Z</time>
      </trkpt>
      <trkpt lat="43.2471460" lon="-4.8859350">
        <ele>513.9</ele>
        <time>2021-12-21T12:01:31Z</time>
      </trkpt>
      <trkpt lat="43.2471030" lon="-4.8860090">
        <ele>513.6</ele>
        <time>2021-12-21T12:01:36Z</time>
      </trkpt>
      <trkpt lat="43.2470760" lon="-4.8860430">
        <ele>513.5</ele>
        <time>2021-12-21T12:01:38Z</time>
      </trkpt>
      <trkpt lat="43.2470610" lon="-4.8860750">
        <ele>513.4</ele>
        <time>2021-12-21T12:01:44Z</time>
      </trkpt>
      <trkpt lat="43.2470080" lon="-4.8861370">
        <ele>513.2</ele>
        <time>2021-12-21T12:01:46Z</time>
      </trkpt>
      <trkpt lat="43.2469840" lon="-4.8861590">
        <ele>513.1</ele>
        <time>2021-12-21T12:01:51Z</time>
      </trkpt>
      <trkpt lat="43.2469610" lon="-4.8861780">
        <ele>513.0</ele>
        <time>2021-12-21T12:01:54Z</time>
      </trkpt>
      <trkpt lat="43.2469330" lon="-4.8862060">
        <ele>512.9</ele>
        <time>2021-12-21T12:01:57Z</time>
      </trkpt>
      <trkpt lat="43.2469150" lon="-4.8862370">
        <ele>512.8</ele>
        <time>2021-12-21T12:02:02Z</time>
      </trkpt>
      <trkpt lat="43.2468600" lon="-4.8862850">
        <ele>512.6</ele>
        <time>2021-12-21T12:02:07Z</time>
      </trkpt>
      <trkpt lat="43.2468490" lon="-4.8863150">
        <ele>512.5</ele>
        <time>2021-12-21T12:02:12Z</time>
      </trkpt>
      <trkpt lat="43.2468240" lon="-4.8863320">
        <ele>512.4</ele>
        <time>2021-12-21T12:02:14Z</time>
      </trkpt>
      <trkpt lat="43.2468070" lon="-4.8863990">
        <ele>512.2</ele>
        <time>2021-12-21T12:02:20Z</time>
      </trkpt>
      <trkpt lat="43.2467890" lon="-4.8864510">
        <ele>512.1</ele>
        <time>2021-12-21T12:02:22Z</time>
      </trkpt>
      <trkpt lat="43.2467900" lon="-4.8864860">
        <ele>512.0</ele>
        <time>2021-12-21T12:02:27Z</time>
      </trkpt>
      <trkpt lat="43.2467720" lon="-4.8865300">
        <ele>511.9</ele>
        <time>2021-12-21T12:02:33Z</time>
      </trkpt>
      <trkpt lat="43.2467270" lon="-4.8865880">
        <ele>511.8</ele>
        <time>2021-12-21T12:02:38Z</time>
      </trkpt>
      <trkpt lat="43.2466930" lon="-4.8866140">
        <ele>511.7</ele>
        <time>2021-12-21T12:02:43Z</time>
      </trkpt>
      <trkpt lat="43.2466760" lon="-4.8866190">
        <ele>511.6</ele>
        <time>2021-12-21T12:02:45Z</time>
      </trkpt>
      <trkpt lat="43.2466430" lon="-4.8866200">
        <ele>511.6</ele>
        <time>2021-12-21T12:02:51Z</time>
      </trkpt>
      <trkpt lat="43.2465830" lon="-4.8866340">
        <ele>511.4</ele>
        <time>2021-12-21T12:02:53Z</time>
      </trkpt>
      <trkpt lat="43.2465540" lon="-4.8866510">
        <ele>511.4</ele>
        <time>2021-12-21T12:02:58Z</time>
      </trkpt>
      <trkpt lat="43.2465320" lon="-4.8866640">
        <ele>511.3</ele>
        <time>2021-12-21T12:03:01Z</time>
      </trkpt>
      <trkpt lat="43.2464760" lon="-4.8866810">
        <ele>511.2</ele>
        <time>2021-12-21T12:03:04Z</time>
      </trkpt>
      <trkpt lat="43.2464470" lon="-4.8866770">
        <ele>511.1</ele>
        <time>2021-12-21T12:03:09Z</time>
      </trkpt>
      <trkpt lat="43.2464230" lon="-4.8866760">
        <ele>511.1</ele>
        <time>2021-12-21T12:03:11Z</time>
      </trkpt>
      <trkpt lat="43.2463730" lon="-4.8866920">
        <ele>510.9</ele>
        <time>2021-12-21T12:03:14Z</time>
      </trkpt>
      <trkpt lat="43.2463260" lon="-4.8867070">
        <ele>510.8</ele>
        <time>2021-12-21T12:03:19Z</time>
      </trkpt>
      <trkpt lat="43.2463020" lon="-4.8867090">
        <ele>510.8</ele>
        <time>2021-12-21T12:03:24Z</time>
      </trkpt>
      <trkpt lat="43.2462500" lon="-4.8866930">
        <ele>510.6</ele>
        <time>2021-12-21T12:05:02Z</time>
      </trkpt>
      <trkpt lat="43.2461700" lon="-4.8866940">
        <ele>510.5</ele>
        <time>2021-12-21T12:05:13Z</time>
      </trkpt>
      <trkpt lat="43.2461560" lon="-4.8867140">
        <ele>510.4</ele>
        <time>2021-12-21T12:05:15Z</time>
      </trkpt>
      <trkpt lat="43.2460950" lon="-4.8867730">
        <ele>510.3</ele>
        <time>2021-12-21T12:05:20Z</time>
      </trkpt>
      <trkpt lat="43.2460640" lon="-4.8867920">
        <ele>510.2</ele>
        <time>2021-12-21T12:05:23Z</time>
      </trkpt>
      <trkpt lat="43.2460470" lon="-4.8868140">
        <ele>510.2</ele>
        <time>2021-12-21T12:05:25Z</time>
      </trkpt>
      <trkpt lat="43.2459750" lon="-4.8868420">
        <ele>510.0</ele>
        <time>2021-12-21T12:05:28Z</time>
      </trkpt>
      <trkpt lat="43.2459840" lon="-4.8868850">
        <ele>510.0</ele>
        <time>2021-12-21T12:05:31Z</time>
      </trkpt>
      <trkpt lat="43.2459840" lon="-4.8869750">
        <ele>509.8</ele>
        <time>2021-12-21T12:05:33Z</time>
      </trkpt>
      <trkpt lat="43.2459650" lon="-4.8869990">
        <ele>509.7</ele>
        <time>2021-12-21T12:05:38Z</time>
      </trkpt>
      <trkpt lat="43.2459220" lon="-4.8870150">
        <ele>509.6</ele>
        <time>2021-12-21T12:05:41Z</time>
      </trkpt>
      <trkpt lat="43.2458810" lon="-4.8870000">
        <ele>509.4</ele>
        <time>2021-12-21T12:05:46Z</time>
      </trkpt>
      <trkpt lat="43.2458360" lon="-4.8869770">
        <ele>509.3</ele>
        <time>2021-12-21T12:05:49Z</time>
      </trkpt>
      <trkpt lat="43.2458190" lon="-4.8869520">
        <ele>509.2</ele>
        <time>2021-12-21T12:05:51Z</time>
      </trkpt>
      <trkpt lat="43.2457850" lon="-4.8868840">
        <ele>508.9</ele>
        <time>2021-12-21T12:05:54Z</time>
      </trkpt>
      <trkpt lat="43.2457290" lon="-4.8868610">
        <ele>508.7</ele>
        <time>2021-12-21T12:05:56Z</time>
      </trkpt>
      <trkpt lat="43.2456670" lon="-4.8868760">
        <ele>508.5</ele>
        <time>2021-12-21T12:05:59Z</time>
      </trkpt>
      <trkpt lat="43.2456070" lon="-4.8869090">
        <ele>508.3</ele>
        <time>2021-12-21T12:06:01Z</time>
      </trkpt>
      <trkpt lat="43.2455620" lon="-4.8869570">
        <ele>508.1</ele>
        <time>2021-12-21T12:06:04Z</time>
      </trkpt>
      <trkpt lat="43.2455450" lon="-4.8869600">
        <ele>508.0</ele>
        <time>2021-12-21T12:06:06Z</time>
      </trkpt>
      <trkpt lat="43.2455060" lon="-4.8870050">
        <ele>507.9</ele>
        <time>2021-12-21T12:06:09Z</time>
      </trkpt>
      <trkpt lat="43.2454480" lon="-4.8870640">
        <ele>507.6</ele>
        <time>2021-12-21T12:06:12Z</time>
      </trkpt>
      <trkpt lat="43.2454380" lon="-4.8870710">
        <ele>507.6</ele>
        <time>2021-12-21T12:06:14Z</time>
      </trkpt>
      <trkpt lat="43.2454150" lon="-4.8870890">
        <ele>507.5</ele>
        <time>2021-12-21T12:06:17Z</time>
      </trkpt>
      <trkpt lat="43.2453890" lon="-4.8871330">
        <ele>507.3</ele>
        <time>2021-12-21T12:06:19Z</time>
      </trkpt>
      <trkpt lat="43.2453550" lon="-4.8871800">
        <ele>507.1</ele>
        <time>2021-12-21T12:06:25Z</time>
      </trkpt>
      <trkpt lat="43.2453350" lon="-4.8872240">
        <ele>507.0</ele>
        <time>2021-12-21T12:06:27Z</time>
      </trkpt>
      <trkpt lat="43.2452760" lon="-4.8872710">
        <ele>506.7</ele>
        <time>2021-12-21T12:06:32Z</time>
      </trkpt>
      <trkpt lat="43.2452620" lon="-4.8872940">
        <ele>506.7</ele>
        <time>2021-12-21T12:06:35Z</time>
      </trkpt>
      <trkpt lat="43.2452290" lon="-4.8873610">
        <ele>506.5</ele>
        <time>2021-12-21T12:06:38Z</time>
      </trkpt>
      <trkpt lat="43.2451980" lon="-4.8873900">
        <ele>506.3</ele>
        <time>2021-12-21T12:06:40Z</time>
      </trkpt>
      <trkpt lat="43.2451660" lon="-4.8874510">
        <ele>506.1</ele>
        <time>2021-12-21T12:06:43Z</time>
      </trkpt>
      <trkpt lat="43.2451240" lon="-4.8875030">
        <ele>505.8</ele>
        <time>2021-12-21T12:06:45Z</time>
      </trkpt>
      <trkpt lat="43.2448760" lon="-4.8877400">
        <ele>504.3</ele>
        <time>2021-12-21T12:06:50Z</time>
      </trkpt>
      <trkpt lat="43.2448500" lon="-4.8877540">
        <ele>504.1</ele>
        <time>2021-12-21T12:06:56Z</time>
      </trkpt>
      <trkpt lat="43.2447910" lon="-4.8877730">
        <ele>503.8</ele>
        <time>2021-12-21T12:06:58Z</time>
      </trkpt>
      <trkpt lat="43.2447340" lon="-4.8877990">
        <ele>503.4</ele>
        <time>2021-12-21T12:07:01Z</time>
      </trkpt>
      <trkpt lat="43.2446690" lon="-4.8878100">
        <ele>503.1</ele>
        <time>2021-12-21T12:07:03Z</time>
      </trkpt>
      <trkpt lat="43.2446480" lon="-4.8878180">
        <ele>503.0</ele>
        <time>2021-12-21T12:07:06Z</time>
      </trkpt>
      <trkpt lat="43.2445950" lon="-4.8877980">
        <ele>502.8</ele>
        <time>2021-12-21T12:07:11Z</time>
      </trkpt>
      <trkpt lat="43.2445140" lon="-4.8877350">
        <ele>502.5</ele>
        <time>2021-12-21T12:07:14Z</time>
      </trkpt>
      <trkpt lat="43.2444880" lon="-4.8877120">
        <ele>502.4</ele>
        <time>2021-12-21T12:07:16Z</time>
      </trkpt>
      <trkpt lat="43.2444510" lon="-4.8877320">
        <ele>502.3</ele>
        <time>2021-12-21T12:07:19Z</time>
      </trkpt>
      <trkpt lat="43.2444280" lon="-4.8877410">
        <ele>502.2</ele>
        <time>2021-12-21T12:07:21Z</time>
      </trkpt>
      <trkpt lat="43.2444020" lon="-4.8878440">
        <ele>502.0</ele>
        <time>2021-12-21T12:07:24Z</time>
      </trkpt>
      <trkpt lat="43.2443690" lon="-4.8879100">
        <ele>501.8</ele>
        <time>2021-12-21T12:07:26Z</time>
      </trkpt>
      <trkpt lat="43.2443460" lon="-4.8879450">
        <ele>501.7</ele>
        <time>2021-12-21T12:07:29Z</time>
      </trkpt>
      <trkpt lat="43.2442960" lon="-4.8879910">
        <ele>501.6</ele>
        <time>2021-12-21T12:07:34Z</time>
      </trkpt>
      <trkpt lat="43.2442620" lon="-4.8880080">
        <ele>501.5</ele>
        <time>2021-12-21T12:07:50Z</time>
      </trkpt>
      <trkpt lat="43.2442350" lon="-4.8880090">
        <ele>501.4</ele>
        <time>2021-12-21T12:07:52Z</time>
      </trkpt>
      <trkpt lat="43.2442090" lon="-4.8880410">
        <ele>501.3</ele>
        <time>2021-12-21T12:07:57Z</time>
      </trkpt>
      <trkpt lat="43.2441970" lon="-4.8880650">
        <ele>501.3</ele>
        <time>2021-12-21T12:08:00Z</time>
      </trkpt>
      <trkpt lat="43.2441430" lon="-4.8880870">
        <ele>501.1</ele>
        <time>2021-12-21T12:08:03Z</time>
      </trkpt>
      <trkpt lat="43.2441000" lon="-4.8881000">
        <ele>500.9</ele>
        <time>2021-12-21T12:08:05Z</time>
      </trkpt>
      <trkpt lat="43.2441060" lon="-4.8881480">
        <ele>500.8</ele>
        <time>2021-12-21T12:08:08Z</time>
      </trkpt>
      <trkpt lat="43.2440860" lon="-4.8881950">
        <ele>500.6</ele>
        <time>2021-12-21T12:08:13Z</time>
      </trkpt>
      <trkpt lat="43.2440780" lon="-4.8882430">
        <ele>500.5</ele>
        <time>2021-12-21T12:08:16Z</time>
      </trkpt>
      <trkpt lat="43.2440740" lon="-4.8882910">
        <ele>500.4</ele>
        <time>2021-12-21T12:08:18Z</time>
      </trkpt>
      <trkpt lat="43.2440620" lon="-4.8883300">
        <ele>500.2</ele>
        <time>2021-12-21T12:08:21Z</time>
      </trkpt>
      <trkpt lat="43.2440570" lon="-4.8883510">
        <ele>500.2</ele>
        <time>2021-12-21T12:08:23Z</time>
      </trkpt>
      <trkpt lat="43.2440410" lon="-4.8884380">
        <ele>499.9</ele>
        <time>2021-12-21T12:08:28Z</time>
      </trkpt>
      <trkpt lat="43.2440340" lon="-4.8884810">
        <ele>499.8</ele>
        <time>2021-12-21T12:08:31Z</time>
      </trkpt>
      <trkpt lat="43.2440250" lon="-4.8885750">
        <ele>499.5</ele>
        <time>2021-12-21T12:08:36Z</time>
      </trkpt>
      <trkpt lat="43.2440200" lon="-4.8885940">
        <ele>499.4</ele>
        <time>2021-12-21T12:08:39Z</time>
      </trkpt>
      <trkpt lat="43.2440280" lon="-4.8886280">
        <ele>499.3</ele>
        <time>2021-12-21T12:08:44Z</time>
      </trkpt>
      <trkpt lat="43.2440450" lon="-4.8887100">
        <ele>499.0</ele>
        <time>2021-12-21T12:08:49Z</time>
      </trkpt>
      <trkpt lat="43.2440410" lon="-4.8887460">
        <ele>498.9</ele>
        <time>2021-12-21T12:08:52Z</time>
      </trkpt>
      <trkpt lat="43.2440400" lon="-4.8888220">
        <ele>498.6</ele>
        <time>2021-12-21T12:08:54Z</time>
      </trkpt>
      <trkpt lat="43.2440450" lon="-4.8888880">
        <ele>498.4</ele>
        <time>2021-12-21T12:08:57Z</time>
      </trkpt>
      <trkpt lat="43.2440790" lon="-4.8889280">
        <ele>498.2</ele>
        <time>2021-12-21T12:08:59Z</time>
      </trkpt>
      <trkpt lat="43.2440760" lon="-4.8889690">
        <ele>498.0</ele>
        <time>2021-12-21T12:09:04Z</time>
      </trkpt>
      <trkpt lat="43.2440590" lon="-4.8890410">
        <ele>497.7</ele>
        <time>2021-12-21T12:09:10Z</time>
      </trkpt>
      <trkpt lat="43.2440170" lon="-4.8891210">
        <ele>497.3</ele>
        <time>2021-12-21T12:09:12Z</time>
      </trkpt>
      <trkpt lat="43.2440090" lon="-4.8892230">
        <ele>496.9</ele>
        <time>2021-12-21T12:09:17Z</time>
      </trkpt>
      <trkpt lat="43.2440130" lon="-4.8892680">
        <ele>496.7</ele>
        <time>2021-12-21T12:09:20Z</time>
      </trkpt>
      <trkpt lat="43.2440020" lon="-4.8893070">
        <ele>496.5</ele>
        <time>2021-12-21T12:09:23Z</time>
      </trkpt>
      <trkpt lat="43.2440510" lon="-4.8893620">
        <ele>496.2</ele>
        <time>2021-12-21T12:09:25Z</time>
      </trkpt>
      <trkpt lat="43.2440150" lon="-4.8894240">
        <ele>495.9</ele>
        <time>2021-12-21T12:09:28Z</time>
      </trkpt>
      <trkpt lat="43.2439560" lon="-4.8894710">
        <ele>495.6</ele>
        <time>2021-12-21T12:09:30Z</time>
      </trkpt>
      <trkpt lat="43.2438900" lon="-4.8894910">
        <ele>495.3</ele>
        <time>2021-12-21T12:09:33Z</time>
      </trkpt>
      <trkpt lat="43.2438780" lon="-4.8895100">
        <ele>495.2</ele>
        <time>2021-12-21T12:09:36Z</time>
      </trkpt>
      <trkpt lat="43.2438570" lon="-4.8895310">
        <ele>495.2</ele>
        <time>2021-12-21T12:09:38Z</time>
      </trkpt>
      <trkpt lat="43.2437990" lon="-4.8895520">
        <ele>495.0</ele>
        <time>2021-12-21T12:09:43Z</time>
      </trkpt>
      <trkpt lat="43.2437660" lon="-4.8895700">
        <ele>494.8</ele>
        <time>2021-12-21T12:09:48Z</time>
      </trkpt>
      <trkpt lat="43.2437490" lon="-4.8895770">
        <ele>494.8</ele>
        <time>2021-12-21T12:09:54Z</time>
      </trkpt>
      <trkpt lat="43.2437180" lon="-4.8896100">
        <ele>494.6</ele>
        <time>2021-12-21T12:09:56Z</time>
      </trkpt>
      <trkpt lat="43.2437020" lon="-4.8896330">
        <ele>494.5</ele>
        <time>2021-12-21T12:09:59Z</time>
      </trkpt>
      <trkpt lat="43.2436580" lon="-4.8896640">
        <ele>494.3</ele>
        <time>2021-12-21T12:10:01Z</time>
      </trkpt>
      <trkpt lat="43.2436260" lon="-4.8896900">
        <ele>494.1</ele>
        <time>2021-12-21T12:10:06Z</time>
      </trkpt>
      <trkpt lat="43.2435870" lon="-4.8897140">
        <ele>493.9</ele>
        <time>2021-12-21T12:10:12Z</time>
      </trkpt>
      <trkpt lat="43.2435350" lon="-4.8897370">
        <ele>493.6</ele>
        <time>2021-12-21T12:10:14Z</time>
      </trkpt>
      <trkpt lat="43.2435050" lon="-4.8897420">
        <ele>493.4</ele>
        <time>2021-12-21T12:10:17Z</time>
      </trkpt>
      <trkpt lat="43.2434880" lon="-4.8897470">
        <ele>493.3</ele>
        <time>2021-12-21T12:10:19Z</time>
      </trkpt>
      <trkpt lat="43.2434460" lon="-4.8897650">
        <ele>492.9</ele>
        <time>2021-12-21T12:10:22Z</time>
      </trkpt>
      <trkpt lat="43.2433850" lon="-4.8897710">
        <ele>491.9</ele>
        <time>2021-12-21T12:10:24Z</time>
      </trkpt>
      <trkpt lat="43.2433400" lon="-4.8897650">
        <ele>488.8</ele>
        <time>2021-12-21T12:10:27Z</time>
      </trkpt>
      <trkpt lat="43.2433160" lon="-4.8897620">
        <ele>487.1</ele>
        <time>2021-12-21T12:10:32Z</time>
      </trkpt>
      <trkpt lat="43.2432750" lon="-4.8897430">
        <ele>484.1</ele>
        <time>2021-12-21T12:10:37Z</time>
      </trkpt>
      <trkpt lat="43.2432140" lon="-4.8897480">
        <ele>479.8</ele>
        <time>2021-12-21T12:10:40Z</time>
      </trkpt>
      <trkpt lat="43.2431850" lon="-4.8897490">
        <ele>477.8</ele>
        <time>2021-12-21T12:10:45Z</time>
      </trkpt>
      <trkpt lat="43.2431350" lon="-4.8897270">
        <ele>474.2</ele>
        <time>2021-12-21T12:10:48Z</time>
      </trkpt>
      <trkpt lat="43.2431130" lon="-4.8897130">
        <ele>472.5</ele>
        <time>2021-12-21T12:10:50Z</time>
      </trkpt>
      <trkpt lat="43.2430470" lon="-4.8896760">
        <ele>467.5</ele>
        <time>2021-12-21T12:10:55Z</time>
      </trkpt>
      <trkpt lat="43.2430270" lon="-4.8896640">
        <ele>466.0</ele>
        <time>2021-12-21T12:10:58Z</time>
      </trkpt>
      <trkpt lat="43.2429780" lon="-4.8896310">
        <ele>462.3</ele>
        <time>2021-12-21T12:11:01Z</time>
      </trkpt>
      <trkpt lat="43.2429520" lon="-4.8896060">
        <ele>460.2</ele>
        <time>2021-12-21T12:11:03Z</time>
      </trkpt>
      <trkpt lat="43.2429350" lon="-4.8895810">
        <ele>458.5</ele>
        <time>2021-12-21T12:11:06Z</time>
      </trkpt>
      <trkpt lat="43.2429260" lon="-4.8895280">
        <ele>455.9</ele>
        <time>2021-12-21T12:11:11Z</time>
      </trkpt>
      <trkpt lat="43.2428810" lon="-4.8894810">
        <ele>452.1</ele>
        <time>2021-12-21T12:11:14Z</time>
      </trkpt>
      <trkpt lat="43.2428320" lon="-4.8894440">
        <ele>448.3</ele>
        <time>2021-12-21T12:11:16Z</time>
      </trkpt>
      <trkpt lat="43.2428130" lon="-4.8894390">
        <ele>447.0</ele>
        <time>2021-12-21T12:11:19Z</time>
      </trkpt>
      <trkpt lat="43.2427490" lon="-4.8894270">
        <ele>444.9</ele>
        <time>2021-12-21T12:11:26Z</time>
      </trkpt>
      <trkpt lat="43.2427310" lon="-4.8894300">
        <ele>445.3</ele>
        <time>2021-12-21T12:11:29Z</time>
      </trkpt>
      <trkpt lat="43.2426870" lon="-4.8894640">
        <ele>446.4</ele>
        <time>2021-12-21T12:11:37Z</time>
      </trkpt>
      <trkpt lat="43.2426440" lon="-4.8895210">
        <ele>447.8</ele>
        <time>2021-12-21T12:11:44Z</time>
      </trkpt>
      <trkpt lat="43.2426190" lon="-4.8895740">
        <ele>448.8</ele>
        <time>2021-12-21T12:11:50Z</time>
      </trkpt>
      <trkpt lat="43.2426010" lon="-4.8896350">
        <ele>449.9</ele>
        <time>2021-12-21T12:11:52Z</time>
      </trkpt>
      <trkpt lat="43.2425890" lon="-4.8896630">
        <ele>450.5</ele>
        <time>2021-12-21T12:11:57Z</time>
      </trkpt>
      <trkpt lat="43.2425530" lon="-4.8897300">
        <ele>451.9</ele>
        <time>2021-12-21T12:12:13Z</time>
      </trkpt>
      <trkpt lat="43.2425380" lon="-4.8897580">
        <ele>452.4</ele>
        <time>2021-12-21T12:12:18Z</time>
      </trkpt>
      <trkpt lat="43.2425060" lon="-4.8898210">
        <ele>453.7</ele>
        <time>2021-12-21T12:12:26Z</time>
      </trkpt>
      <trkpt lat="43.2424930" lon="-4.8898620">
        <ele>454.4</ele>
        <time>2021-12-21T12:12:31Z</time>
      </trkpt>
      <trkpt lat="43.2424770" lon="-4.8898990">
        <ele>455.2</ele>
        <time>2021-12-21T12:12:33Z</time>
      </trkpt>
      <trkpt lat="43.2424570" lon="-4.8899700">
        <ele>456.4</ele>
        <time>2021-12-21T12:12:36Z</time>
      </trkpt>
      <trkpt lat="43.2424440" lon="-4.8900000">
        <ele>457.0</ele>
        <time>2021-12-21T12:12:38Z</time>
      </trkpt>
      <trkpt lat="43.2424390" lon="-4.8900470">
        <ele>457.8</ele>
        <time>2021-12-21T12:12:41Z</time>
      </trkpt>
      <trkpt lat="43.2424220" lon="-4.8901110">
        <ele>458.9</ele>
        <time>2021-12-21T12:12:46Z</time>
      </trkpt>
      <trkpt lat="43.2424180" lon="-4.8901440">
        <ele>459.5</ele>
        <time>2021-12-21T12:12:49Z</time>
      </trkpt>
      <trkpt lat="43.2423290" lon="-4.8901600">
        <ele>461.5</ele>
        <time>2021-12-21T12:12:57Z</time>
      </trkpt>
      <trkpt lat="43.2422420" lon="-4.8900960">
        <ele>463.7</ele>
        <time>2021-12-21T12:12:59Z</time>
      </trkpt>
      <trkpt lat="43.2422120" lon="-4.8900770">
        <ele>464.5</ele>
        <time>2021-12-21T12:13:04Z</time>
      </trkpt>
      <trkpt lat="43.2421310" lon="-4.8900210">
        <ele>466.6</ele>
        <time>2021-12-21T12:13:09Z</time>
      </trkpt>
      <trkpt lat="43.2420820" lon="-4.8899970">
        <ele>467.7</ele>
        <time>2021-12-21T12:13:15Z</time>
      </trkpt>
      <trkpt lat="43.2420610" lon="-4.8899880">
        <ele>468.2</ele>
        <time>2021-12-21T12:13:17Z</time>
      </trkpt>
      <trkpt lat="43.2420120" lon="-4.8899860">
        <ele>469.4</ele>
        <time>2021-12-21T12:13:22Z</time>
      </trkpt>
      <trkpt lat="43.2419830" lon="-4.8899930">
        <ele>470.0</ele>
        <time>2021-12-21T12:13:27Z</time>
      </trkpt>
      <trkpt lat="43.2419660" lon="-4.8900010">
        <ele>470.4</ele>
        <time>2021-12-21T12:13:33Z</time>
      </trkpt>
      <trkpt lat="43.2419070" lon="-4.8899970">
        <ele>471.8</ele>
        <time>2021-12-21T12:13:38Z</time>
      </trkpt>
      <trkpt lat="43.2418650" lon="-4.8899560">
        <ele>472.9</ele>
        <time>2021-12-21T12:13:40Z</time>
      </trkpt>
      <trkpt lat="43.2417950" lon="-4.8899220">
        <ele>474.6</ele>
        <time>2021-12-21T12:13:43Z</time>
      </trkpt>
      <trkpt lat="43.2417610" lon="-4.8899180">
        <ele>475.4</ele>
        <time>2021-12-21T12:13:48Z</time>
      </trkpt>
      <trkpt lat="43.2417320" lon="-4.8899180">
        <ele>476.1</ele>
        <time>2021-12-21T12:13:51Z</time>
      </trkpt>
      <trkpt lat="43.2416950" lon="-4.8899320">
        <ele>476.9</ele>
        <time>2021-12-21T12:13:53Z</time>
      </trkpt>
      <trkpt lat="43.2416700" lon="-4.8899320">
        <ele>477.5</ele>
        <time>2021-12-21T12:13:56Z</time>
      </trkpt>
      <trkpt lat="43.2416290" lon="-4.8899370">
        <ele>478.4</ele>
        <time>2021-12-21T12:13:59Z</time>
      </trkpt>
      <trkpt lat="43.2416040" lon="-4.8899490">
        <ele>479.0</ele>
        <time>2021-12-21T12:14:01Z</time>
      </trkpt>
      <trkpt lat="43.2415670" lon="-4.8899550">
        <ele>479.9</ele>
        <time>2021-12-21T12:14:04Z</time>
      </trkpt>
      <trkpt lat="43.2415400" lon="-4.8899570">
        <ele>480.5</ele>
        <time>2021-12-21T12:14:06Z</time>
      </trkpt>
      <trkpt lat="43.2415120" lon="-4.8899620">
        <ele>481.1</ele>
        <time>2021-12-21T12:14:09Z</time>
      </trkpt>
      <trkpt lat="43.2414680" lon="-4.8899760">
        <ele>482.2</ele>
        <time>2021-12-21T12:14:11Z</time>
      </trkpt>
      <trkpt lat="43.2414440" lon="-4.8899790">
        <ele>482.7</ele>
        <time>2021-12-21T12:14:14Z</time>
      </trkpt>
      <trkpt lat="43.2414080" lon="-4.8899810">
        <ele>483.5</ele>
        <time>2021-12-21T12:14:16Z</time>
      </trkpt>
      <trkpt lat="43.2413790" lon="-4.8899960">
        <ele>484.2</ele>
        <time>2021-12-21T12:14:19Z</time>
      </trkpt>
      <trkpt lat="43.2413040" lon="-4.8900230">
        <ele>486.0</ele>
        <time>2021-12-21T12:14:24Z</time>
      </trkpt>
      <trkpt lat="43.2412800" lon="-4.8900300">
        <ele>486.6</ele>
        <time>2021-12-21T12:14:29Z</time>
      </trkpt>
      <trkpt lat="43.2412160" lon="-4.8900490">
        <ele>488.1</ele>
        <time>2021-12-21T12:14:35Z</time>
      </trkpt>
      <trkpt lat="43.2411750" lon="-4.8900540">
        <ele>489.0</ele>
        <time>2021-12-21T12:14:37Z</time>
      </trkpt>
      <trkpt lat="43.2411380" lon="-4.8900710">
        <ele>489.9</ele>
        <time>2021-12-21T12:14:40Z</time>
      </trkpt>
      <trkpt lat="43.2411140" lon="-4.8900780">
        <ele>490.4</ele>
        <time>2021-12-21T12:14:42Z</time>
      </trkpt>
      <trkpt lat="43.2410820" lon="-4.8900830">
        <ele>491.2</ele>
        <time>2021-12-21T12:14:45Z</time>
      </trkpt>
      <trkpt lat="43.2410630" lon="-4.8900890">
        <ele>491.6</ele>
        <time>2021-12-21T12:14:50Z</time>
      </trkpt>
      <trkpt lat="43.2410080" lon="-4.8901160">
        <ele>492.9</ele>
        <time>2021-12-21T12:14:53Z</time>
      </trkpt>
      <trkpt lat="43.2409410" lon="-4.8901450">
        <ele>494.5</ele>
        <time>2021-12-21T12:14:58Z</time>
      </trkpt>
      <trkpt lat="43.2409160" lon="-4.8901550">
        <ele>495.1</ele>
        <time>2021-12-21T12:15:00Z</time>
      </trkpt>
      <trkpt lat="43.2408770" lon="-4.8901660">
        <ele>496.0</ele>
        <time>2021-12-21T12:15:03Z</time>
      </trkpt>
      <trkpt lat="43.2408570" lon="-4.8901790">
        <ele>496.5</ele>
        <time>2021-12-21T12:15:05Z</time>
      </trkpt>
      <trkpt lat="43.2408300" lon="-4.8902210">
        <ele>497.5</ele>
        <time>2021-12-21T12:15:08Z</time>
      </trkpt>
      <trkpt lat="43.2407730" lon="-4.8902520">
        <ele>498.9</ele>
        <time>2021-12-21T12:15:11Z</time>
      </trkpt>
      <trkpt lat="43.2407350" lon="-4.8902830">
        <ele>499.9</ele>
        <time>2021-12-21T12:15:13Z</time>
      </trkpt>
      <trkpt lat="43.2407120" lon="-4.8902980">
        <ele>500.4</ele>
        <time>2021-12-21T12:15:16Z</time>
      </trkpt>
      <trkpt lat="43.2406800" lon="-4.8903190">
        <ele>501.2</ele>
        <time>2021-12-21T12:15:18Z</time>
      </trkpt>
      <trkpt lat="43.2406510" lon="-4.8903230">
        <ele>501.9</ele>
        <time>2021-12-21T12:15:21Z</time>
      </trkpt>
      <trkpt lat="43.2406200" lon="-4.8903500">
        <ele>502.7</ele>
        <time>2021-12-21T12:15:26Z</time>
      </trkpt>
      <trkpt lat="43.2406020" lon="-4.8903800">
        <ele>503.4</ele>
        <time>2021-12-21T12:15:29Z</time>
      </trkpt>
      <trkpt lat="43.2405840" lon="-4.8904080">
        <ele>504.0</ele>
        <time>2021-12-21T12:15:31Z</time>
      </trkpt>
      <trkpt lat="43.2405760" lon="-4.8904360">
        <ele>504.5</ele>
        <time>2021-12-21T12:15:34Z</time>
      </trkpt>
      <trkpt lat="43.2404660" lon="-4.8904710">
        <ele>507.1</ele>
        <time>2021-12-21T12:15:36Z</time>
      </trkpt>
      <trkpt lat="43.2404500" lon="-4.8904820">
        <ele>507.5</ele>
        <time>2021-12-21T12:15:42Z</time>
      </trkpt>
      <trkpt lat="43.2403900" lon="-4.8905000">
        <ele>508.9</ele>
        <time>2021-12-21T12:15:47Z</time>
      </trkpt>
      <trkpt lat="43.2403610" lon="-4.8905090">
        <ele>509.5</ele>
        <time>2021-12-21T12:16:02Z</time>
      </trkpt>
      <trkpt lat="43.2403240" lon="-4.8905180">
        <ele>510.4</ele>
        <time>2021-12-21T12:16:07Z</time>
      </trkpt>
      <trkpt lat="43.2403040" lon="-4.8905280">
        <ele>510.9</ele>
        <time>2021-12-21T12:16:18Z</time>
      </trkpt>
      <trkpt lat="43.2402680" lon="-4.8905500">
        <ele>511.8</ele>
        <time>2021-12-21T12:16:33Z</time>
      </trkpt>
      <trkpt lat="43.2402100" lon="-4.8905730">
        <ele>513.2</ele>
        <time>2021-12-21T12:16:36Z</time>
      </trkpt>
      <trkpt lat="43.2401780" lon="-4.8905930">
        <ele>514.0</ele>
        <time>2021-12-21T12:16:38Z</time>
      </trkpt>
      <trkpt lat="43.2401550" lon="-4.8906090">
        <ele>514.5</ele>
        <time>2021-12-21T12:16:41Z</time>
      </trkpt>
      <trkpt lat="43.2401250" lon="-4.8906360">
        <ele>515.4</ele>
        <time>2021-12-21T12:16:46Z</time>
      </trkpt>
      <trkpt lat="43.2401020" lon="-4.8906440">
        <ele>515.9</ele>
        <time>2021-12-21T12:16:59Z</time>
      </trkpt>
      <trkpt lat="43.2400480" lon="-4.8906950">
        <ele>517.4</ele>
        <time>2021-12-21T12:17:27Z</time>
      </trkpt>
      <trkpt lat="43.2400210" lon="-4.8907260">
        <ele>518.2</ele>
        <time>2021-12-21T12:17:32Z</time>
      </trkpt>
      <trkpt lat="43.2399630" lon="-4.8907660">
        <ele>519.7</ele>
        <time>2021-12-21T12:17:35Z</time>
      </trkpt>
      <trkpt lat="43.2399420" lon="-4.8908060">
        <ele>520.5</ele>
        <time>2021-12-21T12:17:37Z</time>
      </trkpt>
      <trkpt lat="43.2398910" lon="-4.8908430">
        <ele>521.8</ele>
        <time>2021-12-21T12:17:40Z</time>
      </trkpt>
      <trkpt lat="43.2398420" lon="-4.8909010">
        <ele>523.3</ele>
        <time>2021-12-21T12:17:43Z</time>
      </trkpt>
      <trkpt lat="43.2398060" lon="-4.8909240">
        <ele>524.2</ele>
        <time>2021-12-21T12:17:45Z</time>
      </trkpt>
      <trkpt lat="43.2397840" lon="-4.8909370">
        <ele>524.7</ele>
        <time>2021-12-21T12:17:48Z</time>
      </trkpt>
      <trkpt lat="43.2397550" lon="-4.8909500">
        <ele>525.4</ele>
        <time>2021-12-21T12:17:50Z</time>
      </trkpt>
      <trkpt lat="43.2397320" lon="-4.8909570">
        <ele>525.9</ele>
        <time>2021-12-21T12:17:53Z</time>
      </trkpt>
      <trkpt lat="43.2396790" lon="-4.8909690">
        <ele>527.2</ele>
        <time>2021-12-21T12:17:56Z</time>
      </trkpt>
      <trkpt lat="43.2396180" lon="-4.8910240">
        <ele>528.8</ele>
        <time>2021-12-21T12:17:58Z</time>
      </trkpt>
      <trkpt lat="43.2395880" lon="-4.8910220">
        <ele>529.5</ele>
        <time>2021-12-21T12:18:01Z</time>
      </trkpt>
      <trkpt lat="43.2395260" lon="-4.8910600">
        <ele>531.0</ele>
        <time>2021-12-21T12:18:03Z</time>
      </trkpt>
      <trkpt lat="43.2394990" lon="-4.8910770">
        <ele>531.7</ele>
        <time>2021-12-21T12:18:06Z</time>
      </trkpt>
      <trkpt lat="43.2394520" lon="-4.8910980">
        <ele>532.8</ele>
        <time>2021-12-21T12:18:08Z</time>
      </trkpt>
      <trkpt lat="43.2394240" lon="-4.8910840">
        <ele>533.5</ele>
        <time>2021-12-21T12:18:14Z</time>
      </trkpt>
      <trkpt lat="43.2393840" lon="-4.8910990">
        <ele>534.5</ele>
        <time>2021-12-21T12:18:16Z</time>
      </trkpt>
      <trkpt lat="43.2393550" lon="-4.8910970">
        <ele>535.1</ele>
        <time>2021-12-21T12:18:19Z</time>
      </trkpt>
      <trkpt lat="43.2393240" lon="-4.8910560">
        <ele>536.1</ele>
        <time>2021-12-21T12:18:21Z</time>
      </trkpt>
      <trkpt lat="43.2392960" lon="-4.8910710">
        <ele>536.8</ele>
        <time>2021-12-21T12:18:24Z</time>
      </trkpt>
      <trkpt lat="43.2392650" lon="-4.8910660">
        <ele>537.5</ele>
        <time>2021-12-21T12:18:27Z</time>
      </trkpt>
      <trkpt lat="43.2391990" lon="-4.8910630">
        <ele>539.0</ele>
        <time>2021-12-21T12:18:29Z</time>
      </trkpt>
      <trkpt lat="43.2391290" lon="-4.8910820">
        <ele>540.6</ele>
        <time>2021-12-21T12:18:32Z</time>
      </trkpt>
      <trkpt lat="43.2390550" lon="-4.8911160">
        <ele>542.4</ele>
        <time>2021-12-21T12:18:37Z</time>
      </trkpt>
      <trkpt lat="43.2390330" lon="-4.8911000">
        <ele>543.0</ele>
        <time>2021-12-21T12:18:39Z</time>
      </trkpt>
      <trkpt lat="43.2389940" lon="-4.8911010">
        <ele>543.8</ele>
        <time>2021-12-21T12:18:42Z</time>
      </trkpt>
      <trkpt lat="43.2389690" lon="-4.8911090">
        <ele>544.4</ele>
        <time>2021-12-21T12:18:47Z</time>
      </trkpt>
      <trkpt lat="43.2389260" lon="-4.8910920">
        <ele>545.4</ele>
        <time>2021-12-21T12:18:50Z</time>
      </trkpt>
      <trkpt lat="43.2388470" lon="-4.8910530">
        <ele>547.3</ele>
        <time>2021-12-21T12:18:52Z</time>
      </trkpt>
      <trkpt lat="43.2388200" lon="-4.8910500">
        <ele>548.0</ele>
        <time>2021-12-21T12:18:55Z</time>
      </trkpt>
      <trkpt lat="43.2388040" lon="-4.8910210">
        <ele>548.6</ele>
        <time>2021-12-21T12:18:57Z</time>
      </trkpt>
      <trkpt lat="43.2387770" lon="-4.8909570">
        <ele>549.8</ele>
        <time>2021-12-21T12:19:03Z</time>
      </trkpt>
      <trkpt lat="43.2387400" lon="-4.8908840">
        <ele>551.3</ele>
        <time>2021-12-21T12:19:05Z</time>
      </trkpt>
      <trkpt lat="43.2387420" lon="-4.8908770">
        <ele>551.4</ele>
        <time>2021-12-21T12:19:08Z</time>
      </trkpt>
      <trkpt lat="43.2387200" lon="-4.8908080">
        <ele>552.6</ele>
        <time>2021-12-21T12:19:10Z</time>
      </trkpt>
      <trkpt lat="43.2386830" lon="-4.8907640">
        <ele>553.7</ele>
        <time>2021-12-21T12:19:13Z</time>
      </trkpt>
      <trkpt lat="43.2386430" lon="-4.8907080">
        <ele>555.0</ele>
        <time>2021-12-21T12:19:15Z</time>
      </trkpt>
      <trkpt lat="43.2386160" lon="-4.8906880">
        <ele>555.7</ele>
        <time>2021-12-21T12:19:18Z</time>
      </trkpt>
      <trkpt lat="43.2385530" lon="-4.8907320">
        <ele>557.3</ele>
        <time>2021-12-21T12:19:21Z</time>
      </trkpt>
      <trkpt lat="43.2385190" lon="-4.8907320">
        <ele>557.1</ele>
        <time>2021-12-21T12:19:26Z</time>
      </trkpt>
      <trkpt lat="43.2385050" lon="-4.8907510">
        <ele>556.8</ele>
        <time>2021-12-21T12:19:28Z</time>
      </trkpt>
      <trkpt lat="43.2384650" lon="-4.8907230">
        <ele>556.1</ele>
        <time>2021-12-21T12:19:31Z</time>
      </trkpt>
      <trkpt lat="43.2384340" lon="-4.8907260">
        <ele>555.7</ele>
        <time>2021-12-21T12:19:34Z</time>
      </trkpt>
      <trkpt lat="43.2383450" lon="-4.8906510">
        <ele>555.1</ele>
        <time>2021-12-21T12:19:36Z</time>
      </trkpt>
      <trkpt lat="43.2383250" lon="-4.8906610">
        <ele>555.7</ele>
        <time>2021-12-21T12:19:39Z</time>
      </trkpt>
      <trkpt lat="43.2382800" lon="-4.8906970">
        <ele>557.3</ele>
        <time>2021-12-21T12:19:41Z</time>
      </trkpt>
      <trkpt lat="43.2382920" lon="-4.8908070">
        <ele>564.1</ele>
        <time>2021-12-21T12:19:44Z</time>
      </trkpt>
      <trkpt lat="43.2382850" lon="-4.8908610">
        <ele>567.3</ele>
        <time>2021-12-21T12:19:49Z</time>
      </trkpt>
      <trkpt lat="43.2382830" lon="-4.8908670">
        <ele>567.9</ele>
        <time>2021-12-21T12:19:52Z</time>
      </trkpt>
      <trkpt lat="43.2382560" lon="-4.8908350">
        <ele>565.5</ele>
        <time>2021-12-21T12:19:54Z</time>
      </trkpt>
      <trkpt lat="43.2383270" lon="-4.8908290">
        <ele>567.3</ele>
        <time>2021-12-21T12:19:59Z</time>
      </trkpt>
      <trkpt lat="43.2383180" lon="-4.8908340">
        <ele>567.6</ele>
        <time>2021-12-21T12:20:02Z</time>
      </trkpt>
      <trkpt lat="43.2382390" lon="-4.8908360">
        <ele>567.4</ele>
        <time>2021-12-21T12:20:07Z</time>
      </trkpt>
      <trkpt lat="43.2382920" lon="-4.8907620">
        <ele>566.1</ele>
        <time>2021-12-21T12:20:15Z</time>
      </trkpt>
      <trkpt lat="43.2381780" lon="-4.8906220">
        <ele>559.6</ele>
        <time>2021-12-21T12:20:23Z</time>
      </trkpt>
      <trkpt lat="43.2381660" lon="-4.8905860">
        <ele>559.1</ele>
        <time>2021-12-21T12:20:25Z</time>
      </trkpt>
      <trkpt lat="43.2380020" lon="-4.8904080">
        <ele>556.1</ele>
        <time>2021-12-21T12:20:28Z</time>
      </trkpt>
      <trkpt lat="43.2378530" lon="-4.8897150">
        <ele>567.0</ele>
        <time>2021-12-21T12:20:30Z</time>
      </trkpt>
      <trkpt lat="43.2378460" lon="-4.8894840">
        <ele>587.5</ele>
        <time>2021-12-21T12:20:33Z</time>
      </trkpt>
      <trkpt lat="43.2375580" lon="-4.8893920">
        <ele>600.2</ele>
        <time>2021-12-21T12:20:35Z</time>
      </trkpt>
      <trkpt lat="43.2374550" lon="-4.8893820">
        <ele>606.7</ele>
        <time>2021-12-21T12:20:38Z</time>
      </trkpt>
      <trkpt lat="43.2374430" lon="-4.8893970">
        <ele>603.0</ele>
        <time>2021-12-21T12:20:41Z</time>
      </trkpt>
      <trkpt lat="43.2374100" lon="-4.8893500">
        <ele>608.8</ele>
        <time>2021-12-21T12:20:43Z</time>
      </trkpt>
      <trkpt lat="43.2373940" lon="-4.8893300">
        <ele>614.2</ele>
        <time>2021-12-21T12:20:46Z</time>
      </trkpt>
      <trkpt lat="43.2373290" lon="-4.8893330">
        <ele>615.7</ele>
        <time>2021-12-21T12:20:48Z</time>
      </trkpt>
      <trkpt lat="43.2373010" lon="-4.8892960">
        <ele>621.5</ele>
        <time>2021-12-21T12:20:51Z</time>
      </trkpt>
      <trkpt lat="43.2373300" lon="-4.8892810">
        <ele>621.7</ele>
        <time>2021-12-21T12:20:54Z</time>
      </trkpt>
      <trkpt lat="43.2374870" lon="-4.8890960">
        <ele>633.6</ele>
        <time>2021-12-21T12:20:56Z</time>
      </trkpt>
      <trkpt lat="43.2374680" lon="-4.8889700">
        <ele>643.2</ele>
        <time>2021-12-21T12:21:01Z</time>
      </trkpt>
      <trkpt lat="43.2374160" lon="-4.8888610">
        <ele>652.5</ele>
        <time>2021-12-21T12:21:06Z</time>
      </trkpt>
      <trkpt lat="43.2375920" lon="-4.8890050">
        <ele>637.3</ele>
        <time>2021-12-21T12:21:11Z</time>
      </trkpt>
      <trkpt lat="43.2375840" lon="-4.8890600">
        <ele>635.5</ele>
        <time>2021-12-21T12:21:17Z</time>
      </trkpt>
      <trkpt lat="43.2374360" lon="-4.8889230">
        <ele>649.0</ele>
        <time>2021-12-21T12:21:22Z</time>
      </trkpt>
      <trkpt lat="43.2372560" lon="-4.8888820">
        <ele>658.8</ele>
        <time>2021-12-21T12:21:24Z</time>
      </trkpt>
      <trkpt lat="43.2371460" lon="-4.8888870">
        <ele>663.0</ele>
        <time>2021-12-21T12:21:30Z</time>
      </trkpt>
      <trkpt lat="43.2370590" lon="-4.8888390">
        <ele>668.1</ele>
        <time>2021-12-21T12:21:32Z</time>
      </trkpt>
      <trkpt lat="43.2369730" lon="-4.8887730">
        <ele>673.3</ele>
        <time>2021-12-21T12:21:37Z</time>
      </trkpt>
      <trkpt lat="43.2369570" lon="-4.8887840">
        <ele>673.9</ele>
        <time>2021-12-21T12:21:42Z</time>
      </trkpt>
      <trkpt lat="43.2369160" lon="-4.8888120">
        <ele>675.5</ele>
        <time>2021-12-21T12:21:48Z</time>
      </trkpt>
      <trkpt lat="43.2368110" lon="-4.8888780">
        <ele>675.1</ele>
        <time>2021-12-21T12:21:50Z</time>
      </trkpt>
      <trkpt lat="43.2366680" lon="-4.8890020">
        <ele>664.8</ele>
        <time>2021-12-21T12:21:55Z</time>
      </trkpt>
      <trkpt lat="43.2366200" lon="-4.8890590">
        <ele>659.9</ele>
        <time>2021-12-21T12:22:01Z</time>
      </trkpt>
      <trkpt lat="43.2365550" lon="-4.8891120">
        <ele>653.7</ele>
        <time>2021-12-21T12:22:03Z</time>
      </trkpt>
      <trkpt lat="43.2365140" lon="-4.8891240">
        <ele>652.8</ele>
        <time>2021-12-21T12:22:06Z</time>
      </trkpt>
      <trkpt lat="43.2364830" lon="-4.8891230">
        <ele>651.7</ele>
        <time>2021-12-21T12:22:11Z</time>
      </trkpt>
      <trkpt lat="43.2364440" lon="-4.8891470">
        <ele>643.0</ele>
        <time>2021-12-21T12:22:16Z</time>
      </trkpt>
      <trkpt lat="43.2364100" lon="-4.8891100">
        <ele>646.0</ele>
        <time>2021-12-21T12:22:21Z</time>
      </trkpt>
      <trkpt lat="43.2363710" lon="-4.8890880">
        <ele>643.8</ele>
        <time>2021-12-21T12:22:24Z</time>
      </trkpt>
      <trkpt lat="43.2363420" lon="-4.8890920">
        <ele>641.4</ele>
        <time>2021-12-21T12:22:26Z</time>
      </trkpt>
      <trkpt lat="43.2363000" lon="-4.8891010">
        <ele>638.9</ele>
        <time>2021-12-21T12:22:29Z</time>
      </trkpt>
      <trkpt lat="43.2362850" lon="-4.8891130">
        <ele>636.3</ele>
        <time>2021-12-21T12:22:32Z</time>
      </trkpt>
      <trkpt lat="43.2362300" lon="-4.8891040">
        <ele>630.6</ele>
        <time>2021-12-21T12:22:37Z</time>
      </trkpt>
      <trkpt lat="43.2361920" lon="-4.8891190">
        <ele>628.0</ele>
        <time>2021-12-21T12:22:44Z</time>
      </trkpt>
      <trkpt lat="43.2361490" lon="-4.8891170">
        <ele>625.2</ele>
        <time>2021-12-21T12:22:47Z</time>
      </trkpt>
      <trkpt lat="43.2360860" lon="-4.8891700">
        <ele>613.7</ele>
        <time>2021-12-21T12:22:50Z</time>
      </trkpt>
      <trkpt lat="43.2360770" lon="-4.8892220">
        <ele>604.5</ele>
        <time>2021-12-21T12:22:52Z</time>
      </trkpt>
      <trkpt lat="43.2360580" lon="-4.8892600">
        <ele>596.4</ele>
        <time>2021-12-21T12:22:55Z</time>
      </trkpt>
      <trkpt lat="43.2360490" lon="-4.8892910">
        <ele>597.0</ele>
        <time>2021-12-21T12:22:57Z</time>
      </trkpt>
      <trkpt lat="43.2360290" lon="-4.8893160">
        <ele>588.9</ele>
        <time>2021-12-21T12:23:00Z</time>
      </trkpt>
      <trkpt lat="43.2360020" lon="-4.8893900">
        <ele>575.8</ele>
        <time>2021-12-21T12:23:02Z</time>
      </trkpt>
      <trkpt lat="43.2359940" lon="-4.8894400">
        <ele>571.2</ele>
        <time>2021-12-21T12:23:05Z</time>
      </trkpt>
      <trkpt lat="43.2359830" lon="-4.8895580">
        <ele>561.2</ele>
        <time>2021-12-21T12:23:10Z</time>
      </trkpt>
      <trkpt lat="43.2359590" lon="-4.8895920">
        <ele>554.0</ele>
        <time>2021-12-21T12:23:13Z</time>
      </trkpt>
      <trkpt lat="43.2359390" lon="-4.8896460">
        <ele>542.4</ele>
        <time>2021-12-21T12:23:21Z</time>
      </trkpt>
      <trkpt lat="43.2359140" lon="-4.8896780">
        <ele>541.0</ele>
        <time>2021-12-21T12:23:23Z</time>
      </trkpt>
      <trkpt lat="43.2358440" lon="-4.8897670">
        <ele>528.8</ele>
        <time>2021-12-21T12:23:26Z</time>
      </trkpt>
      <trkpt lat="43.2358910" lon="-4.8899090">
        <ele>518.9</ele>
        <time>2021-12-21T12:23:28Z</time>
      </trkpt>
      <trkpt lat="43.2358930" lon="-4.8899900">
        <ele>515.4</ele>
        <time>2021-12-21T12:23:31Z</time>
      </trkpt>
      <trkpt lat="43.2358770" lon="-4.8900720">
        <ele>513.0</ele>
        <time>2021-12-21T12:23:33Z</time>
      </trkpt>
      <trkpt lat="43.2358770" lon="-4.8900920">
        <ele>512.1</ele>
        <time>2021-12-21T12:23:36Z</time>
      </trkpt>
      <trkpt lat="43.2357980" lon="-4.8901000">
        <ele>509.6</ele>
        <time>2021-12-21T12:23:39Z</time>
      </trkpt>
      <trkpt lat="43.2357930" lon="-4.8903610">
        <ele>498.2</ele>
        <time>2021-12-21T12:23:41Z</time>
      </trkpt>
      <trkpt lat="43.2358050" lon="-4.8904530">
        <ele>493.5</ele>
        <time>2021-12-21T12:23:44Z</time>
      </trkpt>
      <trkpt lat="43.2358190" lon="-4.8904690">
        <ele>491.5</ele>
        <time>2021-12-21T12:23:46Z</time>
      </trkpt>
      <trkpt lat="43.2358230" lon="-4.8904830">
        <ele>492.1</ele>
        <time>2021-12-21T12:23:51Z</time>
      </trkpt>
      <trkpt lat="43.2358690" lon="-4.8906760">
        <ele>487.6</ele>
        <time>2021-12-21T12:23:54Z</time>
      </trkpt>
      <trkpt lat="43.2358040" lon="-4.8908190">
        <ele>486.6</ele>
        <time>2021-12-21T12:23:59Z</time>
      </trkpt>
      <trkpt lat="43.2357560" lon="-4.8913050">
        <ele>497.7</ele>
        <time>2021-12-21T12:24:04Z</time>
      </trkpt>
      <trkpt lat="43.2357460" lon="-4.8917830">
        <ele>502.5</ele>
        <time>2021-12-21T12:24:09Z</time>
      </trkpt>
      <trkpt lat="43.2356290" lon="-4.8918910">
        <ele>504.4</ele>
        <time>2021-12-21T12:24:12Z</time>
      </trkpt>
      <trkpt lat="43.2356100" lon="-4.8920200">
        <ele>505.7</ele>
        <time>2021-12-21T12:24:15Z</time>
      </trkpt>
      <trkpt lat="43.2357670" lon="-4.8921420">
        <ele>508.2</ele>
        <time>2021-12-21T12:24:20Z</time>
      </trkpt>
      <trkpt lat="43.2358050" lon="-4.8921900">
        <ele>508.9</ele>
        <time>2021-12-21T12:24:22Z</time>
      </trkpt>
      <trkpt lat="43.2358360" lon="-4.8922070">
        <ele>509.4</ele>
        <time>2021-12-21T12:24:25Z</time>
      </trkpt>
      <trkpt lat="43.2358600" lon="-4.8922020">
        <ele>509.7</ele>
        <time>2021-12-21T12:24:28Z</time>
      </trkpt>
      <trkpt lat="43.2359210" lon="-4.8921940">
        <ele>510.6</ele>
        <time>2021-12-21T12:24:30Z</time>
      </trkpt>
      <trkpt lat="43.2360040" lon="-4.8922930">
        <ele>512.1</ele>
        <time>2021-12-21T12:24:33Z</time>
      </trkpt>
      <trkpt lat="43.2361250" lon="-4.8921940">
        <ele>511.0</ele>
        <time>2021-12-21T12:24:38Z</time>
      </trkpt>
      <trkpt lat="43.2361820" lon="-4.8921260">
        <ele>509.8</ele>
        <time>2021-12-21T12:24:40Z</time>
      </trkpt>
      <trkpt lat="43.2362290" lon="-4.8920790">
        <ele>509.0</ele>
        <time>2021-12-21T12:24:43Z</time>
      </trkpt>
      <trkpt lat="43.2363160" lon="-4.8920360">
        <ele>507.6</ele>
        <time>2021-12-21T12:24:48Z</time>
      </trkpt>
      <trkpt lat="43.2363730" lon="-4.8919820">
        <ele>506.5</ele>
        <time>2021-12-21T12:24:53Z</time>
      </trkpt>
      <trkpt lat="43.2363900" lon="-4.8919210">
        <ele>505.8</ele>
        <time>2021-12-21T12:24:56Z</time>
      </trkpt>
      <trkpt lat="43.2363710" lon="-4.8918980">
        <ele>505.5</ele>
        <time>2021-12-21T12:24:59Z</time>
      </trkpt>
      <trkpt lat="43.2363680" lon="-4.8918460">
        <ele>504.9</ele>
        <time>2021-12-21T12:25:01Z</time>
      </trkpt>
      <trkpt lat="43.2363580" lon="-4.8918220">
        <ele>504.6</ele>
        <time>2021-12-21T12:25:04Z</time>
      </trkpt>
      <trkpt lat="43.2363220" lon="-4.8917910">
        <ele>504.0</ele>
        <time>2021-12-21T12:25:06Z</time>
      </trkpt>
      <trkpt lat="43.2362780" lon="-4.8917610">
        <ele>503.2</ele>
        <time>2021-12-21T12:25:09Z</time>
      </trkpt>
      <trkpt lat="43.2362250" lon="-4.8917370">
        <ele>502.4</ele>
        <time>2021-12-21T12:25:11Z</time>
      </trkpt>
      <trkpt lat="43.2361760" lon="-4.8917150">
        <ele>501.6</ele>
        <time>2021-12-21T12:25:14Z</time>
      </trkpt>
      <trkpt lat="43.2361420" lon="-4.8916960">
        <ele>501.1</ele>
        <time>2021-12-21T12:25:19Z</time>
      </trkpt>
      <trkpt lat="43.2361090" lon="-4.8916660">
        <ele>500.5</ele>
        <time>2021-12-21T12:25:22Z</time>
      </trkpt>
      <trkpt lat="43.2360830" lon="-4.8916380">
        <ele>500.0</ele>
        <time>2021-12-21T12:25:29Z</time>
      </trkpt>
      <trkpt lat="43.2360270" lon="-4.8915640">
        <ele>498.8</ele>
        <time>2021-12-21T12:25:32Z</time>
      </trkpt>
      <trkpt lat="43.2360110" lon="-4.8915390">
        <ele>498.5</ele>
        <time>2021-12-21T12:25:35Z</time>
      </trkpt>
      <trkpt lat="43.2359830" lon="-4.8915020">
        <ele>497.9</ele>
        <time>2021-12-21T12:25:40Z</time>
      </trkpt>
      <trkpt lat="43.2359680" lon="-4.8914720">
        <ele>497.5</ele>
        <time>2021-12-21T12:25:45Z</time>
      </trkpt>
      <trkpt lat="43.2359420" lon="-4.8914330">
        <ele>496.9</ele>
        <time>2021-12-21T12:25:47Z</time>
      </trkpt>
      <trkpt lat="43.2359200" lon="-4.8913950">
        <ele>496.4</ele>
        <time>2021-12-21T12:25:50Z</time>
      </trkpt>
      <trkpt lat="43.2359150" lon="-4.8913700">
        <ele>496.1</ele>
        <time>2021-12-21T12:25:53Z</time>
      </trkpt>
      <trkpt lat="43.2358880" lon="-4.8913360">
        <ele>495.6</ele>
        <time>2021-12-21T12:25:55Z</time>
      </trkpt>
      <trkpt lat="43.2358560" lon="-4.8912690">
        <ele>494.8</ele>
        <time>2021-12-21T12:25:58Z</time>
      </trkpt>
      <trkpt lat="43.2358390" lon="-4.8912370">
        <ele>494.3</ele>
        <time>2021-12-21T12:26:00Z</time>
      </trkpt>
      <trkpt lat="43.2358230" lon="-4.8911970">
        <ele>493.9</ele>
        <time>2021-12-21T12:26:03Z</time>
      </trkpt>
      <trkpt lat="43.2357780" lon="-4.8911360">
        <ele>493.0</ele>
        <time>2021-12-21T12:26:05Z</time>
      </trkpt>
      <trkpt lat="43.2357530" lon="-4.8911110">
        <ele>492.6</ele>
        <time>2021-12-21T12:26:11Z</time>
      </trkpt>
      <trkpt lat="43.2357300" lon="-4.8910920">
        <ele>492.2</ele>
        <time>2021-12-21T12:26:16Z</time>
      </trkpt>
      <trkpt lat="43.2356960" lon="-4.8910870">
        <ele>491.7</ele>
        <time>2021-12-21T12:26:18Z</time>
      </trkpt>
      <trkpt lat="43.2356700" lon="-4.8910890">
        <ele>491.4</ele>
        <time>2021-12-21T12:26:21Z</time>
      </trkpt>
      <trkpt lat="43.2356020" lon="-4.8910810">
        <ele>490.5</ele>
        <time>2021-12-21T12:26:23Z</time>
      </trkpt>
      <trkpt lat="43.2355750" lon="-4.8910790">
        <ele>490.1</ele>
        <time>2021-12-21T12:26:26Z</time>
      </trkpt>
      <trkpt lat="43.2355270" lon="-4.8910590">
        <ele>489.5</ele>
        <time>2021-12-21T12:26:29Z</time>
      </trkpt>
      <trkpt lat="43.2355040" lon="-4.8910470">
        <ele>489.2</ele>
        <time>2021-12-21T12:26:31Z</time>
      </trkpt>
      <trkpt lat="43.2354610" lon="-4.8910230">
        <ele>488.6</ele>
        <time>2021-12-21T12:26:34Z</time>
      </trkpt>
      <trkpt lat="43.2354400" lon="-4.8910180">
        <ele>488.3</ele>
        <time>2021-12-21T12:26:39Z</time>
      </trkpt>
      <trkpt lat="43.2354100" lon="-4.8910030">
        <ele>488.0</ele>
        <time>2021-12-21T12:26:42Z</time>
      </trkpt>
      <trkpt lat="43.2353870" lon="-4.8909990">
        <ele>487.7</ele>
        <time>2021-12-21T12:26:44Z</time>
      </trkpt>
      <trkpt lat="43.2353320" lon="-4.8909610">
        <ele>487.0</ele>
        <time>2021-12-21T12:26:47Z</time>
      </trkpt>
      <trkpt lat="43.2352940" lon="-4.8909680">
        <ele>486.6</ele>
        <time>2021-12-21T12:26:57Z</time>
      </trkpt>
      <trkpt lat="43.2352820" lon="-4.8908610">
        <ele>485.6</ele>
        <time>2021-12-21T12:27:00Z</time>
      </trkpt>
      <trkpt lat="43.2352370" lon="-4.8908620">
        <ele>485.1</ele>
        <time>2021-12-21T12:27:02Z</time>
      </trkpt>
      <trkpt lat="43.2352130" lon="-4.8908690">
        <ele>484.7</ele>
        <time>2021-12-21T12:27:05Z</time>
      </trkpt>
      <trkpt lat="43.2351570" lon="-4.8908870">
        <ele>483.9</ele>
        <time>2021-12-21T12:27:10Z</time>
      </trkpt>
      <trkpt lat="43.2351350" lon="-4.8908660">
        <ele>483.5</ele>
        <time>2021-12-21T12:27:15Z</time>
      </trkpt>
      <trkpt lat="43.2351050" lon="-4.8907990">
        <ele>482.7</ele>
        <time>2021-12-21T12:27:18Z</time>
      </trkpt>
      <trkpt lat="43.2350820" lon="-4.8906710">
        <ele>481.6</ele>
        <time>2021-12-21T12:27:23Z</time>
      </trkpt>
      <trkpt lat="43.2350610" lon="-4.8906320">
        <ele>481.2</ele>
        <time>2021-12-21T12:27:25Z</time>
      </trkpt>
      <trkpt lat="43.2350380" lon="-4.8906620">
        <ele>480.8</ele>
        <time>2021-12-21T12:27:31Z</time>
      </trkpt>
      <trkpt lat="43.2349760" lon="-4.8907270">
        <ele>480.0</ele>
        <time>2021-12-21T12:27:36Z</time>
      </trkpt>
      <trkpt lat="43.2349280" lon="-4.8907180">
        <ele>479.5</ele>
        <time>2021-12-21T12:27:41Z</time>
      </trkpt>
      <trkpt lat="43.2348640" lon="-4.8907310">
        <ele>478.9</ele>
        <time>2021-12-21T12:27:46Z</time>
      </trkpt>
      <trkpt lat="43.2348390" lon="-4.8907330">
        <ele>478.6</ele>
        <time>2021-12-21T12:28:22Z</time>
      </trkpt>
      <trkpt lat="43.2347440" lon="-4.8907550">
        <ele>477.6</ele>
        <time>2021-12-21T12:28:27Z</time>
      </trkpt>
      <trkpt lat="43.2347130" lon="-4.8907530">
        <ele>477.3</ele>
        <time>2021-12-21T12:28:30Z</time>
      </trkpt>
      <trkpt lat="43.2346860" lon="-4.8907410">
        <ele>477.1</ele>
        <time>2021-12-21T12:28:35Z</time>
      </trkpt>
      <trkpt lat="43.2346630" lon="-4.8907100">
        <ele>476.7</ele>
        <time>2021-12-21T12:28:40Z</time>
      </trkpt>
      <trkpt lat="43.2346190" lon="-4.8907470">
        <ele>476.3</ele>
        <time>2021-12-21T12:28:45Z</time>
      </trkpt>
      <trkpt lat="43.2345970" lon="-4.8907720">
        <ele>476.0</ele>
        <time>2021-12-21T12:28:51Z</time>
      </trkpt>
      <trkpt lat="43.2345610" lon="-4.8907670">
        <ele>475.7</ele>
        <time>2021-12-21T12:28:58Z</time>
      </trkpt>
      <trkpt lat="43.2345270" lon="-4.8907780">
        <ele>475.4</ele>
        <time>2021-12-21T12:29:01Z</time>
      </trkpt>
      <trkpt lat="43.2344990" lon="-4.8907790">
        <ele>475.1</ele>
        <time>2021-12-21T12:29:03Z</time>
      </trkpt>
      <trkpt lat="43.2344640" lon="-4.8907680">
        <ele>474.8</ele>
        <time>2021-12-21T12:29:06Z</time>
      </trkpt>
      <trkpt lat="43.2344360" lon="-4.8907770">
        <ele>474.6</ele>
        <time>2021-12-21T12:29:09Z</time>
      </trkpt>
      <trkpt lat="43.2344000" lon="-4.8907570">
        <ele>474.3</ele>
        <time>2021-12-21T12:29:11Z</time>
      </trkpt>
      <trkpt lat="43.2343690" lon="-4.8907430">
        <ele>474.0</ele>
        <time>2021-12-21T12:29:14Z</time>
      </trkpt>
      <trkpt lat="43.2343420" lon="-4.8907490">
        <ele>473.8</ele>
        <time>2021-12-21T12:29:16Z</time>
      </trkpt>
      <trkpt lat="43.2343040" lon="-4.8907560">
        <ele>473.4</ele>
        <time>2021-12-21T12:29:19Z</time>
      </trkpt>
      <trkpt lat="43.2342750" lon="-4.8907710">
        <ele>473.2</ele>
        <time>2021-12-21T12:29:21Z</time>
      </trkpt>
      <trkpt lat="43.2342400" lon="-4.8907950">
        <ele>472.9</ele>
        <time>2021-12-21T12:29:24Z</time>
      </trkpt>
      <trkpt lat="43.2342000" lon="-4.8908270">
        <ele>472.5</ele>
        <time>2021-12-21T12:29:27Z</time>
      </trkpt>
      <trkpt lat="43.2341570" lon="-4.8908580">
        <ele>472.1</ele>
        <time>2021-12-21T12:29:32Z</time>
      </trkpt>
      <trkpt lat="43.2341360" lon="-4.8908620">
        <ele>471.9</ele>
        <time>2021-12-21T12:29:37Z</time>
      </trkpt>
      <trkpt lat="43.2340720" lon="-4.8908920">
        <ele>471.3</ele>
        <time>2021-12-21T12:29:40Z</time>
      </trkpt>
      <trkpt lat="43.2340440" lon="-4.8908890">
        <ele>471.0</ele>
        <time>2021-12-21T12:29:45Z</time>
      </trkpt>
      <trkpt lat="43.2340120" lon="-4.8909260">
        <ele>470.6</ele>
        <time>2021-12-21T12:29:47Z</time>
      </trkpt>
      <trkpt lat="43.2339870" lon="-4.8909930">
        <ele>470.0</ele>
        <time>2021-12-21T12:29:52Z</time>
      </trkpt>
      <trkpt lat="43.2339610" lon="-4.8910650">
        <ele>469.4</ele>
        <time>2021-12-21T12:29:55Z</time>
      </trkpt>
      <trkpt lat="43.2339600" lon="-4.8910840">
        <ele>469.3</ele>
        <time>2021-12-21T12:29:58Z</time>
      </trkpt>
      <trkpt lat="43.2339650" lon="-4.8911540">
        <ele>468.7</ele>
        <time>2021-12-21T12:30:03Z</time>
      </trkpt>
      <trkpt lat="43.2339410" lon="-4.8912480">
        <ele>467.9</ele>
        <time>2021-12-21T12:30:08Z</time>
      </trkpt>
      <trkpt lat="43.2339330" lon="-4.8912600">
        <ele>467.8</ele>
        <time>2021-12-21T12:30:10Z</time>
      </trkpt>
      <trkpt lat="43.2339060" lon="-4.8912820">
        <ele>467.5</ele>
        <time>2021-12-21T12:30:13Z</time>
      </trkpt>
      <trkpt lat="43.2338830" lon="-4.8913270">
        <ele>467.0</ele>
        <time>2021-12-21T12:30:18Z</time>
      </trkpt>
      <trkpt lat="43.2338770" lon="-4.8914110">
        <ele>466.4</ele>
        <time>2021-12-21T12:30:21Z</time>
      </trkpt>
      <trkpt lat="43.2338660" lon="-4.8915000">
        <ele>465.7</ele>
        <time>2021-12-21T12:30:26Z</time>
      </trkpt>
      <trkpt lat="43.2338480" lon="-4.8915580">
        <ele>460.7</ele>
        <time>2021-12-21T12:30:31Z</time>
      </trkpt>
      <trkpt lat="43.2338410" lon="-4.8915830">
        <ele>460.6</ele>
        <time>2021-12-21T12:30:39Z</time>
      </trkpt>
      <trkpt lat="43.2338240" lon="-4.8916150">
        <ele>460.6</ele>
        <time>2021-12-21T12:30:41Z</time>
      </trkpt>
      <trkpt lat="43.2338140" lon="-4.8916360">
        <ele>460.6</ele>
        <time>2021-12-21T12:30:46Z</time>
      </trkpt>
      <trkpt lat="43.2337930" lon="-4.8916180">
        <ele>460.6</ele>
        <time>2021-12-21T12:30:49Z</time>
      </trkpt>
      <trkpt lat="43.2338990" lon="-4.8914850">
        <ele>460.5</ele>
        <time>2021-12-21T12:30:54Z</time>
      </trkpt>
      <trkpt lat="43.2339560" lon="-4.8914370">
        <ele>460.5</ele>
        <time>2021-12-21T12:30:57Z</time>
      </trkpt>
      <trkpt lat="43.2340080" lon="-4.8913700">
        <ele>460.4</ele>
        <time>2021-12-21T12:30:59Z</time>
      </trkpt>
      <trkpt lat="43.2340450" lon="-4.8913580">
        <ele>460.4</ele>
        <time>2021-12-21T12:31:02Z</time>
      </trkpt>
      <trkpt lat="43.2340760" lon="-4.8913070">
        <ele>460.3</ele>
        <time>2021-12-21T12:31:05Z</time>
      </trkpt>
      <trkpt lat="43.2340840" lon="-4.8912620">
        <ele>460.3</ele>
        <time>2021-12-21T12:31:10Z</time>
      </trkpt>
      <trkpt lat="43.2340990" lon="-4.8911810">
        <ele>460.2</ele>
        <time>2021-12-21T12:31:12Z</time>
      </trkpt>
      <trkpt lat="43.2341110" lon="-4.8911310">
        <ele>460.1</ele>
        <time>2021-12-21T12:31:15Z</time>
      </trkpt>
      <trkpt lat="43.2341700" lon="-4.8910420">
        <ele>459.9</ele>
        <time>2021-12-21T12:31:17Z</time>
      </trkpt>
      <trkpt lat="43.2341360" lon="-4.8909160">
        <ele>459.8</ele>
        <time>2021-12-21T12:31:20Z</time>
      </trkpt>
      <trkpt lat="43.2341730" lon="-4.8909350">
        <ele>459.7</ele>
        <time>2021-12-21T12:31:25Z</time>
      </trkpt>
      <trkpt lat="43.2340780" lon="-4.8906640">
        <ele>459.1</ele>
        <time>2021-12-21T12:31:28Z</time>
      </trkpt>
      <trkpt lat="43.2339580" lon="-4.8907090">
        <ele>458.8</ele>
        <time>2021-12-21T12:31:30Z</time>
      </trkpt>
      <trkpt lat="43.2337810" lon="-4.8907560">
        <ele>458.3</ele>
        <time>2021-12-21T12:31:36Z</time>
      </trkpt>
      <trkpt lat="43.2337510" lon="-4.8907430">
        <ele>458.2</ele>
        <time>2021-12-21T12:31:41Z</time>
      </trkpt>
      <trkpt lat="43.2336570" lon="-4.8907100">
        <ele>457.9</ele>
        <time>2021-12-21T12:31:43Z</time>
      </trkpt>
      <trkpt lat="43.2336140" lon="-4.8907220">
        <ele>457.7</ele>
        <time>2021-12-21T12:31:46Z</time>
      </trkpt>
      <trkpt lat="43.2335310" lon="-4.8907260">
        <ele>457.5</ele>
        <time>2021-12-21T12:31:48Z</time>
      </trkpt>
      <trkpt lat="43.2334700" lon="-4.8907250">
        <ele>457.4</ele>
        <time>2021-12-21T12:31:54Z</time>
      </trkpt>
      <trkpt lat="43.2334430" lon="-4.8907190">
        <ele>457.3</ele>
        <time>2021-12-21T12:31:56Z</time>
      </trkpt>
      <trkpt lat="43.2334100" lon="-4.8907250">
        <ele>457.2</ele>
        <time>2021-12-21T12:31:59Z</time>
      </trkpt>
      <trkpt lat="43.2333970" lon="-4.8907280">
        <ele>457.2</ele>
        <time>2021-12-21T12:32:01Z</time>
      </trkpt>
      <trkpt lat="43.2333420" lon="-4.8907280">
        <ele>457.1</ele>
        <time>2021-12-21T12:32:04Z</time>
      </trkpt>
      <trkpt lat="43.2333100" lon="-4.8907280">
        <ele>457.1</ele>
        <time>2021-12-21T12:32:06Z</time>
      </trkpt>
      <trkpt lat="43.2332540" lon="-4.8907130">
        <ele>457.0</ele>
        <time>2021-12-21T12:32:09Z</time>
      </trkpt>
      <trkpt lat="43.2332090" lon="-4.8906770">
        <ele>456.9</ele>
        <time>2021-12-21T12:32:12Z</time>
      </trkpt>
      <trkpt lat="43.2331540" lon="-4.8906300">
        <ele>456.8</ele>
        <time>2021-12-21T12:32:14Z</time>
      </trkpt>
      <trkpt lat="43.2331250" lon="-4.8906010">
        <ele>456.8</ele>
        <time>2021-12-21T12:32:17Z</time>
      </trkpt>
      <trkpt lat="43.2330940" lon="-4.8905830">
        <ele>456.7</ele>
        <time>2021-12-21T12:32:19Z</time>
      </trkpt>
      <trkpt lat="43.2330560" lon="-4.8905300">
        <ele>456.6</ele>
        <time>2021-12-21T12:32:22Z</time>
      </trkpt>
      <trkpt lat="43.2330410" lon="-4.8904980">
        <ele>456.6</ele>
        <time>2021-12-21T12:32:24Z</time>
      </trkpt>
      <trkpt lat="43.2329950" lon="-4.8904660">
        <ele>456.5</ele>
        <time>2021-12-21T12:32:27Z</time>
      </trkpt>
      <trkpt lat="43.2329740" lon="-4.8904240">
        <ele>456.5</ele>
        <time>2021-12-21T12:32:30Z</time>
      </trkpt>
      <trkpt lat="43.2329860" lon="-4.8903940">
        <ele>456.5</ele>
        <time>2021-12-21T12:32:32Z</time>
      </trkpt>
      <trkpt lat="43.2329840" lon="-4.8903530">
        <ele>456.4</ele>
        <time>2021-12-21T12:32:35Z</time>
      </trkpt>
      <trkpt lat="43.2329230" lon="-4.8901590">
        <ele>456.2</ele>
        <time>2021-12-21T12:32:37Z</time>
      </trkpt>
      <trkpt lat="43.2329210" lon="-4.8900620">
        <ele>456.2</ele>
        <time>2021-12-21T12:32:43Z</time>
      </trkpt>
      <trkpt lat="43.2328580" lon="-4.8900460">
        <ele>456.1</ele>
        <time>2021-12-21T12:32:48Z</time>
      </trkpt>
      <trkpt lat="43.2327810" lon="-4.8900810">
        <ele>456.1</ele>
        <time>2021-12-21T12:32:53Z</time>
      </trkpt>
      <trkpt lat="43.2327400" lon="-4.8901250">
        <ele>456.0</ele>
        <time>2021-12-21T12:32:58Z</time>
      </trkpt>
      <trkpt lat="43.2326920" lon="-4.8901730">
        <ele>456.0</ele>
        <time>2021-12-21T12:33:01Z</time>
      </trkpt>
      <trkpt lat="43.2326620" lon="-4.8902230">
        <ele>455.9</ele>
        <time>2021-12-21T12:33:03Z</time>
      </trkpt>
      <trkpt lat="43.2326370" lon="-4.8902530">
        <ele>455.9</ele>
        <time>2021-12-21T12:33:06Z</time>
      </trkpt>
      <trkpt lat="43.2325990" lon="-4.8902810">
        <ele>455.8</ele>
        <time>2021-12-21T12:33:08Z</time>
      </trkpt>
      <trkpt lat="43.2325880" lon="-4.8903170">
        <ele>455.8</ele>
        <time>2021-12-21T12:33:11Z</time>
      </trkpt>
      <trkpt lat="43.2325750" lon="-4.8903680">
        <ele>455.8</ele>
        <time>2021-12-21T12:33:13Z</time>
      </trkpt>
      <trkpt lat="43.2325700" lon="-4.8904070">
        <ele>455.7</ele>
        <time>2021-12-21T12:33:16Z</time>
      </trkpt>
      <trkpt lat="43.2325770" lon="-4.8904540">
        <ele>455.7</ele>
        <time>2021-12-21T12:33:19Z</time>
      </trkpt>
      <trkpt lat="43.2325900" lon="-4.8905200">
        <ele>455.6</ele>
        <time>2021-12-21T12:33:21Z</time>
      </trkpt>
      <trkpt lat="43.2325920" lon="-4.8905190">
        <ele>455.6</ele>
        <time>2021-12-21T12:33:24Z</time>
      </trkpt>
      <trkpt lat="43.2325110" lon="-4.8905770">
        <ele>455.5</ele>
        <time>2021-12-21T12:33:29Z</time>
      </trkpt>
      <trkpt lat="43.2324800" lon="-4.8905930">
        <ele>455.5</ele>
        <time>2021-12-21T12:33:34Z</time>
      </trkpt>
      <trkpt lat="43.2324620" lon="-4.8905880">
        <ele>455.5</ele>
        <time>2021-12-21T12:33:55Z</time>
      </trkpt>
      <trkpt lat="43.2324060" lon="-4.8906200">
        <ele>455.4</ele>
        <time>2021-12-21T12:33:57Z</time>
      </trkpt>
      <trkpt lat="43.2323330" lon="-4.8906770">
        <ele>455.3</ele>
        <time>2021-12-21T12:34:00Z</time>
      </trkpt>
      <trkpt lat="43.2323290" lon="-4.8907270">
        <ele>455.3</ele>
        <time>2021-12-21T12:34:02Z</time>
      </trkpt>
      <trkpt lat="43.2323040" lon="-4.8907680">
        <ele>455.2</ele>
        <time>2021-12-21T12:34:08Z</time>
      </trkpt>
      <trkpt lat="43.2322820" lon="-4.8908100">
        <ele>455.2</ele>
        <time>2021-12-21T12:34:26Z</time>
      </trkpt>
      <trkpt lat="43.2322760" lon="-4.8908370">
        <ele>455.2</ele>
        <time>2021-12-21T12:34:31Z</time>
      </trkpt>
      <trkpt lat="43.2322500" lon="-4.8908870">
        <ele>455.1</ele>
        <time>2021-12-21T12:35:04Z</time>
      </trkpt>
      <trkpt lat="43.2322350" lon="-4.8909220">
        <ele>455.1</ele>
        <time>2021-12-21T12:35:07Z</time>
      </trkpt>
      <trkpt lat="43.2322200" lon="-4.8909660">
        <ele>455.0</ele>
        <time>2021-12-21T12:35:12Z</time>
      </trkpt>
      <trkpt lat="43.2322000" lon="-4.8909870">
        <ele>455.0</ele>
        <time>2021-12-21T12:35:15Z</time>
      </trkpt>
      <trkpt lat="43.2321450" lon="-4.8909710">
        <ele>454.9</ele>
        <time>2021-12-21T12:35:20Z</time>
      </trkpt>
      <trkpt lat="43.2320730" lon="-4.8909600">
        <ele>454.9</ele>
        <time>2021-12-21T12:35:27Z</time>
      </trkpt>
      <trkpt lat="43.2320370" lon="-4.8909600">
        <ele>454.8</ele>
        <time>2021-12-21T12:35:30Z</time>
      </trkpt>
      <trkpt lat="43.2319940" lon="-4.8909640">
        <ele>454.8</ele>
        <time>2021-12-21T12:35:35Z</time>
      </trkpt>
      <trkpt lat="43.2319620" lon="-4.8909710">
        <ele>454.8</ele>
        <time>2021-12-21T12:37:05Z</time>
      </trkpt>
      <trkpt lat="43.2319170" lon="-4.8909690">
        <ele>454.7</ele>
        <time>2021-12-21T12:37:08Z</time>
      </trkpt>
      <trkpt lat="43.2318890" lon="-4.8909920">
        <ele>454.7</ele>
        <time>2021-12-21T12:37:10Z</time>
      </trkpt>
      <trkpt lat="43.2318740" lon="-4.8910140">
        <ele>454.7</ele>
        <time>2021-12-21T12:37:13Z</time>
      </trkpt>
      <trkpt lat="43.2318530" lon="-4.8910510">
        <ele>454.6</ele>
        <time>2021-12-21T12:37:16Z</time>
      </trkpt>
      <trkpt lat="43.2318270" lon="-4.8911260">
        <ele>454.6</ele>
        <time>2021-12-21T12:37:18Z</time>
      </trkpt>
      <trkpt lat="43.2318030" lon="-4.8911760">
        <ele>454.5</ele>
        <time>2021-12-21T12:37:21Z</time>
      </trkpt>
      <trkpt lat="43.2317970" lon="-4.8912120">
        <ele>454.5</ele>
        <time>2021-12-21T12:37:23Z</time>
      </trkpt>
      <trkpt lat="43.2317880" lon="-4.8912120">
        <ele>454.4</ele>
        <time>2021-12-21T12:37:26Z</time>
      </trkpt>
      <trkpt lat="43.2317460" lon="-4.8913660">
        <ele>454.3</ele>
        <time>2021-12-21T12:37:29Z</time>
      </trkpt>
      <trkpt lat="43.2317540" lon="-4.8914190">
        <ele>454.2</ele>
        <time>2021-12-21T12:37:31Z</time>
      </trkpt>
      <trkpt lat="43.2317610" lon="-4.8914460">
        <ele>454.2</ele>
        <time>2021-12-21T12:37:34Z</time>
      </trkpt>
      <trkpt lat="43.2317790" lon="-4.8914930">
        <ele>454.2</ele>
        <time>2021-12-21T12:37:39Z</time>
      </trkpt>
      <trkpt lat="43.2317670" lon="-4.8915760">
        <ele>454.1</ele>
        <time>2021-12-21T12:37:41Z</time>
      </trkpt>
      <trkpt lat="43.2317250" lon="-4.8916360">
        <ele>454.0</ele>
        <time>2021-12-21T12:37:44Z</time>
      </trkpt>
      <trkpt lat="43.2317070" lon="-4.8916580">
        <ele>454.0</ele>
        <time>2021-12-21T12:37:47Z</time>
      </trkpt>
      <trkpt lat="43.2316780" lon="-4.8917350">
        <ele>454.0</ele>
        <time>2021-12-21T12:37:49Z</time>
      </trkpt>
      <trkpt lat="43.2316830" lon="-4.8917330">
        <ele>454.0</ele>
        <time>2021-12-21T12:37:52Z</time>
      </trkpt>
      <trkpt lat="43.2316890" lon="-4.8918260">
        <ele>453.9</ele>
        <time>2021-12-21T12:37:57Z</time>
      </trkpt>
      <trkpt lat="43.2316980" lon="-4.8918800">
        <ele>453.9</ele>
        <time>2021-12-21T12:38:02Z</time>
      </trkpt>
      <trkpt lat="43.2317100" lon="-4.8919380">
        <ele>453.9</ele>
        <time>2021-12-21T12:38:05Z</time>
      </trkpt>
      <trkpt lat="43.2317070" lon="-4.8919670">
        <ele>453.9</ele>
        <time>2021-12-21T12:38:07Z</time>
      </trkpt>
      <trkpt lat="43.2315260" lon="-4.8920420">
        <ele>453.8</ele>
        <time>2021-12-21T12:38:10Z</time>
      </trkpt>
      <trkpt lat="43.2315110" lon="-4.8921180">
        <ele>453.9</ele>
        <time>2021-12-21T12:38:15Z</time>
      </trkpt>
      <trkpt lat="43.2315530" lon="-4.8921810">
        <ele>453.9</ele>
        <time>2021-12-21T12:38:17Z</time>
      </trkpt>
      <trkpt lat="43.2315580" lon="-4.8922240">
        <ele>453.9</ele>
        <time>2021-12-21T12:38:23Z</time>
      </trkpt>
      <trkpt lat="43.2315160" lon="-4.8922560">
        <ele>453.9</ele>
        <time>2021-12-21T12:38:25Z</time>
      </trkpt>
      <trkpt lat="43.2314730" lon="-4.8922960">
        <ele>453.9</ele>
        <time>2021-12-21T12:38:30Z</time>
      </trkpt>
      <trkpt lat="43.2314780" lon="-4.8923260">
        <ele>453.9</ele>
        <time>2021-12-21T12:38:36Z</time>
      </trkpt>
      <trkpt lat="43.2313040" lon="-4.8924270">
        <ele>454.2</ele>
        <time>2021-12-21T12:38:41Z</time>
      </trkpt>
      <trkpt lat="43.2312670" lon="-4.8924620">
        <ele>454.3</ele>
        <time>2021-12-21T12:38:46Z</time>
      </trkpt>
      <trkpt lat="43.2312870" lon="-4.8925100">
        <ele>454.5</ele>
        <time>2021-12-21T12:38:48Z</time>
      </trkpt>
      <trkpt lat="43.2312960" lon="-4.8925840">
        <ele>454.6</ele>
        <time>2021-12-21T12:38:54Z</time>
      </trkpt>
      <trkpt lat="43.2312800" lon="-4.8926140">
        <ele>454.7</ele>
        <time>2021-12-21T12:38:59Z</time>
      </trkpt>
      <trkpt lat="43.2312640" lon="-4.8926300">
        <ele>454.8</ele>
        <time>2021-12-21T12:39:01Z</time>
      </trkpt>
      <trkpt lat="43.2312400" lon="-4.8926580">
        <ele>454.9</ele>
        <time>2021-12-21T12:39:06Z</time>
      </trkpt>
      <trkpt lat="43.2312220" lon="-4.8926690">
        <ele>455.0</ele>
        <time>2021-12-21T12:39:19Z</time>
      </trkpt>
      <trkpt lat="43.2311890" lon="-4.8926920">
        <ele>455.2</ele>
        <time>2021-12-21T12:39:25Z</time>
      </trkpt>
      <trkpt lat="43.2311740" lon="-4.8927060">
        <ele>455.2</ele>
        <time>2021-12-21T12:39:27Z</time>
      </trkpt>
      <trkpt lat="43.2311530" lon="-4.8927300">
        <ele>455.4</ele>
        <time>2021-12-21T12:39:30Z</time>
      </trkpt>
      <trkpt lat="43.2311280" lon="-4.8927450">
        <ele>455.5</ele>
        <time>2021-12-21T12:39:32Z</time>
      </trkpt>
      <trkpt lat="43.2310780" lon="-4.8927990">
        <ele>455.8</ele>
        <time>2021-12-21T12:39:35Z</time>
      </trkpt>
      <trkpt lat="43.2310090" lon="-4.8928320">
        <ele>456.2</ele>
        <time>2021-12-21T12:39:38Z</time>
      </trkpt>
      <trkpt lat="43.2310030" lon="-4.8928840">
        <ele>456.4</ele>
        <time>2021-12-21T12:39:40Z</time>
      </trkpt>
      <trkpt lat="43.2309930" lon="-4.8929770">
        <ele>456.7</ele>
        <time>2021-12-21T12:39:45Z</time>
      </trkpt>
      <trkpt lat="43.2309830" lon="-4.8930100">
        <ele>456.8</ele>
        <time>2021-12-21T12:39:50Z</time>
      </trkpt>
      <trkpt lat="43.2309500" lon="-4.8930820">
        <ele>457.2</ele>
        <time>2021-12-21T12:39:56Z</time>
      </trkpt>
      <trkpt lat="43.2309170" lon="-4.8930910">
        <ele>457.3</ele>
        <time>2021-12-21T12:40:01Z</time>
      </trkpt>
      <trkpt lat="43.2309060" lon="-4.8931380">
        <ele>457.5</ele>
        <time>2021-12-21T12:40:03Z</time>
      </trkpt>
      <trkpt lat="43.2309590" lon="-4.8932140">
        <ele>457.9</ele>
        <time>2021-12-21T12:40:06Z</time>
      </trkpt>
      <trkpt lat="43.2309800" lon="-4.8932940">
        <ele>458.2</ele>
        <time>2021-12-21T12:40:08Z</time>
      </trkpt>
      <trkpt lat="43.2309840" lon="-4.8933300">
        <ele>458.4</ele>
        <time>2021-12-21T12:40:11Z</time>
      </trkpt>
      <trkpt lat="43.2309900" lon="-4.8933670">
        <ele>458.5</ele>
        <time>2021-12-21T12:40:16Z</time>
      </trkpt>
      <trkpt lat="43.2310130" lon="-4.8934410">
        <ele>458.8</ele>
        <time>2021-12-21T12:40:19Z</time>
      </trkpt>
      <trkpt lat="43.2310160" lon="-4.8934880">
        <ele>458.9</ele>
        <time>2021-12-21T12:40:24Z</time>
      </trkpt>
      <trkpt lat="43.2310210" lon="-4.8935630">
        <ele>459.1</ele>
        <time>2021-12-21T12:40:29Z</time>
      </trkpt>
      <trkpt lat="43.2310200" lon="-4.8936030">
        <ele>459.2</ele>
        <time>2021-12-21T12:40:32Z</time>
      </trkpt>
      <trkpt lat="43.2311860" lon="-4.8936030">
        <ele>459.7</ele>
        <time>2021-12-21T12:40:34Z</time>
      </trkpt>
      <trkpt lat="43.2312100" lon="-4.8935950">
        <ele>459.8</ele>
        <time>2021-12-21T12:40:37Z</time>
      </trkpt>
      <trkpt lat="43.2312990" lon="-4.8935400">
        <ele>460.0</ele>
        <time>2021-12-21T12:40:39Z</time>
      </trkpt>
      <trkpt lat="43.2311370" lon="-4.8936190">
        <ele>460.6</ele>
        <time>2021-12-21T12:40:42Z</time>
      </trkpt>
      <trkpt lat="43.2310050" lon="-4.8938460">
        <ele>461.4</ele>
        <time>2021-12-21T12:40:44Z</time>
      </trkpt>
      <trkpt lat="43.2309520" lon="-4.8939190">
        <ele>461.6</ele>
        <time>2021-12-21T12:40:47Z</time>
      </trkpt>
      <trkpt lat="43.2309380" lon="-4.8939350">
        <ele>461.7</ele>
        <time>2021-12-21T12:40:50Z</time>
      </trkpt>
      <trkpt lat="43.2309090" lon="-4.8939690">
        <ele>461.8</ele>
        <time>2021-12-21T12:40:52Z</time>
      </trkpt>
      <trkpt lat="43.2308780" lon="-4.8939910">
        <ele>461.9</ele>
        <time>2021-12-21T12:41:03Z</time>
      </trkpt>
      <trkpt lat="43.2308160" lon="-4.8940490">
        <ele>462.2</ele>
        <time>2021-12-21T12:41:05Z</time>
      </trkpt>
      <trkpt lat="43.2308080" lon="-4.8940900">
        <ele>462.3</ele>
        <time>2021-12-21T12:41:08Z</time>
      </trkpt>
      <trkpt lat="43.2307830" lon="-4.8941120">
        <ele>462.4</ele>
        <time>2021-12-21T12:41:13Z</time>
      </trkpt>
      <trkpt lat="43.2307600" lon="-4.8941270">
        <ele>462.4</ele>
        <time>2021-12-21T12:41:18Z</time>
      </trkpt>
      <trkpt lat="43.2307250" lon="-4.8941570">
        <ele>462.5</ele>
        <time>2021-12-21T12:41:34Z</time>
      </trkpt>
      <trkpt lat="43.2306780" lon="-4.8942080">
        <ele>462.7</ele>
        <time>2021-12-21T12:41:36Z</time>
      </trkpt>
      <trkpt lat="43.2306410" lon="-4.8942320">
        <ele>462.8</ele>
        <time>2021-12-21T12:41:39Z</time>
      </trkpt>
      <trkpt lat="43.2306230" lon="-4.8942420">
        <ele>462.8</ele>
        <time>2021-12-21T12:41:41Z</time>
      </trkpt>
      <trkpt lat="43.2305610" lon="-4.8942490">
        <ele>463.0</ele>
        <time>2021-12-21T12:41:46Z</time>
      </trkpt>
      <trkpt lat="43.2304860" lon="-4.8942330">
        <ele>463.2</ele>
        <time>2021-12-21T12:41:52Z</time>
      </trkpt>
      <trkpt lat="43.2304600" lon="-4.8942350">
        <ele>463.2</ele>
        <time>2021-12-21T12:41:57Z</time>
      </trkpt>
      <trkpt lat="43.2304340" lon="-4.8942480">
        <ele>463.3</ele>
        <time>2021-12-21T12:42:05Z</time>
      </trkpt>
      <trkpt lat="43.2304050" lon="-4.8942490">
        <ele>463.3</ele>
        <time>2021-12-21T12:42:07Z</time>
      </trkpt>
      <trkpt lat="43.2303250" lon="-4.8942260">
        <ele>463.5</ele>
        <time>2021-12-21T12:42:09Z</time>
      </trkpt>
      <trkpt lat="43.2302990" lon="-4.8942170">
        <ele>463.6</ele>
        <time>2021-12-21T12:42:12Z</time>
      </trkpt>
      <trkpt lat="43.2302620" lon="-4.8942100">
        <ele>463.7</ele>
        <time>2021-12-21T12:42:17Z</time>
      </trkpt>
      <trkpt lat="43.2302410" lon="-4.8942000">
        <ele>463.7</ele>
        <time>2021-12-21T12:42:23Z</time>
      </trkpt>
      <trkpt lat="43.2301980" lon="-4.8941920">
        <ele>463.8</ele>
        <time>2021-12-21T12:42:28Z</time>
      </trkpt>
      <trkpt lat="43.2301740" lon="-4.8941940">
        <ele>463.8</ele>
        <time>2021-12-21T12:42:30Z</time>
      </trkpt>
      <trkpt lat="43.2301380" lon="-4.8941970">
        <ele>463.9</ele>
        <time>2021-12-21T12:42:33Z</time>
      </trkpt>
      <trkpt lat="43.2301060" lon="-4.8941960">
        <ele>464.0</ele>
        <time>2021-12-21T12:42:38Z</time>
      </trkpt>
      <trkpt lat="43.2300790" lon="-4.8941890">
        <ele>464.0</ele>
        <time>2021-12-21T12:42:46Z</time>
      </trkpt>
      <trkpt lat="43.2300430" lon="-4.8942020">
        <ele>464.1</ele>
        <time>2021-12-21T12:42:51Z</time>
      </trkpt>
      <trkpt lat="43.2300200" lon="-4.8942050">
        <ele>464.1</ele>
        <time>2021-12-21T12:42:53Z</time>
      </trkpt>
      <trkpt lat="43.2299830" lon="-4.8942090">
        <ele>464.2</ele>
        <time>2021-12-21T12:42:56Z</time>
      </trkpt>
      <trkpt lat="43.2299590" lon="-4.8942150">
        <ele>464.2</ele>
        <time>2021-12-21T12:42:59Z</time>
      </trkpt>
      <trkpt lat="43.2299230" lon="-4.8942320">
        <ele>464.3</ele>
        <time>2021-12-21T12:43:01Z</time>
      </trkpt>
      <trkpt lat="43.2298840" lon="-4.8942320">
        <ele>464.4</ele>
        <time>2021-12-21T12:43:04Z</time>
      </trkpt>
      <trkpt lat="43.2298600" lon="-4.8942410">
        <ele>464.4</ele>
        <time>2021-12-21T12:43:06Z</time>
      </trkpt>
      <trkpt lat="43.2298320" lon="-4.8942540">
        <ele>464.5</ele>
        <time>2021-12-21T12:43:09Z</time>
      </trkpt>
      <trkpt lat="43.2298090" lon="-4.8942580">
        <ele>464.5</ele>
        <time>2021-12-21T12:43:11Z</time>
      </trkpt>
      <trkpt lat="43.2297470" lon="-4.8942710">
        <ele>464.6</ele>
        <time>2021-12-21T12:43:17Z</time>
      </trkpt>
      <trkpt lat="43.2296960" lon="-4.8942780">
        <ele>464.7</ele>
        <time>2021-12-21T12:43:19Z</time>
      </trkpt>
      <trkpt lat="43.2296400" lon="-4.8942790">
        <ele>464.8</ele>
        <time>2021-12-21T12:43:22Z</time>
      </trkpt>
      <trkpt lat="43.2295860" lon="-4.8942930">
        <ele>465.0</ele>
        <time>2021-12-21T12:43:24Z</time>
      </trkpt>
      <trkpt lat="43.2295420" lon="-4.8942970">
        <ele>465.1</ele>
        <time>2021-12-21T12:43:35Z</time>
      </trkpt>
      <trkpt lat="43.2295210" lon="-4.8942950">
        <ele>465.1</ele>
        <time>2021-12-21T12:43:37Z</time>
      </trkpt>
      <trkpt lat="43.2294870" lon="-4.8943060">
        <ele>465.2</ele>
        <time>2021-12-21T12:43:42Z</time>
      </trkpt>
      <trkpt lat="43.2294630" lon="-4.8943120">
        <ele>465.3</ele>
        <time>2021-12-21T12:43:45Z</time>
      </trkpt>
      <trkpt lat="43.2294240" lon="-4.8943220">
        <ele>465.4</ele>
        <time>2021-12-21T12:43:50Z</time>
      </trkpt>
      <trkpt lat="43.2294030" lon="-4.8943280">
        <ele>465.4</ele>
        <time>2021-12-21T12:43:53Z</time>
      </trkpt>
      <trkpt lat="43.2293610" lon="-4.8943450">
        <ele>465.5</ele>
        <time>2021-12-21T12:43:58Z</time>
      </trkpt>
      <trkpt lat="43.2293370" lon="-4.8943350">
        <ele>465.6</ele>
        <time>2021-12-21T12:44:03Z</time>
      </trkpt>
      <trkpt lat="43.2293190" lon="-4.8943290">
        <ele>465.6</ele>
        <time>2021-12-21T12:44:09Z</time>
      </trkpt>
      <trkpt lat="43.2292940" lon="-4.8943350">
        <ele>465.7</ele>
        <time>2021-12-21T12:44:26Z</time>
      </trkpt>
      <trkpt lat="43.2292580" lon="-4.8943320">
        <ele>465.7</ele>
        <time>2021-12-21T12:44:29Z</time>
      </trkpt>
      <trkpt lat="43.2292420" lon="-4.8943090">
        <ele>465.8</ele>
        <time>2021-12-21T12:44:31Z</time>
      </trkpt>
      <trkpt lat="43.2291140" lon="-4.8942760">
        <ele>465.9</ele>
        <time>2021-12-21T12:44:34Z</time>
      </trkpt>
      <trkpt lat="43.2290890" lon="-4.8942760">
        <ele>466.0</ele>
        <time>2021-12-21T12:44:42Z</time>
      </trkpt>
      <trkpt lat="43.2290530" lon="-4.8942650">
        <ele>466.0</ele>
        <time>2021-12-21T12:44:49Z</time>
      </trkpt>
      <trkpt lat="43.2290350" lon="-4.8942570">
        <ele>466.0</ele>
        <time>2021-12-21T12:44:52Z</time>
      </trkpt>
      <trkpt lat="43.2290200" lon="-4.8942340">
        <ele>466.1</ele>
        <time>2021-12-21T12:44:57Z</time>
      </trkpt>
      <trkpt lat="43.2289190" lon="-4.8942730">
        <ele>466.1</ele>
        <time>2021-12-21T12:45:00Z</time>
      </trkpt>
      <trkpt lat="43.2288870" lon="-4.8943130">
        <ele>466.1</ele>
        <time>2021-12-21T12:45:05Z</time>
      </trkpt>
      <trkpt lat="43.2288050" lon="-4.8943630">
        <ele>466.2</ele>
        <time>2021-12-21T12:45:07Z</time>
      </trkpt>
      <trkpt lat="43.2287890" lon="-4.8944080">
        <ele>466.2</ele>
        <time>2021-12-21T12:45:10Z</time>
      </trkpt>
      <trkpt lat="43.2287820" lon="-4.8944800">
        <ele>466.2</ele>
        <time>2021-12-21T12:45:13Z</time>
      </trkpt>
      <trkpt lat="43.2287760" lon="-4.8945040">
        <ele>466.3</ele>
        <time>2021-12-21T12:45:15Z</time>
      </trkpt>
      <trkpt lat="43.2287620" lon="-4.8945410">
        <ele>466.3</ele>
        <time>2021-12-21T12:45:18Z</time>
      </trkpt>
      <trkpt lat="43.2287220" lon="-4.8946470">
        <ele>466.4</ele>
        <time>2021-12-21T12:45:23Z</time>
      </trkpt>
      <trkpt lat="43.2287120" lon="-4.8946540">
        <ele>466.4</ele>
        <time>2021-12-21T12:45:26Z</time>
      </trkpt>
      <trkpt lat="43.2287030" lon="-4.8946650">
        <ele>466.4</ele>
        <time>2021-12-21T12:45:28Z</time>
      </trkpt>
      <trkpt lat="43.2284700" lon="-4.8948650">
        <ele>466.7</ele>
        <time>2021-12-21T12:45:31Z</time>
      </trkpt>
      <trkpt lat="43.2284420" lon="-4.8949100">
        <ele>466.7</ele>
        <time>2021-12-21T12:45:33Z</time>
      </trkpt>
      <trkpt lat="43.2284300" lon="-4.8949220">
        <ele>466.7</ele>
        <time>2021-12-21T12:45:39Z</time>
      </trkpt>
      <trkpt lat="43.2283950" lon="-4.8949650">
        <ele>466.7</ele>
        <time>2021-12-21T12:45:44Z</time>
      </trkpt>
      <trkpt lat="43.2283690" lon="-4.8950000">
        <ele>466.7</ele>
        <time>2021-12-21T12:45:46Z</time>
      </trkpt>
      <trkpt lat="43.2283430" lon="-4.8950180">
        <ele>466.8</ele>
        <time>2021-12-21T12:45:51Z</time>
      </trkpt>
      <trkpt lat="43.2283070" lon="-4.8950300">
        <ele>466.8</ele>
        <time>2021-12-21T12:45:54Z</time>
      </trkpt>
      <trkpt lat="43.2282880" lon="-4.8950400">
        <ele>466.8</ele>
        <time>2021-12-21T12:45:56Z</time>
      </trkpt>
      <trkpt lat="43.2282560" lon="-4.8950510">
        <ele>466.8</ele>
        <time>2021-12-21T12:45:59Z</time>
      </trkpt>
      <trkpt lat="43.2282210" lon="-4.8950500">
        <ele>466.8</ele>
        <time>2021-12-21T12:46:02Z</time>
      </trkpt>
      <trkpt lat="43.2282000" lon="-4.8950490">
        <ele>466.8</ele>
        <time>2021-12-21T12:46:04Z</time>
      </trkpt>
      <trkpt lat="43.2281630" lon="-4.8950550">
        <ele>466.8</ele>
        <time>2021-12-21T12:46:07Z</time>
      </trkpt>
      <trkpt lat="43.2281070" lon="-4.8950510">
        <ele>466.8</ele>
        <time>2021-12-21T12:46:09Z</time>
      </trkpt>
      <trkpt lat="43.2280870" lon="-4.8950440">
        <ele>466.8</ele>
        <time>2021-12-21T12:46:22Z</time>
      </trkpt>
      <trkpt lat="43.2280500" lon="-4.8950360">
        <ele>466.8</ele>
        <time>2021-12-21T12:46:25Z</time>
      </trkpt>
      <trkpt lat="43.2280170" lon="-4.8950140">
        <ele>466.8</ele>
        <time>2021-12-21T12:46:27Z</time>
      </trkpt>
      <trkpt lat="43.2279910" lon="-4.8949960">
        <ele>466.8</ele>
        <time>2021-12-21T12:46:33Z</time>
      </trkpt>
      <trkpt lat="43.2279620" lon="-4.8949740">
        <ele>466.8</ele>
        <time>2021-12-21T12:46:38Z</time>
      </trkpt>
      <trkpt lat="43.2279020" lon="-4.8949480">
        <ele>466.9</ele>
        <time>2021-12-21T12:46:40Z</time>
      </trkpt>
      <trkpt lat="43.2278420" lon="-4.8949170">
        <ele>467.0</ele>
        <time>2021-12-21T12:46:45Z</time>
      </trkpt>
      <trkpt lat="43.2278070" lon="-4.8948970">
        <ele>466.8</ele>
        <time>2021-12-21T12:46:48Z</time>
      </trkpt>
      <trkpt lat="43.2277860" lon="-4.8948840">
        <ele>466.4</ele>
        <time>2021-12-21T12:46:53Z</time>
      </trkpt>
      <trkpt lat="43.2277620" lon="-4.8948550">
        <ele>465.8</ele>
        <time>2021-12-21T12:46:56Z</time>
      </trkpt>
      <trkpt lat="43.2277210" lon="-4.8948100">
        <ele>465.0</ele>
        <time>2021-12-21T12:46:58Z</time>
      </trkpt>
      <trkpt lat="43.2277060" lon="-4.8947890">
        <ele>464.6</ele>
        <time>2021-12-21T12:47:01Z</time>
      </trkpt>
      <trkpt lat="43.2276420" lon="-4.8947720">
        <ele>463.5</ele>
        <time>2021-12-21T12:47:06Z</time>
      </trkpt>
      <trkpt lat="43.2276190" lon="-4.8947900">
        <ele>463.0</ele>
        <time>2021-12-21T12:47:09Z</time>
      </trkpt>
      <trkpt lat="43.2275910" lon="-4.8948520">
        <ele>462.1</ele>
        <time>2021-12-21T12:47:14Z</time>
      </trkpt>
      <trkpt lat="43.2275770" lon="-4.8949260">
        <ele>461.1</ele>
        <time>2021-12-21T12:47:19Z</time>
      </trkpt>
      <trkpt lat="43.2275410" lon="-4.8949540">
        <ele>460.3</ele>
        <time>2021-12-21T12:47:41Z</time>
      </trkpt>
      <trkpt lat="43.2274890" lon="-4.8949070">
        <ele>459.1</ele>
        <time>2021-12-21T12:47:44Z</time>
      </trkpt>
      <trkpt lat="43.2274730" lon="-4.8948940">
        <ele>455.6</ele>
        <time>2021-12-21T12:47:47Z</time>
      </trkpt>
      <trkpt lat="43.2274070" lon="-4.8948800">
        <ele>455.6</ele>
        <time>2021-12-21T12:48:54Z</time>
      </trkpt>
      <trkpt lat="43.2273310" lon="-4.8948360">
        <ele>446.7</ele>
        <time>2021-12-21T12:49:00Z</time>
      </trkpt>
      <trkpt lat="43.2273190" lon="-4.8948320">
        <ele>446.9</ele>
        <time>2021-12-21T12:49:05Z</time>
      </trkpt>
      <trkpt lat="43.2273200" lon="-4.8948130">
        <ele>447.0</ele>
        <time>2021-12-21T12:49:07Z</time>
      </trkpt>
      <trkpt lat="43.2272540" lon="-4.8947770">
        <ele>447.9</ele>
        <time>2021-12-21T12:49:12Z</time>
      </trkpt>
      <trkpt lat="43.2271950" lon="-4.8948400">
        <ele>448.8</ele>
        <time>2021-12-21T12:49:15Z</time>
      </trkpt>
      <trkpt lat="43.2271780" lon="-4.8948680">
        <ele>449.1</ele>
        <time>2021-12-21T12:49:20Z</time>
      </trkpt>
      <trkpt lat="43.2271400" lon="-4.8949440">
        <ele>449.9</ele>
        <time>2021-12-21T12:49:23Z</time>
      </trkpt>
      <trkpt lat="43.2271270" lon="-4.8949800">
        <ele>450.3</ele>
        <time>2021-12-21T12:49:25Z</time>
      </trkpt>
      <trkpt lat="43.2270990" lon="-4.8950120">
        <ele>450.7</ele>
        <time>2021-12-21T12:49:28Z</time>
      </trkpt>
      <trkpt lat="43.2271140" lon="-4.8950540">
        <ele>450.7</ele>
        <time>2021-12-21T12:49:30Z</time>
      </trkpt>
      <trkpt lat="43.2271100" lon="-4.8950590">
        <ele>450.8</ele>
        <time>2021-12-21T12:49:33Z</time>
      </trkpt>
      <trkpt lat="43.2271490" lon="-4.8951080">
        <ele>450.9</ele>
        <time>2021-12-21T12:49:36Z</time>
      </trkpt>
      <trkpt lat="43.2271570" lon="-4.8951620">
        <ele>451.1</ele>
        <time>2021-12-21T12:49:38Z</time>
      </trkpt>
      <trkpt lat="43.2271230" lon="-4.8952400">
        <ele>451.3</ele>
        <time>2021-12-21T12:49:42Z</time>
      </trkpt>
      <trkpt lat="43.2270330" lon="-4.8953000">
        <ele>451.5</ele>
        <time>2021-12-21T12:49:46Z</time>
      </trkpt>
      <trkpt lat="43.2270040" lon="-4.8953210">
        <ele>451.5</ele>
        <time>2021-12-21T12:49:49Z</time>
      </trkpt>
      <trkpt lat="43.2269700" lon="-4.8953490">
        <ele>451.6</ele>
        <time>2021-12-21T12:49:51Z</time>
      </trkpt>
      <trkpt lat="43.2269540" lon="-4.8953720">
        <ele>451.7</ele>
        <time>2021-12-21T12:49:54Z</time>
      </trkpt>
      <trkpt lat="43.2269100" lon="-4.8953870">
        <ele>451.7</ele>
        <time>2021-12-21T12:49:59Z</time>
      </trkpt>
      <trkpt lat="43.2268570" lon="-4.8954500">
        <ele>451.9</ele>
        <time>2021-12-21T12:50:01Z</time>
      </trkpt>
      <trkpt lat="43.2268410" lon="-4.8954880">
        <ele>451.9</ele>
        <time>2021-12-21T12:50:04Z</time>
      </trkpt>
      <trkpt lat="43.2268120" lon="-4.8955410">
        <ele>452.0</ele>
        <time>2021-12-21T12:50:09Z</time>
      </trkpt>
      <trkpt lat="43.2267790" lon="-4.8956120">
        <ele>452.1</ele>
        <time>2021-12-21T12:50:14Z</time>
      </trkpt>
      <trkpt lat="43.2267480" lon="-4.8956430">
        <ele>452.1</ele>
        <time>2021-12-21T12:50:17Z</time>
      </trkpt>
      <trkpt lat="43.2267130" lon="-4.8956660">
        <ele>452.2</ele>
        <time>2021-12-21T12:50:19Z</time>
      </trkpt>
      <trkpt lat="43.2266540" lon="-4.8957140">
        <ele>452.3</ele>
        <time>2021-12-21T12:50:22Z</time>
      </trkpt>
      <trkpt lat="43.2266250" lon="-4.8957320">
        <ele>452.3</ele>
        <time>2021-12-21T12:50:25Z</time>
      </trkpt>
      <trkpt lat="43.2265810" lon="-4.8957670">
        <ele>452.4</ele>
        <time>2021-12-21T12:50:27Z</time>
      </trkpt>
      <trkpt lat="43.2265570" lon="-4.8957920">
        <ele>452.4</ele>
        <time>2021-12-21T12:50:30Z</time>
      </trkpt>
      <trkpt lat="43.2265170" lon="-4.8958310">
        <ele>452.5</ele>
        <time>2021-12-21T12:50:35Z</time>
      </trkpt>
      <trkpt lat="43.2264860" lon="-4.8958690">
        <ele>452.5</ele>
        <time>2021-12-21T12:50:40Z</time>
      </trkpt>
      <trkpt lat="43.2264710" lon="-4.8958780">
        <ele>452.5</ele>
        <time>2021-12-21T12:50:48Z</time>
      </trkpt>
      <trkpt lat="43.2263560" lon="-4.8959510">
        <ele>452.7</ele>
        <time>2021-12-21T12:50:53Z</time>
      </trkpt>
      <trkpt lat="43.2263300" lon="-4.8959760">
        <ele>454.3</ele>
        <time>2021-12-21T12:50:57Z</time>
      </trkpt>
      <trkpt lat="43.2263090" lon="-4.8960170">
        <ele>455.9</ele>
        <time>2021-12-21T12:51:01Z</time>
      </trkpt>
      <trkpt lat="43.2263660" lon="-4.8960600">
        <ele>460.4</ele>
        <time>2021-12-21T12:51:03Z</time>
      </trkpt>
      <trkpt lat="43.2263610" lon="-4.8960560">
        <ele>460.7</ele>
        <time>2021-12-21T12:51:06Z</time>
      </trkpt>
      <trkpt lat="43.2262550" lon="-4.8961590">
        <ele>461.3</ele>
        <time>2021-12-21T12:51:08Z</time>
      </trkpt>
      <trkpt lat="43.2262320" lon="-4.8961730">
        <ele>463.6</ele>
        <time>2021-12-21T12:51:14Z</time>
      </trkpt>
      <trkpt lat="43.2262070" lon="-4.8961790">
        <ele>462.9</ele>
        <time>2021-12-21T12:51:16Z</time>
      </trkpt>
      <trkpt lat="43.2261830" lon="-4.8962020">
        <ele>462.3</ele>
        <time>2021-12-21T12:51:19Z</time>
      </trkpt>
      <trkpt lat="43.2261760" lon="-4.8962950">
        <ele>466.1</ele>
        <time>2021-12-21T12:51:21Z</time>
      </trkpt>
      <trkpt lat="43.2262100" lon="-4.8964100">
        <ele>472.6</ele>
        <time>2021-12-21T12:51:24Z</time>
      </trkpt>
      <trkpt lat="43.2261550" lon="-4.8964930">
        <ele>474.4</ele>
        <time>2021-12-21T12:51:26Z</time>
      </trkpt>
      <trkpt lat="43.2262310" lon="-4.8963410">
        <ele>472.6</ele>
        <time>2021-12-21T12:51:29Z</time>
      </trkpt>
      <trkpt lat="43.2262320" lon="-4.8964260">
        <ele>474.7</ele>
        <time>2021-12-21T12:51:34Z</time>
      </trkpt>
      <trkpt lat="43.2262360" lon="-4.8964680">
        <ele>476.9</ele>
        <time>2021-12-21T12:51:37Z</time>
      </trkpt>
      <trkpt lat="43.2262440" lon="-4.8965020">
        <ele>479.3</ele>
        <time>2021-12-21T12:51:39Z</time>
      </trkpt>
      <trkpt lat="43.2262130" lon="-4.8965890">
        <ele>483.4</ele>
        <time>2021-12-21T12:51:42Z</time>
      </trkpt>
      <trkpt lat="43.2261950" lon="-4.8966770">
        <ele>489.7</ele>
        <time>2021-12-21T12:51:45Z</time>
      </trkpt>
      <trkpt lat="43.2261550" lon="-4.8968020">
        <ele>496.7</ele>
        <time>2021-12-21T12:51:47Z</time>
      </trkpt>
      <trkpt lat="43.2261610" lon="-4.8968270">
        <ele>499.9</ele>
        <time>2021-12-21T12:51:50Z</time>
      </trkpt>
      <trkpt lat="43.2261470" lon="-4.8968680">
        <ele>503.0</ele>
        <time>2021-12-21T12:51:52Z</time>
      </trkpt>
      <trkpt lat="43.2261460" lon="-4.8968990">
        <ele>506.2</ele>
        <time>2021-12-21T12:51:55Z</time>
      </trkpt>
      <trkpt lat="43.2260730" lon="-4.8969220">
        <ele>503.8</ele>
        <time>2021-12-21T12:51:57Z</time>
      </trkpt>
      <trkpt lat="43.2259590" lon="-4.8969690">
        <ele>501.7</ele>
        <time>2021-12-21T12:52:00Z</time>
      </trkpt>
      <trkpt lat="43.2259230" lon="-4.8969890">
        <ele>503.7</ele>
        <time>2021-12-21T12:52:05Z</time>
      </trkpt>
      <trkpt lat="43.2258830" lon="-4.8970120">
        <ele>502.7</ele>
        <time>2021-12-21T12:52:10Z</time>
      </trkpt>
      <trkpt lat="43.2258430" lon="-4.8969890">
        <ele>500.1</ele>
        <time>2021-12-21T12:52:16Z</time>
      </trkpt>
      <trkpt lat="43.2258070" lon="-4.8970040">
        <ele>498.9</ele>
        <time>2021-12-21T12:52:21Z</time>
      </trkpt>
      <trkpt lat="43.2257510" lon="-4.8970180">
        <ele>496.7</ele>
        <time>2021-12-21T12:52:26Z</time>
      </trkpt>
      <trkpt lat="43.2257140" lon="-4.8970250">
        <ele>496.0</ele>
        <time>2021-12-21T12:52:31Z</time>
      </trkpt>
      <trkpt lat="43.2256740" lon="-4.8970450">
        <ele>498.4</ele>
        <time>2021-12-21T12:52:36Z</time>
      </trkpt>
      <trkpt lat="43.2256530" lon="-4.8970530">
        <ele>497.9</ele>
        <time>2021-12-21T12:52:41Z</time>
      </trkpt>
      <trkpt lat="43.2255330" lon="-4.8971030">
        <ele>497.7</ele>
        <time>2021-12-21T12:52:46Z</time>
      </trkpt>
      <trkpt lat="43.2254260" lon="-4.8971770">
        <ele>501.5</ele>
        <time>2021-12-21T12:52:52Z</time>
      </trkpt>
      <trkpt lat="43.2253550" lon="-4.8970780">
        <ele>495.2</ele>
        <time>2021-12-21T12:52:54Z</time>
      </trkpt>
      <trkpt lat="43.2253360" lon="-4.8970620">
        <ele>492.1</ele>
        <time>2021-12-21T12:52:59Z</time>
      </trkpt>
      <trkpt lat="43.2252210" lon="-4.8969780">
        <ele>484.0</ele>
        <time>2021-12-21T12:53:02Z</time>
      </trkpt>
      <trkpt lat="43.2252550" lon="-4.8969680">
        <ele>485.0</ele>
        <time>2021-12-21T12:53:04Z</time>
      </trkpt>
      <trkpt lat="43.2253170" lon="-4.8969680">
        <ele>486.8</ele>
        <time>2021-12-21T12:53:07Z</time>
      </trkpt>
      <trkpt lat="43.2253170" lon="-4.8969770">
        <ele>487.1</ele>
        <time>2021-12-21T12:53:10Z</time>
      </trkpt>
      <trkpt lat="43.2253740" lon="-4.8970670">
        <ele>494.3</ele>
        <time>2021-12-21T12:53:12Z</time>
      </trkpt>
      <trkpt lat="43.2252790" lon="-4.8970570">
        <ele>492.3</ele>
        <time>2021-12-21T12:53:15Z</time>
      </trkpt>
      <trkpt lat="43.2250350" lon="-4.8970670">
        <ele>486.1</ele>
        <time>2021-12-21T12:53:17Z</time>
      </trkpt>
      <trkpt lat="43.2249950" lon="-4.8970920">
        <ele>487.9</ele>
        <time>2021-12-21T12:53:23Z</time>
      </trkpt>
      <trkpt lat="43.2247370" lon="-4.8969640">
        <ele>477.2</ele>
        <time>2021-12-21T12:53:25Z</time>
      </trkpt>
      <trkpt lat="43.2246380" lon="-4.8969270">
        <ele>474.4</ele>
        <time>2021-12-21T12:53:28Z</time>
      </trkpt>
      <trkpt lat="43.2246220" lon="-4.8969360">
        <ele>474.6</ele>
        <time>2021-12-21T12:53:33Z</time>
      </trkpt>
      <trkpt lat="43.2246070" lon="-4.8969070">
        <ele>474.9</ele>
        <time>2021-12-21T12:53:35Z</time>
      </trkpt>
      <trkpt lat="43.2245990" lon="-4.8969590">
        <ele>477.6</ele>
        <time>2021-12-21T12:53:38Z</time>
      </trkpt>
      <trkpt lat="43.2245950" lon="-4.8969160">
        <ele>475.3</ele>
        <time>2021-12-21T12:53:43Z</time>
      </trkpt>
      <trkpt lat="43.2245750" lon="-4.8969280">
        <ele>475.7</ele>
        <time>2021-12-21T12:53:48Z</time>
      </trkpt>
      <trkpt lat="43.2245790" lon="-4.8968990">
        <ele>476.0</ele>
        <time>2021-12-21T12:53:54Z</time>
      </trkpt>
      <trkpt lat="43.2245540" lon="-4.8969140">
        <ele>476.1</ele>
        <time>2021-12-21T12:53:56Z</time>
      </trkpt>
      <trkpt lat="43.2245360" lon="-4.8969010">
        <ele>476.4</ele>
        <time>2021-12-21T12:53:59Z</time>
      </trkpt>
      <trkpt lat="43.2245010" lon="-4.8968200">
        <ele>471.2</ele>
        <time>2021-12-21T12:54:01Z</time>
      </trkpt>
      <trkpt lat="43.2244670" lon="-4.8967600">
        <ele>465.8</ele>
        <time>2021-12-21T12:54:06Z</time>
      </trkpt>
      <trkpt lat="43.2244360" lon="-4.8966560">
        <ele>460.3</ele>
        <time>2021-12-21T12:54:09Z</time>
      </trkpt>
      <trkpt lat="43.2244000" lon="-4.8964860">
        <ele>454.6</ele>
        <time>2021-12-21T12:54:12Z</time>
      </trkpt>
      <trkpt lat="43.2243680" lon="-4.8965140">
        <ele>455.1</ele>
        <time>2021-12-21T12:54:14Z</time>
      </trkpt>
      <trkpt lat="43.2243860" lon="-4.8964580">
        <ele>455.5</ele>
        <time>2021-12-21T12:54:19Z</time>
      </trkpt>
      <trkpt lat="43.2244860" lon="-4.8962990">
        <ele>459.1</ele>
        <time>2021-12-21T12:54:24Z</time>
      </trkpt>
      <trkpt lat="43.2244790" lon="-4.8961600">
        <ele>464.0</ele>
        <time>2021-12-21T12:54:29Z</time>
      </trkpt>
      <trkpt lat="43.2244830" lon="-4.8960850">
        <ele>465.0</ele>
        <time>2021-12-21T12:54:32Z</time>
      </trkpt>
      <trkpt lat="43.2244960" lon="-4.8959560">
        <ele>466.7</ele>
        <time>2021-12-21T12:54:37Z</time>
      </trkpt>
      <trkpt lat="43.2244950" lon="-4.8959450">
        <ele>467.3</ele>
        <time>2021-12-21T12:55:47Z</time>
      </trkpt>
      <trkpt lat="43.2243300" lon="-4.8962980">
        <ele>460.6</ele>
        <time>2021-12-21T12:55:50Z</time>
      </trkpt>
      <trkpt lat="43.2242140" lon="-4.8963560">
        <ele>459.3</ele>
        <time>2021-12-21T12:55:52Z</time>
      </trkpt>
      <trkpt lat="43.2242000" lon="-4.8963980">
        <ele>458.2</ele>
        <time>2021-12-21T12:55:55Z</time>
      </trkpt>
      <trkpt lat="43.2241310" lon="-4.8964750">
        <ele>456.7</ele>
        <time>2021-12-21T12:56:00Z</time>
      </trkpt>
      <trkpt lat="43.2240890" lon="-4.8964460">
        <ele>457.2</ele>
        <time>2021-12-21T12:56:05Z</time>
      </trkpt>
      <trkpt lat="43.2240910" lon="-4.8965240">
        <ele>457.0</ele>
        <time>2021-12-21T12:56:10Z</time>
      </trkpt>
      <trkpt lat="43.2240450" lon="-4.8966110">
        <ele>459.8</ele>
        <time>2021-12-21T12:56:28Z</time>
      </trkpt>
      <trkpt lat="43.2240270" lon="-4.8966490">
        <ele>462.3</ele>
        <time>2021-12-21T12:56:33Z</time>
      </trkpt>
      <trkpt lat="43.2240030" lon="-4.8966800">
        <ele>462.4</ele>
        <time>2021-12-21T12:56:38Z</time>
      </trkpt>
      <trkpt lat="43.2239830" lon="-4.8966970">
        <ele>465.4</ele>
        <time>2021-12-21T12:56:44Z</time>
      </trkpt>
      <trkpt lat="43.2239720" lon="-4.8967060">
        <ele>465.5</ele>
        <time>2021-12-21T12:56:49Z</time>
      </trkpt>
      <trkpt lat="43.2239070" lon="-4.8967640">
        <ele>465.8</ele>
        <time>2021-12-21T12:56:54Z</time>
      </trkpt>
      <trkpt lat="43.2238730" lon="-4.8967830">
        <ele>466.0</ele>
        <time>2021-12-21T12:56:59Z</time>
      </trkpt>
      <trkpt lat="43.2238530" lon="-4.8968100">
        <ele>466.1</ele>
        <time>2021-12-21T12:57:02Z</time>
      </trkpt>
      <trkpt lat="43.2237810" lon="-4.8968570">
        <ele>466.3</ele>
        <time>2021-12-21T12:57:07Z</time>
      </trkpt>
      <trkpt lat="43.2237260" lon="-4.8968870">
        <ele>466.4</ele>
        <time>2021-12-21T12:57:12Z</time>
      </trkpt>
      <trkpt lat="43.2237010" lon="-4.8968770">
        <ele>466.5</ele>
        <time>2021-12-21T12:57:14Z</time>
      </trkpt>
      <trkpt lat="43.2236500" lon="-4.8968650">
        <ele>466.6</ele>
        <time>2021-12-21T12:57:20Z</time>
      </trkpt>
      <trkpt lat="43.2236150" lon="-4.8968630">
        <ele>466.7</ele>
        <time>2021-12-21T12:57:25Z</time>
      </trkpt>
      <trkpt lat="43.2235450" lon="-4.8968730">
        <ele>466.9</ele>
        <time>2021-12-21T12:57:30Z</time>
      </trkpt>
      <trkpt lat="43.2235000" lon="-4.8968480">
        <ele>467.1</ele>
        <time>2021-12-21T12:57:33Z</time>
      </trkpt>
      <trkpt lat="43.2234780" lon="-4.8968330">
        <ele>467.2</ele>
        <time>2021-12-21T12:57:38Z</time>
      </trkpt>
      <trkpt lat="43.2234690" lon="-4.8968030">
        <ele>467.2</ele>
        <time>2021-12-21T12:57:43Z</time>
      </trkpt>
      <trkpt lat="43.2234630" lon="-4.8967250">
        <ele>467.5</ele>
        <time>2021-12-21T12:57:53Z</time>
      </trkpt>
      <trkpt lat="43.2234590" lon="-4.8966780">
        <ele>467.6</ele>
        <time>2021-12-21T12:57:58Z</time>
      </trkpt>
      <trkpt lat="43.2234700" lon="-4.8966500">
        <ele>467.7</ele>
        <time>2021-12-21T12:58:04Z</time>
      </trkpt>
      <trkpt lat="43.2234950" lon="-4.8966560">
        <ele>467.8</ele>
        <time>2021-12-21T12:58:09Z</time>
      </trkpt>
      <trkpt lat="43.2237530" lon="-4.8970010">
        <ele>469.1</ele>
        <time>2021-12-21T12:58:14Z</time>
      </trkpt>
      <trkpt lat="43.2229810" lon="-4.8965220">
        <ele>472.0</ele>
        <time>2021-12-21T13:00:14Z</time>
      </trkpt>
      <trkpt lat="43.2230060" lon="-4.8965120">
        <ele>472.0</ele>
        <time>2021-12-21T13:00:29Z</time>
      </trkpt>
      <trkpt lat="43.2230360" lon="-4.8964620">
        <ele>472.1</ele>
        <time>2021-12-21T13:00:31Z</time>
      </trkpt>
      <trkpt lat="43.2229640" lon="-4.8964970">
        <ele>472.3</ele>
        <time>2021-12-21T13:00:33Z</time>
      </trkpt>
      <trkpt lat="43.2229160" lon="-4.8965050">
        <ele>472.4</ele>
        <time>2021-12-21T13:00:36Z</time>
      </trkpt>
      <trkpt lat="43.2228850" lon="-4.8965120">
        <ele>472.5</ele>
        <time>2021-12-21T13:00:41Z</time>
      </trkpt>
      <trkpt lat="43.2228330" lon="-4.8965010">
        <ele>472.6</ele>
        <time>2021-12-21T13:00:43Z</time>
      </trkpt>
      <trkpt lat="43.2228090" lon="-4.8964760">
        <ele>472.7</ele>
        <time>2021-12-21T13:00:49Z</time>
      </trkpt>
      <trkpt lat="43.2227420" lon="-4.8964490">
        <ele>472.8</ele>
        <time>2021-12-21T13:00:51Z</time>
      </trkpt>
      <trkpt lat="43.2227240" lon="-4.8964160">
        <ele>472.9</ele>
        <time>2021-12-21T13:01:12Z</time>
      </trkpt>
      <trkpt lat="43.2226930" lon="-4.8964090">
        <ele>472.9</ele>
        <time>2021-12-21T13:01:14Z</time>
      </trkpt>
      <trkpt lat="43.2226450" lon="-4.8964460">
        <ele>473.0</ele>
        <time>2021-12-21T13:01:20Z</time>
      </trkpt>
      <trkpt lat="43.2226160" lon="-4.8964810">
        <ele>473.1</ele>
        <time>2021-12-21T13:01:27Z</time>
      </trkpt>
      <trkpt lat="43.2225960" lon="-4.8964950">
        <ele>473.1</ele>
        <time>2021-12-21T13:01:32Z</time>
      </trkpt>
      <trkpt lat="43.2225730" lon="-4.8965430">
        <ele>473.1</ele>
        <time>2021-12-21T13:01:35Z</time>
      </trkpt>
      <trkpt lat="43.2225640" lon="-4.8965510">
        <ele>473.1</ele>
        <time>2021-12-21T13:02:29Z</time>
      </trkpt>
      <trkpt lat="43.2225320" lon="-4.8965620">
        <ele>473.1</ele>
        <time>2021-12-21T13:02:34Z</time>
      </trkpt>
      <trkpt lat="43.2224570" lon="-4.8966050">
        <ele>473.1</ele>
        <time>2021-12-21T13:02:55Z</time>
      </trkpt>
      <trkpt lat="43.2224170" lon="-4.8966350">
        <ele>473.1</ele>
        <time>2021-12-21T13:03:05Z</time>
      </trkpt>
      <trkpt lat="43.2223940" lon="-4.8966370">
        <ele>473.1</ele>
        <time>2021-12-21T13:03:10Z</time>
      </trkpt>
      <trkpt lat="43.2223740" lon="-4.8966330">
        <ele>473.1</ele>
        <time>2021-12-21T13:03:15Z</time>
      </trkpt>
      <trkpt lat="43.2223120" lon="-4.8965930">
        <ele>473.0</ele>
        <time>2021-12-21T13:03:21Z</time>
      </trkpt>
      <trkpt lat="43.2222920" lon="-4.8965800">
        <ele>473.0</ele>
        <time>2021-12-21T13:03:26Z</time>
      </trkpt>
      <trkpt lat="43.2222710" lon="-4.8965570">
        <ele>473.0</ele>
        <time>2021-12-21T13:03:31Z</time>
      </trkpt>
      <trkpt lat="43.2222470" lon="-4.8964950">
        <ele>472.9</ele>
        <time>2021-12-21T13:03:39Z</time>
      </trkpt>
      <trkpt lat="43.2221800" lon="-4.8964320">
        <ele>472.8</ele>
        <time>2021-12-21T13:03:41Z</time>
      </trkpt>
      <trkpt lat="43.2221410" lon="-4.8964190">
        <ele>472.7</ele>
        <time>2021-12-21T13:03:46Z</time>
      </trkpt>
      <trkpt lat="43.2221100" lon="-4.8964180">
        <ele>472.7</ele>
        <time>2021-12-21T13:03:59Z</time>
      </trkpt>
      <trkpt lat="43.2220660" lon="-4.8964160">
        <ele>472.6</ele>
        <time>2021-12-21T13:04:04Z</time>
      </trkpt>
      <trkpt lat="43.2220250" lon="-4.8964560">
        <ele>472.5</ele>
        <time>2021-12-21T13:04:10Z</time>
      </trkpt>
      <trkpt lat="43.2220080" lon="-4.8964700">
        <ele>472.5</ele>
        <time>2021-12-21T13:04:38Z</time>
      </trkpt>
      <trkpt lat="43.2219840" lon="-4.8965020">
        <ele>472.5</ele>
        <time>2021-12-21T13:04:43Z</time>
      </trkpt>
      <trkpt lat="43.2219560" lon="-4.8965090">
        <ele>472.5</ele>
        <time>2021-12-21T13:04:48Z</time>
      </trkpt>
      <trkpt lat="43.2219420" lon="-4.8965360">
        <ele>472.5</ele>
        <time>2021-12-21T13:04:54Z</time>
      </trkpt>
      <trkpt lat="43.2218990" lon="-4.8965370">
        <ele>472.5</ele>
        <time>2021-12-21T13:04:59Z</time>
      </trkpt>
      <trkpt lat="43.2218590" lon="-4.8965240">
        <ele>472.5</ele>
        <time>2021-12-21T13:05:04Z</time>
      </trkpt>
      <trkpt lat="43.2218350" lon="-4.8964430">
        <ele>472.6</ele>
        <time>2021-12-21T13:05:09Z</time>
      </trkpt>
      <trkpt lat="43.2217650" lon="-4.8963070">
        <ele>473.0</ele>
        <time>2021-12-21T13:05:12Z</time>
      </trkpt>
      <trkpt lat="43.2217450" lon="-4.8962880">
        <ele>473.1</ele>
        <time>2021-12-21T13:05:14Z</time>
      </trkpt>
      <trkpt lat="43.2217120" lon="-4.8962990">
        <ele>473.3</ele>
        <time>2021-12-21T13:05:19Z</time>
      </trkpt>
      <trkpt lat="43.2216940" lon="-4.8962730">
        <ele>473.5</ele>
        <time>2021-12-21T13:05:24Z</time>
      </trkpt>
      <trkpt lat="43.2216060" lon="-4.8962290">
        <ele>474.4</ele>
        <time>2021-12-21T13:05:30Z</time>
      </trkpt>
      <trkpt lat="43.2215880" lon="-4.8962120">
        <ele>474.6</ele>
        <time>2021-12-21T13:05:35Z</time>
      </trkpt>
      <trkpt lat="43.2215320" lon="-4.8961340">
        <ele>475.6</ele>
        <time>2021-12-21T13:05:40Z</time>
      </trkpt>
      <trkpt lat="43.2215050" lon="-4.8961120">
        <ele>476.0</ele>
        <time>2021-12-21T13:05:53Z</time>
      </trkpt>
      <trkpt lat="43.2214650" lon="-4.8960800">
        <ele>476.6</ele>
        <time>2021-12-21T13:05:55Z</time>
      </trkpt>
      <trkpt lat="43.2214460" lon="-4.8960720">
        <ele>476.8</ele>
        <time>2021-12-21T13:05:58Z</time>
      </trkpt>
      <trkpt lat="43.2214260" lon="-4.8961210">
        <ele>477.3</ele>
        <time>2021-12-21T13:06:00Z</time>
      </trkpt>
      <trkpt lat="43.2213480" lon="-4.8961800">
        <ele>478.4</ele>
        <time>2021-12-21T13:06:06Z</time>
      </trkpt>
      <trkpt lat="43.2213140" lon="-4.8962670">
        <ele>479.3</ele>
        <time>2021-12-21T13:06:11Z</time>
      </trkpt>
      <trkpt lat="43.2212870" lon="-4.8963040">
        <ele>479.8</ele>
        <time>2021-12-21T13:06:16Z</time>
      </trkpt>
      <trkpt lat="43.2212650" lon="-4.8963560">
        <ele>480.3</ele>
        <time>2021-12-21T13:06:47Z</time>
      </trkpt>
      <trkpt lat="43.2212340" lon="-4.8963900">
        <ele>480.7</ele>
        <time>2021-12-21T13:06:52Z</time>
      </trkpt>
      <trkpt lat="43.2212170" lon="-4.8964210">
        <ele>481.1</ele>
        <time>2021-12-21T13:06:55Z</time>
      </trkpt>
      <trkpt lat="43.2211940" lon="-4.8964530">
        <ele>481.4</ele>
        <time>2021-12-21T13:07:00Z</time>
      </trkpt>
      <trkpt lat="43.2211710" lon="-4.8964700">
        <ele>481.7</ele>
        <time>2021-12-21T13:07:02Z</time>
      </trkpt>
      <trkpt lat="43.2211500" lon="-4.8965120">
        <ele>482.1</ele>
        <time>2021-12-21T13:07:07Z</time>
      </trkpt>
      <trkpt lat="43.2211340" lon="-4.8965240">
        <ele>482.3</ele>
        <time>2021-12-21T13:07:10Z</time>
      </trkpt>
      <trkpt lat="43.2211160" lon="-4.8965410">
        <ele>482.5</ele>
        <time>2021-12-21T13:07:15Z</time>
      </trkpt>
      <trkpt lat="43.2210720" lon="-4.8965680">
        <ele>483.0</ele>
        <time>2021-12-21T13:07:18Z</time>
      </trkpt>
      <trkpt lat="43.2210330" lon="-4.8965770">
        <ele>483.4</ele>
        <time>2021-12-21T13:07:20Z</time>
      </trkpt>
      <trkpt lat="43.2209910" lon="-4.8965960">
        <ele>483.8</ele>
        <time>2021-12-21T13:07:26Z</time>
      </trkpt>
      <trkpt lat="43.2209530" lon="-4.8966110">
        <ele>484.2</ele>
        <time>2021-12-21T13:07:36Z</time>
      </trkpt>
      <trkpt lat="43.2209160" lon="-4.8966170">
        <ele>484.6</ele>
        <time>2021-12-21T13:07:41Z</time>
      </trkpt>
      <trkpt lat="43.2208690" lon="-4.8966070">
        <ele>485.0</ele>
        <time>2021-12-21T13:07:46Z</time>
      </trkpt>
      <trkpt lat="43.2208210" lon="-4.8966110">
        <ele>485.3</ele>
        <time>2021-12-21T13:07:51Z</time>
      </trkpt>
      <trkpt lat="43.2207840" lon="-4.8966010">
        <ele>485.5</ele>
        <time>2021-12-21T13:07:54Z</time>
      </trkpt>
      <trkpt lat="43.2207450" lon="-4.8965740">
        <ele>485.8</ele>
        <time>2021-12-21T13:07:59Z</time>
      </trkpt>
      <trkpt lat="43.2206830" lon="-4.8965390">
        <ele>486.2</ele>
        <time>2021-12-21T13:08:02Z</time>
      </trkpt>
      <trkpt lat="43.2206710" lon="-4.8965380">
        <ele>486.2</ele>
        <time>2021-12-21T13:08:07Z</time>
      </trkpt>
      <trkpt lat="43.2206070" lon="-4.8965520">
        <ele>486.6</ele>
        <time>2021-12-21T13:08:09Z</time>
      </trkpt>
      <trkpt lat="43.2205720" lon="-4.8965670">
        <ele>486.7</ele>
        <time>2021-12-21T13:08:15Z</time>
      </trkpt>
      <trkpt lat="43.2205470" lon="-4.8965860">
        <ele>486.9</ele>
        <time>2021-12-21T13:08:17Z</time>
      </trkpt>
      <trkpt lat="43.2205190" lon="-4.8966220">
        <ele>487.0</ele>
        <time>2021-12-21T13:08:20Z</time>
      </trkpt>
      <trkpt lat="43.2204950" lon="-4.8966490">
        <ele>487.1</ele>
        <time>2021-12-21T13:08:22Z</time>
      </trkpt>
      <trkpt lat="43.2204750" lon="-4.8966740">
        <ele>487.2</ele>
        <time>2021-12-21T13:08:27Z</time>
      </trkpt>
      <trkpt lat="43.2204420" lon="-4.8966950">
        <ele>487.4</ele>
      </trkpt>
      <trkpt lat="43.2204210" lon="-4.8967190">
        <ele>487.5</ele>
      </trkpt>
      <trkpt lat="43.2203530" lon="-4.8967560">
        <ele>487.8</ele>
      </trkpt>
      <trkpt lat="43.2203340" lon="-4.8967710">
        <ele>487.9</ele>
      </trkpt>
      <trkpt lat="43.2203010" lon="-4.8968070">
        <ele>488.1</ele>
      </trkpt>
      <trkpt lat="43.2202500" lon="-4.8968700">
        <ele>488.4</ele>
      </trkpt>
      <trkpt lat="43.2202330" lon="-4.8968950">
        <ele>488.6</ele>
      </trkpt>
      <trkpt lat="43.2202060" lon="-4.8969130">
        <ele>488.7</ele>
      </trkpt>
      <trkpt lat="43.2201800" lon="-4.8969380">
        <ele>488.9</ele>
      </trkpt>
      <trkpt lat="43.2201340" lon="-4.8969690">
        <ele>489.2</ele>
      </trkpt>
      <trkpt lat="43.2200710" lon="-4.8970020">
        <ele>489.5</ele>
      </trkpt>
      <trkpt lat="43.2200500" lon="-4.8970210">
        <ele>489.6</ele>
      </trkpt>
      <trkpt lat="43.2200210" lon="-4.8970500">
        <ele>489.7</ele>
      </trkpt>
      <trkpt lat="43.2200020" lon="-4.8970660">
        <ele>489.8</ele>
      </trkpt>
      <trkpt lat="43.2199440" lon="-4.8971060">
        <ele>490.0</ele>
      </trkpt>
      <trkpt lat="43.2199110" lon="-4.8971320">
        <ele>490.1</ele>
      </trkpt>
      <trkpt lat="43.2198880" lon="-4.8971570">
        <ele>490.2</ele>
      </trkpt>
      <trkpt lat="43.2198700" lon="-4.8971790">
        <ele>490.2</ele>
      </trkpt>
      <trkpt lat="43.2198300" lon="-4.8972280">
        <ele>490.4</ele>
      </trkpt>
      <trkpt lat="43.2197890" lon="-4.8972840">
        <ele>490.5</ele>
      </trkpt>
      <trkpt lat="43.2197590" lon="-4.8973350">
        <ele>490.6</ele>
      </trkpt>
      <trkpt lat="43.2197440" lon="-4.8973720">
        <ele>490.7</ele>
      </trkpt>
      <trkpt lat="43.2197200" lon="-4.8974010">
        <ele>490.8</ele>
      </trkpt>
      <trkpt lat="43.2196530" lon="-4.8975460">
        <ele>491.1</ele>
      </trkpt>
      <trkpt lat="43.2196420" lon="-4.8975920">
        <ele>491.2</ele>
      </trkpt>
      <trkpt lat="43.2196290" lon="-4.8976120">
        <ele>491.2</ele>
      </trkpt>
      <trkpt lat="43.2196140" lon="-4.8976560">
        <ele>491.3</ele>
      </trkpt>
      <trkpt lat="43.2195800" lon="-4.8977010">
        <ele>491.4</ele>
      </trkpt>
      <trkpt lat="43.2195750" lon="-4.8977800">
        <ele>492.3</ele>
      </trkpt>
      <trkpt lat="43.2195730" lon="-4.8977830">
        <ele>492.4</ele>
      </trkpt>
      <trkpt lat="43.2195060" lon="-4.8979080">
        <ele>496.8</ele>
      </trkpt>
      <trkpt lat="43.2194820" lon="-4.8979660">
        <ele>498.6</ele>
      </trkpt>
      <trkpt lat="43.2195050" lon="-4.8980430">
        <ele>500.8</ele>
      </trkpt>
      <trkpt lat="43.2195280" lon="-4.8981050">
        <ele>502.4</ele>
      </trkpt>
      <trkpt lat="43.2195130" lon="-4.8981640">
        <ele>503.9</ele>
      </trkpt>
      <trkpt lat="43.2194880" lon="-4.8982040">
        <ele>505.2</ele>
      </trkpt>
      <trkpt lat="43.2194690" lon="-4.8982620">
        <ele>506.7</ele>
      </trkpt>
      <trkpt lat="43.2194550" lon="-4.8983220">
        <ele>508.4</ele>
      </trkpt>
      <trkpt lat="43.2194390" lon="-4.8983790">
        <ele>510.2</ele>
      </trkpt>
      <trkpt lat="43.2194260" lon="-4.8984740">
        <ele>513.5</ele>
      </trkpt>
      <trkpt lat="43.2194240" lon="-4.8985080">
        <ele>514.8</ele>
      </trkpt>
      <trkpt lat="43.2194400" lon="-4.8985680">
        <ele>517.3</ele>
      </trkpt>
      <trkpt lat="43.2194170" lon="-4.8986090">
        <ele>519.4</ele>
      </trkpt>
      <trkpt lat="43.2194040" lon="-4.8986600">
        <ele>521.6</ele>
      </trkpt>
      <trkpt lat="43.2193790" lon="-4.8986900">
        <ele>523.4</ele>
      </trkpt>
      <trkpt lat="43.2193450" lon="-4.8987340">
        <ele>525.9</ele>
      </trkpt>
      <trkpt lat="43.2193470" lon="-4.8987720">
        <ele>527.3</ele>
      </trkpt>
      <trkpt lat="43.2193110" lon="-4.8988210">
        <ele>529.7</ele>
      </trkpt>
      <trkpt lat="43.2192960" lon="-4.8988550">
        <ele>530.9</ele>
      </trkpt>
      <trkpt lat="43.2192340" lon="-4.8989120">
        <ele>534.5</ele>
      </trkpt>
      <trkpt lat="43.2192130" lon="-4.8989640">
        <ele>535.5</ele>
      </trkpt>
      <trkpt lat="43.2192150" lon="-4.8989690">
        <ele>535.6</ele>
      </trkpt>
      <trkpt lat="43.2189950" lon="-4.8993380">
        <ele>539.1</ele>
      </trkpt>
      <trkpt lat="43.2190730" lon="-4.8997930">
        <ele>540.8</ele>
      </trkpt>
      <trkpt lat="43.2189790" lon="-4.8996710">
        <ele>541.1</ele>
      </trkpt>
      <trkpt lat="43.2189300" lon="-4.8996260">
        <ele>541.2</ele>
      </trkpt>
      <trkpt lat="43.2188980" lon="-4.8996480">
        <ele>541.3</ele>
      </trkpt>
      <trkpt lat="43.2189090" lon="-4.8996630">
        <ele>541.3</ele>
      </trkpt>
      <trkpt lat="43.2189170" lon="-4.8996770">
        <ele>541.3</ele>
      </trkpt>
      <trkpt lat="43.2189500" lon="-4.8997250">
        <ele>541.4</ele>
      </trkpt>
      <trkpt lat="43.2189620" lon="-4.8997370">
        <ele>541.4</ele>
      </trkpt>
      <trkpt lat="43.2183820" lon="-4.8999460">
        <ele>540.7</ele>
      </trkpt>
      <trkpt lat="43.2184240" lon="-4.8998730">
        <ele>540.4</ele>
      </trkpt>
      <trkpt lat="43.2183860" lon="-4.8998760">
        <ele>540.3</ele>
      </trkpt>
      <trkpt lat="43.2184500" lon="-4.8999840">
        <ele>539.9</ele>
      </trkpt>
      <trkpt lat="43.2185300" lon="-4.9000280">
        <ele>539.7</ele>
      </trkpt>
      <trkpt lat="43.2185600" lon="-4.9000510">
        <ele>539.6</ele>
      </trkpt>
      <trkpt lat="43.2183410" lon="-4.9003990">
        <ele>539.2</ele>
      </trkpt>
      <trkpt lat="43.2182920" lon="-4.9000700">
        <ele>539.4</ele>
      </trkpt>
      <trkpt lat="43.2184400" lon="-4.9007660">
        <ele>537.7</ele>
      </trkpt>
      <trkpt lat="43.2183070" lon="-4.9004710">
        <ele>536.4</ele>
      </trkpt>
      <trkpt lat="43.2181870" lon="-4.9003280">
        <ele>536.1</ele>
      </trkpt>
      <trkpt lat="43.2181470" lon="-4.9003100">
        <ele>536.1</ele>
      </trkpt>
      <trkpt lat="43.2181610" lon="-4.9003220">
        <ele>536.1</ele>
      </trkpt>
      <trkpt lat="43.2181420" lon="-4.9002670">
        <ele>536.2</ele>
      </trkpt>
      <trkpt lat="43.2181130" lon="-4.9002230">
        <ele>536.2</ele>
      </trkpt>
      <trkpt lat="43.2178600" lon="-4.9003060">
        <ele>536.6</ele>
      </trkpt>
      <trkpt lat="43.2178470" lon="-4.9002670">
        <ele>536.6</ele>
      </trkpt>
      <trkpt lat="43.2178220" lon="-4.9004360">
        <ele>536.6</ele>
      </trkpt>
      <trkpt lat="43.2177070" lon="-4.9004020">
        <ele>519.7</ele>
      </trkpt>
      <trkpt lat="43.2177070" lon="-4.9004490">
        <ele>520.0</ele>
      </trkpt>
      <trkpt lat="43.2177380" lon="-4.9004720">
        <ele>520.4</ele>
      </trkpt>
      <trkpt lat="43.2176990" lon="-4.9005450">
        <ele>521.0</ele>
      </trkpt>
      <trkpt lat="43.2176640" lon="-4.9005870">
        <ele>516.4</ele>
      </trkpt>
      <trkpt lat="43.2176440" lon="-4.9006300">
        <ele>515.4</ele>
      </trkpt>
      <trkpt lat="43.2176050" lon="-4.9006000">
        <ele>514.3</ele>
      </trkpt>
      <trkpt lat="43.2175630" lon="-4.9006260">
        <ele>513.2</ele>
      </trkpt>
      <trkpt lat="43.2175420" lon="-4.9006070">
        <ele>512.5</ele>
      </trkpt>
      <trkpt lat="43.2175080" lon="-4.9005560">
        <ele>511.3</ele>
      </trkpt>
      <trkpt lat="43.2174810" lon="-4.9005230">
        <ele>510.4</ele>
      </trkpt>
      <trkpt lat="43.2174650" lon="-4.9005030">
        <ele>507.7</ele>
      </trkpt>
      <trkpt lat="43.2174280" lon="-4.9004610">
        <ele>507.4</ele>
      </trkpt>
      <trkpt lat="43.2173810" lon="-4.9004750">
        <ele>506.9</ele>
      </trkpt>
      <trkpt lat="43.2173600" lon="-4.9005130">
        <ele>506.6</ele>
      </trkpt>
      <trkpt lat="43.2173000" lon="-4.9004950">
        <ele>505.8</ele>
      </trkpt>
      <trkpt lat="43.2172890" lon="-4.9004880">
        <ele>505.6</ele>
      </trkpt>
      <trkpt lat="43.2172170" lon="-4.9005820">
        <ele>504.2</ele>
      </trkpt>
      <trkpt lat="43.2171860" lon="-4.9006000">
        <ele>503.7</ele>
      </trkpt>
      <trkpt lat="43.2171510" lon="-4.9006070">
        <ele>503.2</ele>
      </trkpt>
      <trkpt lat="43.2171350" lon="-4.9006200">
        <ele>502.9</ele>
      </trkpt>
      <trkpt lat="43.2170770" lon="-4.9006600">
        <ele>501.8</ele>
      </trkpt>
      <trkpt lat="43.2170390" lon="-4.9006790">
        <ele>501.1</ele>
      </trkpt>
      <trkpt lat="43.2170170" lon="-4.9006990">
        <ele>500.7</ele>
      </trkpt>
      <trkpt lat="43.2168650" lon="-4.9007280">
        <ele>498.0</ele>
      </trkpt>
      <trkpt lat="43.2168190" lon="-4.9007420">
        <ele>497.2</ele>
      </trkpt>
      <trkpt lat="43.2167900" lon="-4.9007460">
        <ele>496.6</ele>
      </trkpt>
      <trkpt lat="43.2167360" lon="-4.9007320">
        <ele>495.6</ele>
      </trkpt>
      <trkpt lat="43.2167240" lon="-4.9007290">
        <ele>495.4</ele>
      </trkpt>
      <trkpt lat="43.2166480" lon="-4.9007020">
        <ele>494.0</ele>
      </trkpt>
      <trkpt lat="43.2166250" lon="-4.9007010">
        <ele>493.6</ele>
      </trkpt>
      <trkpt lat="43.2165770" lon="-4.9007170">
        <ele>492.7</ele>
      </trkpt>
      <trkpt lat="43.2165420" lon="-4.9007240">
        <ele>492.1</ele>
      </trkpt>
      <trkpt lat="43.2165230" lon="-4.9007280">
        <ele>491.7</ele>
      </trkpt>
      <trkpt lat="43.2165110" lon="-4.9007150">
        <ele>491.5</ele>
      </trkpt>
      <trkpt lat="43.2164690" lon="-4.9007070">
        <ele>490.8</ele>
      </trkpt>
      <trkpt lat="43.2164250" lon="-4.9007520">
        <ele>490.0</ele>
      </trkpt>
      <trkpt lat="43.2163640" lon="-4.9007600">
        <ele>489.1</ele>
      </trkpt>
      <trkpt lat="43.2163050" lon="-4.9007520">
        <ele>488.2</ele>
      </trkpt>
      <trkpt lat="43.2162720" lon="-4.9007460">
        <ele>487.7</ele>
      </trkpt>
      <trkpt lat="43.2162150" lon="-4.9007450">
        <ele>486.9</ele>
      </trkpt>
      <trkpt lat="43.2161870" lon="-4.9007530">
        <ele>486.4</ele>
      </trkpt>
      <trkpt lat="43.2161300" lon="-4.9007680">
        <ele>485.4</ele>
      </trkpt>
      <trkpt lat="43.2161090" lon="-4.9007690">
        <ele>485.1</ele>
      </trkpt>
      <trkpt lat="43.2160330" lon="-4.9007890">
        <ele>483.6</ele>
      </trkpt>
      <trkpt lat="43.2160060" lon="-4.9007900">
        <ele>483.0</ele>
      </trkpt>
      <trkpt lat="43.2159760" lon="-4.9007770">
        <ele>482.4</ele>
      </trkpt>
      <trkpt lat="43.2159580" lon="-4.9007710">
        <ele>482.0</ele>
      </trkpt>
      <trkpt lat="43.2159020" lon="-4.9007320">
        <ele>480.7</ele>
      </trkpt>
      <trkpt lat="43.21591" lon="-4.90071">
        <ele>480.63000000000005</ele>
      </trkpt>
      <trkpt lat="43.215860000000006" lon="-4.90066">
        <ele>478.78000000000003</ele>
      </trkpt>
      <trkpt lat="43.215630000000004" lon="-4.90068">
        <ele>474.77000000000004</ele>
      </trkpt>
      <trkpt lat="43.215630000000004" lon="-4.900670000000001">
        <ele>474.77000000000004</ele>
      </trkpt>
      <trkpt lat="43.21531" lon="-4.90083">
        <ele>470.25000000000006</ele>
      </trkpt>
      <trkpt lat="43.215390000000006" lon="-4.901210000000001">
        <ele>479.59000000000003</ele>
      </trkpt>
      <trkpt lat="43.21511" lon="-4.9013">
        <ele>481.92</ele>
      </trkpt>
      <trkpt lat="43.214920000000006" lon="-4.90141">
        <ele>486.1</ele>
      </trkpt>
      <trkpt lat="43.21484" lon="-4.90148">
        <ele>487.53000000000003</ele>
      </trkpt>
      <trkpt lat="43.21475" lon="-4.90164">
        <ele>488.56000000000006</ele>
      </trkpt>
      <trkpt lat="43.214580000000005" lon="-4.90181">
        <ele>490.82000000000005</ele>
      </trkpt>
      <trkpt lat="43.21445000000001" lon="-4.90186">
        <ele>490.2900000000001</ele>
      </trkpt>
      <trkpt lat="43.214310000000005" lon="-4.90188">
        <ele>488.33000000000004</ele>
      </trkpt>
      <trkpt lat="43.214180000000006" lon="-4.90205">
        <ele>486.7</ele>
      </trkpt>
      <trkpt lat="43.213950000000004" lon="-4.90226">
        <ele>487.54</ele>
      </trkpt>
      <trkpt lat="43.21387" lon="-4.90235">
        <ele>488.05</ele>
      </trkpt>
      <trkpt lat="43.21372" lon="-4.90272">
        <ele>490.21000000000004</ele>
      </trkpt>
      <trkpt lat="43.21372" lon="-4.90272">
        <ele>490.21000000000004</ele>
        <time>2021-12-21T13:48:25Z</time>
      </trkpt>
      <trkpt lat="43.21387" lon="-4.90235">
        <ele>488.05</ele>
        <time>2021-12-21T13:48:27Z</time>
      </trkpt>
      <trkpt lat="43.213950000000004" lon="-4.90226">
        <ele>487.54</ele>
        <time>2021-12-21T13:48:33Z</time>
      </trkpt>
      <trkpt lat="43.214180000000006" lon="-4.90205">
        <ele>486.84000000000003</ele>
        <time>2021-12-21T13:49:17Z</time>
      </trkpt>
      <trkpt lat="43.214310000000005" lon="-4.90188">
        <ele>488.33000000000004</ele>
        <time>2021-12-21T13:49:19Z</time>
      </trkpt>
      <trkpt lat="43.21445000000001" lon="-4.90186">
        <ele>490.2900000000001</ele>
        <time>2021-12-21T13:49:22Z</time>
      </trkpt>
      <trkpt lat="43.214580000000005" lon="-4.90181">
        <ele>490.82000000000005</ele>
        <time>2021-12-21T13:49:24Z</time>
      </trkpt>
      <trkpt lat="43.21475" lon="-4.90164">
        <ele>488.56000000000006</ele>
        <time>2021-12-21T13:49:27Z</time>
      </trkpt>
      <trkpt lat="43.21481000000001" lon="-4.90153">
        <ele>487.67</ele>
        <time>2021-12-21T13:49:29Z</time>
      </trkpt>
      <trkpt lat="43.21484" lon="-4.90148">
        <ele>487.73</ele>
        <time>2021-12-21T13:49:35Z</time>
      </trkpt>
      <trkpt lat="43.214920000000006" lon="-4.90141">
        <ele>486.1</ele>
        <time>2021-12-21T13:49:37Z</time>
      </trkpt>
      <trkpt lat="43.21511" lon="-4.9013">
        <ele>481.92</ele>
        <time>2021-12-21T13:49:40Z</time>
      </trkpt>
      <trkpt lat="43.215390000000006" lon="-4.901210000000001">
        <ele>479.59000000000003</ele>
        <time>2021-12-21T13:49:42Z</time>
      </trkpt>
      <trkpt lat="43.21531" lon="-4.90083">
        <ele>470.25000000000006</ele>
        <time>2021-12-21T13:49:47Z</time>
      </trkpt>
      <trkpt lat="43.21566000000001" lon="-4.90066">
        <ele>476.0</ele>
        <time>2021-12-21T13:49:53Z</time>
      </trkpt>
      <trkpt lat="43.215860000000006" lon="-4.90066">
        <ele>478.78000000000003</ele>
        <time>2021-12-21T13:49:58Z</time>
      </trkpt>
      <trkpt lat="43.21594" lon="-4.90073">
        <ele>482.89000000000004</ele>
        <time>2021-12-21T13:50:00Z</time>
      </trkpt>
      <trkpt lat="43.216010000000004" lon="-4.90076">
        <ele>482.89000000000004</ele>
        <time>2021-12-21T13:50:05Z</time>
      </trkpt>
      <trkpt lat="43.21604000000001" lon="-4.90076">
        <ele>482.94</ele>
        <time>2021-12-21T13:50:11Z</time>
      </trkpt>
      <trkpt lat="43.21622000000001" lon="-4.90071">
        <ele>486.83000000000004</ele>
        <time>2021-12-21T13:50:16Z</time>
      </trkpt>
      <trkpt lat="43.216370000000005" lon="-4.90073">
        <ele>489.48</ele>
        <time>2021-12-21T13:50:21Z</time>
      </trkpt>
      <trkpt lat="43.21651000000001" lon="-4.90064">
        <ele>491.62000000000006</ele>
        <time>2021-12-21T13:50:26Z</time>
      </trkpt>
      <trkpt lat="43.21681" lon="-4.90062">
        <ele>499.05</ele>
        <time>2021-12-21T13:50:29Z</time>
      </trkpt>
      <trkpt lat="43.21705" lon="-4.90055">
        <ele>500.62000000000006</ele>
        <time>2021-12-21T13:50:31Z</time>
      </trkpt>
      <trkpt lat="43.217240000000004" lon="-4.90038">
        <ele>504.9600000000001</ele>
        <time>2021-12-21T13:50:34Z</time>
      </trkpt>
      <trkpt lat="43.21739" lon="-4.90029">
        <ele>507.17</ele>
        <time>2021-12-21T13:50:39Z</time>
      </trkpt>
      <trkpt lat="43.217530000000004" lon="-4.90031">
        <ele>508.09999999999997</ele>
        <time>2021-12-21T13:50:42Z</time>
      </trkpt>
      <trkpt lat="43.21766" lon="-4.90043">
        <ele>515.69</ele>
        <time>2021-12-21T13:50:47Z</time>
      </trkpt>
      <trkpt lat="43.217760000000006" lon="-4.90047">
        <ele>519.57</ele>
        <time>2021-12-21T13:50:49Z</time>
      </trkpt>
      <trkpt lat="43.217830000000006" lon="-4.9006300000000005">
        <ele>536.6</ele>
        <time>2021-12-21T13:50:52Z</time>
      </trkpt>
      <trkpt lat="43.21802" lon="-4.900580000000001">
        <ele>536.33</ele>
        <time>2021-12-21T13:50:57Z</time>
      </trkpt>
      <trkpt lat="43.21801000000001" lon="-4.900580000000001">
        <ele>536.32</ele>
        <time>2021-12-21T13:51:02Z</time>
      </trkpt>
      <trkpt lat="43.218270000000004" lon="-4.90052">
        <ele>537.1100000000001</ele>
        <time>2021-12-21T13:51:07Z</time>
      </trkpt>
      <trkpt lat="43.21846" lon="-4.90055">
        <ele>539.1100000000001</ele>
        <time>2021-12-21T13:51:12Z</time>
      </trkpt>
      <trkpt lat="43.21867" lon="-4.90031">
        <ele>539.2</ele>
        <time>2021-12-21T13:51:15Z</time>
      </trkpt>
      <trkpt lat="43.21882" lon="-4.8998800000000005">
        <ele>540.83</ele>
        <time>2021-12-21T13:51:18Z</time>
      </trkpt>
      <trkpt lat="43.21925" lon="-4.8988700000000005">
        <ele>532.51</ele>
        <time>2021-12-21T13:51:20Z</time>
      </trkpt>
      <trkpt lat="43.2194" lon="-4.89864">
        <ele>520.61</ele>
        <time>2021-12-21T13:51:23Z</time>
      </trkpt>
      <trkpt lat="43.2194" lon="-4.898650000000001">
        <ele>520.99</ele>
        <time>2021-12-21T13:51:28Z</time>
      </trkpt>
      <trkpt lat="43.21942000000001" lon="-4.89862">
        <ele>520.99</ele>
        <time>2021-12-21T13:51:31Z</time>
      </trkpt>
      <trkpt lat="43.219440000000006" lon="-4.89846">
        <ele>512.3000000000001</ele>
        <time>2021-12-21T13:51:33Z</time>
      </trkpt>
      <trkpt lat="43.2194030" lon="-4.8986440">
        <ele>521.3</ele>
        <time>2021-12-21T13:51:36Z</time>
      </trkpt>
      <trkpt lat="43.2194130" lon="-4.8986310">
        <ele>520.6</ele>
        <time>2021-12-21T13:51:38Z</time>
      </trkpt>
      <trkpt lat="43.2194020" lon="-4.8986210">
        <ele>519.9</ele>
        <time>2021-12-21T13:51:41Z</time>
      </trkpt>
      <trkpt lat="43.2193900" lon="-4.8985030">
        <ele>515.3</ele>
        <time>2021-12-21T13:51:43Z</time>
      </trkpt>
      <trkpt lat="43.2193720" lon="-4.8984780">
        <ele>514.0</ele>
        <time>2021-12-21T13:51:46Z</time>
      </trkpt>
      <trkpt lat="43.2193630" lon="-4.8984390">
        <ele>512.6</ele>
        <time>2021-12-21T13:51:49Z</time>
      </trkpt>
      <trkpt lat="43.2193490" lon="-4.8984090">
        <ele>511.4</ele>
        <time>2021-12-21T13:51:51Z</time>
      </trkpt>
      <trkpt lat="43.2193540" lon="-4.8983720">
        <ele>510.3</ele>
        <time>2021-12-21T13:51:54Z</time>
      </trkpt>
      <trkpt lat="43.2193640" lon="-4.8983500">
        <ele>509.5</ele>
        <time>2021-12-21T13:51:59Z</time>
      </trkpt>
      <trkpt lat="43.2193950" lon="-4.8982710">
        <ele>507.1</ele>
        <time>2021-12-21T13:52:04Z</time>
      </trkpt>
      <trkpt lat="43.2193910" lon="-4.8982550">
        <ele>506.7</ele>
        <time>2021-12-21T13:52:07Z</time>
      </trkpt>
      <trkpt lat="43.2193970" lon="-4.8982330">
        <ele>506.1</ele>
        <time>2021-12-21T13:52:09Z</time>
      </trkpt>
      <trkpt lat="43.2194130" lon="-4.8982190">
        <ele>505.5</ele>
        <time>2021-12-21T13:52:12Z</time>
      </trkpt>
      <trkpt lat="43.2194130" lon="-4.8981720">
        <ele>504.4</ele>
        <time>2021-12-21T13:52:14Z</time>
      </trkpt>
      <trkpt lat="43.2194420" lon="-4.8981200">
        <ele>502.9</ele>
        <time>2021-12-21T13:52:17Z</time>
      </trkpt>
      <trkpt lat="43.2194850" lon="-4.8980710">
        <ele>501.2</ele>
        <time>2021-12-21T13:52:20Z</time>
      </trkpt>
      <trkpt lat="43.2194920" lon="-4.8980440">
        <ele>500.5</ele>
        <time>2021-12-21T13:52:22Z</time>
      </trkpt>
      <trkpt lat="43.2194970" lon="-4.8979980">
        <ele>499.4</ele>
        <time>2021-12-21T13:52:25Z</time>
      </trkpt>
      <trkpt lat="43.2195190" lon="-4.8979350">
        <ele>497.6</ele>
        <time>2021-12-21T13:52:27Z</time>
      </trkpt>
      <trkpt lat="43.2195100" lon="-4.8978710">
        <ele>495.8</ele>
        <time>2021-12-21T13:52:32Z</time>
      </trkpt>
      <trkpt lat="43.2195500" lon="-4.8978130">
        <ele>493.7</ele>
        <time>2021-12-21T13:52:35Z</time>
      </trkpt>
      <trkpt lat="43.2195780" lon="-4.8977260">
        <ele>491.4</ele>
        <time>2021-12-21T13:52:40Z</time>
      </trkpt>
      <trkpt lat="43.2196000" lon="-4.8976910">
        <ele>491.3</ele>
        <time>2021-12-21T13:52:43Z</time>
      </trkpt>
      <trkpt lat="43.2196100" lon="-4.8976710">
        <ele>491.3</ele>
        <time>2021-12-21T13:52:48Z</time>
      </trkpt>
      <trkpt lat="43.2196200" lon="-4.8976290">
        <ele>491.2</ele>
        <time>2021-12-21T13:52:53Z</time>
      </trkpt>
      <trkpt lat="43.2196430" lon="-4.8975670">
        <ele>491.1</ele>
        <time>2021-12-21T13:52:56Z</time>
      </trkpt>
      <trkpt lat="43.2196560" lon="-4.8975270">
        <ele>491.0</ele>
        <time>2021-12-21T13:53:01Z</time>
      </trkpt>
      <trkpt lat="43.2196720" lon="-4.8974500">
        <ele>490.8</ele>
        <time>2021-12-21T13:53:06Z</time>
      </trkpt>
      <trkpt lat="43.2196900" lon="-4.8974320">
        <ele>490.7</ele>
        <time>2021-12-21T13:53:11Z</time>
      </trkpt>
      <trkpt lat="43.2197050" lon="-4.8973900">
        <ele>490.6</ele>
        <time>2021-12-21T13:53:14Z</time>
      </trkpt>
      <trkpt lat="43.2197440" lon="-4.8973400">
        <ele>490.4</ele>
        <time>2021-12-21T13:53:16Z</time>
      </trkpt>
      <trkpt lat="43.2197730" lon="-4.8972870">
        <ele>490.3</ele>
        <time>2021-12-21T13:53:19Z</time>
      </trkpt>
      <trkpt lat="43.2198240" lon="-4.8972420">
        <ele>490.1</ele>
        <time>2021-12-21T13:53:24Z</time>
      </trkpt>
      <trkpt lat="43.2198870" lon="-4.8971930">
        <ele>489.8</ele>
        <time>2021-12-21T13:53:27Z</time>
      </trkpt>
      <trkpt lat="43.2199200" lon="-4.8971730">
        <ele>489.7</ele>
        <time>2021-12-21T13:53:29Z</time>
      </trkpt>
      <trkpt lat="43.2199590" lon="-4.8971520">
        <ele>489.5</ele>
        <time>2021-12-21T13:53:32Z</time>
      </trkpt>
      <trkpt lat="43.2199730" lon="-4.8971240">
        <ele>489.3</ele>
        <time>2021-12-21T13:53:34Z</time>
      </trkpt>
      <trkpt lat="43.2200000" lon="-4.8970950">
        <ele>489.1</ele>
        <time>2021-12-21T13:53:37Z</time>
      </trkpt>
      <trkpt lat="43.2200370" lon="-4.8970250">
        <ele>488.7</ele>
        <time>2021-12-21T13:53:39Z</time>
      </trkpt>
      <trkpt lat="43.2200730" lon="-4.8970050">
        <ele>488.4</ele>
        <time>2021-12-21T13:53:45Z</time>
      </trkpt>
      <trkpt lat="43.2200910" lon="-4.8969860">
        <ele>488.3</ele>
        <time>2021-12-21T13:53:47Z</time>
      </trkpt>
      <trkpt lat="43.2201280" lon="-4.8969590">
        <ele>488.0</ele>
        <time>2021-12-21T13:53:50Z</time>
      </trkpt>
      <trkpt lat="43.2201500" lon="-4.8969460">
        <ele>487.9</ele>
        <time>2021-12-21T13:53:52Z</time>
      </trkpt>
      <trkpt lat="43.2201820" lon="-4.8969200">
        <ele>487.7</ele>
        <time>2021-12-21T13:53:58Z</time>
      </trkpt>
      <trkpt lat="43.2201960" lon="-4.8968930">
        <ele>487.6</ele>
        <time>2021-12-21T13:54:03Z</time>
      </trkpt>
      <trkpt lat="43.2202250" lon="-4.8968590">
        <ele>487.4</ele>
        <time>2021-12-21T13:54:08Z</time>
      </trkpt>
      <trkpt lat="43.2202510" lon="-4.8968280">
        <ele>487.2</ele>
        <time>2021-12-21T13:54:13Z</time>
      </trkpt>
      <trkpt lat="43.2202670" lon="-4.8968060">
        <ele>487.1</ele>
        <time>2021-12-21T13:54:18Z</time>
      </trkpt>
      <trkpt lat="43.2203030" lon="-4.8967890">
        <ele>486.9</ele>
        <time>2021-12-21T13:54:23Z</time>
      </trkpt>
      <trkpt lat="43.2203510" lon="-4.8967450">
        <ele>486.6</ele>
        <time>2021-12-21T13:54:28Z</time>
      </trkpt>
      <trkpt lat="43.2204070" lon="-4.8967240">
        <ele>486.2</ele>
        <time>2021-12-21T13:54:34Z</time>
      </trkpt>
      <trkpt lat="43.2204450" lon="-4.8967090">
        <ele>485.9</ele>
        <time>2021-12-21T13:54:41Z</time>
      </trkpt>
      <trkpt lat="43.2204680" lon="-4.8966950">
        <ele>485.7</ele>
        <time>2021-12-21T13:54:44Z</time>
      </trkpt>
      <trkpt lat="43.2205020" lon="-4.8966840">
        <ele>485.5</ele>
        <time>2021-12-21T13:54:52Z</time>
      </trkpt>
      <trkpt lat="43.2205250" lon="-4.8966690">
        <ele>485.3</ele>
        <time>2021-12-21T13:54:57Z</time>
      </trkpt>
      <trkpt lat="43.2205640" lon="-4.8966610">
        <ele>484.9</ele>
        <time>2021-12-21T13:55:02Z</time>
      </trkpt>
      <trkpt lat="43.2205990" lon="-4.8966560">
        <ele>484.6</ele>
        <time>2021-12-21T13:55:05Z</time>
      </trkpt>
      <trkpt lat="43.2206200" lon="-4.8966660">
        <ele>484.3</ele>
        <time>2021-12-21T13:55:07Z</time>
      </trkpt>
      <trkpt lat="43.2206560" lon="-4.8966660">
        <ele>483.9</ele>
        <time>2021-12-21T13:55:10Z</time>
      </trkpt>
      <trkpt lat="43.2206670" lon="-4.8966560">
        <ele>483.7</ele>
        <time>2021-12-21T13:55:15Z</time>
      </trkpt>
      <trkpt lat="43.2207240" lon="-4.8966390">
        <ele>483.0</ele>
        <time>2021-12-21T13:55:17Z</time>
      </trkpt>
      <trkpt lat="43.2207500" lon="-4.8966230">
        <ele>482.6</ele>
        <time>2021-12-21T13:55:20Z</time>
      </trkpt>
      <trkpt lat="43.2207950" lon="-4.8965870">
        <ele>481.9</ele>
        <time>2021-12-21T13:55:23Z</time>
      </trkpt>
      <trkpt lat="43.2208280" lon="-4.8965480">
        <ele>481.3</ele>
        <time>2021-12-21T13:55:28Z</time>
      </trkpt>
      <trkpt lat="43.2208830" lon="-4.8965110">
        <ele>480.5</ele>
        <time>2021-12-21T13:55:33Z</time>
      </trkpt>
      <trkpt lat="43.2209330" lon="-4.8965260">
        <ele>479.7</ele>
        <time>2021-12-21T13:55:38Z</time>
      </trkpt>
      <trkpt lat="43.2209750" lon="-4.8965280">
        <ele>479.1</ele>
        <time>2021-12-21T13:55:41Z</time>
      </trkpt>
      <trkpt lat="43.2210180" lon="-4.8965320">
        <ele>478.4</ele>
        <time>2021-12-21T13:55:46Z</time>
      </trkpt>
      <trkpt lat="43.2210790" lon="-4.8965550">
        <ele>477.4</ele>
        <time>2021-12-21T13:55:51Z</time>
      </trkpt>
      <trkpt lat="43.2211340" lon="-4.8965600">
        <ele>476.6</ele>
        <time>2021-12-21T13:55:54Z</time>
      </trkpt>
      <trkpt lat="43.2211720" lon="-4.8965400">
        <ele>475.9</ele>
        <time>2021-12-21T13:55:56Z</time>
      </trkpt>
      <trkpt lat="43.2211930" lon="-4.8965440">
        <ele>475.6</ele>
        <time>2021-12-21T13:56:01Z</time>
      </trkpt>
      <trkpt lat="43.2212240" lon="-4.8965390">
        <ele>475.1</ele>
        <time>2021-12-21T13:56:04Z</time>
      </trkpt>
      <trkpt lat="43.2212880" lon="-4.8965100">
        <ele>474.1</ele>
        <time>2021-12-21T13:56:06Z</time>
      </trkpt>
      <trkpt lat="43.2213260" lon="-4.8964980">
        <ele>473.7</ele>
        <time>2021-12-21T13:56:09Z</time>
      </trkpt>
      <trkpt lat="43.2213540" lon="-4.8964850">
        <ele>473.4</ele>
        <time>2021-12-21T13:56:11Z</time>
      </trkpt>
      <trkpt lat="43.2213940" lon="-4.8964650">
        <ele>473.1</ele>
        <time>2021-12-21T13:56:17Z</time>
      </trkpt>
      <trkpt lat="43.2214210" lon="-4.8964530">
        <ele>472.9</ele>
        <time>2021-12-21T13:56:19Z</time>
      </trkpt>
      <trkpt lat="43.2214430" lon="-4.8964250">
        <ele>472.8</ele>
        <time>2021-12-21T13:56:22Z</time>
      </trkpt>
      <trkpt lat="43.2214600" lon="-4.8963850">
        <ele>472.7</ele>
        <time>2021-12-21T13:56:24Z</time>
      </trkpt>
      <trkpt lat="43.2215280" lon="-4.8963290">
        <ele>472.5</ele>
        <time>2021-12-21T13:56:27Z</time>
      </trkpt>
      <trkpt lat="43.2215410" lon="-4.8963170">
        <ele>472.5</ele>
        <time>2021-12-21T13:56:30Z</time>
      </trkpt>
      <trkpt lat="43.2215780" lon="-4.8963150">
        <ele>472.5</ele>
        <time>2021-12-21T13:56:32Z</time>
      </trkpt>
      <trkpt lat="43.2216010" lon="-4.8963120">
        <ele>472.5</ele>
        <time>2021-12-21T13:56:35Z</time>
      </trkpt>
      <trkpt lat="43.2216690" lon="-4.8963180">
        <ele>472.5</ele>
        <time>2021-12-21T13:56:40Z</time>
      </trkpt>
      <trkpt lat="43.2217180" lon="-4.8963250">
        <ele>472.6</ele>
        <time>2021-12-21T13:56:45Z</time>
      </trkpt>
      <trkpt lat="43.2217670" lon="-4.8963240">
        <ele>472.7</ele>
        <time>2021-12-21T13:57:02Z</time>
      </trkpt>
      <trkpt lat="43.2217960" lon="-4.8963280">
        <ele>472.8</ele>
        <time>2021-12-21T13:57:03Z</time>
      </trkpt>
      <trkpt lat="43.2218280" lon="-4.8963340">
        <ele>472.9</ele>
        <time>2021-12-21T13:57:06Z</time>
      </trkpt>
      <trkpt lat="43.2218650" lon="-4.8963700">
        <ele>473.0</ele>
        <time>2021-12-21T13:57:08Z</time>
      </trkpt>
      <trkpt lat="43.2218960" lon="-4.8963450">
        <ele>473.0</ele>
        <time>2021-12-21T13:57:14Z</time>
      </trkpt>
      <trkpt lat="43.2219000" lon="-4.8963540">
        <ele>473.0</ele>
        <time>2021-12-21T13:57:19Z</time>
      </trkpt>
      <trkpt lat="43.2219200" lon="-4.8964010">
        <ele>473.1</ele>
        <time>2021-12-21T13:57:21Z</time>
      </trkpt>
      <trkpt lat="43.2219380" lon="-4.8963880">
        <ele>473.1</ele>
        <time>2021-12-21T13:57:26Z</time>
      </trkpt>
      <trkpt lat="43.2219960" lon="-4.8963140">
        <ele>473.1</ele>
        <time>2021-12-21T13:57:32Z</time>
      </trkpt>
      <trkpt lat="43.2220360" lon="-4.8962820">
        <ele>473.1</ele>
        <time>2021-12-21T13:57:34Z</time>
      </trkpt>
      <trkpt lat="43.2220830" lon="-4.8962750">
        <ele>473.1</ele>
        <time>2021-12-21T13:57:37Z</time>
      </trkpt>
      <trkpt lat="43.2221240" lon="-4.8963040">
        <ele>473.1</ele>
        <time>2021-12-21T13:57:42Z</time>
      </trkpt>
      <trkpt lat="43.2221440" lon="-4.8963030">
        <ele>473.1</ele>
        <time>2021-12-21T13:57:47Z</time>
      </trkpt>
      <trkpt lat="43.2221900" lon="-4.8963340">
        <ele>473.0</ele>
        <time>2021-12-21T13:57:52Z</time>
      </trkpt>
      <trkpt lat="43.2222550" lon="-4.8964330">
        <ele>472.8</ele>
        <time>2021-12-21T13:57:55Z</time>
      </trkpt>
      <trkpt lat="43.2222830" lon="-4.8964590">
        <ele>472.7</ele>
        <time>2021-12-21T13:58:00Z</time>
      </trkpt>
      <trkpt lat="43.2223040" lon="-4.8964980">
        <ele>472.6</ele>
        <time>2021-12-21T13:58:03Z</time>
      </trkpt>
      <trkpt lat="43.2223400" lon="-4.8965220">
        <ele>472.5</ele>
        <time>2021-12-21T13:58:08Z</time>
      </trkpt>
      <trkpt lat="43.2224030" lon="-4.8965470">
        <ele>472.3</ele>
        <time>2021-12-21T13:58:10Z</time>
      </trkpt>
      <trkpt lat="43.2224450" lon="-4.8965330">
        <ele>472.1</ele>
        <time>2021-12-21T13:58:15Z</time>
      </trkpt>
      <trkpt lat="43.2225030" lon="-4.8965030">
        <ele>471.9</ele>
        <time>2021-12-21T13:58:18Z</time>
      </trkpt>
      <trkpt lat="43.2225120" lon="-4.8964690">
        <ele>471.9</ele>
        <time>2021-12-21T13:58:21Z</time>
      </trkpt>
      <trkpt lat="43.2225250" lon="-4.8964290">
        <ele>471.8</ele>
        <time>2021-12-21T13:58:23Z</time>
      </trkpt>
      <trkpt lat="43.2225690" lon="-4.8963810">
        <ele>471.6</ele>
        <time>2021-12-21T13:58:26Z</time>
      </trkpt>
      <trkpt lat="43.2226040" lon="-4.8963630">
        <ele>471.5</ele>
        <time>2021-12-21T13:58:28Z</time>
      </trkpt>
      <trkpt lat="43.2226300" lon="-4.8963600">
        <ele>471.4</ele>
        <time>2021-12-21T13:58:33Z</time>
      </trkpt>
      <trkpt lat="43.2227050" lon="-4.8964130">
        <ele>471.2</ele>
        <time>2021-12-21T13:58:36Z</time>
      </trkpt>
      <trkpt lat="43.2227410" lon="-4.8964450">
        <ele>471.0</ele>
        <time>2021-12-21T13:58:39Z</time>
      </trkpt>
      <trkpt lat="43.2227620" lon="-4.8964480">
        <ele>470.9</ele>
        <time>2021-12-21T13:58:41Z</time>
      </trkpt>
      <trkpt lat="43.2228430" lon="-4.8964800">
        <ele>470.5</ele>
        <time>2021-12-21T13:58:44Z</time>
      </trkpt>
      <trkpt lat="43.2228900" lon="-4.8964930">
        <ele>470.2</ele>
        <time>2021-12-21T13:58:49Z</time>
      </trkpt>
      <trkpt lat="43.2229360" lon="-4.8965050">
        <ele>469.9</ele>
        <time>2021-12-21T13:58:59Z</time>
      </trkpt>
      <trkpt lat="43.2229830" lon="-4.8965170">
        <ele>469.7</ele>
        <time>2021-12-21T13:59:02Z</time>
      </trkpt>
      <trkpt lat="43.2230290" lon="-4.8965290">
        <ele>469.4</ele>
        <time>2021-12-21T13:59:04Z</time>
      </trkpt>
      <trkpt lat="43.2230760" lon="-4.8965420">
        <ele>469.2</ele>
        <time>2021-12-21T13:59:07Z</time>
      </trkpt>
      <trkpt lat="43.2231220" lon="-4.8965540">
        <ele>469.0</ele>
        <time>2021-12-21T13:59:09Z</time>
      </trkpt>
      <trkpt lat="43.2231680" lon="-4.8965660">
        <ele>468.8</ele>
        <time>2021-12-21T13:59:15Z</time>
      </trkpt>
      <trkpt lat="43.2232150" lon="-4.8965790">
        <ele>468.6</ele>
        <time>2021-12-21T13:59:20Z</time>
      </trkpt>
      <trkpt lat="43.2232610" lon="-4.8965910">
        <ele>468.4</ele>
        <time>2021-12-21T13:59:22Z</time>
      </trkpt>
      <trkpt lat="43.2233080" lon="-4.8966030">
        <ele>468.2</ele>
        <time>2021-12-21T13:59:30Z</time>
      </trkpt>
      <trkpt lat="43.2233540" lon="-4.8966150">
        <ele>467.9</ele>
        <time>2021-12-21T13:59:33Z</time>
      </trkpt>
      <trkpt lat="43.2234010" lon="-4.8966280">
        <ele>467.7</ele>
        <time>2021-12-21T13:59:35Z</time>
      </trkpt>
      <trkpt lat="43.2234470" lon="-4.8966400">
        <ele>467.4</ele>
        <time>2021-12-21T13:59:38Z</time>
      </trkpt>
      <trkpt lat="43.2234640" lon="-4.8966330">
        <ele>467.4</ele>
        <time>2021-12-21T13:59:40Z</time>
      </trkpt>
      <trkpt lat="43.2234930" lon="-4.8966390">
        <ele>467.2</ele>
        <time>2021-12-21T13:59:43Z</time>
      </trkpt>
      <trkpt lat="43.2235400" lon="-4.8966910">
        <ele>467.0</ele>
        <time>2021-12-21T13:59:46Z</time>
      </trkpt>
      <trkpt lat="43.2235820" lon="-4.8967130">
        <ele>466.8</ele>
        <time>2021-12-21T13:59:48Z</time>
      </trkpt>
      <trkpt lat="43.2236020" lon="-4.8967080">
        <ele>466.7</ele>
        <time>2021-12-21T13:59:51Z</time>
      </trkpt>
      <trkpt lat="43.2236560" lon="-4.8967090">
        <ele>466.5</ele>
        <time>2021-12-21T13:59:53Z</time>
      </trkpt>
      <trkpt lat="43.2237180" lon="-4.8967450">
        <ele>466.3</ele>
        <time>2021-12-21T13:59:56Z</time>
      </trkpt>
      <trkpt lat="43.2237460" lon="-4.8967650">
        <ele>466.2</ele>
        <time>2021-12-21T14:00:01Z</time>
      </trkpt>
      <trkpt lat="43.2237810" lon="-4.8967700">
        <ele>466.1</ele>
        <time>2021-12-21T14:00:06Z</time>
      </trkpt>
      <trkpt lat="43.2238230" lon="-4.8968150">
        <ele>465.9</ele>
        <time>2021-12-21T14:00:09Z</time>
      </trkpt>
      <trkpt lat="43.2238630" lon="-4.8968470">
        <ele>465.6</ele>
        <time>2021-12-21T14:00:14Z</time>
      </trkpt>
      <trkpt lat="43.2239100" lon="-4.8968330">
        <ele>465.4</ele>
        <time>2021-12-21T14:00:19Z</time>
      </trkpt>
      <trkpt lat="43.2239500" lon="-4.8968240">
        <ele>465.2</ele>
        <time>2021-12-21T14:00:24Z</time>
      </trkpt>
      <trkpt lat="43.2240040" lon="-4.8968220">
        <ele>464.9</ele>
        <time>2021-12-21T14:00:27Z</time>
      </trkpt>
      <trkpt lat="43.2240300" lon="-4.8967820">
        <ele>464.8</ele>
        <time>2021-12-21T14:00:32Z</time>
      </trkpt>
      <trkpt lat="43.2240960" lon="-4.8967670">
        <ele>464.6</ele>
        <time>2021-12-21T14:00:35Z</time>
      </trkpt>
      <trkpt lat="43.2241240" lon="-4.8967490">
        <ele>464.5</ele>
        <time>2021-12-21T14:00:37Z</time>
      </trkpt>
      <trkpt lat="43.2241960" lon="-4.8967280">
        <ele>464.2</ele>
        <time>2021-12-21T14:00:40Z</time>
      </trkpt>
      <trkpt lat="43.2242330" lon="-4.8967310">
        <ele>464.0</ele>
        <time>2021-12-21T14:00:42Z</time>
      </trkpt>
      <trkpt lat="43.2242740" lon="-4.8967430">
        <ele>463.8</ele>
        <time>2021-12-21T14:00:47Z</time>
      </trkpt>
      <trkpt lat="43.2242990" lon="-4.8967570">
        <ele>463.7</ele>
        <time>2021-12-21T14:00:53Z</time>
      </trkpt>
      <trkpt lat="43.2243260" lon="-4.8967640">
        <ele>463.5</ele>
        <time>2021-12-21T14:00:55Z</time>
      </trkpt>
      <trkpt lat="43.2243510" lon="-4.8967820">
        <ele>463.4</ele>
        <time>2021-12-21T14:00:58Z</time>
      </trkpt>
      <trkpt lat="43.2244060" lon="-4.8967150">
        <ele>462.9</ele>
        <time>2021-12-21T14:01:03Z</time>
      </trkpt>
      <trkpt lat="43.2244200" lon="-4.8966330">
        <ele>462.5</ele>
        <time>2021-12-21T14:01:06Z</time>
      </trkpt>
      <trkpt lat="43.2244430" lon="-4.8966020">
        <ele>462.3</ele>
        <time>2021-12-21T14:01:08Z</time>
      </trkpt>
      <trkpt lat="43.2244640" lon="-4.8966250">
        <ele>462.0</ele>
        <time>2021-12-21T14:01:11Z</time>
      </trkpt>
      <trkpt lat="43.2245030" lon="-4.8966110">
        <ele>461.7</ele>
        <time>2021-12-21T14:01:13Z</time>
      </trkpt>
      <trkpt lat="43.2245380" lon="-4.8966110">
        <ele>461.4</ele>
        <time>2021-12-21T14:01:18Z</time>
      </trkpt>
      <trkpt lat="43.2245830" lon="-4.8965120">
        <ele>458.6</ele>
        <time>2021-12-21T14:01:24Z</time>
      </trkpt>
      <trkpt lat="43.2246260" lon="-4.8964390">
        <ele>457.4</ele>
        <time>2021-12-21T14:01:29Z</time>
      </trkpt>
      <trkpt lat="43.2246540" lon="-4.8964140">
        <ele>456.8</ele>
        <time>2021-12-21T14:01:31Z</time>
      </trkpt>
      <trkpt lat="43.2246740" lon="-4.8963390">
        <ele>456.0</ele>
        <time>2021-12-21T14:01:36Z</time>
      </trkpt>
      <trkpt lat="43.2246710" lon="-4.8963140">
        <ele>456.0</ele>
        <time>2021-12-21T14:01:42Z</time>
      </trkpt>
      <trkpt lat="43.2246770" lon="-4.8964290">
        <ele>455.9</ele>
        <time>2021-12-21T14:01:47Z</time>
      </trkpt>
      <trkpt lat="43.2246910" lon="-4.8964760">
        <ele>455.9</ele>
        <time>2021-12-21T14:01:52Z</time>
      </trkpt>
      <trkpt lat="43.2247050" lon="-4.8964700">
        <ele>455.9</ele>
        <time>2021-12-21T14:01:54Z</time>
      </trkpt>
      <trkpt lat="43.2247880" lon="-4.8964880">
        <ele>455.8</ele>
        <time>2021-12-21T14:01:57Z</time>
      </trkpt>
      <trkpt lat="43.2248130" lon="-4.8965260">
        <ele>455.8</ele>
        <time>2021-12-21T14:02:00Z</time>
      </trkpt>
      <trkpt lat="43.2248410" lon="-4.8965400">
        <ele>455.8</ele>
        <time>2021-12-21T14:02:02Z</time>
      </trkpt>
      <trkpt lat="43.2248420" lon="-4.8966180">
        <ele>455.7</ele>
        <time>2021-12-21T14:02:07Z</time>
      </trkpt>
      <trkpt lat="43.2248480" lon="-4.8966530">
        <ele>455.7</ele>
        <time>2021-12-21T14:02:10Z</time>
      </trkpt>
      <trkpt lat="43.2248760" lon="-4.8967580">
        <ele>455.6</ele>
        <time>2021-12-21T14:02:12Z</time>
      </trkpt>
      <trkpt lat="43.2249000" lon="-4.8969480">
        <ele>455.4</ele>
        <time>2021-12-21T14:02:15Z</time>
      </trkpt>
      <trkpt lat="43.2249270" lon="-4.8969780">
        <ele>455.3</ele>
        <time>2021-12-21T14:02:18Z</time>
      </trkpt>
      <trkpt lat="43.2250140" lon="-4.8969660">
        <ele>455.2</ele>
        <time>2021-12-21T14:02:23Z</time>
      </trkpt>
      <trkpt lat="43.2250430" lon="-4.8969640">
        <ele>455.2</ele>
        <time>2021-12-21T14:02:28Z</time>
      </trkpt>
      <trkpt lat="43.2250670" lon="-4.8970760">
        <ele>455.0</ele>
        <time>2021-12-21T14:02:31Z</time>
      </trkpt>
      <trkpt lat="43.2250000" lon="-4.8971420">
        <ele>454.9</ele>
        <time>2021-12-21T14:02:33Z</time>
      </trkpt>
      <trkpt lat="43.2250500" lon="-4.8971690">
        <ele>454.8</ele>
        <time>2021-12-21T14:02:36Z</time>
      </trkpt>
      <trkpt lat="43.2250830" lon="-4.8971310">
        <ele>454.7</ele>
        <time>2021-12-21T14:02:38Z</time>
      </trkpt>
      <trkpt lat="43.2251860" lon="-4.8969930">
        <ele>454.5</ele>
        <time>2021-12-21T14:02:41Z</time>
      </trkpt>
      <trkpt lat="43.2253250" lon="-4.8966410">
        <ele>454.0</ele>
        <time>2021-12-21T14:02:44Z</time>
      </trkpt>
      <trkpt lat="43.2253820" lon="-4.8965520">
        <ele>454.0</ele>
        <time>2021-12-21T14:02:46Z</time>
      </trkpt>
      <trkpt lat="43.2253980" lon="-4.8965810">
        <ele>453.9</ele>
        <time>2021-12-21T14:02:49Z</time>
      </trkpt>
      <trkpt lat="43.2254750" lon="-4.8964580">
        <ele>453.8</ele>
        <time>2021-12-21T14:02:54Z</time>
      </trkpt>
      <trkpt lat="43.2255130" lon="-4.8963820">
        <ele>453.7</ele>
        <time>2021-12-21T14:02:56Z</time>
      </trkpt>
      <trkpt lat="43.2255420" lon="-4.8963320">
        <ele>453.7</ele>
        <time>2021-12-21T14:02:59Z</time>
      </trkpt>
      <trkpt lat="43.2255570" lon="-4.8962820">
        <ele>453.6</ele>
        <time>2021-12-21T14:03:04Z</time>
      </trkpt>
      <trkpt lat="43.2255550" lon="-4.8962760">
        <ele>453.6</ele>
        <time>2021-12-21T14:03:07Z</time>
      </trkpt>
      <trkpt lat="43.2255840" lon="-4.8962420">
        <ele>453.6</ele>
        <time>2021-12-21T14:03:12Z</time>
      </trkpt>
      <trkpt lat="43.2256800" lon="-4.8962220">
        <ele>453.5</ele>
        <time>2021-12-21T14:03:17Z</time>
      </trkpt>
      <trkpt lat="43.2256970" lon="-4.8962460">
        <ele>453.5</ele>
        <time>2021-12-21T14:03:20Z</time>
      </trkpt>
      <trkpt lat="43.2257320" lon="-4.8963120">
        <ele>453.4</ele>
        <time>2021-12-21T14:03:22Z</time>
      </trkpt>
      <trkpt lat="43.2257960" lon="-4.8964460">
        <ele>453.3</ele>
        <time>2021-12-21T14:03:25Z</time>
      </trkpt>
      <trkpt lat="43.2258510" lon="-4.8965770">
        <ele>453.2</ele>
        <time>2021-12-21T14:03:27Z</time>
      </trkpt>
      <trkpt lat="43.2258790" lon="-4.8966630">
        <ele>453.2</ele>
        <time>2021-12-21T14:03:30Z</time>
      </trkpt>
      <trkpt lat="43.2259050" lon="-4.8966760">
        <ele>453.2</ele>
        <time>2021-12-21T14:03:33Z</time>
      </trkpt>
      <trkpt lat="43.2259240" lon="-4.8966810">
        <ele>453.2</ele>
        <time>2021-12-21T14:03:38Z</time>
      </trkpt>
      <trkpt lat="43.2260980" lon="-4.8966960">
        <ele>453.0</ele>
        <time>2021-12-21T14:03:40Z</time>
      </trkpt>
      <trkpt lat="43.2261710" lon="-4.8967850">
        <ele>453.0</ele>
        <time>2021-12-21T14:03:48Z</time>
      </trkpt>
      <trkpt lat="43.2261860" lon="-4.8967720">
        <ele>453.0</ele>
        <time>2021-12-21T14:03:50Z</time>
      </trkpt>
      <trkpt lat="43.2261980" lon="-4.8967590">
        <ele>453.0</ele>
        <time>2021-12-21T14:03:53Z</time>
      </trkpt>
      <trkpt lat="43.2261830" lon="-4.8967160">
        <ele>452.9</ele>
        <time>2021-12-21T14:03:58Z</time>
      </trkpt>
      <trkpt lat="43.2260890" lon="-4.8962610">
        <ele>452.6</ele>
        <time>2021-12-21T14:04:03Z</time>
      </trkpt>
      <trkpt lat="43.2261150" lon="-4.8962620">
        <ele>452.6</ele>
        <time>2021-12-21T14:04:06Z</time>
      </trkpt>
      <trkpt lat="43.2261970" lon="-4.8962730">
        <ele>452.5</ele>
        <time>2021-12-21T14:04:11Z</time>
      </trkpt>
      <trkpt lat="43.2262250" lon="-4.8963330">
        <ele>452.5</ele>
        <time>2021-12-21T14:04:14Z</time>
      </trkpt>
      <trkpt lat="43.2262710" lon="-4.8961710">
        <ele>452.4</ele>
        <time>2021-12-21T14:04:16Z</time>
      </trkpt>
      <trkpt lat="43.2263050" lon="-4.8961520">
        <ele>452.4</ele>
        <time>2021-12-21T14:04:19Z</time>
      </trkpt>
      <trkpt lat="43.2263250" lon="-4.8961420">
        <ele>452.4</ele>
        <time>2021-12-21T14:04:24Z</time>
      </trkpt>
      <trkpt lat="43.2263140" lon="-4.8959820">
        <ele>452.3</ele>
        <time>2021-12-21T14:04:29Z</time>
      </trkpt>
      <trkpt lat="43.2263190" lon="-4.8959210">
        <ele>452.2</ele>
        <time>2021-12-21T14:04:34Z</time>
      </trkpt>
      <trkpt lat="43.2263320" lon="-4.8958690">
        <ele>452.2</ele>
        <time>2021-12-21T14:04:40Z</time>
      </trkpt>
      <trkpt lat="43.2263260" lon="-4.8958910">
        <ele>452.2</ele>
        <time>2021-12-21T14:04:42Z</time>
      </trkpt>
      <trkpt lat="43.2263750" lon="-4.8957770">
        <ele>452.1</ele>
        <time>2021-12-21T14:04:45Z</time>
      </trkpt>
      <trkpt lat="43.2264110" lon="-4.8957630">
        <ele>452.1</ele>
        <time>2021-12-21T14:04:47Z</time>
      </trkpt>
      <trkpt lat="43.2265010" lon="-4.8957990">
        <ele>452.0</ele>
        <time>2021-12-21T14:04:50Z</time>
      </trkpt>
      <trkpt lat="43.2265710" lon="-4.8957160">
        <ele>451.9</ele>
        <time>2021-12-21T14:04:52Z</time>
      </trkpt>
      <trkpt lat="43.2265840" lon="-4.8956950">
        <ele>451.9</ele>
        <time>2021-12-21T14:04:55Z</time>
      </trkpt>
      <trkpt lat="43.2266220" lon="-4.8956010">
        <ele>451.8</ele>
        <time>2021-12-21T14:05:00Z</time>
      </trkpt>
      <trkpt lat="43.2266620" lon="-4.8955390">
        <ele>451.7</ele>
        <time>2021-12-21T14:05:03Z</time>
      </trkpt>
      <trkpt lat="43.2266860" lon="-4.8954680">
        <ele>451.7</ele>
        <time>2021-12-21T14:05:05Z</time>
      </trkpt>
      <trkpt lat="43.2266780" lon="-4.8954100">
        <ele>451.6</ele>
        <time>2021-12-21T14:05:08Z</time>
      </trkpt>
      <trkpt lat="43.2266820" lon="-4.8953910">
        <ele>451.6</ele>
        <time>2021-12-21T14:05:11Z</time>
      </trkpt>
      <trkpt lat="43.2267200" lon="-4.8953650">
        <ele>451.5</ele>
        <time>2021-12-21T14:05:13Z</time>
      </trkpt>
      <trkpt lat="43.2267660" lon="-4.8952920">
        <ele>451.4</ele>
        <time>2021-12-21T14:05:16Z</time>
      </trkpt>
      <trkpt lat="43.2267840" lon="-4.8952870">
        <ele>451.4</ele>
        <time>2021-12-21T14:05:18Z</time>
      </trkpt>
      <trkpt lat="43.2268130" lon="-4.8952510">
        <ele>451.4</ele>
        <time>2021-12-21T14:05:23Z</time>
      </trkpt>
      <trkpt lat="43.2268470" lon="-4.8951880">
        <ele>451.3</ele>
        <time>2021-12-21T14:05:29Z</time>
      </trkpt>
      <trkpt lat="43.2268820" lon="-4.8951640">
        <ele>451.2</ele>
        <time>2021-12-21T14:05:31Z</time>
      </trkpt>
      <trkpt lat="43.2269120" lon="-4.8950950">
        <ele>451.1</ele>
        <time>2021-12-21T14:05:34Z</time>
      </trkpt>
      <trkpt lat="43.2269650" lon="-4.8950380">
        <ele>451.0</ele>
        <time>2021-12-21T14:05:36Z</time>
      </trkpt>
      <trkpt lat="43.2269950" lon="-4.8949990">
        <ele>450.9</ele>
        <time>2021-12-21T14:05:39Z</time>
      </trkpt>
      <trkpt lat="43.2270200" lon="-4.8949830">
        <ele>450.8</ele>
        <time>2021-12-21T14:05:41Z</time>
      </trkpt>
      <trkpt lat="43.2270620" lon="-4.8949460">
        <ele>450.6</ele>
        <time>2021-12-21T14:05:47Z</time>
      </trkpt>
      <trkpt lat="43.2270880" lon="-4.8949230">
        <ele>450.1</ele>
        <time>2021-12-21T14:05:49Z</time>
      </trkpt>
      <trkpt lat="43.2271020" lon="-4.8948850">
        <ele>449.7</ele>
        <time>2021-12-21T14:05:54Z</time>
      </trkpt>
      <trkpt lat="43.2271120" lon="-4.8948490">
        <ele>449.3</ele>
        <time>2021-12-21T14:05:59Z</time>
      </trkpt>
      <trkpt lat="43.2271540" lon="-4.8948420">
        <ele>448.7</ele>
        <time>2021-12-21T14:06:02Z</time>
      </trkpt>
      <trkpt lat="43.2271650" lon="-4.8948500">
        <ele>448.5</ele>
        <time>2021-12-21T14:06:05Z</time>
      </trkpt>
      <trkpt lat="43.2272330" lon="-4.8947170">
        <ele>446.8</ele>
        <time>2021-12-21T14:06:10Z</time>
      </trkpt>
      <trkpt lat="43.2272480" lon="-4.8947020">
        <ele>448.7</ele>
        <time>2021-12-21T14:06:12Z</time>
      </trkpt>
      <trkpt lat="43.2272740" lon="-4.8947240">
        <ele>450.2</ele>
        <time>2021-12-21T14:06:15Z</time>
      </trkpt>
      <trkpt lat="43.2273150" lon="-4.8947630">
        <ele>452.7</ele>
        <time>2021-12-21T14:06:18Z</time>
      </trkpt>
      <trkpt lat="43.2273670" lon="-4.8947950">
        <ele>455.4</ele>
        <time>2021-12-21T14:06:20Z</time>
      </trkpt>
      <trkpt lat="43.2274000" lon="-4.8947830">
        <ele>456.3</ele>
        <time>2021-12-21T14:06:23Z</time>
      </trkpt>
      <trkpt lat="43.2274520" lon="-4.8948590">
        <ele>457.8</ele>
        <time>2021-12-21T14:06:25Z</time>
      </trkpt>
      <trkpt lat="43.2274880" lon="-4.8948930">
        <ele>458.6</ele>
        <time>2021-12-21T14:06:28Z</time>
      </trkpt>
      <trkpt lat="43.2275090" lon="-4.8949000">
        <ele>459.1</ele>
        <time>2021-12-21T14:06:30Z</time>
      </trkpt>
      <trkpt lat="43.2275350" lon="-4.8948970">
        <ele>459.6</ele>
        <time>2021-12-21T14:06:33Z</time>
      </trkpt>
      <trkpt lat="43.2275470" lon="-4.8948460">
        <ele>460.4</ele>
        <time>2021-12-21T14:06:38Z</time>
      </trkpt>
      <trkpt lat="43.2275590" lon="-4.8947850">
        <ele>461.3</ele>
        <time>2021-12-21T14:06:41Z</time>
      </trkpt>
      <trkpt lat="43.2276050" lon="-4.8947310">
        <ele>462.4</ele>
        <time>2021-12-21T14:06:43Z</time>
      </trkpt>
      <trkpt lat="43.2276800" lon="-4.8947500">
        <ele>463.8</ele>
        <time>2021-12-21T14:06:46Z</time>
      </trkpt>
      <trkpt lat="43.2276970" lon="-4.8947640">
        <ele>464.2</ele>
        <time>2021-12-21T14:06:48Z</time>
      </trkpt>
      <trkpt lat="43.2277330" lon="-4.8947950">
        <ele>465.0</ele>
        <time>2021-12-21T14:06:51Z</time>
      </trkpt>
      <trkpt lat="43.2277590" lon="-4.8948100">
        <ele>465.5</ele>
        <time>2021-12-21T14:06:56Z</time>
      </trkpt>
      <trkpt lat="43.2277970" lon="-4.8948320">
        <ele>466.2</ele>
        <time>2021-12-21T14:06:59Z</time>
      </trkpt>
      <trkpt lat="43.2278130" lon="-4.8948520">
        <ele>466.6</ele>
        <time>2021-12-21T14:07:04Z</time>
      </trkpt>
      <trkpt lat="43.2278450" lon="-4.8948630">
        <ele>467.1</ele>
        <time>2021-12-21T14:07:07Z</time>
      </trkpt>
      <trkpt lat="43.2278990" lon="-4.8949030">
        <ele>467.0</ele>
        <time>2021-12-21T14:07:09Z</time>
      </trkpt>
      <trkpt lat="43.2279330" lon="-4.8949170">
        <ele>466.9</ele>
        <time>2021-12-21T14:07:14Z</time>
      </trkpt>
      <trkpt lat="43.2279540" lon="-4.8949360">
        <ele>466.9</ele>
        <time>2021-12-21T14:07:17Z</time>
      </trkpt>
      <trkpt lat="43.2279850" lon="-4.8949580">
        <ele>466.8</ele>
        <time>2021-12-21T14:07:22Z</time>
      </trkpt>
      <trkpt lat="43.2280210" lon="-4.8949740">
        <ele>466.8</ele>
        <time>2021-12-21T14:07:25Z</time>
      </trkpt>
      <trkpt lat="43.2280390" lon="-4.8949800">
        <ele>466.8</ele>
        <time>2021-12-21T14:07:30Z</time>
      </trkpt>
      <trkpt lat="43.2280670" lon="-4.8949790">
        <ele>466.8</ele>
        <time>2021-12-21T14:07:32Z</time>
      </trkpt>
      <trkpt lat="43.2280910" lon="-4.8949810">
        <ele>466.8</ele>
        <time>2021-12-21T14:07:38Z</time>
      </trkpt>
      <trkpt lat="43.2281410" lon="-4.8950060">
        <ele>466.8</ele>
        <time>2021-12-21T14:07:40Z</time>
      </trkpt>
      <trkpt lat="43.2282080" lon="-4.8950130">
        <ele>466.8</ele>
        <time>2021-12-21T14:07:43Z</time>
      </trkpt>
      <trkpt lat="43.2282330" lon="-4.8950160">
        <ele>466.8</ele>
        <time>2021-12-21T14:07:48Z</time>
      </trkpt>
      <trkpt lat="43.2282690" lon="-4.8950180">
        <ele>466.8</ele>
        <time>2021-12-21T14:07:50Z</time>
      </trkpt>
      <trkpt lat="43.2282870" lon="-4.8950120">
        <ele>466.8</ele>
        <time>2021-12-21T14:07:55Z</time>
      </trkpt>
      <trkpt lat="43.2283190" lon="-4.8950050">
        <ele>466.8</ele>
        <time>2021-12-21T14:07:58Z</time>
      </trkpt>
      <trkpt lat="43.2283490" lon="-4.8949970">
        <ele>466.8</ele>
        <time>2021-12-21T14:08:01Z</time>
      </trkpt>
      <trkpt lat="43.2284000" lon="-4.8949620">
        <ele>466.7</ele>
        <time>2021-12-21T14:08:03Z</time>
      </trkpt>
      <trkpt lat="43.2284140" lon="-4.8949460">
        <ele>466.7</ele>
        <time>2021-12-21T14:08:06Z</time>
      </trkpt>
      <trkpt lat="43.2284490" lon="-4.8948920">
        <ele>466.7</ele>
        <time>2021-12-21T14:08:08Z</time>
      </trkpt>
      <trkpt lat="43.2285030" lon="-4.8948350">
        <ele>466.7</ele>
        <time>2021-12-21T14:08:14Z</time>
      </trkpt>
      <trkpt lat="43.2285240" lon="-4.8947970">
        <ele>466.6</ele>
        <time>2021-12-21T14:08:16Z</time>
      </trkpt>
      <trkpt lat="43.2285480" lon="-4.8947730">
        <ele>466.6</ele>
        <time>2021-12-21T14:08:19Z</time>
      </trkpt>
      <trkpt lat="43.2286110" lon="-4.8947330">
        <ele>466.6</ele>
        <time>2021-12-21T14:08:21Z</time>
      </trkpt>
      <trkpt lat="43.2286290" lon="-4.8947150">
        <ele>466.5</ele>
        <time>2021-12-21T14:08:24Z</time>
      </trkpt>
      <trkpt lat="43.2286690" lon="-4.8946920">
        <ele>466.5</ele>
        <time>2021-12-21T14:08:26Z</time>
      </trkpt>
      <trkpt lat="43.2286960" lon="-4.8946530">
        <ele>466.4</ele>
        <time>2021-12-21T14:08:29Z</time>
      </trkpt>
      <trkpt lat="43.2287180" lon="-4.8946250">
        <ele>466.4</ele>
        <time>2021-12-21T14:08:32Z</time>
      </trkpt>
      <trkpt lat="43.2287470" lon="-4.8945810">
        <ele>466.4</ele>
        <time>2021-12-21T14:08:34Z</time>
      </trkpt>
      <trkpt lat="43.2287570" lon="-4.8945500">
        <ele>466.3</ele>
        <time>2021-12-21T14:08:37Z</time>
      </trkpt>
      <trkpt lat="43.2287610" lon="-4.8944900">
        <ele>466.3</ele>
        <time>2021-12-21T14:08:39Z</time>
      </trkpt>
      <trkpt lat="43.2287740" lon="-4.8944710">
        <ele>466.3</ele>
        <time>2021-12-21T14:08:42Z</time>
      </trkpt>
      <trkpt lat="43.2287790" lon="-4.8944250">
        <ele>466.2</ele>
        <time>2021-12-21T14:08:45Z</time>
      </trkpt>
      <trkpt lat="43.2288370" lon="-4.8943680">
        <ele>466.2</ele>
        <time>2021-12-21T14:08:47Z</time>
      </trkpt>
      <trkpt lat="43.2288780" lon="-4.8943470">
        <ele>466.1</ele>
        <time>2021-12-21T14:08:52Z</time>
      </trkpt>
      <trkpt lat="43.2288940" lon="-4.8943250">
        <ele>466.1</ele>
        <time>2021-12-21T14:08:55Z</time>
      </trkpt>
      <trkpt lat="43.2289230" lon="-4.8942930">
        <ele>466.1</ele>
        <time>2021-12-21T14:08:57Z</time>
      </trkpt>
      <trkpt lat="43.2289400" lon="-4.8942760">
        <ele>466.1</ele>
        <time>2021-12-21T14:09:03Z</time>
      </trkpt>
      <trkpt lat="43.2289700" lon="-4.8942520">
        <ele>466.1</ele>
        <time>2021-12-21T14:09:08Z</time>
      </trkpt>
      <trkpt lat="43.2290290" lon="-4.8942490">
        <ele>466.1</ele>
        <time>2021-12-21T14:09:10Z</time>
      </trkpt>
      <trkpt lat="43.2290680" lon="-4.8942730">
        <ele>466.0</ele>
        <time>2021-12-21T14:09:13Z</time>
      </trkpt>
      <trkpt lat="43.2291350" lon="-4.8942950">
        <ele>465.9</ele>
        <time>2021-12-21T14:09:15Z</time>
      </trkpt>
      <trkpt lat="43.2291680" lon="-4.8942900">
        <ele>465.9</ele>
        <time>2021-12-21T14:09:18Z</time>
      </trkpt>
      <trkpt lat="43.2291930" lon="-4.8942870">
        <ele>465.8</ele>
        <time>2021-12-21T14:09:21Z</time>
      </trkpt>
      <trkpt lat="43.2292500" lon="-4.8942800">
        <ele>465.7</ele>
        <time>2021-12-21T14:09:23Z</time>
      </trkpt>
      <trkpt lat="43.2292860" lon="-4.8942880">
        <ele>465.7</ele>
        <time>2021-12-21T14:09:28Z</time>
      </trkpt>
      <trkpt lat="43.2293310" lon="-4.8942990">
        <ele>465.6</ele>
        <time>2021-12-21T14:09:31Z</time>
      </trkpt>
      <trkpt lat="43.2293740" lon="-4.8942740">
        <ele>465.5</ele>
        <time>2021-12-21T14:09:33Z</time>
      </trkpt>
      <trkpt lat="43.2294360" lon="-4.8942470">
        <ele>465.3</ele>
        <time>2021-12-21T14:09:36Z</time>
      </trkpt>
      <trkpt lat="43.2294700" lon="-4.8942380">
        <ele>465.2</ele>
        <time>2021-12-21T14:09:41Z</time>
      </trkpt>
      <trkpt lat="43.2295420" lon="-4.8942130">
        <ele>465.0</ele>
        <time>2021-12-21T14:09:46Z</time>
      </trkpt>
      <trkpt lat="43.2295600" lon="-4.8942200">
        <ele>465.0</ele>
        <time>2021-12-21T14:09:52Z</time>
      </trkpt>
      <trkpt lat="43.2296010" lon="-4.8942270">
        <ele>464.9</ele>
        <time>2021-12-21T14:09:54Z</time>
      </trkpt>
      <trkpt lat="43.2296480" lon="-4.8942160">
        <ele>464.8</ele>
        <time>2021-12-21T14:09:57Z</time>
      </trkpt>
      <trkpt lat="43.2296770" lon="-4.8942260">
        <ele>464.7</ele>
        <time>2021-12-21T14:09:59Z</time>
      </trkpt>
      <trkpt lat="43.2297470" lon="-4.8942330">
        <ele>464.6</ele>
        <time>2021-12-21T14:10:02Z</time>
      </trkpt>
      <trkpt lat="43.2297910" lon="-4.8942390">
        <ele>464.5</ele>
        <time>2021-12-21T14:10:04Z</time>
      </trkpt>
      <trkpt lat="43.2298260" lon="-4.8942260">
        <ele>464.4</ele>
        <time>2021-12-21T14:10:07Z</time>
      </trkpt>
      <trkpt lat="43.2298500" lon="-4.8942150">
        <ele>464.4</ele>
        <time>2021-12-21T14:10:15Z</time>
      </trkpt>
      <trkpt lat="43.2298890" lon="-4.8941990">
        <ele>464.3</ele>
        <time>2021-12-21T14:10:17Z</time>
      </trkpt>
      <trkpt lat="43.2299100" lon="-4.8942050">
        <ele>464.2</ele>
        <time>2021-12-21T14:10:20Z</time>
      </trkpt>
      <trkpt lat="43.2299880" lon="-4.8941750">
        <ele>464.1</ele>
        <time>2021-12-21T14:10:22Z</time>
      </trkpt>
      <trkpt lat="43.2300150" lon="-4.8941710">
        <ele>464.0</ele>
        <time>2021-12-21T14:10:28Z</time>
      </trkpt>
      <trkpt lat="43.2300610" lon="-4.8941850">
        <ele>464.0</ele>
        <time>2021-12-21T14:10:30Z</time>
      </trkpt>
      <trkpt lat="43.2300870" lon="-4.8941670">
        <ele>463.9</ele>
        <time>2021-12-21T14:10:33Z</time>
      </trkpt>
      <trkpt lat="43.2301250" lon="-4.8941580">
        <ele>463.8</ele>
        <time>2021-12-21T14:10:35Z</time>
      </trkpt>
      <trkpt lat="43.2301470" lon="-4.8941600">
        <ele>463.8</ele>
        <time>2021-12-21T14:10:41Z</time>
      </trkpt>
      <trkpt lat="43.2301860" lon="-4.8941410">
        <ele>463.7</ele>
        <time>2021-12-21T14:10:43Z</time>
      </trkpt>
      <trkpt lat="43.2302280" lon="-4.8941700">
        <ele>463.6</ele>
        <time>2021-12-21T14:10:46Z</time>
      </trkpt>
      <trkpt lat="43.2302500" lon="-4.8941730">
        <ele>463.5</ele>
        <time>2021-12-21T14:10:48Z</time>
      </trkpt>
      <trkpt lat="43.2302830" lon="-4.8941760">
        <ele>463.5</ele>
        <time>2021-12-21T14:10:53Z</time>
      </trkpt>
      <trkpt lat="43.2303070" lon="-4.8941850">
        <ele>463.4</ele>
        <time>2021-12-21T14:10:56Z</time>
      </trkpt>
      <trkpt lat="43.2303570" lon="-4.8941940">
        <ele>463.3</ele>
        <time>2021-12-21T14:10:59Z</time>
      </trkpt>
      <trkpt lat="43.2303880" lon="-4.8941950">
        <ele>463.2</ele>
        <time>2021-12-21T14:11:01Z</time>
      </trkpt>
      <trkpt lat="43.2304150" lon="-4.8941980">
        <ele>463.1</ele>
        <time>2021-12-21T14:11:04Z</time>
      </trkpt>
      <trkpt lat="43.2304980" lon="-4.8942180">
        <ele>462.9</ele>
        <time>2021-12-21T14:11:06Z</time>
      </trkpt>
      <trkpt lat="43.2305310" lon="-4.8942200">
        <ele>462.9</ele>
        <time>2021-12-21T14:11:09Z</time>
      </trkpt>
      <trkpt lat="43.2305580" lon="-4.8942230">
        <ele>462.8</ele>
        <time>2021-12-21T14:11:12Z</time>
      </trkpt>
      <trkpt lat="43.2306280" lon="-4.8942080">
        <ele>462.6</ele>
        <time>2021-12-21T14:11:14Z</time>
      </trkpt>
      <trkpt lat="43.2306890" lon="-4.8941890">
        <ele>462.4</ele>
        <time>2021-12-21T14:11:19Z</time>
      </trkpt>
      <trkpt lat="43.2307080" lon="-4.8941790">
        <ele>462.4</ele>
        <time>2021-12-21T14:11:22Z</time>
      </trkpt>
      <trkpt lat="43.2307390" lon="-4.8941490">
        <ele>462.3</ele>
        <time>2021-12-21T14:11:27Z</time>
      </trkpt>
      <trkpt lat="43.2307550" lon="-4.8941200">
        <ele>462.2</ele>
        <time>2021-12-21T14:11:32Z</time>
      </trkpt>
      <trkpt lat="43.2307750" lon="-4.8940720">
        <ele>462.0</ele>
        <time>2021-12-21T14:11:37Z</time>
      </trkpt>
      <trkpt lat="43.2308030" lon="-4.8940530">
        <ele>461.9</ele>
        <time>2021-12-21T14:11:42Z</time>
      </trkpt>
      <trkpt lat="43.2308210" lon="-4.8940230">
        <ele>461.8</ele>
        <time>2021-12-21T14:11:48Z</time>
      </trkpt>
      <trkpt lat="43.2308680" lon="-4.8939820">
        <ele>461.6</ele>
        <time>2021-12-21T14:11:53Z</time>
      </trkpt>
      <trkpt lat="43.2308930" lon="-4.8939470">
        <ele>461.5</ele>
        <time>2021-12-21T14:11:55Z</time>
      </trkpt>
      <trkpt lat="43.2309040" lon="-4.8939440">
        <ele>461.5</ele>
        <time>2021-12-21T14:12:00Z</time>
      </trkpt>
      <trkpt lat="43.2309360" lon="-4.8939640">
        <ele>461.3</ele>
        <time>2021-12-21T14:12:06Z</time>
      </trkpt>
      <trkpt lat="43.2309870" lon="-4.8939340">
        <ele>461.1</ele>
        <time>2021-12-21T14:12:11Z</time>
      </trkpt>
      <trkpt lat="43.2310170" lon="-4.8938360">
        <ele>460.9</ele>
        <time>2021-12-21T14:12:13Z</time>
      </trkpt>
      <trkpt lat="43.2309500" lon="-4.8936790">
        <ele>460.4</ele>
        <time>2021-12-21T14:12:16Z</time>
      </trkpt>
      <trkpt lat="43.2309660" lon="-4.8936220">
        <ele>460.2</ele>
        <time>2021-12-21T14:12:24Z</time>
      </trkpt>
      <trkpt lat="43.2309900" lon="-4.8935560">
        <ele>460.0</ele>
        <time>2021-12-21T14:12:34Z</time>
      </trkpt>
      <trkpt lat="43.2310010" lon="-4.8935040">
        <ele>459.9</ele>
        <time>2021-12-21T14:12:37Z</time>
      </trkpt>
      <trkpt lat="43.2310480" lon="-4.8934610">
        <ele>459.7</ele>
        <time>2021-12-21T14:12:42Z</time>
      </trkpt>
      <trkpt lat="43.2310570" lon="-4.8934440">
        <ele>459.7</ele>
        <time>2021-12-21T14:12:44Z</time>
      </trkpt>
      <trkpt lat="43.2310510" lon="-4.8934260">
        <ele>459.7</ele>
        <time>2021-12-21T14:12:47Z</time>
      </trkpt>
      <trkpt lat="43.2309790" lon="-4.8933460">
        <ele>459.4</ele>
        <time>2021-12-21T14:12:49Z</time>
      </trkpt>
      <trkpt lat="43.2309580" lon="-4.8933180">
        <ele>459.3</ele>
        <time>2021-12-21T14:12:52Z</time>
      </trkpt>
      <trkpt lat="43.2309360" lon="-4.8932860">
        <ele>459.2</ele>
        <time>2021-12-21T14:12:55Z</time>
      </trkpt>
      <trkpt lat="43.2309320" lon="-4.8932750">
        <ele>459.1</ele>
        <time>2021-12-21T14:12:57Z</time>
      </trkpt>
      <trkpt lat="43.2309160" lon="-4.8931740">
        <ele>458.8</ele>
        <time>2021-12-21T14:13:02Z</time>
      </trkpt>
      <trkpt lat="43.2309510" lon="-4.8931420">
        <ele>458.6</ele>
        <time>2021-12-21T14:13:07Z</time>
      </trkpt>
      <trkpt lat="43.2309590" lon="-4.8930980">
        <ele>458.5</ele>
        <time>2021-12-21T14:13:13Z</time>
      </trkpt>
      <trkpt lat="43.2309710" lon="-4.8930700">
        <ele>458.3</ele>
        <time>2021-12-21T14:13:18Z</time>
      </trkpt>
      <trkpt lat="43.2310140" lon="-4.8929420">
        <ele>457.8</ele>
        <time>2021-12-21T14:13:23Z</time>
      </trkpt>
      <trkpt lat="43.2310290" lon="-4.8929110">
        <ele>457.6</ele>
        <time>2021-12-21T14:13:26Z</time>
      </trkpt>
      <trkpt lat="43.2310730" lon="-4.8929090">
        <ele>457.4</ele>
        <time>2021-12-21T14:13:31Z</time>
      </trkpt>
      <trkpt lat="43.2310610" lon="-4.8928860">
        <ele>457.3</ele>
        <time>2021-12-21T14:13:33Z</time>
      </trkpt>
      <trkpt lat="43.2309960" lon="-4.8927540">
        <ele>456.7</ele>
        <time>2021-12-21T14:13:36Z</time>
      </trkpt>
      <trkpt lat="43.2310090" lon="-4.8927180">
        <ele>456.5</ele>
        <time>2021-12-21T14:13:38Z</time>
      </trkpt>
      <trkpt lat="43.2310610" lon="-4.8926400">
        <ele>456.1</ele>
        <time>2021-12-21T14:13:41Z</time>
      </trkpt>
      <trkpt lat="43.2311100" lon="-4.8926070">
        <ele>455.8</ele>
        <time>2021-12-21T14:13:44Z</time>
      </trkpt>
      <trkpt lat="43.2311580" lon="-4.8925860">
        <ele>455.5</ele>
        <time>2021-12-21T14:13:46Z</time>
      </trkpt>
      <trkpt lat="43.2311790" lon="-4.8925810">
        <ele>455.4</ele>
        <time>2021-12-21T14:13:49Z</time>
      </trkpt>
      <trkpt lat="43.2312110" lon="-4.8925410">
        <ele>455.2</ele>
        <time>2021-12-21T14:13:51Z</time>
      </trkpt>
      <trkpt lat="43.2312330" lon="-4.8925120">
        <ele>455.1</ele>
        <time>2021-12-21T14:13:54Z</time>
      </trkpt>
      <trkpt lat="43.2312500" lon="-4.8925010">
        <ele>455.0</ele>
        <time>2021-12-21T14:13:57Z</time>
      </trkpt>
      <trkpt lat="43.2312800" lon="-4.8924680">
        <ele>454.9</ele>
        <time>2021-12-21T14:13:59Z</time>
      </trkpt>
      <trkpt lat="43.2312800" lon="-4.8924150">
        <ele>454.7</ele>
        <time>2021-12-21T14:14:02Z</time>
      </trkpt>
      <trkpt lat="43.2312670" lon="-4.8923540">
        <ele>454.5</ele>
        <time>2021-12-21T14:14:07Z</time>
      </trkpt>
      <trkpt lat="43.2312800" lon="-4.8923100">
        <ele>454.4</ele>
        <time>2021-12-21T14:14:09Z</time>
      </trkpt>
      <trkpt lat="43.2313350" lon="-4.8920850">
        <ele>454.0</ele>
        <time>2021-12-21T14:14:15Z</time>
      </trkpt>
      <trkpt lat="43.2312070" lon="-4.8918270">
        <ele>453.9</ele>
        <time>2021-12-21T14:14:20Z</time>
      </trkpt>
      <trkpt lat="43.2311540" lon="-4.8916900">
        <ele>453.8</ele>
        <time>2021-12-21T14:14:22Z</time>
      </trkpt>
      <trkpt lat="43.2311830" lon="-4.8915790">
        <ele>453.9</ele>
        <time>2021-12-21T14:14:25Z</time>
      </trkpt>
      <trkpt lat="43.2311950" lon="-4.8915600">
        <ele>453.9</ele>
        <time>2021-12-21T14:14:27Z</time>
      </trkpt>
      <trkpt lat="43.2312440" lon="-4.8915170">
        <ele>453.9</ele>
        <time>2021-12-21T14:14:33Z</time>
      </trkpt>
      <trkpt lat="43.2312050" lon="-4.8914840">
        <ele>453.9</ele>
        <time>2021-12-21T14:14:38Z</time>
      </trkpt>
      <trkpt lat="43.2310980" lon="-4.8914380">
        <ele>454.0</ele>
        <time>2021-12-21T14:14:43Z</time>
      </trkpt>
      <trkpt lat="43.2310710" lon="-4.8914250">
        <ele>454.0</ele>
        <time>2021-12-21T14:14:48Z</time>
      </trkpt>
      <trkpt lat="43.2311000" lon="-4.8914220">
        <ele>454.0</ele>
        <time>2021-12-21T14:14:53Z</time>
      </trkpt>
      <trkpt lat="43.2311780" lon="-4.8913710">
        <ele>454.1</ele>
        <time>2021-12-21T14:14:58Z</time>
      </trkpt>
      <trkpt lat="43.2312320" lon="-4.8913010">
        <ele>454.2</ele>
        <time>2021-12-21T14:15:04Z</time>
      </trkpt>
      <trkpt lat="43.2312600" lon="-4.8912680">
        <ele>454.2</ele>
        <time>2021-12-21T14:15:06Z</time>
      </trkpt>
      <trkpt lat="43.2313220" lon="-4.8912240">
        <ele>454.3</ele>
        <time>2021-12-21T14:15:09Z</time>
      </trkpt>
      <trkpt lat="43.2313550" lon="-4.8912200">
        <ele>454.3</ele>
        <time>2021-12-21T14:15:11Z</time>
      </trkpt>
      <trkpt lat="43.2314130" lon="-4.8912060">
        <ele>454.4</ele>
        <time>2021-12-21T14:15:16Z</time>
      </trkpt>
      <trkpt lat="43.2314530" lon="-4.8912050">
        <ele>454.5</ele>
        <time>2021-12-21T14:15:19Z</time>
      </trkpt>
      <trkpt lat="43.2314940" lon="-4.8912110">
        <ele>454.5</ele>
        <time>2021-12-21T14:15:22Z</time>
      </trkpt>
      <trkpt lat="43.2315190" lon="-4.8912280">
        <ele>454.6</ele>
        <time>2021-12-21T14:15:24Z</time>
      </trkpt>
      <trkpt lat="43.2315390" lon="-4.8912290">
        <ele>454.6</ele>
        <time>2021-12-21T14:15:29Z</time>
      </trkpt>
      <trkpt lat="43.2315770" lon="-4.8912440">
        <ele>454.7</ele>
        <time>2021-12-21T14:15:32Z</time>
      </trkpt>
      <trkpt lat="43.2316130" lon="-4.8912250">
        <ele>454.7</ele>
        <time>2021-12-21T14:15:37Z</time>
      </trkpt>
      <trkpt lat="43.2316590" lon="-4.8911660">
        <ele>454.8</ele>
        <time>2021-12-21T14:15:40Z</time>
      </trkpt>
      <trkpt lat="43.2316960" lon="-4.8911160">
        <ele>454.8</ele>
        <time>2021-12-21T14:15:45Z</time>
      </trkpt>
      <trkpt lat="43.2317240" lon="-4.8910650">
        <ele>454.8</ele>
        <time>2021-12-21T14:15:50Z</time>
      </trkpt>
      <trkpt lat="43.2317460" lon="-4.8910280">
        <ele>454.9</ele>
        <time>2021-12-21T14:15:53Z</time>
      </trkpt>
      <trkpt lat="43.2317920" lon="-4.8909600">
        <ele>455.0</ele>
        <time>2021-12-21T14:15:55Z</time>
      </trkpt>
      <trkpt lat="43.2318130" lon="-4.8909400">
        <ele>455.0</ele>
        <time>2021-12-21T14:15:58Z</time>
      </trkpt>
      <trkpt lat="43.2318590" lon="-4.8909140">
        <ele>455.0</ele>
        <time>2021-12-21T14:16:00Z</time>
      </trkpt>
      <trkpt lat="43.2318900" lon="-4.8909020">
        <ele>455.1</ele>
        <time>2021-12-21T14:16:03Z</time>
      </trkpt>
      <trkpt lat="43.2319310" lon="-4.8908900">
        <ele>455.1</ele>
        <time>2021-12-21T14:16:05Z</time>
      </trkpt>
      <trkpt lat="43.2319690" lon="-4.8908960">
        <ele>455.2</ele>
        <time>2021-12-21T14:16:08Z</time>
      </trkpt>
      <trkpt lat="43.2320010" lon="-4.8908980">
        <ele>455.2</ele>
        <time>2021-12-21T14:16:13Z</time>
      </trkpt>
      <trkpt lat="43.2320320" lon="-4.8909090">
        <ele>455.3</ele>
        <time>2021-12-21T14:16:16Z</time>
      </trkpt>
      <trkpt lat="43.2320560" lon="-4.8909180">
        <ele>455.3</ele>
        <time>2021-12-21T14:16:21Z</time>
      </trkpt>
      <trkpt lat="43.2320970" lon="-4.8909310">
        <ele>455.4</ele>
        <time>2021-12-21T14:16:26Z</time>
      </trkpt>
      <trkpt lat="43.2321300" lon="-4.8909250">
        <ele>455.4</ele>
        <time>2021-12-21T14:16:31Z</time>
      </trkpt>
      <trkpt lat="43.2321470" lon="-4.8909190">
        <ele>455.4</ele>
        <time>2021-12-21T14:16:36Z</time>
      </trkpt>
      <trkpt lat="43.2321710" lon="-4.8908850">
        <ele>455.5</ele>
        <time>2021-12-21T14:16:42Z</time>
      </trkpt>
      <trkpt lat="43.2321980" lon="-4.8908310">
        <ele>455.5</ele>
        <time>2021-12-21T14:16:47Z</time>
      </trkpt>
      <trkpt lat="43.2322090" lon="-4.8908030">
        <ele>455.5</ele>
        <time>2021-12-21T14:16:49Z</time>
      </trkpt>
      <trkpt lat="43.2322670" lon="-4.8907560">
        <ele>455.6</ele>
        <time>2021-12-21T14:16:52Z</time>
      </trkpt>
      <trkpt lat="43.2323220" lon="-4.8907080">
        <ele>455.7</ele>
        <time>2021-12-21T14:16:54Z</time>
      </trkpt>
      <trkpt lat="43.2323490" lon="-4.8906940">
        <ele>455.7</ele>
        <time>2021-12-21T14:16:57Z</time>
      </trkpt>
      <trkpt lat="43.2323820" lon="-4.8906740">
        <ele>455.8</ele>
        <time>2021-12-21T14:17:00Z</time>
      </trkpt>
      <trkpt lat="43.2323990" lon="-4.8906570">
        <ele>455.8</ele>
        <time>2021-12-21T14:17:02Z</time>
      </trkpt>
      <trkpt lat="43.2324720" lon="-4.8906150">
        <ele>455.9</ele>
        <time>2021-12-21T14:17:07Z</time>
      </trkpt>
      <trkpt lat="43.2325170" lon="-4.8905650">
        <ele>455.9</ele>
        <time>2021-12-21T14:17:15Z</time>
      </trkpt>
      <trkpt lat="43.2325200" lon="-4.8904960">
        <ele>456.0</ele>
        <time>2021-12-21T14:17:23Z</time>
      </trkpt>
      <trkpt lat="43.2325160" lon="-4.8904520">
        <ele>456.0</ele>
        <time>2021-12-21T14:17:25Z</time>
      </trkpt>
      <trkpt lat="43.2324940" lon="-4.8903860">
        <ele>456.1</ele>
        <time>2021-12-21T14:17:28Z</time>
      </trkpt>
      <trkpt lat="43.2325210" lon="-4.8903150">
        <ele>456.1</ele>
        <time>2021-12-21T14:17:31Z</time>
      </trkpt>
      <trkpt lat="43.2325750" lon="-4.8902440">
        <ele>456.2</ele>
        <time>2021-12-21T14:17:33Z</time>
      </trkpt>
      <trkpt lat="43.2325980" lon="-4.8902260">
        <ele>456.2</ele>
        <time>2021-12-21T14:17:36Z</time>
      </trkpt>
      <trkpt lat="43.2326220" lon="-4.8901890">
        <ele>456.3</ele>
        <time>2021-12-21T14:17:41Z</time>
      </trkpt>
      <trkpt lat="43.2326480" lon="-4.8901820">
        <ele>456.3</ele>
        <time>2021-12-21T14:17:46Z</time>
      </trkpt>
      <trkpt lat="43.2327120" lon="-4.8901570">
        <ele>456.4</ele>
        <time>2021-12-21T14:17:52Z</time>
      </trkpt>
      <trkpt lat="43.2327490" lon="-4.8901520">
        <ele>456.4</ele>
        <time>2021-12-21T14:17:59Z</time>
      </trkpt>
      <trkpt lat="43.2327770" lon="-4.8901440">
        <ele>456.4</ele>
        <time>2021-12-21T14:18:04Z</time>
      </trkpt>
      <trkpt lat="43.2327990" lon="-4.8901540">
        <ele>456.5</ele>
        <time>2021-12-21T14:18:07Z</time>
      </trkpt>
      <trkpt lat="43.2328520" lon="-4.8901750">
        <ele>456.5</ele>
        <time>2021-12-21T14:18:09Z</time>
      </trkpt>
      <trkpt lat="43.2328780" lon="-4.8901770">
        <ele>456.6</ele>
        <time>2021-12-21T14:18:12Z</time>
      </trkpt>
      <trkpt lat="43.2329260" lon="-4.8901620">
        <ele>456.6</ele>
        <time>2021-12-21T14:18:14Z</time>
      </trkpt>
      <trkpt lat="43.2329680" lon="-4.8901700">
        <ele>456.7</ele>
        <time>2021-12-21T14:18:17Z</time>
      </trkpt>
      <trkpt lat="43.2329940" lon="-4.8901620">
        <ele>456.7</ele>
        <time>2021-12-21T14:18:22Z</time>
      </trkpt>
      <trkpt lat="43.2330750" lon="-4.8901950">
        <ele>456.9</ele>
        <time>2021-12-21T14:18:27Z</time>
      </trkpt>
      <trkpt lat="43.2331180" lon="-4.8901890">
        <ele>456.9</ele>
        <time>2021-12-21T14:18:30Z</time>
      </trkpt>
      <trkpt lat="43.2331410" lon="-4.8901920">
        <ele>457.0</ele>
        <time>2021-12-21T14:18:32Z</time>
      </trkpt>
      <trkpt lat="43.2331620" lon="-4.8902980">
        <ele>457.1</ele>
        <time>2021-12-21T14:18:35Z</time>
      </trkpt>
      <trkpt lat="43.2331780" lon="-4.8903700">
        <ele>457.2</ele>
        <time>2021-12-21T14:18:40Z</time>
      </trkpt>
      <trkpt lat="43.2331840" lon="-4.8904220">
        <ele>457.3</ele>
        <time>2021-12-21T14:18:45Z</time>
      </trkpt>
      <trkpt lat="43.2331990" lon="-4.8904550">
        <ele>457.3</ele>
        <time>2021-12-21T14:18:48Z</time>
      </trkpt>
      <trkpt lat="43.2332010" lon="-4.8904830">
        <ele>457.4</ele>
        <time>2021-12-21T14:18:53Z</time>
      </trkpt>
      <trkpt lat="43.2332320" lon="-4.8905440">
        <ele>457.5</ele>
        <time>2021-12-21T14:18:56Z</time>
      </trkpt>
      <trkpt lat="43.2332490" lon="-4.8905820">
        <ele>457.6</ele>
        <time>2021-12-21T14:18:58Z</time>
      </trkpt>
      <trkpt lat="43.2332740" lon="-4.8906160">
        <ele>457.7</ele>
        <time>2021-12-21T14:19:01Z</time>
      </trkpt>
      <trkpt lat="43.2333090" lon="-4.8906370">
        <ele>457.8</ele>
        <time>2021-12-21T14:19:03Z</time>
      </trkpt>
      <trkpt lat="43.2333560" lon="-4.8906480">
        <ele>458.0</ele>
        <time>2021-12-21T14:19:06Z</time>
      </trkpt>
      <trkpt lat="43.2333970" lon="-4.8906530">
        <ele>458.1</ele>
        <time>2021-12-21T14:19:08Z</time>
      </trkpt>
      <trkpt lat="43.2334430" lon="-4.8906590">
        <ele>458.3</ele>
        <time>2021-12-21T14:19:11Z</time>
      </trkpt>
      <trkpt lat="43.2334740" lon="-4.8907220">
        <ele>458.5</ele>
        <time>2021-12-21T14:19:14Z</time>
      </trkpt>
      <trkpt lat="43.2334860" lon="-4.8907600">
        <ele>458.6</ele>
        <time>2021-12-21T14:19:19Z</time>
      </trkpt>
      <trkpt lat="43.2335070" lon="-4.8907930">
        <ele>458.7</ele>
        <time>2021-12-21T14:19:24Z</time>
      </trkpt>
      <trkpt lat="43.2335270" lon="-4.8908180">
        <ele>458.7</ele>
        <time>2021-12-21T14:19:29Z</time>
      </trkpt>
      <trkpt lat="43.2335460" lon="-4.8908530">
        <ele>458.8</ele>
        <time>2021-12-21T14:19:32Z</time>
      </trkpt>
      <trkpt lat="43.2335760" lon="-4.8909020">
        <ele>459.0</ele>
        <time>2021-12-21T14:19:37Z</time>
      </trkpt>
      <trkpt lat="43.2336080" lon="-4.8909370">
        <ele>459.1</ele>
        <time>2021-12-21T14:19:39Z</time>
      </trkpt>
      <trkpt lat="43.2336230" lon="-4.8909380">
        <ele>459.1</ele>
        <time>2021-12-21T14:19:42Z</time>
      </trkpt>
      <trkpt lat="43.2336610" lon="-4.8909780">
        <ele>459.3</ele>
        <time>2021-12-21T14:19:47Z</time>
      </trkpt>
      <trkpt lat="43.2338400" lon="-4.8910770">
        <ele>459.7</ele>
        <time>2021-12-21T14:19:57Z</time>
      </trkpt>
      <trkpt lat="43.2339330" lon="-4.8911530">
        <ele>459.9</ele>
        <time>2021-12-21T14:20:03Z</time>
      </trkpt>
      <trkpt lat="43.2340410" lon="-4.8912730">
        <ele>460.2</ele>
        <time>2021-12-21T14:20:05Z</time>
      </trkpt>
      <trkpt lat="43.2341310" lon="-4.8913480">
        <ele>460.4</ele>
        <time>2021-12-21T14:20:08Z</time>
      </trkpt>
      <trkpt lat="43.2341560" lon="-4.8913440">
        <ele>460.4</ele>
        <time>2021-12-21T14:20:10Z</time>
      </trkpt>
      <trkpt lat="43.2341570" lon="-4.8914030">
        <ele>460.5</ele>
        <time>2021-12-21T14:20:13Z</time>
      </trkpt>
      <trkpt lat="43.2341560" lon="-4.8914780">
        <ele>460.5</ele>
        <time>2021-12-21T14:20:16Z</time>
      </trkpt>
      <trkpt lat="43.2341380" lon="-4.8914940">
        <ele>460.5</ele>
        <time>2021-12-21T14:20:18Z</time>
      </trkpt>
      <trkpt lat="43.2341400" lon="-4.8915190">
        <ele>460.5</ele>
        <time>2021-12-21T14:20:21Z</time>
      </trkpt>
      <trkpt lat="43.2340820" lon="-4.8915560">
        <ele>460.6</ele>
        <time>2021-12-21T14:20:23Z</time>
      </trkpt>
      <trkpt lat="43.2340090" lon="-4.8915460">
        <ele>460.6</ele>
        <time>2021-12-21T14:20:26Z</time>
      </trkpt>
      <trkpt lat="43.2339460" lon="-4.8915290">
        <ele>460.6</ele>
        <time>2021-12-21T14:20:31Z</time>
      </trkpt>
      <trkpt lat="43.2339050" lon="-4.8915180">
        <ele>465.6</ele>
        <time>2021-12-21T14:20:36Z</time>
      </trkpt>
      <trkpt lat="43.2338510" lon="-4.8915120">
        <ele>466.2</ele>
        <time>2021-12-21T14:20:39Z</time>
      </trkpt>
      <trkpt lat="43.2338170" lon="-4.8915000">
        <ele>466.5</ele>
        <time>2021-12-21T14:20:41Z</time>
      </trkpt>
      <trkpt lat="43.2338040" lon="-4.8914650">
        <ele>466.9</ele>
        <time>2021-12-21T14:20:44Z</time>
      </trkpt>
      <trkpt lat="43.2338070" lon="-4.8913800">
        <ele>467.6</ele>
        <time>2021-12-21T14:20:49Z</time>
      </trkpt>
      <trkpt lat="43.2338430" lon="-4.8913140">
        <ele>468.3</ele>
        <time>2021-12-21T14:20:52Z</time>
      </trkpt>
      <trkpt lat="43.2338620" lon="-4.8912610">
        <ele>468.8</ele>
        <time>2021-12-21T14:20:57Z</time>
      </trkpt>
      <trkpt lat="43.2338680" lon="-4.8912300">
        <ele>469.1</ele>
        <time>2021-12-21T14:21:02Z</time>
      </trkpt>
      <trkpt lat="43.2338770" lon="-4.8912110">
        <ele>469.3</ele>
        <time>2021-12-21T14:21:07Z</time>
      </trkpt>
      <trkpt lat="43.2338820" lon="-4.8911540">
        <ele>469.8</ele>
        <time>2021-12-21T14:21:10Z</time>
      </trkpt>
      <trkpt lat="43.2338910" lon="-4.8910700">
        <ele>470.5</ele>
        <time>2021-12-21T14:21:15Z</time>
      </trkpt>
      <trkpt lat="43.2338980" lon="-4.8910350">
        <ele>470.7</ele>
        <time>2021-12-21T14:21:20Z</time>
      </trkpt>
      <trkpt lat="43.2339090" lon="-4.8909560">
        <ele>471.4</ele>
        <time>2021-12-21T14:21:22Z</time>
      </trkpt>
      <trkpt lat="43.2339250" lon="-4.8909070">
        <ele>471.7</ele>
        <time>2021-12-21T14:21:25Z</time>
      </trkpt>
      <trkpt lat="43.2339480" lon="-4.8908810">
        <ele>472.0</ele>
        <time>2021-12-21T14:21:30Z</time>
      </trkpt>
      <trkpt lat="43.2339910" lon="-4.8908620">
        <ele>472.5</ele>
        <time>2021-12-21T14:21:35Z</time>
      </trkpt>
      <trkpt lat="43.2340230" lon="-4.8908660">
        <ele>472.8</ele>
        <time>2021-12-21T14:21:41Z</time>
      </trkpt>
      <trkpt lat="43.2340590" lon="-4.8908540">
        <ele>473.1</ele>
        <time>2021-12-21T14:21:46Z</time>
      </trkpt>
      <trkpt lat="43.2340810" lon="-4.8908400">
        <ele>473.3</ele>
        <time>2021-12-21T14:21:51Z</time>
      </trkpt>
      <trkpt lat="43.2341100" lon="-4.8908210">
        <ele>473.6</ele>
        <time>2021-12-21T14:21:54Z</time>
      </trkpt>
      <trkpt lat="43.2341420" lon="-4.8907940">
        <ele>474.0</ele>
        <time>2021-12-21T14:21:59Z</time>
      </trkpt>
      <trkpt lat="43.2341890" lon="-4.8907640">
        <ele>474.4</ele>
        <time>2021-12-21T14:22:01Z</time>
      </trkpt>
      <trkpt lat="43.2342360" lon="-4.8907190">
        <ele>475.0</ele>
        <time>2021-12-21T14:22:06Z</time>
      </trkpt>
      <trkpt lat="43.2342850" lon="-4.8906800">
        <ele>475.5</ele>
        <time>2021-12-21T14:22:09Z</time>
      </trkpt>
      <trkpt lat="43.2343220" lon="-4.8906600">
        <ele>475.9</ele>
        <time>2021-12-21T14:22:12Z</time>
      </trkpt>
      <trkpt lat="43.2343820" lon="-4.8906610">
        <ele>476.5</ele>
        <time>2021-12-21T14:22:17Z</time>
      </trkpt>
      <trkpt lat="43.2344050" lon="-4.8906740">
        <ele>476.7</ele>
        <time>2021-12-21T14:22:22Z</time>
      </trkpt>
      <trkpt lat="43.2344240" lon="-4.8906880">
        <ele>477.0</ele>
        <time>2021-12-21T14:22:24Z</time>
      </trkpt>
      <trkpt lat="43.2344320" lon="-4.8906940">
        <ele>477.1</ele>
        <time>2021-12-21T14:22:30Z</time>
      </trkpt>
      <trkpt lat="43.2345160" lon="-4.8907090">
        <ele>478.0</ele>
        <time>2021-12-21T14:22:32Z</time>
      </trkpt>
      <trkpt lat="43.2345830" lon="-4.8907310">
        <ele>478.7</ele>
        <time>2021-12-21T14:22:35Z</time>
      </trkpt>
      <trkpt lat="43.2346130" lon="-4.8907490">
        <ele>479.1</ele>
        <time>2021-12-21T14:22:37Z</time>
      </trkpt>
      <trkpt lat="43.2346500" lon="-4.8907540">
        <ele>479.5</ele>
        <time>2021-12-21T14:22:40Z</time>
      </trkpt>
      <trkpt lat="43.2346800" lon="-4.8907640">
        <ele>479.9</ele>
        <time>2021-12-21T14:22:43Z</time>
      </trkpt>
      <trkpt lat="43.2347160" lon="-4.8907720">
        <ele>480.3</ele>
        <time>2021-12-21T14:22:45Z</time>
      </trkpt>
      <trkpt lat="43.2347490" lon="-4.8907760">
        <ele>480.7</ele>
        <time>2021-12-21T14:22:48Z</time>
      </trkpt>
      <trkpt lat="43.2347800" lon="-4.8908170">
        <ele>481.2</ele>
        <time>2021-12-21T14:22:50Z</time>
      </trkpt>
      <trkpt lat="43.2348170" lon="-4.8908260">
        <ele>481.6</ele>
        <time>2021-12-21T14:22:53Z</time>
      </trkpt>
      <trkpt lat="43.2348320" lon="-4.8908180">
        <ele>481.8</ele>
        <time>2021-12-21T14:22:55Z</time>
      </trkpt>
      <trkpt lat="43.2348700" lon="-4.8908280">
        <ele>482.3</ele>
        <time>2021-12-21T14:23:01Z</time>
      </trkpt>
      <trkpt lat="43.2349280" lon="-4.8908010">
        <ele>483.2</ele>
        <time>2021-12-21T14:23:03Z</time>
      </trkpt>
      <trkpt lat="43.2349930" lon="-4.8908120">
        <ele>484.2</ele>
        <time>2021-12-21T14:23:08Z</time>
      </trkpt>
      <trkpt lat="43.2350280" lon="-4.8908210">
        <ele>484.8</ele>
        <time>2021-12-21T14:23:11Z</time>
      </trkpt>
      <trkpt lat="43.2350490" lon="-4.8908130">
        <ele>485.1</ele>
        <time>2021-12-21T14:23:16Z</time>
      </trkpt>
      <trkpt lat="43.2350890" lon="-4.8908310">
        <ele>485.7</ele>
        <time>2021-12-21T14:23:21Z</time>
      </trkpt>
      <trkpt lat="43.2351390" lon="-4.8908800">
        <ele>486.5</ele>
        <time>2021-12-21T14:23:29Z</time>
      </trkpt>
      <trkpt lat="43.2351720" lon="-4.8908860">
        <ele>486.9</ele>
        <time>2021-12-21T14:23:34Z</time>
      </trkpt>
      <trkpt lat="43.2352300" lon="-4.8909060">
        <ele>487.6</ele>
        <time>2021-12-21T14:23:39Z</time>
      </trkpt>
      <trkpt lat="43.2352930" lon="-4.8909290">
        <ele>488.5</ele>
        <time>2021-12-21T14:23:42Z</time>
      </trkpt>
      <trkpt lat="43.2353450" lon="-4.8909470">
        <ele>489.2</ele>
        <time>2021-12-21T14:23:47Z</time>
      </trkpt>
      <trkpt lat="43.2353710" lon="-4.8909460">
        <ele>489.6</ele>
        <time>2021-12-21T14:23:50Z</time>
      </trkpt>
      <trkpt lat="43.2354250" lon="-4.8909580">
        <ele>490.3</ele>
        <time>2021-12-21T14:23:55Z</time>
      </trkpt>
      <trkpt lat="43.2354830" lon="-4.8909780">
        <ele>491.2</ele>
        <time>2021-12-21T14:23:57Z</time>
      </trkpt>
      <trkpt lat="43.2355010" lon="-4.8910000">
        <ele>491.6</ele>
        <time>2021-12-21T14:24:00Z</time>
      </trkpt>
      <trkpt lat="43.2355280" lon="-4.8910460">
        <ele>492.2</ele>
        <time>2021-12-21T14:24:02Z</time>
      </trkpt>
      <trkpt lat="43.2355880" lon="-4.8910480">
        <ele>493.1</ele>
        <time>2021-12-21T14:24:05Z</time>
      </trkpt>
      <trkpt lat="43.2356410" lon="-4.8910730">
        <ele>494.0</ele>
        <time>2021-12-21T14:24:08Z</time>
      </trkpt>
      <trkpt lat="43.2356980" lon="-4.8910680">
        <ele>494.8</ele>
        <time>2021-12-21T14:24:10Z</time>
      </trkpt>
      <trkpt lat="43.2357490" lon="-4.8911050">
        <ele>495.7</ele>
        <time>2021-12-21T14:24:13Z</time>
      </trkpt>
      <trkpt lat="43.2357770" lon="-4.8911550">
        <ele>496.5</ele>
        <time>2021-12-21T14:24:15Z</time>
      </trkpt>
      <trkpt lat="43.2357930" lon="-4.8911820">
        <ele>496.9</ele>
        <time>2021-12-21T14:24:21Z</time>
      </trkpt>
      <trkpt lat="43.2358270" lon="-4.8912250">
        <ele>497.6</ele>
        <time>2021-12-21T14:24:23Z</time>
      </trkpt>
      <trkpt lat="43.2358420" lon="-4.8912490">
        <ele>498.0</ele>
        <time>2021-12-21T14:24:26Z</time>
      </trkpt>
      <trkpt lat="43.2358750" lon="-4.8913090">
        <ele>498.9</ele>
        <time>2021-12-21T14:24:28Z</time>
      </trkpt>
      <trkpt lat="43.2358920" lon="-4.8913460">
        <ele>499.4</ele>
        <time>2021-12-21T14:24:33Z</time>
      </trkpt>
      <trkpt lat="43.2358940" lon="-4.8913820">
        <ele>499.8</ele>
        <time>2021-12-21T14:24:36Z</time>
      </trkpt>
      <trkpt lat="43.2359210" lon="-4.8914270">
        <ele>500.5</ele>
        <time>2021-12-21T14:24:39Z</time>
      </trkpt>
      <trkpt lat="43.2359420" lon="-4.8914990">
        <ele>501.5</ele>
        <time>2021-12-21T14:24:44Z</time>
      </trkpt>
      <trkpt lat="43.2359600" lon="-4.8915270">
        <ele>501.9</ele>
        <time>2021-12-21T14:24:46Z</time>
      </trkpt>
      <trkpt lat="43.2359910" lon="-4.8916330">
        <ele>503.3</ele>
        <time>2021-12-21T14:24:49Z</time>
      </trkpt>
      <trkpt lat="43.2360030" lon="-4.8916710">
        <ele>503.8</ele>
        <time>2021-12-21T14:24:51Z</time>
      </trkpt>
      <trkpt lat="43.2360120" lon="-4.8917280">
        <ele>504.5</ele>
        <time>2021-12-21T14:24:54Z</time>
      </trkpt>
      <trkpt lat="43.2360150" lon="-4.8917520">
        <ele>504.8</ele>
        <time>2021-12-21T14:24:57Z</time>
      </trkpt>
      <trkpt lat="43.2360280" lon="-4.8918070">
        <ele>505.4</ele>
        <time>2021-12-21T14:24:59Z</time>
      </trkpt>
      <trkpt lat="43.2360170" lon="-4.8918530">
        <ele>506.0</ele>
        <time>2021-12-21T14:25:02Z</time>
      </trkpt>
      <trkpt lat="43.2360250" lon="-4.8918870">
        <ele>506.4</ele>
        <time>2021-12-21T14:25:04Z</time>
      </trkpt>
      <trkpt lat="43.2360350" lon="-4.8919410">
        <ele>507.1</ele>
        <time>2021-12-21T14:25:07Z</time>
      </trkpt>
      <trkpt lat="43.2360360" lon="-4.8919740">
        <ele>507.5</ele>
        <time>2021-12-21T14:25:10Z</time>
      </trkpt>
      <trkpt lat="43.2360460" lon="-4.8920200">
        <ele>508.1</ele>
        <time>2021-12-21T14:25:12Z</time>
      </trkpt>
      <trkpt lat="43.2360570" lon="-4.8920350">
        <ele>508.3</ele>
        <time>2021-12-21T14:25:15Z</time>
      </trkpt>
      <trkpt lat="43.2360900" lon="-4.8920980">
        <ele>509.3</ele>
        <time>2021-12-21T14:25:17Z</time>
      </trkpt>
      <trkpt lat="43.2360990" lon="-4.8921370">
        <ele>509.8</ele>
        <time>2021-12-21T14:25:20Z</time>
      </trkpt>
      <trkpt lat="43.2361380" lon="-4.8921930">
        <ele>510.7</ele>
        <time>2021-12-21T14:25:22Z</time>
      </trkpt>
      <trkpt lat="43.2361400" lon="-4.8922390">
        <ele>536.6</ele>
        <time>2021-12-21T14:25:25Z</time>
      </trkpt>
      <trkpt lat="43.2361710" lon="-4.8922970">
        <ele>536.6</ele>
        <time>2021-12-21T14:25:28Z</time>
      </trkpt>
      <trkpt lat="43.2361480" lon="-4.8922980">
        <ele>537.9</ele>
        <time>2021-12-21T14:25:30Z</time>
      </trkpt>
      <trkpt lat="43.2360970" lon="-4.8922710">
        <ele>538.2</ele>
        <time>2021-12-21T14:25:33Z</time>
      </trkpt>
      <trkpt lat="43.2360930" lon="-4.8922780">
        <ele>538.2</ele>
        <time>2021-12-21T14:25:35Z</time>
      </trkpt>
      <trkpt lat="43.2361230" lon="-4.8922160">
        <ele>538.4</ele>
        <time>2021-12-21T14:25:38Z</time>
      </trkpt>
      <trkpt lat="43.2361590" lon="-4.8921900">
        <ele>538.5</ele>
        <time>2021-12-21T14:25:40Z</time>
      </trkpt>
      <trkpt lat="43.2361980" lon="-4.8921390">
        <ele>538.7</ele>
        <time>2021-12-21T14:25:45Z</time>
      </trkpt>
      <trkpt lat="43.2362000" lon="-4.8921060">
        <ele>538.7</ele>
        <time>2021-12-21T14:25:46Z</time>
      </trkpt>
      <trkpt lat="43.2361910" lon="-4.8920180">
        <ele>538.8</ele>
        <time>2021-12-21T14:25:53Z</time>
      </trkpt>
      <trkpt lat="43.2361900" lon="-4.8919750">
        <ele>538.9</ele>
        <time>2021-12-21T14:25:59Z</time>
      </trkpt>
      <trkpt lat="43.2361770" lon="-4.8919400">
        <ele>538.9</ele>
        <time>2021-12-21T14:26:04Z</time>
      </trkpt>
      <trkpt lat="43.2361690" lon="-4.8918760">
        <ele>539.0</ele>
        <time>2021-12-21T14:26:06Z</time>
      </trkpt>
      <trkpt lat="43.2361680" lon="-4.8918220">
        <ele>539.1</ele>
        <time>2021-12-21T14:26:09Z</time>
      </trkpt>
      <trkpt lat="43.2361890" lon="-4.8917610">
        <ele>539.1</ele>
        <time>2021-12-21T14:26:11Z</time>
      </trkpt>
      <trkpt lat="43.2361070" lon="-4.8917040">
        <ele>539.3</ele>
        <time>2021-12-21T14:26:17Z</time>
      </trkpt>
      <trkpt lat="43.2359910" lon="-4.8916440">
        <ele>539.5</ele>
        <time>2021-12-21T14:26:22Z</time>
      </trkpt>
      <trkpt lat="43.2359940" lon="-4.8916010">
        <ele>539.5</ele>
        <time>2021-12-21T14:26:27Z</time>
      </trkpt>
      <trkpt lat="43.2359370" lon="-4.8914920">
        <ele>539.7</ele>
        <time>2021-12-21T14:26:29Z</time>
      </trkpt>
      <trkpt lat="43.2359620" lon="-4.8915020">
        <ele>539.7</ele>
        <time>2021-12-21T14:26:35Z</time>
      </trkpt>
      <trkpt lat="43.2359050" lon="-4.8914750">
        <ele>539.9</ele>
        <time>2021-12-21T14:26:37Z</time>
      </trkpt>
      <trkpt lat="43.2359110" lon="-4.8914480">
        <ele>539.9</ele>
        <time>2021-12-21T14:26:45Z</time>
      </trkpt>
      <trkpt lat="43.2358610" lon="-4.8913300">
        <ele>540.2</ele>
        <time>2021-12-21T14:26:48Z</time>
      </trkpt>
      <trkpt lat="43.2358590" lon="-4.8912960">
        <ele>540.3</ele>
        <time>2021-12-21T14:26:50Z</time>
      </trkpt>
      <trkpt lat="43.2358760" lon="-4.8912420">
        <ele>540.4</ele>
        <time>2021-12-21T14:26:53Z</time>
      </trkpt>
      <trkpt lat="43.2358910" lon="-4.8911480">
        <ele>540.5</ele>
        <time>2021-12-21T14:26:55Z</time>
      </trkpt>
      <trkpt lat="43.2358620" lon="-4.8911010">
        <ele>540.6</ele>
        <time>2021-12-21T14:27:00Z</time>
      </trkpt>
      <trkpt lat="43.2358520" lon="-4.8910460">
        <ele>540.7</ele>
        <time>2021-12-21T14:27:03Z</time>
      </trkpt>
      <trkpt lat="43.2358310" lon="-4.8910090">
        <ele>540.7</ele>
        <time>2021-12-21T14:27:06Z</time>
      </trkpt>
      <trkpt lat="43.2358380" lon="-4.8909620">
        <ele>540.8</ele>
        <time>2021-12-21T14:27:11Z</time>
      </trkpt>
      <trkpt lat="43.2358590" lon="-4.8909190">
        <ele>540.8</ele>
        <time>2021-12-21T14:27:13Z</time>
      </trkpt>
      <trkpt lat="43.2358960" lon="-4.8909060">
        <ele>540.9</ele>
        <time>2021-12-21T14:27:16Z</time>
      </trkpt>
      <trkpt lat="43.2359850" lon="-4.8908770">
        <ele>541.2</ele>
        <time>2021-12-21T14:27:18Z</time>
      </trkpt>
      <trkpt lat="43.2360190" lon="-4.8908630">
        <ele>541.2</ele>
        <time>2021-12-21T14:27:21Z</time>
      </trkpt>
      <trkpt lat="43.2360790" lon="-4.8908550">
        <ele>541.4</ele>
        <time>2021-12-21T14:27:26Z</time>
      </trkpt>
      <trkpt lat="43.2361210" lon="-4.8908660">
        <ele>541.5</ele>
        <time>2021-12-21T14:28:02Z</time>
      </trkpt>
      <trkpt lat="43.2361620" lon="-4.8908630">
        <ele>541.6</ele>
        <time>2021-12-21T14:28:05Z</time>
      </trkpt>
      <trkpt lat="43.2362690" lon="-4.8908580">
        <ele>541.7</ele>
        <time>2021-12-21T14:28:07Z</time>
      </trkpt>
      <trkpt lat="43.2363190" lon="-4.8908270">
        <ele>541.8</ele>
        <time>2021-12-21T14:28:10Z</time>
      </trkpt>
      <trkpt lat="43.2364150" lon="-4.8907720">
        <ele>541.9</ele>
        <time>2021-12-21T14:28:12Z</time>
      </trkpt>
      <trkpt lat="43.2364720" lon="-4.8907530">
        <ele>542.0</ele>
        <time>2021-12-21T14:28:15Z</time>
      </trkpt>
      <trkpt lat="43.2365370" lon="-4.8907210">
        <ele>542.1</ele>
        <time>2021-12-21T14:28:18Z</time>
      </trkpt>
      <trkpt lat="43.2366060" lon="-4.8907230">
        <ele>542.3</ele>
        <time>2021-12-21T14:28:23Z</time>
      </trkpt>
      <trkpt lat="43.2366390" lon="-4.8907250">
        <ele>542.3</ele>
        <time>2021-12-21T14:28:25Z</time>
      </trkpt>
      <trkpt lat="43.2366840" lon="-4.8907230">
        <ele>542.5</ele>
        <time>2021-12-21T14:28:28Z</time>
      </trkpt>
      <trkpt lat="43.2367230" lon="-4.8907210">
        <ele>542.7</ele>
        <time>2021-12-21T14:28:31Z</time>
      </trkpt>
      <trkpt lat="43.2367630" lon="-4.8907100">
        <ele>542.8</ele>
        <time>2021-12-21T14:28:41Z</time>
      </trkpt>
      <trkpt lat="43.2367900" lon="-4.8907130">
        <ele>542.9</ele>
        <time>2021-12-21T14:28:46Z</time>
      </trkpt>
      <trkpt lat="43.2358960" lon="-4.8915400">
        <ele>539.9</ele>
        <time>2021-12-21T14:28:49Z</time>
      </trkpt>
      <trkpt lat="43.2359040" lon="-4.8915330">
        <ele>539.9</ele>
        <time>2021-12-21T14:28:51Z</time>
      </trkpt>
      <trkpt lat="43.2359760" lon="-4.8914990">
        <ele>540.2</ele>
        <time>2021-12-21T14:29:58Z</time>
      </trkpt>
      <trkpt lat="43.2360190" lon="-4.8914700">
        <ele>540.3</ele>
        <time>2021-12-21T14:30:03Z</time>
      </trkpt>
      <trkpt lat="43.2360700" lon="-4.8915050">
        <ele>540.5</ele>
        <time>2021-12-21T14:30:08Z</time>
      </trkpt>
      <trkpt lat="43.2360940" lon="-4.8914930">
        <ele>540.5</ele>
        <time>2021-12-21T14:30:14Z</time>
      </trkpt>
      <trkpt lat="43.2361320" lon="-4.8914870">
        <ele>540.6</ele>
        <time>2021-12-21T14:30:16Z</time>
      </trkpt>
      <trkpt lat="43.2361610" lon="-4.8915070">
        <ele>540.7</ele>
        <time>2021-12-21T14:30:19Z</time>
      </trkpt>
      <trkpt lat="43.2362010" lon="-4.8915220">
        <ele>540.8</ele>
        <time>2021-12-21T14:30:24Z</time>
      </trkpt>
      <trkpt lat="43.2362420" lon="-4.8914960">
        <ele>540.9</ele>
        <time>2021-12-21T14:30:27Z</time>
      </trkpt>
      <trkpt lat="43.2362530" lon="-4.8914080">
        <ele>541.1</ele>
        <time>2021-12-21T14:30:29Z</time>
      </trkpt>
      <trkpt lat="43.2362520" lon="-4.8914020">
        <ele>541.1</ele>
        <time>2021-12-21T14:30:32Z</time>
      </trkpt>
      <trkpt lat="43.2362380" lon="-4.8912830">
        <ele>541.3</ele>
        <time>2021-12-21T14:30:37Z</time>
      </trkpt>
      <trkpt lat="43.2362340" lon="-4.8912780">
        <ele>541.4</ele>
        <time>2021-12-21T14:30:42Z</time>
      </trkpt>
      <trkpt lat="43.2362720" lon="-4.8911270">
        <ele>541.6</ele>
        <time>2021-12-21T14:30:45Z</time>
      </trkpt>
      <trkpt lat="43.2362880" lon="-4.8910840">
        <ele>541.7</ele>
        <time>2021-12-21T14:30:50Z</time>
      </trkpt>
      <trkpt lat="43.2362920" lon="-4.8910580">
        <ele>541.7</ele>
        <time>2021-12-21T14:30:52Z</time>
      </trkpt>
      <trkpt lat="43.2363150" lon="-4.8910130">
        <ele>541.8</ele>
        <time>2021-12-21T14:30:58Z</time>
      </trkpt>
      <trkpt lat="43.2363190" lon="-4.8910080">
        <ele>541.8</ele>
        <time>2021-12-21T14:31:03Z</time>
      </trkpt>
      <trkpt lat="43.2363640" lon="-4.8909640">
        <ele>541.8</ele>
        <time>2021-12-21T14:31:08Z</time>
      </trkpt>
      <trkpt lat="43.2363790" lon="-4.8909330">
        <ele>541.9</ele>
        <time>2021-12-21T14:31:10Z</time>
      </trkpt>
      <trkpt lat="43.2364260" lon="-4.8909500">
        <ele>542.0</ele>
        <time>2021-12-21T14:31:16Z</time>
      </trkpt>
      <trkpt lat="43.2365000" lon="-4.8909430">
        <ele>542.1</ele>
        <time>2021-12-21T14:31:21Z</time>
      </trkpt>
      <trkpt lat="43.2365350" lon="-4.8909330">
        <ele>542.2</ele>
        <time>2021-12-21T14:31:26Z</time>
      </trkpt>
      <trkpt lat="43.2365740" lon="-4.8909230">
        <ele>542.4</ele>
        <time>2021-12-21T14:31:31Z</time>
      </trkpt>
      <trkpt lat="43.2366000" lon="-4.8909220">
        <ele>542.4</ele>
        <time>2021-12-21T14:31:36Z</time>
      </trkpt>
      <trkpt lat="43.2366260" lon="-4.8908910">
        <ele>542.5</ele>
        <time>2021-12-21T14:31:41Z</time>
      </trkpt>
      <trkpt lat="43.2366430" lon="-4.8908800">
        <ele>542.6</ele>
        <time>2021-12-21T14:31:46Z</time>
      </trkpt>
      <trkpt lat="43.2369730" lon="-4.8908520">
        <ele>543.5</ele>
        <time>2021-12-21T14:31:49Z</time>
      </trkpt>
      <trkpt lat="43.2370370" lon="-4.8908290">
        <ele>543.7</ele>
        <time>2021-12-21T14:31:54Z</time>
      </trkpt>
      <trkpt lat="43.2370590" lon="-4.8907820">
        <ele>543.8</ele>
        <time>2021-12-21T14:31:57Z</time>
      </trkpt>
      <trkpt lat="43.2370650" lon="-4.8907010">
        <ele>543.9</ele>
        <time>2021-12-21T14:31:59Z</time>
      </trkpt>
      <trkpt lat="43.2370890" lon="-4.8906820">
        <ele>544.0</ele>
        <time>2021-12-21T14:32:05Z</time>
      </trkpt>
      <trkpt lat="43.2370970" lon="-4.8906020">
        <ele>544.2</ele>
        <time>2021-12-21T14:32:07Z</time>
      </trkpt>
      <trkpt lat="43.2371290" lon="-4.8905470">
        <ele>544.3</ele>
        <time>2021-12-21T14:32:12Z</time>
      </trkpt>
      <trkpt lat="43.2371730" lon="-4.8904570">
        <ele>544.6</ele>
        <time>2021-12-21T14:32:15Z</time>
      </trkpt>
      <trkpt lat="43.2371960" lon="-4.8904100">
        <ele>544.8</ele>
        <time>2021-12-21T14:32:20Z</time>
      </trkpt>
      <trkpt lat="43.2372320" lon="-4.8904000">
        <ele>544.9</ele>
        <time>2021-12-21T14:32:23Z</time>
      </trkpt>
      <trkpt lat="43.2372480" lon="-4.8903760">
        <ele>545.1</ele>
        <time>2021-12-21T14:32:25Z</time>
      </trkpt>
      <trkpt lat="43.2373090" lon="-4.8903110">
        <ele>545.4</ele>
        <time>2021-12-21T14:32:28Z</time>
      </trkpt>
      <trkpt lat="43.2374130" lon="-4.8902930">
        <ele>545.8</ele>
        <time>2021-12-21T14:32:33Z</time>
      </trkpt>
      <trkpt lat="43.2375860" lon="-4.8903070">
        <ele>546.4</ele>
        <time>2021-12-21T14:32:36Z</time>
      </trkpt>
      <trkpt lat="43.2377120" lon="-4.8903330">
        <ele>550.3</ele>
        <time>2021-12-21T14:32:38Z</time>
      </trkpt>
      <trkpt lat="43.2383190" lon="-4.8890230">
        <ele>601.7</ele>
        <time>2021-12-21T14:32:41Z</time>
      </trkpt>
      <trkpt lat="43.2383670" lon="-4.8890190">
        <ele>595.3</ele>
        <time>2021-12-21T14:32:46Z</time>
      </trkpt>
      <trkpt lat="43.2384130" lon="-4.8890020">
        <ele>595.2</ele>
        <time>2021-12-21T14:32:51Z</time>
      </trkpt>
      <trkpt lat="43.2384830" lon="-4.8889930">
        <ele>589.6</ele>
        <time>2021-12-21T14:32:54Z</time>
      </trkpt>
      <trkpt lat="43.2385030" lon="-4.8890120">
        <ele>589.6</ele>
        <time>2021-12-21T14:32:56Z</time>
      </trkpt>
      <trkpt lat="43.2385370" lon="-4.8890410">
        <ele>589.5</ele>
        <time>2021-12-21T14:32:59Z</time>
      </trkpt>
      <trkpt lat="43.2385980" lon="-4.8890710">
        <ele>583.0</ele>
        <time>2021-12-21T14:33:04Z</time>
      </trkpt>
      <trkpt lat="43.2386470" lon="-4.8890840">
        <ele>582.9</ele>
        <time>2021-12-21T14:33:09Z</time>
      </trkpt>
      <trkpt lat="43.2386720" lon="-4.8890680">
        <ele>582.9</ele>
        <time>2021-12-21T14:33:12Z</time>
      </trkpt>
      <trkpt lat="43.2387190" lon="-4.8891320">
        <ele>573.9</ele>
        <time>2021-12-21T14:33:17Z</time>
      </trkpt>
      <trkpt lat="43.2386490" lon="-4.8889850">
        <ele>582.9</ele>
        <time>2021-12-21T14:33:19Z</time>
      </trkpt>
      <trkpt lat="43.2386340" lon="-4.8888640">
        <ele>584.8</ele>
        <time>2021-12-21T14:33:25Z</time>
      </trkpt>
      <trkpt lat="43.2386590" lon="-4.8888380">
        <ele>584.7</ele>
        <time>2021-12-21T14:33:27Z</time>
      </trkpt>
      <trkpt lat="43.2386880" lon="-4.8887830">
        <ele>584.7</ele>
        <time>2021-12-21T14:33:30Z</time>
      </trkpt>
      <trkpt lat="43.2387110" lon="-4.8888030">
        <ele>578.5</ele>
        <time>2021-12-21T14:33:35Z</time>
      </trkpt>
      <trkpt lat="43.2387610" lon="-4.8887440">
        <ele>578.8</ele>
        <time>2021-12-21T14:33:40Z</time>
      </trkpt>
      <trkpt lat="43.2388080" lon="-4.8887440">
        <ele>578.8</ele>
        <time>2021-12-21T14:33:45Z</time>
      </trkpt>
      <trkpt lat="43.2388600" lon="-4.8887140">
        <ele>572.2</ele>
        <time>2021-12-21T14:33:48Z</time>
      </trkpt>
      <trkpt lat="43.2388720" lon="-4.8887040">
        <ele>572.2</ele>
        <time>2021-12-21T14:33:50Z</time>
      </trkpt>
      <trkpt lat="43.2389260" lon="-4.8887000">
        <ele>572.2</ele>
        <time>2021-12-21T14:33:53Z</time>
      </trkpt>
      <trkpt lat="43.2389840" lon="-4.8887510">
        <ele>565.0</ele>
        <time>2021-12-21T14:33:55Z</time>
      </trkpt>
      <trkpt lat="43.2390350" lon="-4.8887210">
        <ele>565.5</ele>
        <time>2021-12-21T14:33:58Z</time>
      </trkpt>
      <trkpt lat="43.2390700" lon="-4.8886390">
        <ele>565.5</ele>
        <time>2021-12-21T14:34:01Z</time>
      </trkpt>
      <trkpt lat="43.2391260" lon="-4.8886700">
        <ele>559.1</ele>
        <time>2021-12-21T14:34:06Z</time>
      </trkpt>
      <trkpt lat="43.2391580" lon="-4.8885860">
        <ele>559.1</ele>
        <time>2021-12-21T14:34:08Z</time>
      </trkpt>
      <trkpt lat="43.2392070" lon="-4.8885630">
        <ele>552.5</ele>
        <time>2021-12-21T14:34:14Z</time>
      </trkpt>
      <trkpt lat="43.2392310" lon="-4.8885090">
        <ele>552.5</ele>
        <time>2021-12-21T14:34:16Z</time>
      </trkpt>
      <trkpt lat="43.2392880" lon="-4.8885100">
        <ele>552.4</ele>
        <time>2021-12-21T14:34:19Z</time>
      </trkpt>
      <trkpt lat="43.2393200" lon="-4.8885090">
        <ele>552.4</ele>
        <time>2021-12-21T14:34:21Z</time>
      </trkpt>
      <trkpt lat="43.2393440" lon="-4.8885280">
        <ele>546.2</ele>
        <time>2021-12-21T14:34:24Z</time>
      </trkpt>
      <trkpt lat="43.2394150" lon="-4.8885690">
        <ele>546.2</ele>
        <time>2021-12-21T14:34:26Z</time>
      </trkpt>
      <trkpt lat="43.2394300" lon="-4.8885450">
        <ele>546.2</ele>
        <time>2021-12-21T14:34:29Z</time>
      </trkpt>
      <trkpt lat="43.2394660" lon="-4.8885140">
        <ele>538.9</ele>
        <time>2021-12-21T14:34:32Z</time>
      </trkpt>
      <trkpt lat="43.2394970" lon="-4.8885270">
        <ele>538.8</ele>
        <time>2021-12-21T14:34:34Z</time>
      </trkpt>
      <trkpt lat="43.2395470" lon="-4.8885030">
        <ele>538.8</ele>
        <time>2021-12-21T14:34:37Z</time>
      </trkpt>
      <trkpt lat="43.2395940" lon="-4.8885620">
        <ele>532.0</ele>
        <time>2021-12-21T14:34:39Z</time>
      </trkpt>
      <trkpt lat="43.2396200" lon="-4.8885820">
        <ele>531.2</ele>
        <time>2021-12-21T14:34:42Z</time>
      </trkpt>
      <trkpt lat="43.2396580" lon="-4.8885690">
        <ele>532.0</ele>
        <time>2021-12-21T14:34:44Z</time>
      </trkpt>
      <trkpt lat="43.2397160" lon="-4.8885300">
        <ele>524.4</ele>
        <time>2021-12-21T14:34:47Z</time>
      </trkpt>
      <trkpt lat="43.2397510" lon="-4.8885090">
        <ele>524.3</ele>
        <time>2021-12-21T14:34:50Z</time>
      </trkpt>
      <trkpt lat="43.2397710" lon="-4.8885060">
        <ele>524.3</ele>
        <time>2021-12-21T14:34:52Z</time>
      </trkpt>
      <trkpt lat="43.2398040" lon="-4.8884900">
        <ele>524.3</ele>
        <time>2021-12-21T14:34:55Z</time>
      </trkpt>
      <trkpt lat="43.2398590" lon="-4.8884800">
        <ele>518.8</ele>
        <time>2021-12-21T14:34:57Z</time>
      </trkpt>
      <trkpt lat="43.2399180" lon="-4.8884700">
        <ele>518.8</ele>
        <time>2021-12-21T14:35:00Z</time>
      </trkpt>
      <trkpt lat="43.2399580" lon="-4.8884650">
        <ele>514.6</ele>
        <time>2021-12-21T14:35:02Z</time>
      </trkpt>
      <trkpt lat="43.2399760" lon="-4.8884580">
        <ele>514.5</ele>
        <time>2021-12-21T14:35:05Z</time>
      </trkpt>
      <trkpt lat="43.2400140" lon="-4.8884650">
        <ele>514.5</ele>
        <time>2021-12-21T14:35:10Z</time>
      </trkpt>
      <trkpt lat="43.2400700" lon="-4.8884310">
        <ele>514.5</ele>
        <time>2021-12-21T14:35:13Z</time>
      </trkpt>
      <trkpt lat="43.2401110" lon="-4.8884030">
        <ele>511.5</ele>
        <time>2021-12-21T14:35:15Z</time>
      </trkpt>
      <trkpt lat="43.2401260" lon="-4.8883720">
        <ele>514.3</ele>
        <time>2021-12-21T14:35:18Z</time>
      </trkpt>
      <trkpt lat="43.2401580" lon="-4.8883220">
        <ele>514.3</ele>
        <time>2021-12-21T14:35:21Z</time>
      </trkpt>
      <trkpt lat="43.2401750" lon="-4.8883160">
        <ele>514.3</ele>
        <time>2021-12-21T14:35:23Z</time>
      </trkpt>
      <trkpt lat="43.2402210" lon="-4.8881840">
        <ele>514.9</ele>
        <time>2021-12-21T14:35:26Z</time>
      </trkpt>
      <trkpt lat="43.2402410" lon="-4.8881780">
        <ele>514.9</ele>
        <time>2021-12-21T14:35:28Z</time>
      </trkpt>
      <trkpt lat="43.2402730" lon="-4.8881460">
        <ele>514.8</ele>
        <time>2021-12-21T14:35:31Z</time>
      </trkpt>
      <trkpt lat="43.2403210" lon="-4.8880960">
        <ele>514.8</ele>
        <time>2021-12-21T14:35:33Z</time>
      </trkpt>
      <trkpt lat="43.2403570" lon="-4.8880400">
        <ele>514.4</ele>
        <time>2021-12-21T14:35:36Z</time>
      </trkpt>
      <trkpt lat="43.2403970" lon="-4.8879690">
        <ele>514.4</ele>
        <time>2021-12-21T14:35:39Z</time>
      </trkpt>
      <trkpt lat="43.2404260" lon="-4.8879300">
        <ele>514.4</ele>
        <time>2021-12-21T14:35:41Z</time>
      </trkpt>
      <trkpt lat="43.2404480" lon="-4.8879200">
        <ele>514.3</ele>
        <time>2021-12-21T14:35:44Z</time>
      </trkpt>
      <trkpt lat="43.2404850" lon="-4.8879120">
        <ele>510.9</ele>
        <time>2021-12-21T14:35:46Z</time>
      </trkpt>
      <trkpt lat="43.2405040" lon="-4.8878980">
        <ele>510.9</ele>
        <time>2021-12-21T14:35:49Z</time>
      </trkpt>
      <trkpt lat="43.2405350" lon="-4.8878920">
        <ele>510.9</ele>
        <time>2021-12-21T14:35:51Z</time>
      </trkpt>
      <trkpt lat="43.2405710" lon="-4.8878920">
        <ele>510.9</ele>
        <time>2021-12-21T14:35:54Z</time>
      </trkpt>
      <trkpt lat="43.2406260" lon="-4.8878930">
        <ele>504.9</ele>
        <time>2021-12-21T14:35:57Z</time>
      </trkpt>
      <trkpt lat="43.2406510" lon="-4.8878870">
        <ele>504.8</ele>
        <time>2021-12-21T14:35:59Z</time>
      </trkpt>
      <trkpt lat="43.2407270" lon="-4.8879030">
        <ele>498.0</ele>
        <time>2021-12-21T14:36:04Z</time>
      </trkpt>
      <trkpt lat="43.2407560" lon="-4.8879160">
        <ele>498.0</ele>
        <time>2021-12-21T14:36:09Z</time>
      </trkpt>
      <trkpt lat="43.2407930" lon="-4.8879310">
        <ele>497.9</ele>
        <time>2021-12-21T14:36:15Z</time>
      </trkpt>
      <trkpt lat="43.2408260" lon="-4.8879590">
        <ele>497.9</ele>
        <time>2021-12-21T14:36:20Z</time>
      </trkpt>
      <trkpt lat="43.2408670" lon="-4.8879680">
        <ele>487.7</ele>
        <time>2021-12-21T14:36:25Z</time>
      </trkpt>
      <trkpt lat="43.2408930" lon="-4.8879740">
        <ele>487.7</ele>
        <time>2021-12-21T14:36:30Z</time>
      </trkpt>
      <trkpt lat="43.2409300" lon="-4.8879750">
        <ele>487.6</ele>
        <time>2021-12-21T14:36:35Z</time>
      </trkpt>
      <trkpt lat="43.2409670" lon="-4.8879830">
        <ele>477.2</ele>
        <time>2021-12-21T14:36:40Z</time>
      </trkpt>
      <trkpt lat="43.2409990" lon="-4.8879920">
        <ele>477.2</ele>
        <time>2021-12-21T14:36:46Z</time>
      </trkpt>
      <trkpt lat="43.2410440" lon="-4.8879940">
        <ele>477.2</ele>
        <time>2021-12-21T14:36:53Z</time>
      </trkpt>
      <trkpt lat="43.2410760" lon="-4.8880030">
        <ele>477.2</ele>
        <time>2021-12-21T14:36:56Z</time>
      </trkpt>
      <trkpt lat="43.2411160" lon="-4.8880060">
        <ele>465.0</ele>
        <time>2021-12-21T14:36:58Z</time>
      </trkpt>
      <trkpt lat="43.2411480" lon="-4.8880250">
        <ele>465.0</ele>
        <time>2021-12-21T14:37:01Z</time>
      </trkpt>
      <trkpt lat="43.2411970" lon="-4.8880690">
        <ele>463.5</ele>
        <time>2021-12-21T14:37:04Z</time>
      </trkpt>
      <trkpt lat="43.2412430" lon="-4.8880870">
        <ele>451.1</ele>
        <time>2021-12-21T14:37:06Z</time>
      </trkpt>
      <trkpt lat="43.2412730" lon="-4.8881030">
        <ele>451.1</ele>
        <time>2021-12-21T14:37:42Z</time>
      </trkpt>
      <trkpt lat="43.2413130" lon="-4.8881240">
        <ele>451.1</ele>
        <time>2021-12-21T14:37:45Z</time>
      </trkpt>
      <trkpt lat="43.2413390" lon="-4.8881270">
        <ele>437.2</ele>
        <time>2021-12-21T14:37:48Z</time>
      </trkpt>
      <trkpt lat="43.2413780" lon="-4.8881350">
        <ele>437.2</ele>
        <time>2021-12-21T14:37:50Z</time>
      </trkpt>
      <trkpt lat="43.2414020" lon="-4.8881480">
        <ele>437.2</ele>
        <time>2021-12-21T14:37:55Z</time>
      </trkpt>
      <trkpt lat="43.2414340" lon="-4.8881590">
        <ele>437.1</ele>
        <time>2021-12-21T14:38:00Z</time>
      </trkpt>
      <trkpt lat="43.2415020" lon="-4.8882210">
        <ele>425.9</ele>
        <time>2021-12-21T14:38:06Z</time>
      </trkpt>
      <trkpt lat="43.2415350" lon="-4.8882580">
        <ele>426.6</ele>
        <time>2021-12-21T14:38:11Z</time>
      </trkpt>
      <trkpt lat="43.2415540" lon="-4.8882770">
        <ele>426.6</ele>
        <time>2021-12-21T14:38:16Z</time>
      </trkpt>
      <trkpt lat="43.2415920" lon="-4.8883030">
        <ele>421.0</ele>
        <time>2021-12-21T14:38:18Z</time>
      </trkpt>
      <trkpt lat="43.2416240" lon="-4.8883420">
        <ele>420.9</ele>
        <time>2021-12-21T14:38:21Z</time>
      </trkpt>
      <trkpt lat="43.2416520" lon="-4.8883580">
        <ele>420.9</ele>
        <time>2021-12-21T14:38:26Z</time>
      </trkpt>
      <trkpt lat="43.2416940" lon="-4.8883990">
        <ele>420.9</ele>
        <time>2021-12-21T14:38:31Z</time>
      </trkpt>
      <trkpt lat="43.2417220" lon="-4.8884160">
        <ele>421.3</ele>
        <time>2021-12-21T14:38:37Z</time>
      </trkpt>
      <trkpt lat="43.2417620" lon="-4.8884420">
        <ele>421.2</ele>
        <time>2021-12-21T14:38:39Z</time>
      </trkpt>
      <trkpt lat="43.2417870" lon="-4.8884610">
        <ele>421.2</ele>
        <time>2021-12-21T14:38:44Z</time>
      </trkpt>
      <trkpt lat="43.2418290" lon="-4.8885140">
        <ele>419.1</ele>
        <time>2021-12-21T14:38:49Z</time>
      </trkpt>
      <trkpt lat="43.2418670" lon="-4.8885600">
        <ele>419.1</ele>
        <time>2021-12-21T14:38:55Z</time>
      </trkpt>
      <trkpt lat="43.2418890" lon="-4.8885990">
        <ele>422.6</ele>
        <time>2021-12-21T14:38:57Z</time>
      </trkpt>
      <trkpt lat="43.2419200" lon="-4.8886480">
        <ele>422.6</ele>
        <time>2021-12-21T14:39:00Z</time>
      </trkpt>
      <trkpt lat="43.2419410" lon="-4.8886720">
        <ele>422.6</ele>
        <time>2021-12-21T14:39:02Z</time>
      </trkpt>
      <trkpt lat="43.2419830" lon="-4.8887270">
        <ele>419.4</ele>
        <time>2021-12-21T14:39:05Z</time>
      </trkpt>
      <trkpt lat="43.2420000" lon="-4.8887460">
        <ele>422.6</ele>
        <time>2021-12-21T14:39:07Z</time>
      </trkpt>
      <trkpt lat="43.2420380" lon="-4.8887830">
        <ele>422.5</ele>
        <time>2021-12-21T14:39:10Z</time>
      </trkpt>
      <trkpt lat="43.2420710" lon="-4.8888120">
        <ele>422.5</ele>
        <time>2021-12-21T14:39:15Z</time>
      </trkpt>
      <trkpt lat="43.2420850" lon="-4.8888130">
        <ele>419.0</ele>
        <time>2021-12-21T14:39:18Z</time>
      </trkpt>
      <trkpt lat="43.2421220" lon="-4.8888090">
        <ele>419.0</ele>
        <time>2021-12-21T14:39:20Z</time>
      </trkpt>
      <trkpt lat="43.2421530" lon="-4.8887980">
        <ele>419.0</ele>
        <time>2021-12-21T14:39:26Z</time>
      </trkpt>
      <trkpt lat="43.2421900" lon="-4.8887850">
        <ele>419.0</ele>
        <time>2021-12-21T14:39:28Z</time>
      </trkpt>
      <trkpt lat="43.2422150" lon="-4.8887630">
        <ele>415.6</ele>
        <time>2021-12-21T14:39:31Z</time>
      </trkpt>
      <trkpt lat="43.2422470" lon="-4.8887430">
        <ele>411.5</ele>
        <time>2021-12-21T14:39:33Z</time>
      </trkpt>
      <trkpt lat="43.2422770" lon="-4.8887340">
        <ele>411.4</ele>
        <time>2021-12-21T14:39:38Z</time>
      </trkpt>
      <trkpt lat="43.2423200" lon="-4.8887290">
        <ele>411.4</ele>
        <time>2021-12-21T14:39:41Z</time>
      </trkpt>
      <trkpt lat="43.2423530" lon="-4.8887110">
        <ele>410.6</ele>
        <time>2021-12-21T14:39:44Z</time>
      </trkpt>
      <trkpt lat="43.2423860" lon="-4.8887120">
        <ele>410.6</ele>
        <time>2021-12-21T14:39:51Z</time>
      </trkpt>
      <trkpt lat="43.2424510" lon="-4.8887350">
        <ele>410.6</ele>
        <time>2021-12-21T14:39:56Z</time>
      </trkpt>
      <trkpt lat="43.2425460" lon="-4.8888790">
        <ele>418.8</ele>
        <time>2021-12-21T14:39:59Z</time>
      </trkpt>
      <trkpt lat="43.2425980" lon="-4.8889620">
        <ele>430.9</ele>
        <time>2021-12-21T14:40:02Z</time>
      </trkpt>
      <trkpt lat="43.2426670" lon="-4.8890930">
        <ele>438.3</ele>
        <time>2021-12-21T14:40:07Z</time>
      </trkpt>
      <trkpt lat="43.2427310" lon="-4.8892140">
        <ele>444.0</ele>
        <time>2021-12-21T14:40:09Z</time>
      </trkpt>
      <trkpt lat="43.2427560" lon="-4.8892460">
        <ele>446.1</ele>
        <time>2021-12-21T14:40:12Z</time>
      </trkpt>
      <trkpt lat="43.2429170" lon="-4.8894220">
        <ele>458.5</ele>
        <time>2021-12-21T14:40:17Z</time>
      </trkpt>
      <trkpt lat="43.2429470" lon="-4.8894630">
        <ele>461.1</ele>
        <time>2021-12-21T14:40:20Z</time>
      </trkpt>
      <trkpt lat="43.2429620" lon="-4.8894890">
        <ele>462.6</ele>
        <time>2021-12-21T14:40:25Z</time>
      </trkpt>
      <trkpt lat="43.2429740" lon="-4.8895100">
        <ele>463.7</ele>
        <time>2021-12-21T14:40:27Z</time>
      </trkpt>
      <trkpt lat="43.2430110" lon="-4.8895500">
        <ele>466.6</ele>
        <time>2021-12-21T14:40:30Z</time>
      </trkpt>
      <trkpt lat="43.2430520" lon="-4.8895810">
        <ele>469.5</ele>
        <time>2021-12-21T14:40:33Z</time>
      </trkpt>
      <trkpt lat="43.2430820" lon="-4.8896140">
        <ele>472.0</ele>
        <time>2021-12-21T14:40:38Z</time>
      </trkpt>
      <trkpt lat="43.2431260" lon="-4.8896320">
        <ele>474.9</ele>
        <time>2021-12-21T14:40:40Z</time>
      </trkpt>
      <trkpt lat="43.2431830" lon="-4.8896520">
        <ele>478.6</ele>
        <time>2021-12-21T14:40:45Z</time>
      </trkpt>
      <trkpt lat="43.2432060" lon="-4.8896610">
        <ele>480.1</ele>
        <time>2021-12-21T14:40:48Z</time>
      </trkpt>
      <trkpt lat="43.2432390" lon="-4.8896730">
        <ele>482.2</ele>
        <time>2021-12-21T14:40:51Z</time>
      </trkpt>
      <trkpt lat="43.2432870" lon="-4.8896850">
        <ele>485.3</ele>
        <time>2021-12-21T14:40:53Z</time>
      </trkpt>
      <trkpt lat="43.2433390" lon="-4.8896890">
        <ele>488.5</ele>
        <time>2021-12-21T14:40:58Z</time>
      </trkpt>
      <trkpt lat="43.2433940" lon="-4.8896840">
        <ele>492.5</ele>
        <time>2021-12-21T14:41:03Z</time>
      </trkpt>
      <trkpt lat="43.2434180" lon="-4.8896810">
        <ele>492.7</ele>
        <time>2021-12-21T14:41:06Z</time>
      </trkpt>
      <trkpt lat="43.2434730" lon="-4.8896660">
        <ele>493.1</ele>
        <time>2021-12-21T14:41:09Z</time>
      </trkpt>
      <trkpt lat="43.2435240" lon="-4.8896390">
        <ele>493.5</ele>
        <time>2021-12-21T14:41:14Z</time>
      </trkpt>
      <trkpt lat="43.2435880" lon="-4.8895960">
        <ele>493.9</ele>
        <time>2021-12-21T14:41:19Z</time>
      </trkpt>
      <trkpt lat="43.2436090" lon="-4.8895840">
        <ele>494.1</ele>
        <time>2021-12-21T14:41:24Z</time>
      </trkpt>
      <trkpt lat="43.2436470" lon="-4.8895660">
        <ele>494.3</ele>
        <time>2021-12-21T14:41:27Z</time>
      </trkpt>
      <trkpt lat="43.2436740" lon="-4.8895540">
        <ele>494.4</ele>
        <time>2021-12-21T14:41:29Z</time>
      </trkpt>
      <trkpt lat="43.2437130" lon="-4.8895430">
        <ele>494.6</ele>
        <time>2021-12-21T14:41:34Z</time>
      </trkpt>
      <trkpt lat="43.2437290" lon="-4.8895280">
        <ele>494.6</ele>
        <time>2021-12-21T14:41:40Z</time>
      </trkpt>
      <trkpt lat="43.2437560" lon="-4.8895000">
        <ele>494.8</ele>
        <time>2021-12-21T14:41:45Z</time>
      </trkpt>
      <trkpt lat="43.2438180" lon="-4.8894740">
        <ele>495.0</ele>
        <time>2021-12-21T14:41:47Z</time>
      </trkpt>
      <trkpt lat="43.2438500" lon="-4.8894560">
        <ele>495.1</ele>
        <time>2021-12-21T14:41:53Z</time>
      </trkpt>
      <trkpt lat="43.2438660" lon="-4.8894410">
        <ele>495.2</ele>
        <time>2021-12-21T14:41:55Z</time>
      </trkpt>
      <trkpt lat="43.2439380" lon="-4.8894150">
        <ele>495.4</ele>
        <time>2021-12-21T14:41:58Z</time>
      </trkpt>
      <trkpt lat="43.2439640" lon="-4.8894070">
        <ele>495.5</ele>
        <time>2021-12-21T14:42:00Z</time>
      </trkpt>
      <trkpt lat="43.2439860" lon="-4.8893850">
        <ele>495.7</ele>
        <time>2021-12-21T14:42:05Z</time>
      </trkpt>
      <trkpt lat="43.2440110" lon="-4.8893680">
        <ele>495.8</ele>
        <time>2021-12-21T14:42:11Z</time>
      </trkpt>
      <trkpt lat="43.2440560" lon="-4.8892980">
        <ele>496.1</ele>
        <time>2021-12-21T14:42:16Z</time>
      </trkpt>
      <trkpt lat="43.2440610" lon="-4.8892550">
        <ele>496.3</ele>
        <time>2021-12-21T14:42:21Z</time>
      </trkpt>
      <trkpt lat="43.2440520" lon="-4.8892420">
        <ele>496.4</ele>
        <time>2021-12-21T14:42:26Z</time>
      </trkpt>
      <trkpt lat="43.2440280" lon="-4.8891450">
        <ele>496.8</ele>
        <time>2021-12-21T14:42:29Z</time>
      </trkpt>
      <trkpt lat="43.2440220" lon="-4.8890660">
        <ele>497.2</ele>
        <time>2021-12-21T14:42:31Z</time>
      </trkpt>
      <trkpt lat="43.2440340" lon="-4.8890160">
        <ele>497.4</ele>
        <time>2021-12-21T14:42:36Z</time>
      </trkpt>
      <trkpt lat="43.2440310" lon="-4.8889870">
        <ele>497.5</ele>
        <time>2021-12-21T14:42:42Z</time>
      </trkpt>
      <trkpt lat="43.2440110" lon="-4.8889090">
        <ele>497.8</ele>
        <time>2021-12-21T14:42:47Z</time>
      </trkpt>
      <trkpt lat="43.2440060" lon="-4.8888700">
        <ele>498.0</ele>
        <time>2021-12-21T14:42:52Z</time>
      </trkpt>
      <trkpt lat="43.2440060" lon="-4.8888390">
        <ele>498.1</ele>
        <time>2021-12-21T14:42:54Z</time>
      </trkpt>
      <trkpt lat="43.2440100" lon="-4.8887570">
        <ele>498.4</ele>
        <time>2021-12-21T14:42:57Z</time>
      </trkpt>
      <trkpt lat="43.2440160" lon="-4.8887170">
        <ele>498.5</ele>
        <time>2021-12-21T14:42:59Z</time>
      </trkpt>
      <trkpt lat="43.2440240" lon="-4.8886340">
        <ele>498.8</ele>
        <time>2021-12-21T14:43:05Z</time>
      </trkpt>
      <trkpt lat="43.2440240" lon="-4.8885960">
        <ele>499.0</ele>
        <time>2021-12-21T14:43:10Z</time>
      </trkpt>
      <trkpt lat="43.2440000" lon="-4.8885630">
        <ele>499.1</ele>
        <time>2021-12-21T14:43:12Z</time>
      </trkpt>
      <trkpt lat="43.2439960" lon="-4.8885170">
        <ele>499.3</ele>
        <time>2021-12-21T14:43:18Z</time>
      </trkpt>
      <trkpt lat="43.2439880" lon="-4.8884460">
        <ele>499.5</ele>
        <time>2021-12-21T14:43:23Z</time>
      </trkpt>
      <trkpt lat="43.2439900" lon="-4.8884070">
        <ele>499.6</ele>
        <time>2021-12-21T14:43:25Z</time>
      </trkpt>
      <trkpt lat="43.2440430" lon="-4.8883420">
        <ele>499.9</ele>
        <time>2021-12-21T14:43:31Z</time>
      </trkpt>
      <trkpt lat="43.2440730" lon="-4.8882970">
        <ele>500.1</ele>
        <time>2021-12-21T14:43:33Z</time>
      </trkpt>
      <trkpt lat="43.2441000" lon="-4.8882490">
        <ele>500.3</ele>
        <time>2021-12-21T14:43:36Z</time>
      </trkpt>
      <trkpt lat="43.2441090" lon="-4.8882530">
        <ele>500.3</ele>
        <time>2021-12-21T14:43:38Z</time>
      </trkpt>
      <trkpt lat="43.2441460" lon="-4.8881910">
        <ele>500.6</ele>
        <time>2021-12-21T14:43:41Z</time>
      </trkpt>
      <trkpt lat="43.2442120" lon="-4.8881590">
        <ele>500.8</ele>
        <time>2021-12-21T14:43:43Z</time>
      </trkpt>
      <trkpt lat="43.2442000" lon="-4.8881370">
        <ele>500.9</ele>
        <time>2021-12-21T14:43:46Z</time>
      </trkpt>
      <trkpt lat="43.2442160" lon="-4.8880940">
        <ele>501.0</ele>
        <time>2021-12-21T14:43:49Z</time>
      </trkpt>
      <trkpt lat="43.2442410" lon="-4.8880280">
        <ele>501.2</ele>
        <time>2021-12-21T14:43:51Z</time>
      </trkpt>
      <trkpt lat="43.2442820" lon="-4.8879960">
        <ele>501.4</ele>
        <time>2021-12-21T14:43:54Z</time>
      </trkpt>
      <trkpt lat="43.2443280" lon="-4.8879450">
        <ele>501.5</ele>
        <time>2021-12-21T14:43:56Z</time>
      </trkpt>
      <trkpt lat="43.2443550" lon="-4.8879380">
        <ele>501.6</ele>
        <time>2021-12-21T14:43:59Z</time>
      </trkpt>
      <trkpt lat="43.2443710" lon="-4.8879180">
        <ele>501.6</ele>
        <time>2021-12-21T14:44:01Z</time>
      </trkpt>
      <trkpt lat="43.2444110" lon="-4.8878520">
        <ele>501.8</ele>
        <time>2021-12-21T14:44:04Z</time>
      </trkpt>
      <trkpt lat="43.2444410" lon="-4.8877790">
        <ele>502.0</ele>
        <time>2021-12-21T14:44:07Z</time>
      </trkpt>
      <trkpt lat="43.2444870" lon="-4.8877430">
        <ele>502.1</ele>
        <time>2021-12-21T14:44:09Z</time>
      </trkpt>
      <trkpt lat="43.2444960" lon="-4.8877400">
        <ele>502.1</ele>
        <time>2021-12-21T14:44:12Z</time>
      </trkpt>
      <trkpt lat="43.2446180" lon="-4.8878180">
        <ele>502.5</ele>
        <time>2021-12-21T14:44:14Z</time>
      </trkpt>
      <trkpt lat="43.2446510" lon="-4.8878300">
        <ele>502.7</ele>
        <time>2021-12-21T14:44:19Z</time>
      </trkpt>
      <trkpt lat="43.2446870" lon="-4.8878330">
        <ele>502.8</ele>
        <time>2021-12-21T14:44:22Z</time>
      </trkpt>
      <trkpt lat="43.2446950" lon="-4.8878270">
        <ele>502.8</ele>
        <time>2021-12-21T14:44:27Z</time>
      </trkpt>
      <trkpt lat="43.2447410" lon="-4.8878000">
        <ele>503.0</ele>
        <time>2021-12-21T14:44:35Z</time>
      </trkpt>
      <trkpt lat="43.2447810" lon="-4.8877500">
        <ele>503.3</ele>
        <time>2021-12-21T14:44:38Z</time>
      </trkpt>
      <trkpt lat="43.2448230" lon="-4.8877270">
        <ele>503.5</ele>
        <time>2021-12-21T14:44:40Z</time>
      </trkpt>
      <trkpt lat="43.2448740" lon="-4.8876940">
        <ele>503.8</ele>
        <time>2021-12-21T14:44:43Z</time>
      </trkpt>
      <trkpt lat="43.2449350" lon="-4.8876680">
        <ele>504.2</ele>
        <time>2021-12-21T14:44:45Z</time>
      </trkpt>
      <trkpt lat="43.2449660" lon="-4.8876380">
        <ele>504.4</ele>
        <time>2021-12-21T14:44:48Z</time>
      </trkpt>
      <trkpt lat="43.2449790" lon="-4.8876270">
        <ele>504.5</ele>
        <time>2021-12-21T14:44:53Z</time>
      </trkpt>
      <trkpt lat="43.2450270" lon="-4.8876090">
        <ele>504.7</ele>
        <time>2021-12-21T14:44:56Z</time>
      </trkpt>
      <trkpt lat="43.2450690" lon="-4.8875450">
        <ele>505.1</ele>
        <time>2021-12-21T14:44:58Z</time>
      </trkpt>
      <trkpt lat="43.2451110" lon="-4.8874810">
        <ele>505.4</ele>
        <time>2021-12-21T14:45:01Z</time>
      </trkpt>
      <trkpt lat="43.2451600" lon="-4.8874280">
        <ele>505.7</ele>
        <time>2021-12-21T14:45:03Z</time>
      </trkpt>
      <trkpt lat="43.2451800" lon="-4.8874110">
        <ele>505.8</ele>
        <time>2021-12-21T14:45:06Z</time>
      </trkpt>
      <trkpt lat="43.2452090" lon="-4.8873840">
        <ele>506.0</ele>
        <time>2021-12-21T14:45:14Z</time>
      </trkpt>
      <trkpt lat="43.2452290" lon="-4.8873650">
        <ele>506.1</ele>
        <time>2021-12-21T14:45:16Z</time>
      </trkpt>
      <trkpt lat="43.2452830" lon="-4.8873140">
        <ele>506.3</ele>
        <time>2021-12-21T14:45:19Z</time>
      </trkpt>
      <trkpt lat="43.2453330" lon="-4.8872720">
        <ele>506.6</ele>
        <time>2021-12-21T14:45:21Z</time>
      </trkpt>
      <trkpt lat="43.2453510" lon="-4.8872470">
        <ele>506.6</ele>
        <time>2021-12-21T14:45:24Z</time>
      </trkpt>
      <trkpt lat="43.2453640" lon="-4.8871860">
        <ele>506.8</ele>
        <time>2021-12-21T14:45:27Z</time>
      </trkpt>
      <trkpt lat="43.2453840" lon="-4.8871090">
        <ele>507.0</ele>
        <time>2021-12-21T14:45:29Z</time>
      </trkpt>
      <trkpt lat="43.2454030" lon="-4.8871010">
        <ele>507.1</ele>
        <time>2021-12-21T14:45:32Z</time>
      </trkpt>
      <trkpt lat="43.2454630" lon="-4.8870270">
        <ele>507.4</ele>
        <time>2021-12-21T14:45:37Z</time>
      </trkpt>
      <trkpt lat="43.2454820" lon="-4.8870060">
        <ele>507.5</ele>
        <time>2021-12-21T14:45:42Z</time>
      </trkpt>
      <trkpt lat="43.2455100" lon="-4.8869640">
        <ele>507.7</ele>
        <time>2021-12-21T14:45:47Z</time>
      </trkpt>
      <trkpt lat="43.2455230" lon="-4.8869340">
        <ele>507.8</ele>
        <time>2021-12-21T14:45:52Z</time>
      </trkpt>
      <trkpt lat="43.2455530" lon="-4.8869060">
        <ele>507.9</ele>
        <time>2021-12-21T14:45:58Z</time>
      </trkpt>
      <trkpt lat="43.2455820" lon="-4.8869050">
        <ele>508.0</ele>
        <time>2021-12-21T14:46:00Z</time>
      </trkpt>
      <trkpt lat="43.2456140" lon="-4.8868770">
        <ele>508.1</ele>
        <time>2021-12-21T14:46:05Z</time>
      </trkpt>
      <trkpt lat="43.2456560" lon="-4.8868650">
        <ele>508.2</ele>
        <time>2021-12-21T14:46:08Z</time>
      </trkpt>
      <trkpt lat="43.2456820" lon="-4.8868510">
        <ele>508.3</ele>
        <time>2021-12-21T14:46:10Z</time>
      </trkpt>
      <trkpt lat="43.2457200" lon="-4.8868600">
        <ele>508.5</ele>
        <time>2021-12-21T14:46:13Z</time>
      </trkpt>
      <trkpt lat="43.2457450" lon="-4.8868720">
        <ele>508.6</ele>
        <time>2021-12-21T14:46:15Z</time>
      </trkpt>
      <trkpt lat="43.2457800" lon="-4.8868920">
        <ele>508.7</ele>
        <time>2021-12-21T14:46:18Z</time>
      </trkpt>
      <trkpt lat="43.2458040" lon="-4.8869070">
        <ele>508.8</ele>
        <time>2021-12-21T14:46:21Z</time>
      </trkpt>
      <trkpt lat="43.2458410" lon="-4.8869420">
        <ele>509.0</ele>
        <time>2021-12-21T14:46:23Z</time>
      </trkpt>
      <trkpt lat="43.2458830" lon="-4.8869690">
        <ele>509.1</ele>
        <time>2021-12-21T14:46:26Z</time>
      </trkpt>
      <trkpt lat="43.2459040" lon="-4.8869930">
        <ele>509.2</ele>
        <time>2021-12-21T14:46:28Z</time>
      </trkpt>
      <trkpt lat="43.2459340" lon="-4.8869950">
        <ele>509.3</ele>
        <time>2021-12-21T14:46:31Z</time>
      </trkpt>
      <trkpt lat="43.2459500" lon="-4.8869980">
        <ele>509.4</ele>
        <time>2021-12-21T14:46:34Z</time>
      </trkpt>
      <trkpt lat="43.2459980" lon="-4.8869790">
        <ele>509.6</ele>
        <time>2021-12-21T14:46:39Z</time>
      </trkpt>
      <trkpt lat="43.2460040" lon="-4.8869620">
        <ele>509.6</ele>
        <time>2021-12-21T14:46:44Z</time>
      </trkpt>
      <trkpt lat="43.2460040" lon="-4.8869240">
        <ele>509.7</ele>
        <time>2021-12-21T14:46:49Z</time>
      </trkpt>
      <trkpt lat="43.2460400" lon="-4.8868220">
        <ele>509.9</ele>
        <time>2021-12-21T14:46:52Z</time>
      </trkpt>
      <trkpt lat="43.2460720" lon="-4.8867880">
        <ele>510.0</ele>
        <time>2021-12-21T14:49:29Z</time>
      </trkpt>
      <trkpt lat="43.2460900" lon="-4.8867620">
        <ele>510.1</ele>
        <time>2021-12-21T14:49:31Z</time>
      </trkpt>
      <trkpt lat="43.2461220" lon="-4.8867340">
        <ele>510.1</ele>
        <time>2021-12-21T14:49:34Z</time>
      </trkpt>
      <trkpt lat="43.2461470" lon="-4.8867220">
        <ele>510.2</ele>
        <time>2021-12-21T14:49:37Z</time>
      </trkpt>
      <trkpt lat="43.2461840" lon="-4.8867070">
        <ele>510.3</ele>
        <time>2021-12-21T14:49:42Z</time>
      </trkpt>
      <trkpt lat="43.2462410" lon="-4.8866780">
        <ele>510.4</ele>
        <time>2021-12-21T14:49:44Z</time>
      </trkpt>
      <trkpt lat="43.2462820" lon="-4.8866750">
        <ele>510.5</ele>
        <time>2021-12-21T14:49:49Z</time>
      </trkpt>
      <trkpt lat="43.2463050" lon="-4.8866690">
        <ele>510.5</ele>
        <time>2021-12-21T14:49:52Z</time>
      </trkpt>
      <trkpt lat="43.2463430" lon="-4.8866520">
        <ele>510.6</ele>
        <time>2021-12-21T14:49:57Z</time>
      </trkpt>
      <trkpt lat="43.2463510" lon="-4.8866550">
        <ele>510.6</ele>
        <time>2021-12-21T14:50:02Z</time>
      </trkpt>
      <trkpt lat="43.2463510" lon="-4.8866700">
        <ele>510.6</ele>
        <time>2021-12-21T14:50:05Z</time>
      </trkpt>
      <trkpt lat="43.2464430" lon="-4.8866400">
        <ele>510.9</ele>
        <time>2021-12-21T14:50:07Z</time>
      </trkpt>
      <trkpt lat="43.2464640" lon="-4.8866300">
        <ele>510.9</ele>
        <time>2021-12-21T14:50:10Z</time>
      </trkpt>
      <trkpt lat="43.2465020" lon="-4.8866270">
        <ele>511.0</ele>
        <time>2021-12-21T14:50:12Z</time>
      </trkpt>
      <trkpt lat="43.2465230" lon="-4.8866210">
        <ele>511.1</ele>
        <time>2021-12-21T14:50:15Z</time>
      </trkpt>
      <trkpt lat="43.2465570" lon="-4.8866020">
        <ele>511.2</ele>
        <time>2021-12-21T14:50:18Z</time>
      </trkpt>
      <trkpt lat="43.2465890" lon="-4.8865860">
        <ele>511.2</ele>
        <time>2021-12-21T14:50:23Z</time>
      </trkpt>
      <trkpt lat="43.2466130" lon="-4.8865710">
        <ele>511.3</ele>
        <time>2021-12-21T14:50:25Z</time>
      </trkpt>
      <trkpt lat="43.2466500" lon="-4.8865710">
        <ele>511.4</ele>
        <time>2021-12-21T14:50:28Z</time>
      </trkpt>
      <trkpt lat="43.2466920" lon="-4.8865370">
        <ele>511.5</ele>
        <time>2021-12-21T14:50:31Z</time>
      </trkpt>
      <trkpt lat="43.2467220" lon="-4.8865080">
        <ele>511.6</ele>
        <time>2021-12-21T14:50:33Z</time>
      </trkpt>
      <trkpt lat="43.2467380" lon="-4.8864530">
        <ele>511.7</ele>
        <time>2021-12-21T14:50:36Z</time>
      </trkpt>
      <trkpt lat="43.2467670" lon="-4.8864090">
        <ele>511.8</ele>
        <time>2021-12-21T14:50:38Z</time>
      </trkpt>
      <trkpt lat="43.2468110" lon="-4.8863480">
        <ele>511.9</ele>
        <time>2021-12-21T14:50:41Z</time>
      </trkpt>
      <trkpt lat="43.2468290" lon="-4.8863230">
        <ele>512.0</ele>
        <time>2021-12-21T14:50:44Z</time>
      </trkpt>
      <trkpt lat="43.2468780" lon="-4.8862690">
        <ele>512.2</ele>
        <time>2021-12-21T14:50:46Z</time>
      </trkpt>
      <trkpt lat="43.2469090" lon="-4.8862550">
        <ele>512.3</ele>
        <time>2021-12-21T14:50:49Z</time>
      </trkpt>
      <trkpt lat="43.2469290" lon="-4.8862370">
        <ele>512.3</ele>
        <time>2021-12-21T14:50:54Z</time>
      </trkpt>
      <trkpt lat="43.2469610" lon="-4.8862140">
        <ele>512.4</ele>
        <time>2021-12-21T14:50:56Z</time>
      </trkpt>
      <trkpt lat="43.2469850" lon="-4.8862030">
        <ele>512.5</ele>
        <time>2021-12-21T14:50:59Z</time>
      </trkpt>
      <trkpt lat="43.2470180" lon="-4.8861920">
        <ele>512.6</ele>
        <time>2021-12-21T14:51:02Z</time>
      </trkpt>
      <trkpt lat="43.2470460" lon="-4.8861500">
        <ele>512.8</ele>
        <time>2021-12-21T14:51:04Z</time>
      </trkpt>
      <trkpt lat="43.2470650" lon="-4.8861320">
        <ele>512.9</ele>
        <time>2021-12-21T14:51:07Z</time>
      </trkpt>
      <trkpt lat="43.2471000" lon="-4.8861080">
        <ele>513.0</ele>
        <time>2021-12-21T14:51:09Z</time>
      </trkpt>
      <trkpt lat="43.2471150" lon="-4.8860800">
        <ele>513.1</ele>
        <time>2021-12-21T14:51:12Z</time>
      </trkpt>
      <trkpt lat="43.2471360" lon="-4.8860430">
        <ele>513.2</ele>
        <time>2021-12-21T14:51:14Z</time>
      </trkpt>
      <trkpt lat="43.2471340" lon="-4.8860180">
        <ele>513.3</ele>
        <time>2021-12-21T14:51:17Z</time>
      </trkpt>
      <trkpt lat="43.2471330" lon="-4.8859730">
        <ele>513.4</ele>
        <time>2021-12-21T14:51:20Z</time>
      </trkpt>
      <trkpt lat="43.2471320" lon="-4.8859120">
        <ele>513.5</ele>
        <time>2021-12-21T14:51:25Z</time>
      </trkpt>
      <trkpt lat="43.2471460" lon="-4.8858260">
        <ele>513.7</ele>
        <time>2021-12-21T14:51:27Z</time>
      </trkpt>
      <trkpt lat="43.2471590" lon="-4.8857840">
        <ele>513.9</ele>
        <time>2021-12-21T14:51:30Z</time>
      </trkpt>
      <trkpt lat="43.2472750" lon="-4.8856950">
        <ele>514.3</ele>
        <time>2021-12-21T14:51:35Z</time>
      </trkpt>
      <trkpt lat="43.2472500" lon="-4.8856260">
        <ele>514.6</ele>
        <time>2021-12-21T14:51:40Z</time>
      </trkpt>
      <trkpt lat="43.2472670" lon="-4.8855970">
        <ele>514.7</ele>
        <time>2021-12-21T14:51:43Z</time>
      </trkpt>
      <trkpt lat="43.2472810" lon="-4.8855490">
        <ele>514.8</ele>
        <time>2021-12-21T14:51:48Z</time>
      </trkpt>
      <trkpt lat="43.2473200" lon="-4.8854950">
        <ele>515.0</ele>
        <time>2021-12-21T14:51:53Z</time>
      </trkpt>
      <trkpt lat="43.2473390" lon="-4.8854620">
        <ele>515.2</ele>
        <time>2021-12-21T14:51:56Z</time>
      </trkpt>
      <trkpt lat="43.2473900" lon="-4.8854010">
        <ele>515.4</ele>
        <time>2021-12-21T14:51:58Z</time>
      </trkpt>
      <trkpt lat="43.2474020" lon="-4.8853480">
        <ele>515.6</ele>
        <time>2021-12-21T14:52:01Z</time>
      </trkpt>
      <trkpt lat="43.2474210" lon="-4.8852760">
        <ele>515.8</ele>
        <time>2021-12-21T14:52:06Z</time>
      </trkpt>
      <trkpt lat="43.2474500" lon="-4.8851930">
        <ele>516.0</ele>
        <time>2021-12-21T14:52:11Z</time>
      </trkpt>
      <trkpt lat="43.2474640" lon="-4.8851460">
        <ele>516.1</ele>
        <time>2021-12-21T14:52:16Z</time>
      </trkpt>
      <trkpt lat="43.2474760" lon="-4.8851190">
        <ele>516.2</ele>
        <time>2021-12-21T14:52:22Z</time>
      </trkpt>
      <trkpt lat="43.2474840" lon="-4.8850650">
        <ele>516.4</ele>
        <time>2021-12-21T14:52:27Z</time>
      </trkpt>
      <trkpt lat="43.2474980" lon="-4.8850320">
        <ele>516.5</ele>
        <time>2021-12-21T14:52:29Z</time>
      </trkpt>
      <trkpt lat="43.2475110" lon="-4.8849910">
        <ele>516.5</ele>
        <time>2021-12-21T14:52:32Z</time>
      </trkpt>
      <trkpt lat="43.2475190" lon="-4.8849450">
        <ele>516.6</ele>
        <time>2021-12-21T14:52:37Z</time>
      </trkpt>
      <trkpt lat="43.2475430" lon="-4.8848580">
        <ele>516.8</ele>
        <time>2021-12-21T14:52:42Z</time>
      </trkpt>
      <trkpt lat="43.2475550" lon="-4.8848240">
        <ele>516.9</ele>
        <time>2021-12-21T14:52:47Z</time>
      </trkpt>
      <trkpt lat="43.2475700" lon="-4.8847700">
        <ele>517.0</ele>
        <time>2021-12-21T14:52:50Z</time>
      </trkpt>
      <trkpt lat="43.2475750" lon="-4.8847160">
        <ele>517.1</ele>
        <time>2021-12-21T14:52:52Z</time>
      </trkpt>
      <trkpt lat="43.2475820" lon="-4.8846780">
        <ele>517.1</ele>
        <time>2021-12-21T14:52:55Z</time>
      </trkpt>
      <trkpt lat="43.2475970" lon="-4.8846270">
        <ele>517.2</ele>
        <time>2021-12-21T14:53:00Z</time>
      </trkpt>
      <trkpt lat="43.2476060" lon="-4.8845880">
        <ele>517.3</ele>
        <time>2021-12-21T14:53:05Z</time>
      </trkpt>
      <trkpt lat="43.2476200" lon="-4.8845420">
        <ele>517.4</ele>
        <time>2021-12-21T14:53:11Z</time>
      </trkpt>
      <trkpt lat="43.2476340" lon="-4.8844870">
        <ele>517.4</ele>
        <time>2021-12-21T14:53:13Z</time>
      </trkpt>
      <trkpt lat="43.2476480" lon="-4.8844560">
        <ele>517.5</ele>
        <time>2021-12-21T14:53:16Z</time>
      </trkpt>
      <trkpt lat="43.2476670" lon="-4.8844100">
        <ele>517.6</ele>
        <time>2021-12-21T14:53:21Z</time>
      </trkpt>
      <trkpt lat="43.2476940" lon="-4.8843330">
        <ele>517.7</ele>
        <time>2021-12-21T14:53:23Z</time>
      </trkpt>
      <trkpt lat="43.2477100" lon="-4.8843080">
        <ele>517.7</ele>
        <time>2021-12-21T14:53:26Z</time>
      </trkpt>
      <trkpt lat="43.2477270" lon="-4.8842650">
        <ele>517.8</ele>
        <time>2021-12-21T14:53:29Z</time>
      </trkpt>
      <trkpt lat="43.2477500" lon="-4.8842220">
        <ele>517.8</ele>
        <time>2021-12-21T14:53:31Z</time>
      </trkpt>
      <trkpt lat="43.2477640" lon="-4.8841970">
        <ele>517.8</ele>
        <time>2021-12-21T14:53:34Z</time>
      </trkpt>
      <trkpt lat="43.2477780" lon="-4.8841470">
        <ele>517.9</ele>
        <time>2021-12-21T14:53:39Z</time>
      </trkpt>
      <trkpt lat="43.2477910" lon="-4.8841250">
        <ele>517.9</ele>
        <time>2021-12-21T14:53:47Z</time>
      </trkpt>
      <trkpt lat="43.2478110" lon="-4.8840820">
        <ele>517.9</ele>
        <time>2021-12-21T14:53:49Z</time>
      </trkpt>
      <trkpt lat="43.2478140" lon="-4.8840530">
        <ele>518.0</ele>
        <time>2021-12-21T14:53:52Z</time>
      </trkpt>
      <trkpt lat="43.2478420" lon="-4.8840170">
        <ele>518.0</ele>
        <time>2021-12-21T14:53:54Z</time>
      </trkpt>
      <trkpt lat="43.2478590" lon="-4.8839720">
        <ele>518.0</ele>
        <time>2021-12-21T14:54:00Z</time>
      </trkpt>
      <trkpt lat="43.2478870" lon="-4.8839010">
        <ele>518.1</ele>
        <time>2021-12-21T14:54:05Z</time>
      </trkpt>
      <trkpt lat="43.2478960" lon="-4.8838810">
        <ele>518.1</ele>
        <time>2021-12-21T14:54:10Z</time>
      </trkpt>
      <trkpt lat="43.2479040" lon="-4.8838420">
        <ele>518.2</ele>
        <time>2021-12-21T14:54:15Z</time>
      </trkpt>
      <trkpt lat="43.2479370" lon="-4.8837830">
        <ele>518.3</ele>
        <time>2021-12-21T14:54:18Z</time>
      </trkpt>
      <trkpt lat="43.2479590" lon="-4.8837110">
        <ele>518.4</ele>
        <time>2021-12-21T14:54:23Z</time>
      </trkpt>
      <trkpt lat="43.2479480" lon="-4.8836620">
        <ele>518.4</ele>
        <time>2021-12-21T14:54:25Z</time>
      </trkpt>
      <trkpt lat="43.2479630" lon="-4.8835920">
        <ele>518.4</ele>
        <time>2021-12-21T14:54:31Z</time>
      </trkpt>
      <trkpt lat="43.2479730" lon="-4.8835040">
        <ele>518.5</ele>
        <time>2021-12-21T14:54:33Z</time>
      </trkpt>
      <trkpt lat="43.2479970" lon="-4.8834620">
        <ele>518.5</ele>
        <time>2021-12-21T14:54:38Z</time>
      </trkpt>
      <trkpt lat="43.2480130" lon="-4.8834420">
        <ele>518.5</ele>
        <time>2021-12-21T14:54:41Z</time>
      </trkpt>
      <trkpt lat="43.2480460" lon="-4.8834310">
        <ele>518.5</ele>
        <time>2021-12-21T14:54:43Z</time>
      </trkpt>
      <trkpt lat="43.2480870" lon="-4.8834230">
        <ele>518.5</ele>
        <time>2021-12-21T14:54:46Z</time>
      </trkpt>
      <trkpt lat="43.2481270" lon="-4.8833820">
        <ele>518.5</ele>
        <time>2021-12-21T14:54:48Z</time>
      </trkpt>
      <trkpt lat="43.2481710" lon="-4.8833340">
        <ele>518.5</ele>
        <time>2021-12-21T14:54:51Z</time>
      </trkpt>
      <trkpt lat="43.2482280" lon="-4.8832840">
        <ele>518.6</ele>
        <time>2021-12-21T14:54:54Z</time>
      </trkpt>
      <trkpt lat="43.2482830" lon="-4.8832450">
        <ele>518.6</ele>
        <time>2021-12-21T14:54:56Z</time>
      </trkpt>
      <trkpt lat="43.2483020" lon="-4.8832250">
        <ele>518.6</ele>
        <time>2021-12-21T14:54:59Z</time>
      </trkpt>
      <trkpt lat="43.2483290" lon="-4.8831940">
        <ele>518.7</ele>
        <time>2021-12-21T14:55:01Z</time>
      </trkpt>
      <trkpt lat="43.2483610" lon="-4.8831330">
        <ele>518.7</ele>
        <time>2021-12-21T14:55:14Z</time>
      </trkpt>
      <trkpt lat="43.2483830" lon="-4.8830720">
        <ele>518.7</ele>
        <time>2021-12-21T14:55:17Z</time>
      </trkpt>
      <trkpt lat="43.2484390" lon="-4.8830110">
        <ele>518.8</ele>
        <time>2021-12-21T14:55:19Z</time>
      </trkpt>
      <trkpt lat="43.2484680" lon="-4.8829910">
        <ele>518.8</ele>
        <time>2021-12-21T14:55:22Z</time>
      </trkpt>
      <trkpt lat="43.2484900" lon="-4.8829950">
        <ele>518.8</ele>
        <time>2021-12-21T14:55:27Z</time>
      </trkpt>
      <trkpt lat="43.2485070" lon="-4.8830130">
        <ele>518.8</ele>
        <time>2021-12-21T14:55:30Z</time>
      </trkpt>
      <trkpt lat="43.2485410" lon="-4.8829810">
        <ele>518.8</ele>
        <time>2021-12-21T14:55:32Z</time>
      </trkpt>
      <trkpt lat="43.2485550" lon="-4.8830520">
        <ele>518.8</ele>
        <time>2021-12-21T14:55:35Z</time>
      </trkpt>
      <trkpt lat="43.2486320" lon="-4.8831110">
        <ele>518.7</ele>
        <time>2021-12-21T14:55:40Z</time>
      </trkpt>
      <trkpt lat="43.2486500" lon="-4.8831260">
        <ele>518.6</ele>
        <time>2021-12-21T14:55:45Z</time>
      </trkpt>
      <trkpt lat="43.2486990" lon="-4.8831380">
        <ele>518.5</ele>
        <time>2021-12-21T14:55:50Z</time>
      </trkpt>
      <trkpt lat="43.2487770" lon="-4.8831590">
        <ele>518.3</ele>
        <time>2021-12-21T14:55:55Z</time>
      </trkpt>
      <trkpt lat="43.2487990" lon="-4.8831760">
        <ele>518.3</ele>
        <time>2021-12-21T14:55:58Z</time>
      </trkpt>
      <trkpt lat="43.2488300" lon="-4.8832110">
        <ele>518.1</ele>
        <time>2021-12-21T14:56:01Z</time>
      </trkpt>
      <trkpt lat="43.2488580" lon="-4.8832550">
        <ele>518.0</ele>
        <time>2021-12-21T14:56:06Z</time>
      </trkpt>
      <trkpt lat="43.2488740" lon="-4.8832690">
        <ele>517.9</ele>
        <time>2021-12-21T14:56:11Z</time>
      </trkpt>
      <trkpt lat="43.2488860" lon="-4.8832670">
        <ele>517.9</ele>
        <time>2021-12-21T14:56:24Z</time>
      </trkpt>
      <trkpt lat="43.2488910" lon="-4.8832910">
        <ele>517.8</ele>
        <time>2021-12-21T14:56:26Z</time>
      </trkpt>
      <trkpt lat="43.2490130" lon="-4.8832990">
        <ele>517.1</ele>
        <time>2021-12-21T14:56:39Z</time>
      </trkpt>
      <trkpt lat="43.2490380" lon="-4.8832960">
        <ele>516.9</ele>
        <time>2021-12-21T14:56:45Z</time>
      </trkpt>
      <trkpt lat="43.2490570" lon="-4.8832790">
        <ele>515.8</ele>
        <time>2021-12-21T14:56:50Z</time>
      </trkpt>
      <trkpt lat="43.2490780" lon="-4.8832700">
        <ele>515.3</ele>
        <time>2021-12-21T14:56:52Z</time>
      </trkpt>
      <trkpt lat="43.2491100" lon="-4.8832330">
        <ele>514.4</ele>
        <time>2021-12-21T14:56:55Z</time>
      </trkpt>
      <trkpt lat="43.2491300" lon="-4.8831780">
        <ele>513.4</ele>
        <time>2021-12-21T14:56:57Z</time>
      </trkpt>
      <trkpt lat="43.2491500" lon="-4.8831180">
        <ele>512.3</ele>
        <time>2021-12-21T14:57:03Z</time>
      </trkpt>
      <trkpt lat="43.2491750" lon="-4.8830760">
        <ele>511.5</ele>
        <time>2021-12-21T14:57:05Z</time>
      </trkpt>
      <trkpt lat="43.2491950" lon="-4.8830330">
        <ele>510.7</ele>
        <time>2021-12-21T14:57:10Z</time>
      </trkpt>
      <trkpt lat="43.2492270" lon="-4.8829720">
        <ele>509.5</ele>
        <time>2021-12-21T14:57:13Z</time>
      </trkpt>
      <trkpt lat="43.2492330" lon="-4.8829500">
        <ele>509.1</ele>
        <time>2021-12-21T14:57:15Z</time>
      </trkpt>
      <trkpt lat="43.2492570" lon="-4.8828810">
        <ele>507.9</ele>
        <time>2021-12-21T14:57:18Z</time>
      </trkpt>
      <trkpt lat="43.2492650" lon="-4.8828510">
        <ele>507.3</ele>
        <time>2021-12-21T14:57:23Z</time>
      </trkpt>
      <trkpt lat="43.2492840" lon="-4.8827720">
        <ele>506.0</ele>
        <time>2021-12-21T14:57:28Z</time>
      </trkpt>
      <trkpt lat="43.2492910" lon="-4.8827320">
        <ele>505.4</ele>
        <time>2021-12-21T14:57:31Z</time>
      </trkpt>
      <trkpt lat="43.2492890" lon="-4.8827050">
        <ele>504.9</ele>
        <time>2021-12-21T14:57:36Z</time>
      </trkpt>
      <trkpt lat="43.2493060" lon="-4.8826540">
        <ele>504.0</ele>
        <time>2021-12-21T14:57:41Z</time>
      </trkpt>
      <trkpt lat="43.2493330" lon="-4.8826110">
        <ele>503.1</ele>
        <time>2021-12-21T14:57:44Z</time>
      </trkpt>
      <trkpt lat="43.2493670" lon="-4.8825770">
        <ele>502.2</ele>
        <time>2021-12-21T14:57:49Z</time>
      </trkpt>
      <trkpt lat="43.2493970" lon="-4.8825370">
        <ele>501.3</ele>
        <time>2021-12-21T14:57:54Z</time>
      </trkpt>
      <trkpt lat="43.2494190" lon="-4.8825160">
        <ele>500.7</ele>
        <time>2021-12-21T14:57:59Z</time>
      </trkpt>
      <trkpt lat="43.2494430" lon="-4.8824850">
        <ele>500.0</ele>
        <time>2021-12-21T14:58:04Z</time>
      </trkpt>
      <trkpt lat="43.2494510" lon="-4.8824880">
        <ele>499.8</ele>
        <time>2021-12-21T14:58:10Z</time>
      </trkpt>
      <trkpt lat="43.2495110" lon="-4.8823390">
        <ele>497.1</ele>
        <time>2021-12-21T14:58:12Z</time>
      </trkpt>
      <trkpt lat="43.2495260" lon="-4.8822940">
        <ele>496.3</ele>
        <time>2021-12-21T14:58:17Z</time>
      </trkpt>
      <trkpt lat="43.2495350" lon="-4.8822630">
        <ele>495.7</ele>
        <time>2021-12-21T14:58:22Z</time>
      </trkpt>
      <trkpt lat="43.2495360" lon="-4.8822220">
        <ele>495.1</ele>
        <time>2021-12-21T14:58:28Z</time>
      </trkpt>
      <trkpt lat="43.2495580" lon="-4.8821280">
        <ele>493.5</ele>
        <time>2021-12-21T14:58:30Z</time>
      </trkpt>
      <trkpt lat="43.2495570" lon="-4.8820800">
        <ele>492.7</ele>
        <time>2021-12-21T14:58:33Z</time>
      </trkpt>
      <trkpt lat="43.2495610" lon="-4.8820540">
        <ele>492.3</ele>
        <time>2021-12-21T14:58:38Z</time>
      </trkpt>
      <trkpt lat="43.2495560" lon="-4.8820220">
        <ele>491.8</ele>
        <time>2021-12-21T14:58:41Z</time>
      </trkpt>
      <trkpt lat="43.2495390" lon="-4.8819670">
        <ele>490.8</ele>
        <time>2021-12-21T14:58:43Z</time>
      </trkpt>
      <trkpt lat="43.2495090" lon="-4.8819040">
        <ele>489.6</ele>
        <time>2021-12-21T14:58:48Z</time>
      </trkpt>
      <trkpt lat="43.2494960" lon="-4.8818320">
        <ele>488.4</ele>
        <time>2021-12-21T14:58:51Z</time>
      </trkpt>
      <trkpt lat="43.2495000" lon="-4.8817420">
        <ele>487.0</ele>
        <time>2021-12-21T14:58:56Z</time>
      </trkpt>
      <trkpt lat="43.2495000" lon="-4.8817010">
        <ele>486.3</ele>
        <time>2021-12-21T14:59:01Z</time>
      </trkpt>
      <trkpt lat="43.2495070" lon="-4.8816560">
        <ele>485.6</ele>
        <time>2021-12-21T14:59:04Z</time>
      </trkpt>
      <trkpt lat="43.2495200" lon="-4.8816140">
        <ele>484.9</ele>
        <time>2021-12-21T14:59:06Z</time>
      </trkpt>
      <trkpt lat="43.2495180" lon="-4.8816160">
        <ele>484.8</ele>
        <time>2021-12-21T14:59:09Z</time>
      </trkpt>
      <trkpt lat="43.2495310" lon="-4.8815210">
        <ele>483.3</ele>
        <time>2021-12-21T14:59:11Z</time>
      </trkpt>
      <trkpt lat="43.2495340" lon="-4.8814970">
        <ele>482.9</ele>
        <time>2021-12-21T14:59:17Z</time>
      </trkpt>
      <trkpt lat="43.2495380" lon="-4.8813700">
        <ele>480.8</ele>
        <time>2021-12-21T14:59:19Z</time>
      </trkpt>
      <trkpt lat="43.2495780" lon="-4.8812900">
        <ele>479.3</ele>
        <time>2021-12-21T14:59:22Z</time>
      </trkpt>
      <trkpt lat="43.2496440" lon="-4.8813020">
        <ele>477.8</ele>
        <time>2021-12-21T14:59:27Z</time>
      </trkpt>
      <trkpt lat="43.2496700" lon="-4.8813300">
        <ele>477.1</ele>
        <time>2021-12-21T14:59:30Z</time>
      </trkpt>
      <trkpt lat="43.2496980" lon="-4.8813660">
        <ele>476.2</ele>
        <time>2021-12-21T14:59:32Z</time>
      </trkpt>
      <trkpt lat="43.2497240" lon="-4.8813660">
        <ele>475.7</ele>
        <time>2021-12-21T14:59:37Z</time>
      </trkpt>
      <trkpt lat="43.2497800" lon="-4.8813470">
        <ele>474.4</ele>
        <time>2021-12-21T14:59:40Z</time>
      </trkpt>
      <trkpt lat="43.2498090" lon="-4.8813450">
        <ele>473.8</ele>
        <time>2021-12-21T14:59:45Z</time>
      </trkpt>
      <trkpt lat="43.2498510" lon="-4.8812990">
        <ele>472.6</ele>
        <time>2021-12-21T14:59:48Z</time>
      </trkpt>
      <trkpt lat="43.2498860" lon="-4.8812710">
        <ele>471.7</ele>
        <time>2021-12-21T14:59:50Z</time>
      </trkpt>
      <trkpt lat="43.2498970" lon="-4.8812590">
        <ele>471.4</ele>
        <time>2021-12-21T14:59:53Z</time>
      </trkpt>
      <trkpt lat="43.2499280" lon="-4.8812290">
        <ele>470.6</ele>
        <time>2021-12-21T14:59:55Z</time>
      </trkpt>
      <trkpt lat="43.2499520" lon="-4.8811850">
        <ele>469.7</ele>
        <time>2021-12-21T15:00:01Z</time>
      </trkpt>
      <trkpt lat="43.2499570" lon="-4.8811260">
        <ele>468.7</ele>
        <time>2021-12-21T15:00:06Z</time>
      </trkpt>
      <trkpt lat="43.2499410" lon="-4.8810900">
        <ele>468.1</ele>
        <time>2021-12-21T15:00:11Z</time>
      </trkpt>
      <trkpt lat="43.2499230" lon="-4.8810380">
        <ele>467.1</ele>
        <time>2021-12-21T15:00:16Z</time>
      </trkpt>
      <trkpt lat="43.2498760" lon="-4.8810080">
        <ele>466.0</ele>
        <time>2021-12-21T15:00:21Z</time>
      </trkpt>
      <trkpt lat="43.2498630" lon="-4.8809750">
        <ele>465.4</ele>
        <time>2021-12-21T15:00:26Z</time>
      </trkpt>
      <trkpt lat="43.2498440" lon="-4.8809100">
        <ele>464.3</ele>
        <time>2021-12-21T15:00:29Z</time>
      </trkpt>
      <trkpt lat="43.2498310" lon="-4.8808390">
        <ele>463.1</ele>
        <time>2021-12-21T15:00:31Z</time>
      </trkpt>
      <trkpt lat="43.2498260" lon="-4.8807690">
        <ele>462.0</ele>
        <time>2021-12-21T15:00:34Z</time>
      </trkpt>
      <trkpt lat="43.2498110" lon="-4.8806970">
        <ele>460.8</ele>
        <time>2021-12-21T15:00:39Z</time>
      </trkpt>
      <trkpt lat="43.2497810" lon="-4.8806220">
        <ele>459.4</ele>
        <time>2021-12-21T15:00:47Z</time>
      </trkpt>
      <trkpt lat="43.2497840" lon="-4.8805930">
        <ele>458.9</ele>
        <time>2021-12-21T15:00:49Z</time>
      </trkpt>
      <trkpt lat="43.2497580" lon="-4.8805240">
        <ele>457.7</ele>
        <time>2021-12-21T15:00:52Z</time>
      </trkpt>
      <trkpt lat="43.2497170" lon="-4.8805060">
        <ele>456.7</ele>
        <time>2021-12-21T15:00:55Z</time>
      </trkpt>
      <trkpt lat="43.2496760" lon="-4.8804340">
        <ele>455.3</ele>
        <time>2021-12-21T15:01:00Z</time>
      </trkpt>
      <trkpt lat="43.2496620" lon="-4.8804280">
        <ele>455.0</ele>
        <time>2021-12-21T15:01:02Z</time>
      </trkpt>
      <trkpt lat="43.2496380" lon="-4.8803910">
        <ele>454.2</ele>
        <time>2021-12-21T15:01:05Z</time>
      </trkpt>
      <trkpt lat="43.2496190" lon="-4.8803280">
        <ele>453.1</ele>
        <time>2021-12-21T15:01:07Z</time>
      </trkpt>
      <trkpt lat="43.2496090" lon="-4.8802850">
        <ele>452.4</ele>
        <time>2021-12-21T15:01:13Z</time>
      </trkpt>
      <trkpt lat="43.2495940" lon="-4.8802630">
        <ele>451.9</ele>
        <time>2021-12-21T15:01:15Z</time>
      </trkpt>
      <trkpt lat="43.2495670" lon="-4.8802170">
        <ele>450.9</ele>
        <time>2021-12-21T15:01:20Z</time>
      </trkpt>
      <trkpt lat="43.2495640" lon="-4.8801870">
        <ele>450.4</ele>
        <time>2021-12-21T15:01:26Z</time>
      </trkpt>
      <trkpt lat="43.2495960" lon="-4.8801690">
        <ele>449.7</ele>
        <time>2021-12-21T15:01:31Z</time>
      </trkpt>
      <trkpt lat="43.2495670" lon="-4.8800500">
        <ele>447.7</ele>
        <time>2021-12-21T15:01:36Z</time>
      </trkpt>
      <trkpt lat="43.2495030" lon="-4.8800120">
        <ele>446.1</ele>
        <time>2021-12-21T15:01:41Z</time>
      </trkpt>
      <trkpt lat="43.2494690" lon="-4.8800030">
        <ele>445.4</ele>
        <time>2021-12-21T15:01:46Z</time>
      </trkpt>
      <trkpt lat="43.2494460" lon="-4.8799730">
        <ele>444.7</ele>
        <time>2021-12-21T15:01:49Z</time>
      </trkpt>
      <trkpt lat="43.2494450" lon="-4.8799560">
        <ele>444.4</ele>
        <time>2021-12-21T15:01:51Z</time>
      </trkpt>
      <trkpt lat="43.2494290" lon="-4.8798610">
        <ele>442.9</ele>
        <time>2021-12-21T15:01:57Z</time>
      </trkpt>
      <trkpt lat="43.2494280" lon="-4.8798290">
        <ele>442.3</ele>
        <time>2021-12-21T15:01:59Z</time>
      </trkpt>
      <trkpt lat="43.2494140" lon="-4.8797940">
        <ele>441.7</ele>
        <time>2021-12-21T15:02:04Z</time>
      </trkpt>
      <trkpt lat="43.2494040" lon="-4.8797150">
        <ele>440.4</ele>
        <time>2021-12-21T15:02:10Z</time>
      </trkpt>
      <trkpt lat="43.2493920" lon="-4.8796790">
        <ele>439.8</ele>
        <time>2021-12-21T15:02:15Z</time>
      </trkpt>
      <trkpt lat="43.2493830" lon="-4.8796480">
        <ele>439.2</ele>
        <time>2021-12-21T15:02:20Z</time>
      </trkpt>
      <trkpt lat="43.2493550" lon="-4.8795880">
        <ele>438.1</ele>
        <time>2021-12-21T15:02:22Z</time>
      </trkpt>
      <trkpt lat="43.2493470" lon="-4.8795670">
        <ele>437.7</ele>
        <time>2021-12-21T15:02:27Z</time>
      </trkpt>
      <trkpt lat="43.2493140" lon="-4.8795070">
        <ele>436.5</ele>
        <time>2021-12-21T15:02:30Z</time>
      </trkpt>
      <trkpt lat="43.2493160" lon="-4.8794540">
        <ele>435.7</ele>
        <time>2021-12-21T15:02:35Z</time>
      </trkpt>
      <trkpt lat="43.2493250" lon="-4.8794090">
        <ele>434.9</ele>
        <time>2021-12-21T15:02:38Z</time>
      </trkpt>
      <trkpt lat="43.2493400" lon="-4.8793630">
        <ele>434.1</ele>
        <time>2021-12-21T15:02:40Z</time>
      </trkpt>
      <trkpt lat="43.2493510" lon="-4.8793370">
        <ele>433.6</ele>
        <time>2021-12-21T15:02:43Z</time>
      </trkpt>
      <trkpt lat="43.2493880" lon="-4.8792590">
        <ele>432.2</ele>
        <time>2021-12-21T15:02:45Z</time>
      </trkpt>
      <trkpt lat="43.2494160" lon="-4.8791860">
        <ele>430.8</ele>
        <time>2021-12-21T15:02:48Z</time>
      </trkpt>
      <trkpt lat="43.2494630" lon="-4.8791470">
        <ele>431.0</ele>
        <time>2021-12-21T15:02:51Z</time>
      </trkpt>
      <trkpt lat="43.2494630" lon="-4.8790630">
        <ele>432.0</ele>
        <time>2021-12-21T15:02:56Z</time>
      </trkpt>
      <trkpt lat="43.2494790" lon="-4.8790120">
        <ele>432.6</ele>
        <time>2021-12-21T15:02:58Z</time>
      </trkpt>
      <trkpt lat="43.2494450" lon="-4.8789330">
        <ele>433.6</ele>
        <time>2021-12-21T15:03:01Z</time>
      </trkpt>
      <trkpt lat="43.2494060" lon="-4.8788760">
        <ele>434.5</ele>
        <time>2021-12-21T15:03:06Z</time>
      </trkpt>
      <trkpt lat="43.2493700" lon="-4.8788520">
        <ele>435.1</ele>
        <time>2021-12-21T15:03:09Z</time>
      </trkpt>
      <trkpt lat="43.2493780" lon="-4.8788430">
        <ele>435.2</ele>
        <time>2021-12-21T15:03:14Z</time>
      </trkpt>
      <trkpt lat="43.2493970" lon="-4.8788790">
        <ele>435.7</ele>
        <time>2021-12-21T15:03:19Z</time>
      </trkpt>
      <trkpt lat="43.2494980" lon="-4.8787720">
        <ele>437.6</ele>
        <time>2021-12-21T15:03:24Z</time>
      </trkpt>
      <trkpt lat="43.2495250" lon="-4.8787400">
        <ele>438.1</ele>
        <time>2021-12-21T15:03:29Z</time>
      </trkpt>
      <trkpt lat="43.2495390" lon="-4.8787440">
        <ele>438.3</ele>
        <time>2021-12-21T15:03:34Z</time>
      </trkpt>
      <trkpt lat="43.2495690" lon="-4.8786950">
        <ele>439.0</ele>
        <time>2021-12-21T15:03:40Z</time>
      </trkpt>
      <trkpt lat="43.2496010" lon="-4.8785880">
        <ele>440.2</ele>
        <time>2021-12-21T15:03:45Z</time>
      </trkpt>
      <trkpt lat="43.2495890" lon="-4.8785400">
        <ele>440.7</ele>
        <time>2021-12-21T15:03:50Z</time>
      </trkpt>
      <trkpt lat="43.2496030" lon="-4.8785050">
        <ele>441.1</ele>
        <time>2021-12-21T15:03:52Z</time>
      </trkpt>
      <trkpt lat="43.2496210" lon="-4.8784840">
        <ele>441.4</ele>
        <time>2021-12-21T15:03:55Z</time>
      </trkpt>
      <trkpt lat="43.2496150" lon="-4.8783920">
        <ele>442.5</ele>
        <time>2021-12-21T15:04:00Z</time>
      </trkpt>
      <trkpt lat="43.2496110" lon="-4.8783580">
        <ele>442.6</ele>
        <time>2021-12-21T15:04:03Z</time>
      </trkpt>
      <trkpt lat="43.2496330" lon="-4.8782980">
        <ele>442.8</ele>
        <time>2021-12-21T15:04:05Z</time>
      </trkpt>
      <trkpt lat="43.2496550" lon="-4.8782110">
        <ele>443.1</ele>
        <time>2021-12-21T15:04:11Z</time>
      </trkpt>
      <trkpt lat="43.2496780" lon="-4.8781480">
        <ele>443.3</ele>
        <time>2021-12-21T15:04:13Z</time>
      </trkpt>
      <trkpt lat="43.2497050" lon="-4.8780960">
        <ele>443.4</ele>
        <time>2021-12-21T15:04:18Z</time>
      </trkpt>
      <trkpt lat="43.2497320" lon="-4.8780280">
        <ele>443.6</ele>
        <time>2021-12-21T15:04:21Z</time>
      </trkpt>
      <trkpt lat="43.2497530" lon="-4.8779620">
        <ele>443.8</ele>
        <time>2021-12-21T15:04:26Z</time>
      </trkpt>
      <trkpt lat="43.2497680" lon="-4.8779220">
        <ele>443.9</ele>
        <time>2021-12-21T15:04:29Z</time>
      </trkpt>
      <trkpt lat="43.2497750" lon="-4.8778980">
        <ele>444.0</ele>
        <time>2021-12-21T15:04:34Z</time>
      </trkpt>
      <trkpt lat="43.2498110" lon="-4.8778220">
        <ele>444.2</ele>
        <time>2021-12-21T15:04:39Z</time>
      </trkpt>
      <trkpt lat="43.2498180" lon="-4.8778010">
        <ele>444.3</ele>
        <time>2021-12-21T15:04:44Z</time>
      </trkpt>
      <trkpt lat="43.2498300" lon="-4.8777300">
        <ele>444.5</ele>
        <time>2021-12-21T15:04:54Z</time>
      </trkpt>
      <trkpt lat="43.2498280" lon="-4.8776490">
        <ele>444.8</ele>
        <time>2021-12-21T15:05:00Z</time>
      </trkpt>
      <trkpt lat="43.2498160" lon="-4.8775840">
        <ele>445.0</ele>
        <time>2021-12-21T15:05:05Z</time>
      </trkpt>
      <trkpt lat="43.2498270" lon="-4.8775050">
        <ele>445.3</ele>
        <time>2021-12-21T15:05:10Z</time>
      </trkpt>
      <trkpt lat="43.2498280" lon="-4.8774730">
        <ele>445.4</ele>
        <time>2021-12-21T15:05:15Z</time>
      </trkpt>
      <trkpt lat="43.2498340" lon="-4.8774020">
        <ele>445.6</ele>
        <time>2021-12-21T15:05:20Z</time>
      </trkpt>
      <trkpt lat="43.2498260" lon="-4.8773700">
        <ele>445.7</ele>
        <time>2021-12-21T15:05:25Z</time>
      </trkpt>
      <trkpt lat="43.2498190" lon="-4.8772890">
        <ele>446.0</ele>
        <time>2021-12-21T15:05:31Z</time>
      </trkpt>
      <trkpt lat="43.2498180" lon="-4.8772360">
        <ele>446.1</ele>
        <time>2021-12-21T15:05:36Z</time>
      </trkpt>
      <trkpt lat="43.2498290" lon="-4.8771990">
        <ele>446.3</ele>
        <time>2021-12-21T15:05:38Z</time>
      </trkpt>
      <trkpt lat="43.2498190" lon="-4.8771520">
        <ele>446.4</ele>
        <time>2021-12-21T15:05:43Z</time>
      </trkpt>
      <trkpt lat="43.2498210" lon="-4.8771360">
        <ele>446.4</ele>
        <time>2021-12-21T15:05:46Z</time>
      </trkpt>
      <trkpt lat="43.2498390" lon="-4.8770870">
        <ele>446.6</ele>
        <time>2021-12-21T15:05:51Z</time>
      </trkpt>
      <trkpt lat="43.2498670" lon="-4.8770500">
        <ele>446.7</ele>
        <time>2021-12-21T15:05:56Z</time>
      </trkpt>
      <trkpt lat="43.2498990" lon="-4.8769940">
        <ele>446.9</ele>
        <time>2021-12-21T15:05:59Z</time>
      </trkpt>
      <trkpt lat="43.2499030" lon="-4.8769710">
        <ele>447.0</ele>
        <time>2021-12-21T15:06:01Z</time>
      </trkpt>
      <trkpt lat="43.2499210" lon="-4.8769360">
        <ele>447.1</ele>
        <time>2021-12-21T15:06:07Z</time>
      </trkpt>
      <trkpt lat="43.2499520" lon="-4.8768570">
        <ele>447.2</ele>
        <time>2021-12-21T15:06:12Z</time>
      </trkpt>
      <trkpt lat="43.2499190" lon="-4.8768240">
        <ele>447.3</ele>
        <time>2021-12-21T15:06:17Z</time>
      </trkpt>
      <trkpt lat="43.2499070" lon="-4.8767620">
        <ele>447.3</ele>
        <time>2021-12-21T15:06:20Z</time>
      </trkpt>
      <trkpt lat="43.2498920" lon="-4.8767050">
        <ele>447.4</ele>
        <time>2021-12-21T15:06:25Z</time>
      </trkpt>
      <trkpt lat="43.2498800" lon="-4.8766500">
        <ele>447.4</ele>
        <time>2021-12-21T15:06:32Z</time>
      </trkpt>
      <trkpt lat="43.2498900" lon="-4.8766120">
        <ele>447.4</ele>
        <time>2021-12-21T15:06:38Z</time>
      </trkpt>
      <trkpt lat="43.2498880" lon="-4.8765670">
        <ele>447.5</ele>
        <time>2021-12-21T15:06:43Z</time>
      </trkpt>
      <trkpt lat="43.2498670" lon="-4.8765130">
        <ele>447.5</ele>
        <time>2021-12-21T15:06:45Z</time>
      </trkpt>
      <trkpt lat="43.2498730" lon="-4.8764400">
        <ele>447.5</ele>
        <time>2021-12-21T15:06:51Z</time>
      </trkpt>
      <trkpt lat="43.2498900" lon="-4.8763700">
        <ele>447.5</ele>
        <time>2021-12-21T15:06:56Z</time>
      </trkpt>
      <trkpt lat="43.2498940" lon="-4.8763410">
        <ele>447.5</ele>
        <time>2021-12-21T15:07:01Z</time>
      </trkpt>
      <trkpt lat="43.2499110" lon="-4.8762890">
        <ele>447.5</ele>
        <time>2021-12-21T15:07:06Z</time>
      </trkpt>
      <trkpt lat="43.2499280" lon="-4.8762110">
        <ele>447.5</ele>
        <time>2021-12-21T15:07:11Z</time>
      </trkpt>
      <trkpt lat="43.2499350" lon="-4.8761670">
        <ele>447.5</ele>
        <time>2021-12-21T15:07:16Z</time>
      </trkpt>
      <trkpt lat="43.2499330" lon="-4.8761330">
        <ele>447.6</ele>
        <time>2021-12-21T15:07:32Z</time>
      </trkpt>
      <trkpt lat="43.2498920" lon="-4.8760600">
        <ele>447.7</ele>
        <time>2021-12-21T15:07:37Z</time>
      </trkpt>
      <trkpt lat="43.2498720" lon="-4.8760430">
        <ele>447.7</ele>
        <time>2021-12-21T15:09:43Z</time>
      </trkpt>
      <trkpt lat="43.2498520" lon="-4.8759750">
        <ele>447.8</ele>
        <time>2021-12-21T15:09:48Z</time>
      </trkpt>
      <trkpt lat="43.2498470" lon="-4.8759330">
        <ele>447.9</ele>
        <time>2021-12-21T15:09:54Z</time>
      </trkpt>
      <trkpt lat="43.2498440" lon="-4.8758580">
        <ele>448.1</ele>
        <time>2021-12-21T15:09:56Z</time>
      </trkpt>
      <trkpt lat="43.2498430" lon="-4.8758150">
        <ele>448.2</ele>
        <time>2021-12-21T15:10:01Z</time>
      </trkpt>
      <trkpt lat="43.2498310" lon="-4.8757290">
        <ele>448.5</ele>
        <time>2021-12-21T15:10:04Z</time>
      </trkpt>
      <trkpt lat="43.2498240" lon="-4.8756710">
        <ele>448.7</ele>
        <time>2021-12-21T15:10:09Z</time>
      </trkpt>
      <trkpt lat="43.2498360" lon="-4.8755980">
        <ele>449.0</ele>
        <time>2021-12-21T15:10:14Z</time>
      </trkpt>
      <trkpt lat="43.2498590" lon="-4.8753930">
        <ele>450.3</ele>
        <time>2021-12-21T15:10:17Z</time>
      </trkpt>
      <trkpt lat="43.2498470" lon="-4.8753900">
        <ele>450.5</ele>
        <time>2021-12-21T15:10:22Z</time>
      </trkpt>
      <trkpt lat="43.2498410" lon="-4.8753730">
        <ele>450.6</ele>
        <time>2021-12-21T15:10:25Z</time>
      </trkpt>
      <trkpt lat="43.2498060" lon="-4.8753580">
        <ele>451.0</ele>
        <time>2021-12-21T15:10:27Z</time>
      </trkpt>
      <trkpt lat="43.2497660" lon="-4.8753220">
        <ele>451.5</ele>
        <time>2021-12-21T15:10:32Z</time>
      </trkpt>
      <trkpt lat="43.2497300" lon="-4.8753000">
        <ele>451.9</ele>
        <time>2021-12-21T15:10:37Z</time>
      </trkpt>
      <trkpt lat="43.2497430" lon="-4.8752370">
        <ele>452.4</ele>
        <time>2021-12-21T15:10:42Z</time>
      </trkpt>
      <trkpt lat="43.2497300" lon="-4.8751720">
        <ele>452.9</ele>
        <time>2021-12-21T15:10:48Z</time>
      </trkpt>
      <trkpt lat="43.2497250" lon="-4.8750960">
        <ele>453.5</ele>
        <time>2021-12-21T15:10:53Z</time>
      </trkpt>
      <trkpt lat="43.2497170" lon="-4.8750720">
        <ele>453.7</ele>
        <time>2021-12-21T15:10:55Z</time>
      </trkpt>
      <trkpt lat="43.2497020" lon="-4.8750120">
        <ele>454.3</ele>
        <time>2021-12-21T15:11:02Z</time>
      </trkpt>
      <trkpt lat="43.2496770" lon="-4.8749920">
        <ele>454.8</ele>
        <time>2021-12-21T15:11:06Z</time>
      </trkpt>
      <trkpt lat="43.2496810" lon="-4.8749070">
        <ele>455.7</ele>
        <time>2021-12-21T15:11:11Z</time>
      </trkpt>
      <trkpt lat="43.2497320" lon="-4.8748020">
        <ele>457.0</ele>
        <time>2021-12-21T15:11:16Z</time>
      </trkpt>
      <trkpt lat="43.2497510" lon="-4.8747650">
        <ele>457.3</ele>
        <time>2021-12-21T15:11:21Z</time>
      </trkpt>
      <trkpt lat="43.2497650" lon="-4.8747390">
        <ele>457.6</ele>
        <time>2021-12-21T15:11:26Z</time>
      </trkpt>
      <trkpt lat="43.2497790" lon="-4.8746800">
        <ele>458.1</ele>
        <time>2021-12-21T15:11:31Z</time>
      </trkpt>
      <trkpt lat="43.2498020" lon="-4.8746550">
        <ele>458.4</ele>
        <time>2021-12-21T15:11:37Z</time>
      </trkpt>
      <trkpt lat="43.2498260" lon="-4.8745970">
        <ele>459.0</ele>
        <time>2021-12-21T15:11:39Z</time>
      </trkpt>
      <trkpt lat="43.2498440" lon="-4.8745740">
        <ele>459.2</ele>
        <time>2021-12-21T15:11:42Z</time>
      </trkpt>
      <trkpt lat="43.2498480" lon="-4.8745550">
        <ele>459.4</ele>
        <time>2021-12-21T15:11:44Z</time>
      </trkpt>
      <trkpt lat="43.2498780" lon="-4.8744740">
        <ele>460.1</ele>
        <time>2021-12-21T15:11:47Z</time>
      </trkpt>
      <trkpt lat="43.2498680" lon="-4.8743890">
        <ele>460.8</ele>
        <time>2021-12-21T15:11:52Z</time>
      </trkpt>
      <trkpt lat="43.2498740" lon="-4.8743200">
        <ele>461.3</ele>
        <time>2021-12-21T15:11:55Z</time>
      </trkpt>
      <trkpt lat="43.2498700" lon="-4.8743020">
        <ele>461.4</ele>
        <time>2021-12-21T15:11:57Z</time>
      </trkpt>
      <trkpt lat="43.2498860" lon="-4.8742270">
        <ele>462.0</ele>
        <time>2021-12-21T15:12:00Z</time>
      </trkpt>
      <trkpt lat="43.2499300" lon="-4.8741870">
        <ele>462.5</ele>
        <time>2021-12-21T15:12:05Z</time>
      </trkpt>
      <trkpt lat="43.2499750" lon="-4.8741610">
        <ele>463.1</ele>
        <time>2021-12-21T15:12:10Z</time>
      </trkpt>
      <trkpt lat="43.2500180" lon="-4.8741420">
        <ele>463.6</ele>
        <time>2021-12-21T15:12:15Z</time>
      </trkpt>
      <trkpt lat="43.2500520" lon="-4.8741370">
        <ele>463.9</ele>
        <time>2021-12-21T15:12:18Z</time>
      </trkpt>
      <trkpt lat="43.2500800" lon="-4.8741370">
        <ele>464.3</ele>
        <time>2021-12-21T15:12:23Z</time>
      </trkpt>
      <trkpt lat="43.2501520" lon="-4.8741620">
        <ele>465.1</ele>
        <time>2021-12-21T15:12:28Z</time>
      </trkpt>
      <trkpt lat="43.2501480" lon="-4.8741610">
        <ele>465.1</ele>
        <time>2021-12-21T15:12:31Z</time>
      </trkpt>
      <trkpt lat="43.2503150" lon="-4.8742060">
        <ele>467.0</ele>
        <time>2021-12-21T15:12:33Z</time>
      </trkpt>
      <trkpt lat="43.2503520" lon="-4.8741770">
        <ele>467.5</ele>
        <time>2021-12-21T15:12:36Z</time>
      </trkpt>
      <trkpt lat="43.2504130" lon="-4.8741620">
        <ele>468.1</ele>
        <time>2021-12-21T15:12:39Z</time>
      </trkpt>
      <trkpt lat="43.2504310" lon="-4.8741670">
        <ele>468.3</ele>
        <time>2021-12-21T15:12:44Z</time>
      </trkpt>
      <trkpt lat="43.2504790" lon="-4.8742060">
        <ele>468.9</ele>
        <time>2021-12-21T15:12:46Z</time>
      </trkpt>
      <trkpt lat="43.2505080" lon="-4.8742240">
        <ele>469.2</ele>
        <time>2021-12-21T15:12:49Z</time>
      </trkpt>
      <trkpt lat="43.2505550" lon="-4.8742670">
        <ele>469.7</ele>
        <time>2021-12-21T15:12:51Z</time>
      </trkpt>
      <trkpt lat="43.2506220" lon="-4.8742990">
        <ele>470.3</ele>
        <time>2021-12-21T15:12:57Z</time>
      </trkpt>
      <trkpt lat="43.2506420" lon="-4.8743240">
        <ele>470.5</ele>
        <time>2021-12-21T15:12:59Z</time>
      </trkpt>
      <trkpt lat="43.2507140" lon="-4.8743400">
        <ele>471.2</ele>
        <time>2021-12-21T15:13:02Z</time>
      </trkpt>
      <trkpt lat="43.2507370" lon="-4.8743640">
        <ele>471.4</ele>
        <time>2021-12-21T15:13:07Z</time>
      </trkpt>
      <trkpt lat="43.2507570" lon="-4.8743690">
        <ele>471.6</ele>
        <time>2021-12-21T15:13:12Z</time>
      </trkpt>
      <trkpt lat="43.2507810" lon="-4.8743750">
        <ele>471.8</ele>
        <time>2021-12-21T15:13:17Z</time>
      </trkpt>
      <trkpt lat="43.2508220" lon="-4.8743650">
        <ele>472.1</ele>
        <time>2021-12-21T15:13:20Z</time>
      </trkpt>
      <trkpt lat="43.2508710" lon="-4.8743570">
        <ele>472.4</ele>
        <time>2021-12-21T15:13:22Z</time>
      </trkpt>
      <trkpt lat="43.2509250" lon="-4.8743270">
        <ele>472.8</ele>
        <time>2021-12-21T15:13:25Z</time>
      </trkpt>
      <trkpt lat="43.2509790" lon="-4.8743380">
        <ele>473.3</ele>
        <time>2021-12-21T15:13:30Z</time>
      </trkpt>
      <trkpt lat="43.2509950" lon="-4.8743350">
        <ele>473.4</ele>
        <time>2021-12-21T15:13:33Z</time>
      </trkpt>
      <trkpt lat="43.2510360" lon="-4.8742980">
        <ele>473.8</ele>
        <time>2021-12-21T15:13:38Z</time>
      </trkpt>
      <trkpt lat="43.2510410" lon="-4.8742550">
        <ele>474.1</ele>
        <time>2021-12-21T15:13:40Z</time>
      </trkpt>
      <trkpt lat="43.2510350" lon="-4.8742100">
        <ele>474.4</ele>
        <time>2021-12-21T15:13:45Z</time>
      </trkpt>
      <trkpt lat="43.2510190" lon="-4.8741620">
        <ele>474.7</ele>
        <time>2021-12-21T15:13:51Z</time>
      </trkpt>
      <trkpt lat="43.2509890" lon="-4.8741370">
        <ele>475.1</ele>
        <time>2021-12-21T15:13:56Z</time>
      </trkpt>
      <trkpt lat="43.2509530" lon="-4.8741330">
        <ele>475.4</ele>
        <time>2021-12-21T15:14:01Z</time>
      </trkpt>
      <trkpt lat="43.2509100" lon="-4.8741160">
        <ele>475.9</ele>
        <time>2021-12-21T15:14:06Z</time>
      </trkpt>
      <trkpt lat="43.2508530" lon="-4.8740470">
        <ele>476.6</ele>
        <time>2021-12-21T15:14:11Z</time>
      </trkpt>
      <trkpt lat="43.2508260" lon="-4.8740300">
        <ele>476.9</ele>
        <time>2021-12-21T15:14:16Z</time>
      </trkpt>
      <trkpt lat="43.2507890" lon="-4.8740020">
        <ele>477.2</ele>
        <time>2021-12-21T15:14:19Z</time>
      </trkpt>
      <trkpt lat="43.2507690" lon="-4.8739860">
        <ele>477.4</ele>
        <time>2021-12-21T15:14:53Z</time>
      </trkpt>
      <trkpt lat="43.2507600" lon="-4.8739590">
        <ele>477.6</ele>
        <time>2021-12-21T15:14:58Z</time>
      </trkpt>
      <trkpt lat="43.2507770" lon="-4.8738890">
        <ele>478.0</ele>
        <time>2021-12-21T15:15:00Z</time>
      </trkpt>
      <trkpt lat="43.2507830" lon="-4.8738380">
        <ele>478.3</ele>
        <time>2021-12-21T15:15:08Z</time>
      </trkpt>
      <trkpt lat="43.2507840" lon="-4.8738110">
        <ele>478.4</ele>
        <time>2021-12-21T15:15:11Z</time>
      </trkpt>
      <trkpt lat="43.2507920" lon="-4.8737730">
        <ele>478.7</ele>
        <time>2021-12-21T15:15:13Z</time>
      </trkpt>
      <trkpt lat="43.2508080" lon="-4.8737350">
        <ele>478.9</ele>
        <time>2021-12-21T15:15:16Z</time>
      </trkpt>
      <trkpt lat="43.2507850" lon="-4.8736590">
        <ele>479.3</ele>
        <time>2021-12-21T15:15:18Z</time>
      </trkpt>
      <trkpt lat="43.2507550" lon="-4.8735870">
        <ele>479.7</ele>
        <time>2021-12-21T15:15:21Z</time>
      </trkpt>
      <trkpt lat="43.2507620" lon="-4.8735410">
        <ele>479.9</ele>
        <time>2021-12-21T15:15:26Z</time>
      </trkpt>
      <trkpt lat="43.2507220" lon="-4.8734850">
        <ele>480.2</ele>
        <time>2021-12-21T15:15:29Z</time>
      </trkpt>
      <trkpt lat="43.2507660" lon="-4.8733600">
        <ele>480.8</ele>
        <time>2021-12-21T15:15:31Z</time>
      </trkpt>
      <trkpt lat="43.2508130" lon="-4.8732670">
        <ele>481.1</ele>
        <time>2021-12-21T15:15:34Z</time>
      </trkpt>
      <trkpt lat="43.2508230" lon="-4.8732330">
        <ele>481.2</ele>
        <time>2021-12-21T15:15:36Z</time>
      </trkpt>
      <trkpt lat="43.2508240" lon="-4.8731790">
        <ele>481.3</ele>
        <time>2021-12-21T15:15:39Z</time>
      </trkpt>
      <trkpt lat="43.2508260" lon="-4.8731330">
        <ele>481.3</ele>
        <time>2021-12-21T15:15:44Z</time>
      </trkpt>
      <trkpt lat="43.2508750" lon="-4.8730720">
        <ele>481.3</ele>
        <time>2021-12-21T15:15:47Z</time>
      </trkpt>
      <trkpt lat="43.2509060" lon="-4.8730760">
        <ele>481.2</ele>
        <time>2021-12-21T15:15:49Z</time>
      </trkpt>
      <trkpt lat="43.2509470" lon="-4.8730900">
        <ele>481.1</ele>
        <time>2021-12-21T15:15:52Z</time>
      </trkpt>
      <trkpt lat="43.2509690" lon="-4.8730980">
        <ele>481.0</ele>
        <time>2021-12-21T15:15:54Z</time>
      </trkpt>
      <trkpt lat="43.2510340" lon="-4.8731580">
        <ele>480.7</ele>
        <time>2021-12-21T15:15:57Z</time>
      </trkpt>
      <trkpt lat="43.2510540" lon="-4.8731690">
        <ele>480.5</ele>
        <time>2021-12-21T15:16:02Z</time>
      </trkpt>
      <trkpt lat="43.2510970" lon="-4.8731890">
        <ele>480.3</ele>
        <time>2021-12-21T15:16:05Z</time>
      </trkpt>
      <trkpt lat="43.2511500" lon="-4.8732240">
        <ele>480.0</ele>
        <time>2021-12-21T15:16:07Z</time>
      </trkpt>
      <trkpt lat="43.2511960" lon="-4.8732320">
        <ele>479.8</ele>
        <time>2021-12-21T15:16:13Z</time>
      </trkpt>
      <trkpt lat="43.2512550" lon="-4.8732050">
        <ele>479.5</ele>
        <time>2021-12-21T15:16:18Z</time>
      </trkpt>
      <trkpt lat="43.2512790" lon="-4.8731940">
        <ele>479.4</ele>
        <time>2021-12-21T15:16:23Z</time>
      </trkpt>
      <trkpt lat="43.2512960" lon="-4.8731860">
        <ele>479.4</ele>
        <time>2021-12-21T15:16:25Z</time>
      </trkpt>
      <trkpt lat="43.2513250" lon="-4.8731710">
        <ele>479.3</ele>
        <time>2021-12-21T15:16:28Z</time>
      </trkpt>
      <trkpt lat="43.2513830" lon="-4.8731930">
        <ele>479.2</ele>
        <time>2021-12-21T15:16:31Z</time>
      </trkpt>
      <trkpt lat="43.2513980" lon="-4.8732100">
        <ele>479.2</ele>
        <time>2021-12-21T15:16:36Z</time>
      </trkpt>
      <trkpt lat="43.2514570" lon="-4.8732390">
        <ele>479.3</ele>
        <time>2021-12-21T15:16:41Z</time>
      </trkpt>
      <trkpt lat="43.2514740" lon="-4.8732410">
        <ele>479.3</ele>
        <time>2021-12-21T15:16:46Z</time>
      </trkpt>
      <trkpt lat="43.2515160" lon="-4.8732100">
        <ele>479.5</ele>
        <time>2021-12-21T15:16:49Z</time>
      </trkpt>
      <trkpt lat="43.2515580" lon="-4.8731720">
        <ele>479.6</ele>
        <time>2021-12-21T15:16:54Z</time>
      </trkpt>
      <trkpt lat="43.2515780" lon="-4.8731200">
        <ele>480.0</ele>
        <time>2021-12-21T15:16:56Z</time>
      </trkpt>
      <trkpt lat="43.2515830" lon="-4.8730710">
        <ele>480.0</ele>
        <time>2021-12-21T15:17:02Z</time>
      </trkpt>
      <trkpt lat="43.2515870" lon="-4.8729930">
        <ele>472.2</ele>
        <time>2021-12-21T15:17:12Z</time>
      </trkpt>
      <trkpt lat="43.2516000" lon="-4.8729530">
        <ele>472.2</ele>
        <time>2021-12-21T15:17:14Z</time>
      </trkpt>
      <trkpt lat="43.2516200" lon="-4.8729260">
        <ele>472.2</ele>
        <time>2021-12-21T15:17:19Z</time>
      </trkpt>
      <trkpt lat="43.2516320" lon="-4.8729250">
        <ele>472.2</ele>
        <time>2021-12-21T15:17:25Z</time>
      </trkpt>
      <trkpt lat="43.2516040" lon="-4.8730440">
        <ele>472.2</ele>
        <time>2021-12-21T15:17:53Z</time>
      </trkpt>
      <trkpt lat="43.2515580" lon="-4.8730860">
        <ele>472.2</ele>
        <time>2021-12-21T15:17:56Z</time>
      </trkpt>
      <trkpt lat="43.2515430" lon="-4.8731020">
        <ele>472.2</ele>
        <time>2021-12-21T15:18:01Z</time>
      </trkpt>
      <trkpt lat="43.2514330" lon="-4.8730130">
        <ele>476.3</ele>
        <time>2021-12-21T15:18:03Z</time>
      </trkpt>
      <trkpt lat="43.2513880" lon="-4.8729780">
        <ele>477.0</ele>
        <time>2021-12-21T15:18:09Z</time>
      </trkpt>
      <trkpt lat="43.2513600" lon="-4.8729610">
        <ele>477.4</ele>
        <time>2021-12-21T15:18:14Z</time>
      </trkpt>
      <trkpt lat="43.2513260" lon="-4.8729190">
        <ele>478.1</ele>
        <time>2021-12-21T15:18:16Z</time>
      </trkpt>
      <trkpt lat="43.2513090" lon="-4.8728970">
        <ele>478.4</ele>
        <time>2021-12-21T15:18:21Z</time>
      </trkpt>
      <trkpt lat="43.2512910" lon="-4.8728670">
        <ele>478.8</ele>
        <time>2021-12-21T15:18:24Z</time>
      </trkpt>
      <trkpt lat="43.2512990" lon="-4.8727390">
        <ele>480.2</ele>
        <time>2021-12-21T15:18:27Z</time>
      </trkpt>
      <trkpt lat="43.2513030" lon="-4.8726810">
        <ele>480.8</ele>
        <time>2021-12-21T15:18:32Z</time>
      </trkpt>
      <trkpt lat="43.2513070" lon="-4.8726490">
        <ele>481.1</ele>
        <time>2021-12-21T15:18:37Z</time>
      </trkpt>
      <trkpt lat="43.2513080" lon="-4.8726010">
        <ele>481.7</ele>
        <time>2021-12-21T15:18:39Z</time>
      </trkpt>
      <trkpt lat="43.2513010" lon="-4.8725700">
        <ele>482.0</ele>
        <time>2021-12-21T15:18:42Z</time>
      </trkpt>
      <trkpt lat="43.2512850" lon="-4.8725290">
        <ele>482.5</ele>
        <time>2021-12-21T15:18:45Z</time>
      </trkpt>
      <trkpt lat="43.2512640" lon="-4.8724460">
        <ele>483.4</ele>
        <time>2021-12-21T15:18:47Z</time>
      </trkpt>
      <trkpt lat="43.2512420" lon="-4.8724060">
        <ele>483.9</ele>
        <time>2021-12-21T15:18:50Z</time>
      </trkpt>
      <trkpt lat="43.2512260" lon="-4.8723680">
        <ele>484.4</ele>
        <time>2021-12-21T15:18:52Z</time>
      </trkpt>
      <trkpt lat="43.2512100" lon="-4.8723310">
        <ele>484.8</ele>
        <time>2021-12-21T15:18:57Z</time>
      </trkpt>
      <trkpt lat="43.2512000" lon="-4.8723180">
        <ele>485.0</ele>
        <time>2021-12-21T15:19:00Z</time>
      </trkpt>
      <trkpt lat="43.2511840" lon="-4.8722670">
        <ele>485.6</ele>
        <time>2021-12-21T15:19:03Z</time>
      </trkpt>
      <trkpt lat="43.2511510" lon="-4.8721900">
        <ele>486.6</ele>
        <time>2021-12-21T15:19:08Z</time>
      </trkpt>
      <trkpt lat="43.2511380" lon="-4.8721630">
        <ele>486.9</ele>
        <time>2021-12-21T15:19:10Z</time>
      </trkpt>
      <trkpt lat="43.2511260" lon="-4.8721330">
        <ele>487.3</ele>
        <time>2021-12-21T15:19:13Z</time>
      </trkpt>
      <trkpt lat="43.2510670" lon="-4.8720890">
        <ele>488.2</ele>
        <time>2021-12-21T15:19:16Z</time>
      </trkpt>
      <trkpt lat="43.2510350" lon="-4.8720370">
        <ele>488.9</ele>
        <time>2021-12-21T15:19:18Z</time>
      </trkpt>
      <trkpt lat="43.2510210" lon="-4.8719380">
        <ele>490.0</ele>
        <time>2021-12-21T15:19:21Z</time>
      </trkpt>
      <trkpt lat="43.2510200" lon="-4.8718780">
        <ele>490.6</ele>
        <time>2021-12-21T15:19:26Z</time>
      </trkpt>
      <trkpt lat="43.2510340" lon="-4.8718240">
        <ele>491.2</ele>
        <time>2021-12-21T15:19:29Z</time>
      </trkpt>
      <trkpt lat="43.2510510" lon="-4.8718010">
        <ele>491.6</ele>
        <time>2021-12-21T15:19:31Z</time>
      </trkpt>
      <trkpt lat="43.2510480" lon="-4.8717370">
        <ele>492.3</ele>
        <time>2021-12-21T15:19:34Z</time>
      </trkpt>
      <trkpt lat="43.2510710" lon="-4.8716670">
        <ele>493.1</ele>
        <time>2021-12-21T15:19:36Z</time>
      </trkpt>
      <trkpt lat="43.2510880" lon="-4.8715960">
        <ele>493.9</ele>
        <time>2021-12-21T15:19:41Z</time>
      </trkpt>
      <trkpt lat="43.2510960" lon="-4.8715520">
        <ele>494.3</ele>
        <time>2021-12-21T15:19:44Z</time>
      </trkpt>
      <trkpt lat="43.2511120" lon="-4.8714930">
        <ele>495.0</ele>
        <time>2021-12-21T15:19:49Z</time>
      </trkpt>
      <trkpt lat="43.2511080" lon="-4.8714620">
        <ele>495.3</ele>
        <time>2021-12-21T15:19:52Z</time>
      </trkpt>
      <trkpt lat="43.2511170" lon="-4.8714210">
        <ele>495.8</ele>
        <time>2021-12-21T15:19:54Z</time>
      </trkpt>
      <trkpt lat="43.2511540" lon="-4.8713160">
        <ele>497.0</ele>
        <time>2021-12-21T15:19:57Z</time>
      </trkpt>
      <trkpt lat="43.2511720" lon="-4.8712910">
        <ele>497.4</ele>
        <time>2021-12-21T15:19:59Z</time>
      </trkpt>
      <trkpt lat="43.2512110" lon="-4.8712560">
        <ele>498.0</ele>
        <time>2021-12-21T15:20:02Z</time>
      </trkpt>
      <trkpt lat="43.2512060" lon="-4.8712330">
        <ele>498.3</ele>
        <time>2021-12-21T15:20:05Z</time>
      </trkpt>
      <trkpt lat="43.2512690" lon="-4.8711480">
        <ele>499.6</ele>
        <time>2021-12-21T15:20:10Z</time>
      </trkpt>
      <trkpt lat="43.2512900" lon="-4.8711320">
        <ele>499.9</ele>
        <time>2021-12-21T15:20:15Z</time>
      </trkpt>
      <trkpt lat="43.2512630" lon="-4.8710220">
        <ele>501.1</ele>
        <time>2021-12-21T15:20:20Z</time>
      </trkpt>
      <trkpt lat="43.2512630" lon="-4.8709890">
        <ele>501.5</ele>
        <time>2021-12-21T15:20:25Z</time>
      </trkpt>
      <trkpt lat="43.2512920" lon="-4.8709090">
        <ele>502.4</ele>
        <time>2021-12-21T15:20:30Z</time>
      </trkpt>
      <trkpt lat="43.2513420" lon="-4.8708480">
        <ele>503.4</ele>
        <time>2021-12-21T15:20:38Z</time>
      </trkpt>
      <trkpt lat="43.2513470" lon="-4.8708240">
        <ele>503.6</ele>
        <time>2021-12-21T15:20:43Z</time>
      </trkpt>
      <trkpt lat="43.2513900" lon="-4.8707670">
        <ele>504.5</ele>
        <time>2021-12-21T15:20:48Z</time>
      </trkpt>
      <trkpt lat="43.2514160" lon="-4.8707340">
        <ele>505.0</ele>
        <time>2021-12-21T15:20:51Z</time>
      </trkpt>
      <trkpt lat="43.2514380" lon="-4.8706950">
        <ele>505.5</ele>
        <time>2021-12-21T15:20:54Z</time>
      </trkpt>
      <trkpt lat="43.2514590" lon="-4.8706270">
        <ele>506.3</ele>
        <time>2021-12-21T15:20:56Z</time>
      </trkpt>
      <trkpt lat="43.2514850" lon="-4.8705520">
        <ele>507.2</ele>
        <time>2021-12-21T15:20:59Z</time>
      </trkpt>
      <trkpt lat="43.2514930" lon="-4.8705250">
        <ele>507.5</ele>
        <time>2021-12-21T15:21:01Z</time>
      </trkpt>
      <trkpt lat="43.2515100" lon="-4.8704810">
        <ele>508.0</ele>
        <time>2021-12-21T15:21:04Z</time>
      </trkpt>
      <trkpt lat="43.2515270" lon="-4.8704380">
        <ele>508.5</ele>
        <time>2021-12-21T15:21:07Z</time>
      </trkpt>
      <trkpt lat="43.2515360" lon="-4.8704080">
        <ele>508.9</ele>
        <time>2021-12-21T15:21:12Z</time>
      </trkpt>
      <trkpt lat="43.2515530" lon="-4.8703700">
        <ele>509.3</ele>
        <time>2021-12-21T15:21:17Z</time>
      </trkpt>
      <trkpt lat="43.2515660" lon="-4.8703450">
        <ele>509.7</ele>
        <time>2021-12-21T15:21:19Z</time>
      </trkpt>
      <trkpt lat="43.2516120" lon="-4.8702920">
        <ele>510.5</ele>
        <time>2021-12-21T15:21:22Z</time>
      </trkpt>
      <trkpt lat="43.2516420" lon="-4.8702680">
        <ele>511.0</ele>
        <time>2021-12-21T15:21:27Z</time>
      </trkpt>
      <trkpt lat="43.2516770" lon="-4.8702490">
        <ele>511.6</ele>
        <time>2021-12-21T15:21:32Z</time>
      </trkpt>
      <trkpt lat="43.2517430" lon="-4.8702400">
        <ele>512.5</ele>
        <time>2021-12-21T15:21:37Z</time>
      </trkpt>
      <trkpt lat="43.2517670" lon="-4.8702300">
        <ele>512.9</ele>
        <time>2021-12-21T15:21:40Z</time>
      </trkpt>
      <trkpt lat="43.2518050" lon="-4.8702210">
        <ele>513.4</ele>
        <time>2021-12-21T15:21:43Z</time>
      </trkpt>
      <trkpt lat="43.2518350" lon="-4.8702080">
        <ele>513.9</ele>
        <time>2021-12-21T15:21:45Z</time>
      </trkpt>
      <trkpt lat="43.2518520" lon="-4.8701810">
        <ele>514.3</ele>
        <time>2021-12-21T15:21:48Z</time>
      </trkpt>
      <trkpt lat="43.2518870" lon="-4.8701690">
        <ele>514.8</ele>
        <time>2021-12-21T15:21:50Z</time>
      </trkpt>
      <trkpt lat="43.2519400" lon="-4.8701230">
        <ele>515.7</ele>
        <time>2021-12-21T15:21:53Z</time>
      </trkpt>
      <trkpt lat="43.2519720" lon="-4.8701040">
        <ele>516.2</ele>
        <time>2021-12-21T15:21:55Z</time>
      </trkpt>
      <trkpt lat="43.2519970" lon="-4.8700900">
        <ele>516.6</ele>
        <time>2021-12-21T15:21:58Z</time>
      </trkpt>
      <trkpt lat="43.2520300" lon="-4.8700740">
        <ele>517.1</ele>
        <time>2021-12-21T15:22:01Z</time>
      </trkpt>
      <trkpt lat="43.2520470" lon="-4.8700570">
        <ele>517.4</ele>
        <time>2021-12-21T15:22:06Z</time>
      </trkpt>
      <trkpt lat="43.2521030" lon="-4.8700160">
        <ele>518.3</ele>
        <time>2021-12-21T15:22:08Z</time>
      </trkpt>
      <trkpt lat="43.2521380" lon="-4.8700030">
        <ele>518.8</ele>
        <time>2021-12-21T15:22:11Z</time>
      </trkpt>
      <trkpt lat="43.2522060" lon="-4.8700110">
        <ele>519.8</ele>
        <time>2021-12-21T15:22:16Z</time>
      </trkpt>
      <trkpt lat="43.2522400" lon="-4.8700420">
        <ele>520.4</ele>
        <time>2021-12-21T15:22:19Z</time>
      </trkpt>
      <trkpt lat="43.2522610" lon="-4.8700540">
        <ele>520.7</ele>
        <time>2021-12-21T15:22:21Z</time>
      </trkpt>
      <trkpt lat="43.2523000" lon="-4.8700670">
        <ele>521.3</ele>
        <time>2021-12-21T15:22:24Z</time>
      </trkpt>
      <trkpt lat="43.2523200" lon="-4.8700950">
        <ele>521.7</ele>
        <time>2021-12-21T15:22:26Z</time>
      </trkpt>
      <trkpt lat="43.2523250" lon="-4.8701450">
        <ele>522.3</ele>
        <time>2021-12-21T15:22:32Z</time>
      </trkpt>
      <trkpt lat="43.2523310" lon="-4.8701760">
        <ele>522.6</ele>
        <time>2021-12-21T15:22:37Z</time>
      </trkpt>
      <trkpt lat="43.2523470" lon="-4.8702210">
        <ele>523.1</ele>
        <time>2021-12-21T15:22:42Z</time>
      </trkpt>
      <trkpt lat="43.2523860" lon="-4.8702440">
        <ele>523.7</ele>
        <time>2021-12-21T15:22:47Z</time>
      </trkpt>
      <trkpt lat="43.2524400" lon="-4.8702340">
        <ele>526.2</ele>
        <time>2021-12-21T15:22:52Z</time>
      </trkpt>
      <trkpt lat="43.2524820" lon="-4.8702330">
        <ele>544.8</ele>
        <time>2021-12-21T15:22:57Z</time>
      </trkpt>
      <trkpt lat="43.2524880" lon="-4.8702460">
        <ele>547.3</ele>
        <time>2021-12-21T15:23:03Z</time>
      </trkpt>
      <trkpt lat="43.2523790" lon="-4.8702590">
        <ele>533.8</ele>
        <time>2021-12-21T15:23:08Z</time>
      </trkpt>
      <trkpt lat="43.2523490" lon="-4.8702820">
        <ele>536.3</ele>
        <time>2021-12-21T15:23:10Z</time>
      </trkpt>
      <trkpt lat="43.2522920" lon="-4.8702500">
        <ele>525.5</ele>
        <time>2021-12-21T15:23:13Z</time>
      </trkpt>
      <trkpt lat="43.2522780" lon="-4.8701770">
        <ele>524.0</ele>
        <time>2021-12-21T15:23:18Z</time>
      </trkpt>
      <trkpt lat="43.2522590" lon="-4.8701160">
        <ele>526.5</ele>
        <time>2021-12-21T15:23:23Z</time>
      </trkpt>
      <trkpt lat="43.2522480" lon="-4.8700780">
        <ele>529.0</ele>
        <time>2021-12-21T15:23:28Z</time>
      </trkpt>
      <trkpt lat="43.2522330" lon="-4.8700220">
        <ele>527.2</ele>
        <time>2021-12-21T15:23:33Z</time>
      </trkpt>
      <trkpt lat="43.2522300" lon="-4.8699820">
        <ele>529.7</ele>
        <time>2021-12-21T15:23:36Z</time>
      </trkpt>
      <trkpt lat="43.2522130" lon="-4.8699450">
        <ele>532.2</ele>
        <time>2021-12-21T15:23:41Z</time>
      </trkpt>
      <trkpt lat="43.2521800" lon="-4.8699050">
        <ele>520.1</ele>
        <time>2021-12-21T15:23:46Z</time>
      </trkpt>
      <trkpt lat="43.2521530" lon="-4.8698430">
        <ele>518.7</ele>
        <time>2021-12-21T15:23:49Z</time>
      </trkpt>
      <trkpt lat="43.2520720" lon="-4.8698090">
        <ele>509.2</ele>
        <time>2021-12-21T15:23:54Z</time>
      </trkpt>
      <trkpt lat="43.2520640" lon="-4.8697820">
        <ele>511.7</ele>
        <time>2021-12-21T15:26:18Z</time>
      </trkpt>
      <trkpt lat="43.2520620" lon="-4.8697250">
        <ele>514.2</ele>
        <time>2021-12-21T15:26:21Z</time>
      </trkpt>
      <trkpt lat="43.2520480" lon="-4.8696580">
        <ele>512.3</ele>
        <time>2021-12-21T15:26:23Z</time>
      </trkpt>
      <trkpt lat="43.2520390" lon="-4.8695720">
        <ele>514.8</ele>
        <time>2021-12-21T15:26:26Z</time>
      </trkpt>
      <trkpt lat="43.2521810" lon="-4.8694160">
        <ele>525.1</ele>
        <time>2021-12-21T15:26:29Z</time>
      </trkpt>
      <trkpt lat="43.2522840" lon="-4.8693060">
        <ele>537.8</ele>
        <time>2021-12-21T15:26:31Z</time>
      </trkpt>
      <trkpt lat="43.2523690" lon="-4.8692110">
        <ele>539.5</ele>
        <time>2021-12-21T15:26:34Z</time>
      </trkpt>
      <trkpt lat="43.2523960" lon="-4.8691700">
        <ele>540.1</ele>
        <time>2021-12-21T15:26:36Z</time>
      </trkpt>
      <trkpt lat="43.2524340" lon="-4.8691290">
        <ele>540.8</ele>
        <time>2021-12-21T15:26:42Z</time>
      </trkpt>
      <trkpt lat="43.2524590" lon="-4.8691180">
        <ele>541.2</ele>
        <time>2021-12-21T15:26:44Z</time>
      </trkpt>
      <trkpt lat="43.2524970" lon="-4.8691040">
        <ele>541.8</ele>
        <time>2021-12-21T15:26:47Z</time>
      </trkpt>
      <trkpt lat="43.2525230" lon="-4.8691030">
        <ele>542.2</ele>
        <time>2021-12-21T15:26:49Z</time>
      </trkpt>
      <trkpt lat="43.2525530" lon="-4.8690950">
        <ele>542.6</ele>
        <time>2021-12-21T15:26:52Z</time>
      </trkpt>
      <trkpt lat="43.2525840" lon="-4.8690910">
        <ele>543.1</ele>
        <time>2021-12-21T15:26:57Z</time>
      </trkpt>
      <trkpt lat="43.2526340" lon="-4.8690590">
        <ele>543.9</ele>
        <time>2021-12-21T15:27:00Z</time>
      </trkpt>
      <trkpt lat="43.2526540" lon="-4.8690550">
        <ele>544.2</ele>
        <time>2021-12-21T15:27:02Z</time>
      </trkpt>
      <trkpt lat="43.2526790" lon="-4.8690260">
        <ele>544.7</ele>
        <time>2021-12-21T15:27:05Z</time>
      </trkpt>
      <trkpt lat="43.2527230" lon="-4.8689850">
        <ele>545.5</ele>
        <time>2021-12-21T15:27:07Z</time>
      </trkpt>
      <trkpt lat="43.2527500" lon="-4.8689550">
        <ele>546.1</ele>
        <time>2021-12-21T15:27:10Z</time>
      </trkpt>
      <trkpt lat="43.2527730" lon="-4.8689500">
        <ele>546.4</ele>
        <time>2021-12-21T15:27:12Z</time>
      </trkpt>
      <trkpt lat="43.2528020" lon="-4.8689280">
        <ele>546.9</ele>
        <time>2021-12-21T15:27:18Z</time>
      </trkpt>
      <trkpt lat="43.2528250" lon="-4.8689210">
        <ele>547.3</ele>
        <time>2021-12-21T15:27:20Z</time>
      </trkpt>
      <trkpt lat="43.2528720" lon="-4.8688780">
        <ele>548.1</ele>
        <time>2021-12-21T15:27:23Z</time>
      </trkpt>
      <trkpt lat="43.2529080" lon="-4.8688280">
        <ele>548.9</ele>
        <time>2021-12-21T15:27:25Z</time>
      </trkpt>
      <trkpt lat="43.2529260" lon="-4.8687680">
        <ele>549.6</ele>
        <time>2021-12-21T15:27:28Z</time>
      </trkpt>
      <trkpt lat="43.2529140" lon="-4.8687280">
        <ele>550.1</ele>
        <time>2021-12-21T15:27:33Z</time>
      </trkpt>
      <trkpt lat="43.2528950" lon="-4.8686560">
        <ele>550.9</ele>
        <time>2021-12-21T15:27:36Z</time>
      </trkpt>
      <trkpt lat="43.2528800" lon="-4.8686030">
        <ele>551.5</ele>
        <time>2021-12-21T15:27:41Z</time>
      </trkpt>
      <trkpt lat="43.2528380" lon="-4.8685310">
        <ele>552.5</ele>
        <time>2021-12-21T15:27:43Z</time>
      </trkpt>
      <trkpt lat="43.2528610" lon="-4.8684360">
        <ele>553.6</ele>
        <time>2021-12-21T15:27:51Z</time>
      </trkpt>
      <trkpt lat="43.2528780" lon="-4.8684060">
        <ele>554.0</ele>
        <time>2021-12-21T15:29:01Z</time>
      </trkpt>
      <trkpt lat="43.2528920" lon="-4.8683780">
        <ele>554.4</ele>
        <time>2021-12-21T15:29:03Z</time>
      </trkpt>
      <trkpt lat="43.2529110" lon="-4.8683180">
        <ele>555.1</ele>
        <time>2021-12-21T15:29:06Z</time>
      </trkpt>
      <trkpt lat="43.2529170" lon="-4.8682500">
        <ele>555.9</ele>
        <time>2021-12-21T15:29:08Z</time>
      </trkpt>
      <trkpt lat="43.2529040" lon="-4.8682030">
        <ele>556.4</ele>
        <time>2021-12-21T15:29:11Z</time>
      </trkpt>
      <trkpt lat="43.2528740" lon="-4.8681660">
        <ele>557.0</ele>
        <time>2021-12-21T15:29:13Z</time>
      </trkpt>
      <trkpt lat="43.2528590" lon="-4.8681180">
        <ele>557.6</ele>
        <time>2021-12-21T15:29:16Z</time>
      </trkpt>
      <trkpt lat="43.2528450" lon="-4.8680450">
        <ele>558.4</ele>
        <time>2021-12-21T15:29:19Z</time>
      </trkpt>
      <trkpt lat="43.2528730" lon="-4.8679590">
        <ele>559.5</ele>
        <time>2021-12-21T15:29:24Z</time>
      </trkpt>
      <trkpt lat="43.2528940" lon="-4.8679210">
        <ele>560.0</ele>
        <time>2021-12-21T15:29:27Z</time>
      </trkpt>
      <trkpt lat="43.2529120" lon="-4.8679070">
        <ele>560.3</ele>
        <time>2021-12-21T15:29:29Z</time>
      </trkpt>
      <trkpt lat="43.2531670" lon="-4.8674730">
        <ele>566.4</ele>
        <time>2021-12-21T15:29:32Z</time>
      </trkpt>
      <trkpt lat="43.2531770" lon="-4.8674390">
        <ele>566.8</ele>
        <time>2021-12-21T15:29:34Z</time>
      </trkpt>
      <trkpt lat="43.2531930" lon="-4.8674080">
        <ele>567.2</ele>
        <time>2021-12-21T15:29:37Z</time>
      </trkpt>
      <trkpt lat="43.2532130" lon="-4.8673660">
        <ele>567.8</ele>
        <time>2021-12-21T15:29:39Z</time>
      </trkpt>
      <trkpt lat="43.2532310" lon="-4.8673310">
        <ele>568.2</ele>
        <time>2021-12-21T15:29:42Z</time>
      </trkpt>
      <trkpt lat="43.2532410" lon="-4.8673020">
        <ele>568.6</ele>
        <time>2021-12-21T15:29:45Z</time>
      </trkpt>
      <trkpt lat="43.2532540" lon="-4.8672650">
        <ele>569.0</ele>
        <time>2021-12-21T15:29:47Z</time>
      </trkpt>
      <trkpt lat="43.2532610" lon="-4.8672310">
        <ele>569.4</ele>
        <time>2021-12-21T15:29:50Z</time>
      </trkpt>
      <trkpt lat="43.2532890" lon="-4.8671380">
        <ele>570.5</ele>
        <time>2021-12-21T15:29:52Z</time>
      </trkpt>
      <trkpt lat="43.2532970" lon="-4.8671020">
        <ele>570.9</ele>
        <time>2021-12-21T15:29:55Z</time>
      </trkpt>
      <trkpt lat="43.2532980" lon="-4.8670510">
        <ele>571.5</ele>
        <time>2021-12-21T15:29:57Z</time>
      </trkpt>
      <trkpt lat="43.2533000" lon="-4.8670200">
        <ele>571.8</ele>
        <time>2021-12-21T15:30:00Z</time>
      </trkpt>
      <trkpt lat="43.2533040" lon="-4.8669700">
        <ele>572.4</ele>
        <time>2021-12-21T15:30:02Z</time>
      </trkpt>
      <trkpt lat="43.2533270" lon="-4.8668890">
        <ele>573.3</ele>
        <time>2021-12-21T15:30:05Z</time>
      </trkpt>
      <trkpt lat="43.2533580" lon="-4.8668550">
        <ele>573.9</ele>
        <time>2021-12-21T15:30:10Z</time>
      </trkpt>
      <trkpt lat="43.2533840" lon="-4.8668380">
        <ele>574.4</ele>
        <time>2021-12-21T15:30:18Z</time>
      </trkpt>
      <trkpt lat="43.2534290" lon="-4.8668350">
        <ele>575.0</ele>
        <time>2021-12-21T15:30:21Z</time>
      </trkpt>
      <trkpt lat="43.2534550" lon="-4.8668420">
        <ele>575.4</ele>
        <time>2021-12-21T15:30:26Z</time>
      </trkpt>
      <trkpt lat="43.2534950" lon="-4.8668470">
        <ele>576.0</ele>
        <time>2021-12-21T15:30:31Z</time>
      </trkpt>
      <trkpt lat="43.2535140" lon="-4.8668300">
        <ele>576.4</ele>
        <time>2021-12-21T15:30:36Z</time>
      </trkpt>
      <trkpt lat="43.2535870" lon="-4.8668610">
        <ele>577.5</ele>
        <time>2021-12-21T15:30:41Z</time>
      </trkpt>
      <trkpt lat="43.2536100" lon="-4.8668850">
        <ele>578.0</ele>
        <time>2021-12-21T15:30:44Z</time>
      </trkpt>
      <trkpt lat="43.2536410" lon="-4.8669140">
        <ele>578.5</ele>
        <time>2021-12-21T15:30:49Z</time>
      </trkpt>
      <trkpt lat="43.2536600" lon="-4.8669250">
        <ele>578.8</ele>
        <time>2021-12-21T15:30:54Z</time>
      </trkpt>
      <trkpt lat="43.2537020" lon="-4.8669260">
        <ele>579.5</ele>
        <time>2021-12-21T15:30:59Z</time>
      </trkpt>
      <trkpt lat="43.2537600" lon="-4.8669460">
        <ele>580.4</ele>
        <time>2021-12-21T15:31:02Z</time>
      </trkpt>
      <trkpt lat="43.2538070" lon="-4.8669540">
        <ele>581.1</ele>
        <time>2021-12-21T15:31:07Z</time>
      </trkpt>
      <trkpt lat="43.2538430" lon="-4.8669200">
        <ele>581.7</ele>
        <time>2021-12-21T15:31:12Z</time>
      </trkpt>
      <trkpt lat="43.2538500" lon="-4.8669050">
        <ele>581.9</ele>
        <time>2021-12-21T15:31:20Z</time>
      </trkpt>
      <trkpt lat="43.2538820" lon="-4.8668210">
        <ele>583.0</ele>
        <time>2021-12-21T15:31:28Z</time>
      </trkpt>
      <trkpt lat="43.2539290" lon="-4.8665870">
        <ele>585.6</ele>
        <time>2021-12-21T15:31:38Z</time>
      </trkpt>
      <trkpt lat="43.2539180" lon="-4.8665710">
        <ele>585.9</ele>
        <time>2021-12-21T15:31:41Z</time>
      </trkpt>
      <trkpt lat="43.2539010" lon="-4.8665220">
        <ele>586.4</ele>
        <time>2021-12-21T15:31:46Z</time>
      </trkpt>
      <trkpt lat="43.2539000" lon="-4.8665020">
        <ele>586.7</ele>
        <time>2021-12-21T15:31:48Z</time>
      </trkpt>
      <trkpt lat="43.2538760" lon="-4.8664470">
        <ele>587.4</ele>
        <time>2021-12-21T15:31:51Z</time>
      </trkpt>
      <trkpt lat="43.2538660" lon="-4.8664200">
        <ele>587.7</ele>
        <time>2021-12-21T15:31:56Z</time>
      </trkpt>
      <trkpt lat="43.2538470" lon="-4.8663830">
        <ele>588.2</ele>
        <time>2021-12-21T15:31:59Z</time>
      </trkpt>
      <trkpt lat="43.2538550" lon="-4.8663210">
        <ele>588.9</ele>
        <time>2021-12-21T15:32:01Z</time>
      </trkpt>
      <trkpt lat="43.2538520" lon="-4.8662390">
        <ele>589.8</ele>
        <time>2021-12-21T15:32:04Z</time>
      </trkpt>
      <trkpt lat="43.2538620" lon="-4.8661820">
        <ele>590.4</ele>
        <time>2021-12-21T15:32:06Z</time>
      </trkpt>
      <trkpt lat="43.2538780" lon="-4.8661440">
        <ele>590.9</ele>
        <time>2021-12-21T15:32:09Z</time>
      </trkpt>
      <trkpt lat="43.2538910" lon="-4.8660800">
        <ele>591.6</ele>
        <time>2021-12-21T15:32:11Z</time>
      </trkpt>
      <trkpt lat="43.2538860" lon="-4.8660390">
        <ele>592.1</ele>
        <time>2021-12-21T15:32:14Z</time>
      </trkpt>
      <trkpt lat="43.2538900" lon="-4.8660020">
        <ele>592.5</ele>
        <time>2021-12-21T15:32:17Z</time>
      </trkpt>
      <trkpt lat="43.2538980" lon="-4.8659520">
        <ele>593.1</ele>
        <time>2021-12-21T15:32:22Z</time>
      </trkpt>
      <trkpt lat="43.2539350" lon="-4.8659110">
        <ele>593.8</ele>
        <time>2021-12-21T15:32:27Z</time>
      </trkpt>
      <trkpt lat="43.2539610" lon="-4.8658670">
        <ele>594.4</ele>
        <time>2021-12-21T15:32:32Z</time>
      </trkpt>
      <trkpt lat="43.2539820" lon="-4.8658400">
        <ele>594.8</ele>
        <time>2021-12-21T15:32:37Z</time>
      </trkpt>
      <trkpt lat="43.2539970" lon="-4.8657930">
        <ele>595.4</ele>
        <time>2021-12-21T15:32:40Z</time>
      </trkpt>
      <trkpt lat="43.2540200" lon="-4.8657680">
        <ele>595.8</ele>
        <time>2021-12-21T15:32:42Z</time>
      </trkpt>
      <trkpt lat="43.2540420" lon="-4.8657360">
        <ele>596.3</ele>
        <time>2021-12-21T15:32:45Z</time>
      </trkpt>
      <trkpt lat="43.2540650" lon="-4.8657180">
        <ele>598.5</ele>
        <time>2021-12-21T15:32:48Z</time>
      </trkpt>
      <trkpt lat="43.2541040" lon="-4.8657080">
        <ele>605.1</ele>
        <time>2021-12-21T15:32:50Z</time>
      </trkpt>
      <trkpt lat="43.2541200" lon="-4.8656850">
        <ele>608.9</ele>
        <time>2021-12-21T15:32:53Z</time>
      </trkpt>
      <trkpt lat="43.2541610" lon="-4.8656790">
        <ele>615.8</ele>
        <time>2021-12-21T15:32:55Z</time>
      </trkpt>
      <trkpt lat="43.2541820" lon="-4.8656650">
        <ele>619.6</ele>
        <time>2021-12-21T15:33:00Z</time>
      </trkpt>
      <trkpt lat="43.2542370" lon="-4.8656790">
        <ele>631.4</ele>
        <time>2021-12-21T15:33:06Z</time>
      </trkpt>
      <trkpt lat="43.2542710" lon="-4.8656730">
        <ele>630.8</ele>
        <time>2021-12-21T15:33:08Z</time>
      </trkpt>
      <trkpt lat="43.2543060" lon="-4.8656250">
        <ele>629.8</ele>
        <time>2021-12-21T15:33:13Z</time>
      </trkpt>
      <trkpt lat="43.2543300" lon="-4.8655740">
        <ele>628.8</ele>
        <time>2021-12-21T15:33:19Z</time>
      </trkpt>
      <trkpt lat="43.2543320" lon="-4.8655040">
        <ele>627.2</ele>
        <time>2021-12-21T15:33:24Z</time>
      </trkpt>
      <trkpt lat="43.2543450" lon="-4.8654380">
        <ele>625.3</ele>
        <time>2021-12-21T15:33:29Z</time>
      </trkpt>
      <trkpt lat="43.2543600" lon="-4.8654100">
        <ele>624.0</ele>
        <time>2021-12-21T15:33:34Z</time>
      </trkpt>
      <trkpt lat="43.2543670" lon="-4.8653440">
        <ele>621.2</ele>
        <time>2021-12-21T15:33:37Z</time>
      </trkpt>
      <trkpt lat="43.2543670" lon="-4.8652970">
        <ele>618.9</ele>
        <time>2021-12-21T15:33:39Z</time>
      </trkpt>
      <trkpt lat="43.2543270" lon="-4.8652460">
        <ele>602.2</ele>
        <time>2021-12-21T15:33:44Z</time>
      </trkpt>
      <trkpt lat="43.2543010" lon="-4.8652210">
        <ele>598.0</ele>
        <time>2021-12-21T15:33:47Z</time>
      </trkpt>
      <trkpt lat="43.2542680" lon="-4.8651780">
        <ele>591.9</ele>
        <time>2021-12-21T15:33:52Z</time>
      </trkpt>
      <trkpt lat="43.2542540" lon="-4.8651380">
        <ele>587.6</ele>
        <time>2021-12-21T15:33:57Z</time>
      </trkpt>
      <trkpt lat="43.2542270" lon="-4.8651760">
        <ele>582.4</ele>
        <time>2021-12-21T15:34:00Z</time>
      </trkpt>
      <trkpt lat="43.2542020" lon="-4.8651470">
        <ele>578.1</ele>
        <time>2021-12-21T15:34:05Z</time>
      </trkpt>
      <trkpt lat="43.2541210" lon="-4.8651220">
        <ele>567.0</ele>
        <time>2021-12-21T15:34:08Z</time>
      </trkpt>
      <trkpt lat="43.2541130" lon="-4.8651500">
        <ele>564.1</ele>
        <time>2021-12-21T15:34:13Z</time>
      </trkpt>
      <trkpt lat="43.2540500" lon="-4.8651180">
        <ele>555.1</ele>
        <time>2021-12-21T15:34:18Z</time>
      </trkpt>
      <trkpt lat="43.2540370" lon="-4.8651100">
        <ele>553.2</ele>
        <time>2021-12-21T15:34:23Z</time>
      </trkpt>
      <trkpt lat="43.2540290" lon="-4.8651070">
        <ele>552.1</ele>
        <time>2021-12-21T15:34:28Z</time>
      </trkpt>
      <trkpt lat="43.2539680" lon="-4.8650290">
        <ele>541.0</ele>
        <time>2021-12-21T15:34:31Z</time>
      </trkpt>
      <trkpt lat="43.2539420" lon="-4.8650140">
        <ele>537.2</ele>
        <time>2021-12-21T15:34:36Z</time>
      </trkpt>
      <trkpt lat="43.2539190" lon="-4.8649850">
        <ele>534.0</ele>
        <time>2021-12-21T15:34:38Z</time>
      </trkpt>
      <trkpt lat="43.2538820" lon="-4.8649190">
        <ele>532.1</ele>
        <time>2021-12-21T15:34:44Z</time>
      </trkpt>
      <trkpt lat="43.2538660" lon="-4.8648850">
        <ele>531.2</ele>
        <time>2021-12-21T15:34:49Z</time>
      </trkpt>
      <trkpt lat="43.2538440" lon="-4.8648190">
        <ele>529.5</ele>
        <time>2021-12-21T15:34:54Z</time>
      </trkpt>
      <trkpt lat="43.2538330" lon="-4.8647820">
        <ele>528.6</ele>
        <time>2021-12-21T15:34:59Z</time>
      </trkpt>
      <trkpt lat="43.2538120" lon="-4.8647350">
        <ele>527.4</ele>
        <time>2021-12-21T15:35:04Z</time>
      </trkpt>
      <trkpt lat="43.2537910" lon="-4.8647120">
        <ele>526.5</ele>
        <time>2021-12-21T15:35:09Z</time>
      </trkpt>
      <trkpt lat="43.2537630" lon="-4.8646600">
        <ele>525.1</ele>
        <time>2021-12-21T15:35:12Z</time>
      </trkpt>
      <trkpt lat="43.2537210" lon="-4.8646210">
        <ele>523.5</ele>
        <time>2021-12-21T15:35:17Z</time>
      </trkpt>
      <trkpt lat="43.2537090" lon="-4.8645460">
        <ele>521.8</ele>
        <time>2021-12-21T15:35:22Z</time>
      </trkpt>
      <trkpt lat="43.2536960" lon="-4.8644610">
        <ele>519.8</ele>
        <time>2021-12-21T15:35:28Z</time>
      </trkpt>
      <trkpt lat="43.2537030" lon="-4.8644130">
        <ele>518.7</ele>
        <time>2021-12-21T15:35:34Z</time>
      </trkpt>
      <trkpt lat="43.2537060" lon="-4.8643820">
        <ele>518.0</ele>
        <time>2021-12-21T15:35:40Z</time>
      </trkpt>
      <trkpt lat="43.2537140" lon="-4.8643450">
        <ele>517.1</ele>
        <time>2021-12-21T15:35:48Z</time>
      </trkpt>
      <trkpt lat="43.2537200" lon="-4.8643070">
        <ele>516.2</ele>
        <time>2021-12-21T15:35:51Z</time>
      </trkpt>
      <trkpt lat="43.2537300" lon="-4.8642800">
        <ele>515.5</ele>
        <time>2021-12-21T15:36:04Z</time>
      </trkpt>
      <trkpt lat="43.2537460" lon="-4.8642390">
        <ele>514.4</ele>
        <time>2021-12-21T15:36:09Z</time>
      </trkpt>
      <trkpt lat="43.2537480" lon="-4.8642140">
        <ele>513.8</ele>
        <time>2021-12-21T15:36:11Z</time>
      </trkpt>
      <trkpt lat="43.2537660" lon="-4.8641500">
        <ele>512.2</ele>
        <time>2021-12-21T15:36:16Z</time>
      </trkpt>
      <trkpt lat="43.2537990" lon="-4.8640750">
        <ele>510.2</ele>
        <time>2021-12-21T15:36:22Z</time>
      </trkpt>
      <trkpt lat="43.2538070" lon="-4.8640550">
        <ele>509.7</ele>
        <time>2021-12-21T15:36:29Z</time>
      </trkpt>
      <trkpt lat="43.2538070" lon="-4.8639870">
        <ele>508.2</ele>
        <time>2021-12-21T15:36:34Z</time>
      </trkpt>
      <trkpt lat="43.2538150" lon="-4.8639170">
        <ele>506.6</ele>
        <time>2021-12-21T15:36:40Z</time>
      </trkpt>
      <trkpt lat="43.2538220" lon="-4.8638500">
        <ele>505.0</ele>
        <time>2021-12-21T15:36:45Z</time>
      </trkpt>
      <trkpt lat="43.2538280" lon="-4.8637780">
        <ele>503.4</ele>
        <time>2021-12-21T15:36:47Z</time>
      </trkpt>
      <trkpt lat="43.2538130" lon="-4.8637010">
        <ele>501.5</ele>
        <time>2021-12-21T15:36:55Z</time>
      </trkpt>
      <trkpt lat="43.2538020" lon="-4.8636510">
        <ele>500.2</ele>
        <time>2021-12-21T15:37:08Z</time>
      </trkpt>
      <trkpt lat="43.2538000" lon="-4.8636210">
        <ele>499.5</ele>
        <time>2021-12-21T15:37:13Z</time>
      </trkpt>
      <trkpt lat="43.2537880" lon="-4.8635460">
        <ele>497.7</ele>
        <time>2021-12-21T15:37:21Z</time>
      </trkpt>
      <trkpt lat="43.2537940" lon="-4.8635020">
        <ele>496.6</ele>
        <time>2021-12-21T15:37:26Z</time>
      </trkpt>
      <trkpt lat="43.2537920" lon="-4.8634300">
        <ele>494.9</ele>
        <time>2021-12-21T15:37:31Z</time>
      </trkpt>
      <trkpt lat="43.2537880" lon="-4.8633510">
        <ele>493.7</ele>
        <time>2021-12-21T15:37:36Z</time>
      </trkpt>
      <trkpt lat="43.2537780" lon="-4.8633100">
        <ele>493.5</ele>
        <time>2021-12-21T15:37:42Z</time>
      </trkpt>
      <trkpt lat="43.2537540" lon="-4.8632380">
        <ele>493.1</ele>
        <time>2021-12-21T15:37:44Z</time>
      </trkpt>
      <trkpt lat="43.2537380" lon="-4.8632060">
        <ele>492.9</ele>
        <time>2021-12-21T15:37:49Z</time>
      </trkpt>
      <trkpt lat="43.2537130" lon="-4.8631580">
        <ele>492.7</ele>
        <time>2021-12-21T15:37:54Z</time>
      </trkpt>
      <trkpt lat="43.2536830" lon="-4.8630990">
        <ele>492.4</ele>
        <time>2021-12-21T15:38:00Z</time>
      </trkpt>
      <trkpt lat="43.2536470" lon="-4.8630320">
        <ele>492.0</ele>
        <time>2021-12-21T15:38:07Z</time>
      </trkpt>
      <trkpt lat="43.2536110" lon="-4.8629730">
        <ele>491.8</ele>
        <time>2021-12-21T15:38:12Z</time>
      </trkpt>
      <trkpt lat="43.2535840" lon="-4.8629440">
        <ele>491.6</ele>
        <time>2021-12-21T15:38:18Z</time>
      </trkpt>
      <trkpt lat="43.2535500" lon="-4.8628820">
        <ele>491.6</ele>
        <time>2021-12-21T15:38:23Z</time>
      </trkpt>
      <trkpt lat="43.2535370" lon="-4.8628760">
        <ele>491.6</ele>
        <time>2021-12-21T15:38:33Z</time>
      </trkpt>
      <trkpt lat="43.2534930" lon="-4.8628590">
        <ele>491.7</ele>
        <time>2021-12-21T15:38:38Z</time>
      </trkpt>
      <trkpt lat="43.2534550" lon="-4.8628240">
        <ele>491.9</ele>
        <time>2021-12-21T15:38:43Z</time>
      </trkpt>
      <trkpt lat="43.2534300" lon="-4.8628200">
        <ele>492.0</ele>
        <time>2021-12-21T15:38:49Z</time>
      </trkpt>
      <trkpt lat="43.2533850" lon="-4.8628020">
        <ele>492.4</ele>
        <time>2021-12-21T15:38:54Z</time>
      </trkpt>
      <trkpt lat="43.2533460" lon="-4.8627650">
        <ele>492.7</ele>
        <time>2021-12-21T15:38:59Z</time>
      </trkpt>
      <trkpt lat="43.2533020" lon="-4.8627300">
        <ele>493.1</ele>
        <time>2021-12-21T15:39:04Z</time>
      </trkpt>
      <trkpt lat="43.2532830" lon="-4.8627210">
        <ele>493.2</ele>
        <time>2021-12-21T15:39:09Z</time>
      </trkpt>
      <trkpt lat="43.2532430" lon="-4.8627100">
        <ele>493.4</ele>
        <time>2021-12-21T15:39:14Z</time>
      </trkpt>
      <trkpt lat="43.2532340" lon="-4.8626650">
        <ele>493.6</ele>
        <time>2021-12-21T15:39:19Z</time>
      </trkpt>
      <trkpt lat="43.2532620" lon="-4.8626280">
        <ele>493.7</ele>
        <time>2021-12-21T15:39:25Z</time>
      </trkpt>
      <trkpt lat="43.2532880" lon="-4.8626020">
        <ele>493.7</ele>
        <time>2021-12-21T15:39:30Z</time>
      </trkpt>
      <trkpt lat="43.2533210" lon="-4.8625750">
        <ele>493.7</ele>
        <time>2021-12-21T15:39:35Z</time>
      </trkpt>
      <trkpt lat="43.2533290" lon="-4.8625730">
        <ele>493.7</ele>
        <time>2021-12-21T15:39:40Z</time>
      </trkpt>
      <trkpt lat="43.2533330" lon="-4.8625740">
        <ele>493.7</ele>
        <time>2021-12-21T15:39:45Z</time>
      </trkpt>
      <trkpt lat="43.2532770" lon="-4.8625540">
        <ele>493.8</ele>
        <time>2021-12-21T15:39:51Z</time>
      </trkpt>
      <trkpt lat="43.2532480" lon="-4.8625380">
        <ele>493.8</ele>
        <time>2021-12-21T15:39:56Z</time>
      </trkpt>
      <trkpt lat="43.2532340" lon="-4.8625260">
        <ele>493.8</ele>
        <time>2021-12-21T15:40:01Z</time>
      </trkpt>
      <trkpt lat="43.2532080" lon="-4.8625190">
        <ele>493.9</ele>
        <time>2021-12-21T15:40:06Z</time>
      </trkpt>
      <trkpt lat="43.2531810" lon="-4.8625390">
        <ele>494.0</ele>
        <time>2021-12-21T15:40:11Z</time>
      </trkpt>
      <trkpt lat="43.2531200" lon="-4.8625350">
        <ele>494.1</ele>
        <time>2021-12-21T15:40:16Z</time>
      </trkpt>
      <trkpt lat="43.2530830" lon="-4.8625350">
        <ele>494.3</ele>
        <time>2021-12-21T15:40:32Z</time>
      </trkpt>
      <trkpt lat="43.2530690" lon="-4.8624890">
        <ele>494.5</ele>
        <time>2021-12-21T15:40:37Z</time>
      </trkpt>
      <trkpt lat="43.2530960" lon="-4.8624480">
        <ele>494.7</ele>
        <time>2021-12-21T15:40:42Z</time>
      </trkpt>
      <trkpt lat="43.2530900" lon="-4.8624420">
        <ele>494.7</ele>
        <time>2021-12-21T15:40:47Z</time>
      </trkpt>
      <trkpt lat="43.2530840" lon="-4.8624180">
        <ele>494.8</ele>
        <time>2021-12-21T15:40:52Z</time>
      </trkpt>
      <trkpt lat="43.2530140" lon="-4.8623380">
        <ele>495.3</ele>
        <time>2021-12-21T15:40:58Z</time>
      </trkpt>
      <trkpt lat="43.2529880" lon="-4.8623370">
        <ele>495.4</ele>
        <time>2021-12-21T15:41:03Z</time>
      </trkpt>
      <trkpt lat="43.2529720" lon="-4.8622800">
        <ele>495.5</ele>
        <time>2021-12-21T15:41:08Z</time>
      </trkpt>
      <trkpt lat="43.2529610" lon="-4.8622370">
        <ele>495.5</ele>
        <time>2021-12-21T15:41:13Z</time>
      </trkpt>
      <trkpt lat="43.2529520" lon="-4.8621820">
        <ele>495.6</ele>
        <time>2021-12-21T15:41:18Z</time>
      </trkpt>
      <trkpt lat="43.2529430" lon="-4.8621250">
        <ele>495.6</ele>
        <time>2021-12-21T15:41:23Z</time>
      </trkpt>
      <trkpt lat="43.2529270" lon="-4.8620570">
        <ele>495.7</ele>
        <time>2021-12-21T15:41:28Z</time>
      </trkpt>
      <trkpt lat="43.2529180" lon="-4.8620410">
        <ele>495.7</ele>
        <time>2021-12-21T15:41:31Z</time>
      </trkpt>
      <trkpt lat="43.2529120" lon="-4.8620050">
        <ele>495.7</ele>
        <time>2021-12-21T15:41:36Z</time>
      </trkpt>
      <trkpt lat="43.2529090" lon="-4.8619590">
        <ele>495.7</ele>
        <time>2021-12-21T15:41:41Z</time>
      </trkpt>
      <trkpt lat="43.2528900" lon="-4.8619300">
        <ele>495.7</ele>
        <time>2021-12-21T15:41:44Z</time>
      </trkpt>
      <trkpt lat="43.2528690" lon="-4.8618670">
        <ele>495.7</ele>
        <time>2021-12-21T15:41:49Z</time>
      </trkpt>
      <trkpt lat="43.2528590" lon="-4.8618210">
        <ele>495.7</ele>
        <time>2021-12-21T15:41:54Z</time>
      </trkpt>
      <trkpt lat="43.2528600" lon="-4.8617610">
        <ele>495.7</ele>
        <time>2021-12-21T15:41:59Z</time>
      </trkpt>
      <trkpt lat="43.2528630" lon="-4.8617590">
        <ele>495.7</ele>
        <time>2021-12-21T15:42:05Z</time>
      </trkpt>
      <trkpt lat="43.2528950" lon="-4.8616630">
        <ele>495.6</ele>
        <time>2021-12-21T15:42:10Z</time>
      </trkpt>
      <trkpt lat="43.2529100" lon="-4.8616110">
        <ele>495.5</ele>
        <time>2021-12-21T15:42:15Z</time>
      </trkpt>
      <trkpt lat="43.2529230" lon="-4.8615530">
        <ele>495.5</ele>
        <time>2021-12-21T15:42:20Z</time>
      </trkpt>
      <trkpt lat="43.2529410" lon="-4.8614850">
        <ele>495.4</ele>
        <time>2021-12-21T15:42:25Z</time>
      </trkpt>
      <trkpt lat="43.2529660" lon="-4.8614300">
        <ele>495.3</ele>
        <time>2021-12-21T15:42:30Z</time>
      </trkpt>
      <trkpt lat="43.2529860" lon="-4.8613730">
        <ele>495.2</ele>
        <time>2021-12-21T15:42:35Z</time>
      </trkpt>
      <trkpt lat="43.2530020" lon="-4.8613170">
        <ele>495.1</ele>
        <time>2021-12-21T15:42:41Z</time>
      </trkpt>
      <trkpt lat="43.2530200" lon="-4.8612660">
        <ele>495.1</ele>
        <time>2021-12-21T15:42:46Z</time>
      </trkpt>
      <trkpt lat="43.2530170" lon="-4.8612050">
        <ele>495.0</ele>
        <time>2021-12-21T15:42:51Z</time>
      </trkpt>
      <trkpt lat="43.2530350" lon="-4.8611600">
        <ele>494.9</ele>
        <time>2021-12-21T15:42:56Z</time>
      </trkpt>
      <trkpt lat="43.2530370" lon="-4.8611010">
        <ele>494.9</ele>
        <time>2021-12-21T15:43:01Z</time>
      </trkpt>
      <trkpt lat="43.2530390" lon="-4.8610490">
        <ele>494.9</ele>
        <time>2021-12-21T15:43:06Z</time>
      </trkpt>
      <trkpt lat="43.2530510" lon="-4.8609950">
        <ele>494.9</ele>
        <time>2021-12-21T15:43:12Z</time>
      </trkpt>
      <trkpt lat="43.2530540" lon="-4.8609370">
        <ele>494.8</ele>
        <time>2021-12-21T15:43:17Z</time>
      </trkpt>
      <trkpt lat="43.2530660" lon="-4.8608810">
        <ele>494.8</ele>
        <time>2021-12-21T15:43:22Z</time>
      </trkpt>
      <trkpt lat="43.2530690" lon="-4.8608110">
        <ele>494.8</ele>
        <time>2021-12-21T15:43:30Z</time>
      </trkpt>
      <trkpt lat="43.2530810" lon="-4.8607600">
        <ele>494.7</ele>
        <time>2021-12-21T15:43:35Z</time>
      </trkpt>
      <trkpt lat="43.2530980" lon="-4.8607110">
        <ele>494.7</ele>
        <time>2021-12-21T15:43:45Z</time>
      </trkpt>
      <trkpt lat="43.2531200" lon="-4.8606610">
        <ele>494.6</ele>
        <time>2021-12-21T15:43:50Z</time>
      </trkpt>
      <trkpt lat="43.2531230" lon="-4.8606120">
        <ele>494.6</ele>
        <time>2021-12-21T15:43:55Z</time>
      </trkpt>
      <trkpt lat="43.2531290" lon="-4.8605940">
        <ele>494.6</ele>
        <time>2021-12-21T15:44:01Z</time>
      </trkpt>
      <trkpt lat="43.2531340" lon="-4.8604360">
        <ele>494.5</ele>
        <time>2021-12-21T15:44:06Z</time>
      </trkpt>
      <trkpt lat="43.2531340" lon="-4.8603760">
        <ele>494.5</ele>
        <time>2021-12-21T15:44:11Z</time>
      </trkpt>
      <trkpt lat="43.2531310" lon="-4.8603100">
        <ele>494.5</ele>
        <time>2021-12-21T15:44:16Z</time>
      </trkpt>
      <trkpt lat="43.2531290" lon="-4.8602520">
        <ele>494.5</ele>
        <time>2021-12-21T15:44:21Z</time>
      </trkpt>
      <trkpt lat="43.2531250" lon="-4.8602000">
        <ele>494.5</ele>
        <time>2021-12-21T15:44:26Z</time>
      </trkpt>
      <trkpt lat="43.2531040" lon="-4.8601480">
        <ele>494.6</ele>
        <time>2021-12-21T15:44:29Z</time>
      </trkpt>
      <trkpt lat="43.2530770" lon="-4.8600990">
        <ele>494.6</ele>
        <time>2021-12-21T15:44:34Z</time>
      </trkpt>
      <trkpt lat="43.2530450" lon="-4.8600670">
        <ele>494.6</ele>
        <time>2021-12-21T15:44:39Z</time>
      </trkpt>
      <trkpt lat="43.2530160" lon="-4.8600400">
        <ele>494.6</ele>
        <time>2021-12-21T15:44:44Z</time>
      </trkpt>
      <trkpt lat="43.2529920" lon="-4.8600140">
        <ele>494.6</ele>
        <time>2021-12-21T15:44:49Z</time>
      </trkpt>
      <trkpt lat="43.2529680" lon="-4.8599760">
        <ele>494.6</ele>
        <time>2021-12-21T15:44:55Z</time>
      </trkpt>
      <trkpt lat="43.2529370" lon="-4.8599290">
        <ele>494.5</ele>
        <time>2021-12-21T15:45:00Z</time>
      </trkpt>
      <trkpt lat="43.2529210" lon="-4.8599100">
        <ele>494.5</ele>
        <time>2021-12-21T15:45:05Z</time>
      </trkpt>
      <trkpt lat="43.2528990" lon="-4.8598710">
        <ele>494.4</ele>
        <time>2021-12-21T15:45:10Z</time>
      </trkpt>
      <trkpt lat="43.2528690" lon="-4.8598350">
        <ele>494.4</ele>
        <time>2021-12-21T15:45:15Z</time>
      </trkpt>
      <trkpt lat="43.2528560" lon="-4.8598140">
        <ele>494.4</ele>
        <time>2021-12-21T15:45:23Z</time>
      </trkpt>
      <trkpt lat="43.2528290" lon="-4.8597740">
        <ele>494.3</ele>
        <time>2021-12-21T15:45:28Z</time>
      </trkpt>
      <trkpt lat="43.2528080" lon="-4.8597290">
        <ele>494.3</ele>
        <time>2021-12-21T15:45:33Z</time>
      </trkpt>
      <trkpt lat="43.2527890" lon="-4.8596980">
        <ele>494.3</ele>
        <time>2021-12-21T15:45:38Z</time>
      </trkpt>
      <trkpt lat="43.2527540" lon="-4.8596630">
        <ele>494.3</ele>
        <time>2021-12-21T15:45:44Z</time>
      </trkpt>
      <trkpt lat="43.2527280" lon="-4.8596270">
        <ele>494.3</ele>
        <time>2021-12-21T15:45:49Z</time>
      </trkpt>
      <trkpt lat="43.2526890" lon="-4.8595950">
        <ele>494.3</ele>
        <time>2021-12-21T15:45:54Z</time>
      </trkpt>
      <trkpt lat="43.2526690" lon="-4.8595540">
        <ele>494.3</ele>
        <time>2021-12-21T15:45:59Z</time>
      </trkpt>
      <trkpt lat="43.2526510" lon="-4.8595110">
        <ele>494.3</ele>
        <time>2021-12-21T15:46:04Z</time>
      </trkpt>
      <trkpt lat="43.2526310" lon="-4.8594720">
        <ele>494.3</ele>
        <time>2021-12-21T15:46:10Z</time>
      </trkpt>
      <trkpt lat="43.2526080" lon="-4.8594580">
        <ele>494.2</ele>
        <time>2021-12-21T15:46:15Z</time>
      </trkpt>
      <trkpt lat="43.2525710" lon="-4.8594270">
        <ele>494.2</ele>
        <time>2021-12-21T15:46:20Z</time>
      </trkpt>
      <trkpt lat="43.2525350" lon="-4.8593890">
        <ele>494.1</ele>
        <time>2021-12-21T15:46:25Z</time>
      </trkpt>
      <trkpt lat="43.2525210" lon="-4.8593480">
        <ele>494.1</ele>
        <time>2021-12-21T15:46:30Z</time>
      </trkpt>
      <trkpt lat="43.2524980" lon="-4.8593100">
        <ele>494.0</ele>
        <time>2021-12-21T15:46:35Z</time>
      </trkpt>
      <trkpt lat="43.2524780" lon="-4.8592640">
        <ele>493.9</ele>
        <time>2021-12-21T15:46:40Z</time>
      </trkpt>
      <trkpt lat="43.2524610" lon="-4.8592160">
        <ele>493.8</ele>
        <time>2021-12-21T15:46:45Z</time>
      </trkpt>
      <trkpt lat="43.2524390" lon="-4.8591680">
        <ele>493.7</ele>
        <time>2021-12-21T15:46:51Z</time>
      </trkpt>
      <trkpt lat="43.2524240" lon="-4.8591240">
        <ele>493.6</ele>
        <time>2021-12-21T15:46:56Z</time>
      </trkpt>
      <trkpt lat="43.2524260" lon="-4.8590900">
        <ele>493.6</ele>
        <time>2021-12-21T15:47:01Z</time>
      </trkpt>
      <trkpt lat="43.2523980" lon="-4.8590240">
        <ele>493.4</ele>
        <time>2021-12-21T15:47:06Z</time>
      </trkpt>
      <trkpt lat="43.2523990" lon="-4.8590110">
        <ele>493.4</ele>
        <time>2021-12-21T15:47:11Z</time>
      </trkpt>
      <trkpt lat="43.2523800" lon="-4.8589250">
        <ele>493.2</ele>
        <time>2021-12-21T15:47:16Z</time>
      </trkpt>
      <trkpt lat="43.2523760" lon="-4.8588760">
        <ele>493.2</ele>
        <time>2021-12-21T15:47:22Z</time>
      </trkpt>
      <trkpt lat="43.2523790" lon="-4.8588220">
        <ele>493.1</ele>
        <time>2021-12-21T15:47:27Z</time>
      </trkpt>
      <trkpt lat="43.2523720" lon="-4.8587560">
        <ele>493.0</ele>
        <time>2021-12-21T15:47:32Z</time>
      </trkpt>
      <trkpt lat="43.2523620" lon="-4.8587020">
        <ele>492.9</ele>
        <time>2021-12-21T15:47:40Z</time>
      </trkpt>
      <trkpt lat="43.2523540" lon="-4.8586490">
        <ele>492.9</ele>
        <time>2021-12-21T15:47:45Z</time>
      </trkpt>
      <trkpt lat="43.2523440" lon="-4.8585970">
        <ele>492.8</ele>
        <time>2021-12-21T15:47:58Z</time>
      </trkpt>
      <trkpt lat="43.2523370" lon="-4.8585420">
        <ele>492.8</ele>
        <time>2021-12-21T15:48:03Z</time>
      </trkpt>
      <trkpt lat="43.2523390" lon="-4.8584910">
        <ele>492.8</ele>
        <time>2021-12-21T15:48:05Z</time>
      </trkpt>
      <trkpt lat="43.2523480" lon="-4.8584520">
        <ele>492.8</ele>
        <time>2021-12-21T15:48:08Z</time>
      </trkpt>
      <trkpt lat="43.2523640" lon="-4.8584090">
        <ele>492.7</ele>
        <time>2021-12-21T15:48:11Z</time>
      </trkpt>
      <trkpt lat="43.2523880" lon="-4.8583620">
        <ele>492.7</ele>
        <time>2021-12-21T15:48:13Z</time>
      </trkpt>
      <trkpt lat="43.2524180" lon="-4.8583210">
        <ele>492.7</ele>
        <time>2021-12-21T15:48:18Z</time>
      </trkpt>
      <trkpt lat="43.2524460" lon="-4.8583040">
        <ele>492.7</ele>
        <time>2021-12-21T15:48:21Z</time>
      </trkpt>
      <trkpt lat="43.2524700" lon="-4.8582470">
        <ele>492.6</ele>
        <time>2021-12-21T15:48:24Z</time>
      </trkpt>
      <trkpt lat="43.2524800" lon="-4.8581950">
        <ele>492.6</ele>
        <time>2021-12-21T15:48:29Z</time>
      </trkpt>
      <trkpt lat="43.2524890" lon="-4.8581480">
        <ele>492.6</ele>
        <time>2021-12-21T15:48:31Z</time>
      </trkpt>
      <trkpt lat="43.2524980" lon="-4.8581030">
        <ele>492.6</ele>
        <time>2021-12-21T15:48:36Z</time>
      </trkpt>
      <trkpt lat="43.2525030" lon="-4.8580640">
        <ele>492.6</ele>
        <time>2021-12-21T15:48:39Z</time>
      </trkpt>
      <trkpt lat="43.2524900" lon="-4.8580090">
        <ele>492.5</ele>
        <time>2021-12-21T15:48:44Z</time>
      </trkpt>
      <trkpt lat="43.2524870" lon="-4.8579520">
        <ele>492.5</ele>
        <time>2021-12-21T15:48:49Z</time>
      </trkpt>
      <trkpt lat="43.2524790" lon="-4.8578950">
        <ele>492.5</ele>
        <time>2021-12-21T15:48:52Z</time>
      </trkpt>
      <trkpt lat="43.2524710" lon="-4.8578390">
        <ele>492.4</ele>
        <time>2021-12-21T15:48:54Z</time>
      </trkpt>
      <trkpt lat="43.2524600" lon="-4.8577710">
        <ele>492.3</ele>
        <time>2021-12-21T15:49:00Z</time>
      </trkpt>
      <trkpt lat="43.2524620" lon="-4.8577110">
        <ele>492.3</ele>
        <time>2021-12-21T15:49:05Z</time>
      </trkpt>
      <trkpt lat="43.2524350" lon="-4.8576600">
        <ele>492.2</ele>
        <time>2021-12-21T15:49:10Z</time>
      </trkpt>
      <trkpt lat="43.2524130" lon="-4.8576190">
        <ele>492.1</ele>
        <time>2021-12-21T15:49:15Z</time>
      </trkpt>
      <trkpt lat="43.2524030" lon="-4.8575780">
        <ele>492.0</ele>
        <time>2021-12-21T15:49:20Z</time>
      </trkpt>
      <trkpt lat="43.2523830" lon="-4.8575260">
        <ele>491.9</ele>
        <time>2021-12-21T15:49:28Z</time>
      </trkpt>
      <trkpt lat="43.2523640" lon="-4.8574850">
        <ele>491.8</ele>
        <time>2021-12-21T15:49:33Z</time>
      </trkpt>
      <trkpt lat="43.2523350" lon="-4.8574450">
        <ele>491.7</ele>
        <time>2021-12-21T15:49:38Z</time>
      </trkpt>
      <trkpt lat="43.2523100" lon="-4.8574010">
        <ele>491.5</ele>
        <time>2021-12-21T15:49:43Z</time>
      </trkpt>
      <trkpt lat="43.2522880" lon="-4.8573600">
        <ele>491.4</ele>
        <time>2021-12-21T15:49:49Z</time>
      </trkpt>
      <trkpt lat="43.2522580" lon="-4.8573160">
        <ele>491.3</ele>
        <time>2021-12-21T15:50:01Z</time>
      </trkpt>
      <trkpt lat="43.2522390" lon="-4.8572730">
        <ele>491.2</ele>
        <time>2021-12-21T15:50:04Z</time>
      </trkpt>
      <trkpt lat="43.2522100" lon="-4.8572420">
        <ele>491.1</ele>
        <time>2021-12-21T15:50:07Z</time>
      </trkpt>
      <trkpt lat="43.2521790" lon="-4.8571950">
        <ele>491.0</ele>
        <time>2021-12-21T15:50:09Z</time>
      </trkpt>
      <trkpt lat="43.2521460" lon="-4.8571700">
        <ele>490.9</ele>
        <time>2021-12-21T15:50:14Z</time>
      </trkpt>
      <trkpt lat="43.2521240" lon="-4.8571270">
        <ele>490.8</ele>
        <time>2021-12-21T15:50:20Z</time>
      </trkpt>
      <trkpt lat="43.2521350" lon="-4.8570820">
        <ele>490.7</ele>
        <time>2021-12-21T15:50:25Z</time>
      </trkpt>
      <trkpt lat="43.2521070" lon="-4.8570470">
        <ele>490.6</ele>
        <time>2021-12-21T15:50:30Z</time>
      </trkpt>
      <trkpt lat="43.2520830" lon="-4.8570070">
        <ele>490.5</ele>
        <time>2021-12-21T15:50:35Z</time>
      </trkpt>
      <trkpt lat="43.2520580" lon="-4.8569610">
        <ele>490.3</ele>
        <time>2021-12-21T15:50:40Z</time>
      </trkpt>
      <trkpt lat="43.2520490" lon="-4.8569100">
        <ele>490.1</ele>
        <time>2021-12-21T15:50:45Z</time>
      </trkpt>
      <trkpt lat="43.2520500" lon="-4.8568870">
        <ele>489.9</ele>
        <time>2021-12-21T15:50:50Z</time>
      </trkpt>
      <trkpt lat="43.2520410" lon="-4.8568190">
        <ele>489.5</ele>
        <time>2021-12-21T15:50:56Z</time>
      </trkpt>
      <trkpt lat="43.2520540" lon="-4.8568140">
        <ele>489.4</ele>
        <time>2021-12-21T15:51:01Z</time>
      </trkpt>
      <trkpt lat="43.2520540" lon="-4.8566590">
        <ele>488.2</ele>
        <time>2021-12-21T15:51:06Z</time>
      </trkpt>
      <trkpt lat="43.2520700" lon="-4.8565860">
        <ele>487.5</ele>
        <time>2021-12-21T15:51:11Z</time>
      </trkpt>
      <trkpt lat="43.2520770" lon="-4.8565540">
        <ele>487.1</ele>
        <time>2021-12-21T15:51:16Z</time>
      </trkpt>
      <trkpt lat="43.2520790" lon="-4.8565060">
        <ele>486.6</ele>
        <time>2021-12-21T15:51:21Z</time>
      </trkpt>
      <trkpt lat="43.2520790" lon="-4.8564640">
        <ele>486.2</ele>
        <time>2021-12-21T15:51:27Z</time>
      </trkpt>
      <trkpt lat="43.2520830" lon="-4.8564350">
        <ele>485.9</ele>
        <time>2021-12-21T15:51:32Z</time>
      </trkpt>
      <trkpt lat="43.2520990" lon="-4.8563630">
        <ele>485.1</ele>
        <time>2021-12-21T15:51:37Z</time>
      </trkpt>
      <trkpt lat="43.2520940" lon="-4.8563160">
        <ele>484.7</ele>
        <time>2021-12-21T15:51:42Z</time>
      </trkpt>
      <trkpt lat="43.2520920" lon="-4.8562660">
        <ele>484.2</ele>
        <time>2021-12-21T15:51:47Z</time>
      </trkpt>
      <trkpt lat="43.2520850" lon="-4.8561890">
        <ele>483.3</ele>
        <time>2021-12-21T15:51:52Z</time>
      </trkpt>
      <trkpt lat="43.2520870" lon="-4.8561580">
        <ele>483.0</ele>
        <time>2021-12-21T15:51:58Z</time>
      </trkpt>
      <trkpt lat="43.2520860" lon="-4.8560780">
        <ele>482.2</ele>
        <time>2021-12-21T15:52:08Z</time>
      </trkpt>
      <trkpt lat="43.2520790" lon="-4.8560310">
        <ele>481.6</ele>
        <time>2021-12-21T15:52:13Z</time>
      </trkpt>
      <trkpt lat="43.2520610" lon="-4.8559530">
        <ele>480.7</ele>
        <time>2021-12-21T15:52:18Z</time>
      </trkpt>
      <trkpt lat="43.2520420" lon="-4.8558820">
        <ele>479.7</ele>
        <time>2021-12-21T15:52:23Z</time>
      </trkpt>
      <trkpt lat="43.2520380" lon="-4.8558420">
        <ele>479.2</ele>
        <time>2021-12-21T15:52:26Z</time>
      </trkpt>
      <trkpt lat="43.2520340" lon="-4.8558150">
        <ele>478.7</ele>
        <time>2021-12-21T15:52:31Z</time>
      </trkpt>
      <trkpt lat="43.2520350" lon="-4.8557380">
        <ele>477.3</ele>
        <time>2021-12-21T15:52:36Z</time>
      </trkpt>
      <trkpt lat="43.2520450" lon="-4.8556840">
        <ele>476.1</ele>
        <time>2021-12-21T15:52:39Z</time>
      </trkpt>
      <trkpt lat="43.2520490" lon="-4.8556420">
        <ele>475.2</ele>
        <time>2021-12-21T15:52:44Z</time>
      </trkpt>
      <trkpt lat="43.2520490" lon="-4.8556010">
        <ele>474.4</ele>
        <time>2021-12-21T15:52:46Z</time>
      </trkpt>
      <trkpt lat="43.2520600" lon="-4.8555750">
        <ele>473.7</ele>
        <time>2021-12-21T15:52:52Z</time>
      </trkpt>
      <trkpt lat="43.2520410" lon="-4.8555010">
        <ele>471.9</ele>
        <time>2021-12-21T15:52:57Z</time>
      </trkpt>
      <trkpt lat="43.2520570" lon="-4.8554530">
        <ele>470.6</ele>
        <time>2021-12-21T15:53:02Z</time>
      </trkpt>
      <trkpt lat="43.2520700" lon="-4.8554050">
        <ele>469.3</ele>
        <time>2021-12-21T15:53:07Z</time>
      </trkpt>
      <trkpt lat="43.2520830" lon="-4.8553550">
        <ele>467.8</ele>
        <time>2021-12-21T15:53:12Z</time>
      </trkpt>
      <trkpt lat="43.2521010" lon="-4.8553170">
        <ele>466.6</ele>
        <time>2021-12-21T15:53:18Z</time>
      </trkpt>
      <trkpt lat="43.2521150" lon="-4.8552430">
        <ele>464.6</ele>
        <time>2021-12-21T15:53:20Z</time>
      </trkpt>
      <trkpt lat="43.2521220" lon="-4.8552140">
        <ele>463.8</ele>
        <time>2021-12-21T15:53:23Z</time>
      </trkpt>
      <trkpt lat="43.2521300" lon="-4.8551830">
        <ele>462.9</ele>
        <time>2021-12-21T15:53:25Z</time>
      </trkpt>
      <trkpt lat="43.2521300" lon="-4.8551650">
        <ele>462.4</ele>
        <time>2021-12-21T15:53:30Z</time>
      </trkpt>
      <trkpt lat="43.2521390" lon="-4.8551180">
        <ele>461.1</ele>
        <time>2021-12-21T15:53:33Z</time>
      </trkpt>
      <trkpt lat="43.2521500" lon="-4.8550620">
        <ele>459.6</ele>
        <time>2021-12-21T15:53:38Z</time>
      </trkpt>
      <trkpt lat="43.2521580" lon="-4.8550080">
        <ele>458.1</ele>
        <time>2021-12-21T15:53:41Z</time>
      </trkpt>
      <trkpt lat="43.2521810" lon="-4.8549610">
        <ele>456.6</ele>
        <time>2021-12-21T15:53:46Z</time>
      </trkpt>
      <trkpt lat="43.2521970" lon="-4.8549150">
        <ele>455.3</ele>
        <time>2021-12-21T15:53:48Z</time>
      </trkpt>
      <trkpt lat="43.2522030" lon="-4.8548690">
        <ele>454.0</ele>
        <time>2021-12-21T15:53:51Z</time>
      </trkpt>
      <trkpt lat="43.2522250" lon="-4.8548260">
        <ele>452.6</ele>
        <time>2021-12-21T15:53:56Z</time>
      </trkpt>
      <trkpt lat="43.2522400" lon="-4.8547770">
        <ele>451.1</ele>
        <time>2021-12-21T15:53:59Z</time>
      </trkpt>
      <trkpt lat="43.2522280" lon="-4.8547280">
        <ele>449.6</ele>
        <time>2021-12-21T15:54:01Z</time>
      </trkpt>
      <trkpt lat="43.2522400" lon="-4.8546800">
        <ele>448.2</ele>
        <time>2021-12-21T15:54:04Z</time>
      </trkpt>
      <trkpt lat="43.2522490" lon="-4.8546320">
        <ele>446.8</ele>
        <time>2021-12-21T15:54:09Z</time>
      </trkpt>
      <trkpt lat="43.2522530" lon="-4.8545760">
        <ele>445.2</ele>
        <time>2021-12-21T15:54:12Z</time>
      </trkpt>
      <trkpt lat="43.2522640" lon="-4.8545290">
        <ele>443.8</ele>
        <time>2021-12-21T15:54:14Z</time>
      </trkpt>
      <trkpt lat="43.2522710" lon="-4.8544740">
        <ele>442.3</ele>
        <time>2021-12-21T15:54:19Z</time>
      </trkpt>
      <trkpt lat="43.2522790" lon="-4.8544120">
        <ele>440.7</ele>
        <time>2021-12-21T15:54:22Z</time>
      </trkpt>
      <trkpt lat="43.2522720" lon="-4.8543540">
        <ele>439.1</ele>
        <time>2021-12-21T15:54:27Z</time>
      </trkpt>
      <trkpt lat="43.2522730" lon="-4.8542960">
        <ele>437.7</ele>
        <time>2021-12-21T15:54:30Z</time>
      </trkpt>
      <trkpt lat="43.2522760" lon="-4.8542380">
        <ele>436.2</ele>
        <time>2021-12-21T15:54:35Z</time>
      </trkpt>
      <trkpt lat="43.2522740" lon="-4.8541900">
        <ele>435.0</ele>
        <time>2021-12-21T15:54:37Z</time>
      </trkpt>
      <trkpt lat="43.2522620" lon="-4.8541380">
        <ele>433.8</ele>
        <time>2021-12-21T15:54:40Z</time>
      </trkpt>
      <trkpt lat="43.2522680" lon="-4.8541120">
        <ele>433.1</ele>
        <time>2021-12-21T15:54:45Z</time>
      </trkpt>
      <trkpt lat="43.2522360" lon="-4.8540320">
        <ele>431.1</ele>
        <time>2021-12-21T15:54:50Z</time>
      </trkpt>
      <trkpt lat="43.2522140" lon="-4.8539780">
        <ele>429.7</ele>
        <time>2021-12-21T15:54:55Z</time>
      </trkpt>
      <trkpt lat="43.2521880" lon="-4.8539180">
        <ele>428.2</ele>
        <time>2021-12-21T15:55:01Z</time>
      </trkpt>
      <trkpt lat="43.2521690" lon="-4.8538660">
        <ele>426.9</ele>
        <time>2021-12-21T15:55:06Z</time>
      </trkpt>
      <trkpt lat="43.2521450" lon="-4.8538190">
        <ele>425.7</ele>
        <time>2021-12-21T15:55:11Z</time>
      </trkpt>
      <trkpt lat="43.2521220" lon="-4.8537610">
        <ele>424.5</ele>
        <time>2021-12-21T15:55:16Z</time>
      </trkpt>
      <trkpt lat="43.2520940" lon="-4.8536970">
        <ele>423.2</ele>
        <time>2021-12-21T15:55:21Z</time>
      </trkpt>
      <trkpt lat="43.2520720" lon="-4.8536580">
        <ele>422.3</ele>
        <time>2021-12-21T15:55:26Z</time>
      </trkpt>
      <trkpt lat="43.2520630" lon="-4.8535960">
        <ele>421.0</ele>
        <time>2021-12-21T15:55:37Z</time>
      </trkpt>
      <trkpt lat="43.2520570" lon="-4.8535690">
        <ele>420.4</ele>
        <time>2021-12-21T15:55:42Z</time>
      </trkpt>
      <trkpt lat="43.2520470" lon="-4.8535050">
        <ele>418.9</ele>
        <time>2021-12-21T15:55:47Z</time>
      </trkpt>
      <trkpt lat="43.2520280" lon="-4.8534640">
        <ele>417.7</ele>
        <time>2021-12-21T15:55:50Z</time>
      </trkpt>
      <trkpt lat="43.2520160" lon="-4.8534060">
        <ele>416.2</ele>
        <time>2021-12-21T15:55:52Z</time>
      </trkpt>
      <trkpt lat="43.2520220" lon="-4.8533510">
        <ele>414.7</ele>
        <time>2021-12-21T15:55:57Z</time>
      </trkpt>
      <trkpt lat="43.2520190" lon="-4.8532990">
        <ele>413.4</ele>
        <time>2021-12-21T15:56:02Z</time>
      </trkpt>
      <trkpt lat="43.2520120" lon="-4.8532140">
        <ele>413.0</ele>
        <time>2021-12-21T15:56:08Z</time>
      </trkpt>
      <trkpt lat="43.2520050" lon="-4.8531920">
        <ele>413.2</ele>
        <time>2021-12-21T15:56:13Z</time>
      </trkpt>
      <trkpt lat="43.2519980" lon="-4.8531480">
        <ele>413.5</ele>
        <time>2021-12-21T15:56:15Z</time>
      </trkpt>
      <trkpt lat="43.2519880" lon="-4.8531160">
        <ele>413.8</ele>
        <time>2021-12-21T15:56:18Z</time>
      </trkpt>
      <trkpt lat="43.2519700" lon="-4.8530390">
        <ele>414.5</ele>
        <time>2021-12-21T15:56:23Z</time>
      </trkpt>
      <trkpt lat="43.2519490" lon="-4.8529960">
        <ele>415.0</ele>
        <time>2021-12-21T15:56:28Z</time>
      </trkpt>
      <trkpt lat="43.2519160" lon="-4.8529400">
        <ele>415.7</ele>
        <time>2021-12-21T15:56:31Z</time>
      </trkpt>
      <trkpt lat="43.2519040" lon="-4.8528960">
        <ele>416.1</ele>
        <time>2021-12-21T15:56:36Z</time>
      </trkpt>
      <trkpt lat="43.2518640" lon="-4.8528290">
        <ele>417.1</ele>
        <time>2021-12-21T15:56:41Z</time>
      </trkpt>
      <trkpt lat="43.2518500" lon="-4.8528040">
        <ele>417.4</ele>
        <time>2021-12-21T15:56:44Z</time>
      </trkpt>
      <trkpt lat="43.2518310" lon="-4.8527520">
        <ele>418.0</ele>
        <time>2021-12-21T15:56:49Z</time>
      </trkpt>
      <trkpt lat="43.2518010" lon="-4.8526750">
        <ele>418.9</ele>
        <time>2021-12-21T15:56:51Z</time>
      </trkpt>
      <trkpt lat="43.2517970" lon="-4.8526230">
        <ele>419.4</ele>
        <time>2021-12-21T15:56:54Z</time>
      </trkpt>
      <trkpt lat="43.2518030" lon="-4.8525950">
        <ele>419.7</ele>
        <time>2021-12-21T15:56:57Z</time>
      </trkpt>
      <trkpt lat="43.2518130" lon="-4.8525490">
        <ele>420.1</ele>
        <time>2021-12-21T15:57:02Z</time>
      </trkpt>
      <trkpt lat="43.2518470" lon="-4.8524870">
        <ele>420.7</ele>
        <time>2021-12-21T15:57:04Z</time>
      </trkpt>
      <trkpt lat="43.2518630" lon="-4.8524490">
        <ele>421.1</ele>
        <time>2021-12-21T15:57:07Z</time>
      </trkpt>
      <trkpt lat="43.2518780" lon="-4.8524320">
        <ele>421.3</ele>
        <time>2021-12-21T15:57:10Z</time>
      </trkpt>
      <trkpt lat="43.2519140" lon="-4.8523710">
        <ele>421.9</ele>
        <time>2021-12-21T15:57:12Z</time>
      </trkpt>
      <trkpt lat="43.2519400" lon="-4.8523420">
        <ele>422.2</ele>
        <time>2021-12-21T15:57:15Z</time>
      </trkpt>
      <trkpt lat="43.2519800" lon="-4.8522850">
        <ele>422.7</ele>
        <time>2021-12-21T15:57:20Z</time>
      </trkpt>
      <trkpt lat="43.2520030" lon="-4.8522560">
        <ele>423.0</ele>
        <time>2021-12-21T15:57:25Z</time>
      </trkpt>
      <trkpt lat="43.2520410" lon="-4.8522000">
        <ele>423.5</ele>
        <time>2021-12-21T15:57:33Z</time>
      </trkpt>
      <trkpt lat="43.2520590" lon="-4.8521850">
        <ele>423.7</ele>
        <time>2021-12-21T15:57:40Z</time>
      </trkpt>
      <trkpt lat="43.2520890" lon="-4.8521570">
        <ele>424.0</ele>
        <time>2021-12-21T15:57:46Z</time>
      </trkpt>
      <trkpt lat="43.2521360" lon="-4.8521490">
        <ele>424.4</ele>
        <time>2021-12-21T15:57:48Z</time>
      </trkpt>
      <trkpt lat="43.2521880" lon="-4.8521570">
        <ele>424.8</ele>
        <time>2021-12-21T15:57:56Z</time>
      </trkpt>
      <trkpt lat="43.2522330" lon="-4.8521500">
        <ele>425.2</ele>
        <time>2021-12-21T15:57:58Z</time>
      </trkpt>
      <trkpt lat="43.2522900" lon="-4.8521210">
        <ele>425.7</ele>
        <time>2021-12-21T15:58:09Z</time>
      </trkpt>
      <trkpt lat="43.2523300" lon="-4.8520880">
        <ele>426.1</ele>
        <time>2021-12-21T15:58:11Z</time>
      </trkpt>
      <trkpt lat="43.2523680" lon="-4.8520450">
        <ele>426.5</ele>
        <time>2021-12-21T15:58:16Z</time>
      </trkpt>
      <trkpt lat="43.2523940" lon="-4.8519930">
        <ele>426.9</ele>
        <time>2021-12-21T15:59:25Z</time>
      </trkpt>
      <trkpt lat="43.2524220" lon="-4.8519300">
        <ele>427.3</ele>
        <time>2021-12-21T15:59:29Z</time>
      </trkpt>
      <trkpt lat="43.2524420" lon="-4.8519180">
        <ele>427.5</ele>
        <time>2021-12-21T15:59:34Z</time>
      </trkpt>
      <trkpt lat="43.2524880" lon="-4.8518230">
        <ele>428.1</ele>
        <time>2021-12-21T15:59:39Z</time>
      </trkpt>
      <trkpt lat="43.2525140" lon="-4.8517610">
        <ele>428.4</ele>
        <time>2021-12-21T15:59:44Z</time>
      </trkpt>
      <trkpt lat="43.2525490" lon="-4.8516980">
        <ele>428.8</ele>
        <time>2021-12-21T15:59:47Z</time>
      </trkpt>
      <trkpt lat="43.2525640" lon="-4.8516600">
        <ele>428.9</ele>
        <time>2021-12-21T15:59:49Z</time>
      </trkpt>
      <trkpt lat="43.2525830" lon="-4.8516350">
        <ele>429.1</ele>
        <time>2021-12-21T15:59:52Z</time>
      </trkpt>
      <trkpt lat="43.2526030" lon="-4.8515650">
        <ele>429.3</ele>
        <time>2021-12-21T15:59:55Z</time>
      </trkpt>
      <trkpt lat="43.2526240" lon="-4.8515010">
        <ele>429.6</ele>
        <time>2021-12-21T15:59:57Z</time>
      </trkpt>
      <trkpt lat="43.2526520" lon="-4.8514320">
        <ele>429.9</ele>
        <time>2021-12-21T16:00:00Z</time>
      </trkpt>
      <trkpt lat="43.2526810" lon="-4.8513680">
        <ele>430.1</ele>
        <time>2021-12-21T16:00:02Z</time>
      </trkpt>
      <trkpt lat="43.2526950" lon="-4.8513430">
        <ele>430.2</ele>
        <time>2021-12-21T16:00:05Z</time>
      </trkpt>
      <trkpt lat="43.2527070" lon="-4.8513020">
        <ele>430.4</ele>
        <time>2021-12-21T16:00:10Z</time>
      </trkpt>
      <trkpt lat="43.2527300" lon="-4.8512560">
        <ele>430.6</ele>
        <time>2021-12-21T16:00:12Z</time>
      </trkpt>
      <trkpt lat="43.2527580" lon="-4.8512000">
        <ele>430.8</ele>
        <time>2021-12-21T16:00:15Z</time>
      </trkpt>
      <trkpt lat="43.2527710" lon="-4.8511790">
        <ele>430.9</ele>
        <time>2021-12-21T16:00:20Z</time>
      </trkpt>
      <trkpt lat="43.2527990" lon="-4.8511130">
        <ele>431.2</ele>
        <time>2021-12-21T16:00:25Z</time>
      </trkpt>
      <trkpt lat="43.2528260" lon="-4.8510470">
        <ele>431.5</ele>
        <time>2021-12-21T16:00:28Z</time>
      </trkpt>
      <trkpt lat="43.2528400" lon="-4.8510110">
        <ele>431.6</ele>
        <time>2021-12-21T16:00:33Z</time>
      </trkpt>
      <trkpt lat="43.2528590" lon="-4.8509370">
        <ele>431.9</ele>
        <time>2021-12-21T16:00:38Z</time>
      </trkpt>
      <trkpt lat="43.2528680" lon="-4.8509130">
        <ele>432.1</ele>
        <time>2021-12-21T16:00:43Z</time>
      </trkpt>
      <trkpt lat="43.2528760" lon="-4.8508630">
        <ele>432.3</ele>
        <time>2021-12-21T16:00:46Z</time>
      </trkpt>
      <trkpt lat="43.2528850" lon="-4.8508200">
        <ele>432.6</ele>
        <time>2021-12-21T16:00:49Z</time>
      </trkpt>
      <trkpt lat="43.2528950" lon="-4.8507250">
        <ele>433.2</ele>
        <time>2021-12-21T16:00:51Z</time>
      </trkpt>
      <trkpt lat="43.2529010" lon="-4.8506920">
        <ele>433.5</ele>
        <time>2021-12-21T16:00:54Z</time>
      </trkpt>
      <trkpt lat="43.2529050" lon="-4.8506410">
        <ele>433.9</ele>
        <time>2021-12-21T16:00:56Z</time>
      </trkpt>
      <trkpt lat="43.2529070" lon="-4.8505880">
        <ele>434.3</ele>
        <time>2021-12-21T16:01:01Z</time>
      </trkpt>
      <trkpt lat="43.2529050" lon="-4.8505500">
        <ele>434.6</ele>
        <time>2021-12-21T16:01:04Z</time>
      </trkpt>
      <trkpt lat="43.2529090" lon="-4.8505090">
        <ele>435.0</ele>
        <time>2021-12-21T16:01:07Z</time>
      </trkpt>
      <trkpt lat="43.2529120" lon="-4.8504590">
        <ele>435.3</ele>
        <time>2021-12-21T16:01:12Z</time>
      </trkpt>
      <trkpt lat="43.2529200" lon="-4.8504200">
        <ele>435.5</ele>
        <time>2021-12-21T16:01:14Z</time>
      </trkpt>
      <trkpt lat="43.2529390" lon="-4.8503930">
        <ele>435.7</ele>
        <time>2021-12-21T16:01:17Z</time>
      </trkpt>
      <trkpt lat="43.2529620" lon="-4.8503610">
        <ele>436.0</ele>
        <time>2021-12-21T16:01:22Z</time>
      </trkpt>
      <trkpt lat="43.2529580" lon="-4.8503580">
        <ele>436.0</ele>
        <time>2021-12-21T16:01:25Z</time>
      </trkpt>
      <trkpt lat="43.2529450" lon="-4.8503520">
        <ele>436.0</ele>
        <time>2021-12-21T16:01:30Z</time>
      </trkpt>
      <trkpt lat="43.2529190" lon="-4.8503190">
        <ele>436.5</ele>
        <time>2021-12-21T16:01:35Z</time>
      </trkpt>
      <trkpt lat="43.2529220" lon="-4.8503110">
        <ele>436.5</ele>
        <time>2021-12-21T16:01:40Z</time>
      </trkpt>
      <trkpt lat="43.2529630" lon="-4.8502600">
        <ele>436.9</ele>
        <time>2021-12-21T16:01:45Z</time>
      </trkpt>
      <trkpt lat="43.2529760" lon="-4.8502500">
        <ele>437.1</ele>
        <time>2021-12-21T16:01:51Z</time>
      </trkpt>
      <trkpt lat="43.2529650" lon="-4.8502360">
        <ele>437.2</ele>
        <time>2021-12-21T16:01:56Z</time>
      </trkpt>
      <trkpt lat="43.2529060" lon="-4.8501380">
        <ele>438.0</ele>
        <time>2021-12-21T16:02:01Z</time>
      </trkpt>
      <trkpt lat="43.2529200" lon="-4.8501160">
        <ele>438.2</ele>
        <time>2021-12-21T16:02:06Z</time>
      </trkpt>
      <trkpt lat="43.2529480" lon="-4.8501030">
        <ele>438.5</ele>
        <time>2021-12-21T16:02:14Z</time>
      </trkpt>
      <trkpt lat="43.2529710" lon="-4.8500970">
        <ele>438.9</ele>
        <time>2021-12-21T16:02:24Z</time>
      </trkpt>
      <trkpt lat="43.2530110" lon="-4.8500770">
        <ele>439.5</ele>
        <time>2021-12-21T16:02:34Z</time>
      </trkpt>
      <trkpt lat="43.2530430" lon="-4.8500440">
        <ele>439.2</ele>
        <time>2021-12-21T16:02:45Z</time>
      </trkpt>
      <trkpt lat="43.2530680" lon="-4.8500180">
        <ele>438.8</ele>
        <time>2021-12-21T16:02:47Z</time>
      </trkpt>
      <trkpt lat="43.2530950" lon="-4.8499830">
        <ele>438.2</ele>
        <time>2021-12-21T16:02:52Z</time>
      </trkpt>
      <trkpt lat="43.2531270" lon="-4.8499550">
        <ele>437.6</ele>
        <time>2021-12-21T16:02:55Z</time>
      </trkpt>
      <trkpt lat="43.2531470" lon="-4.8499370">
        <ele>437.2</ele>
        <time>2021-12-21T16:03:00Z</time>
      </trkpt>
      <trkpt lat="43.2531690" lon="-4.8499070">
        <ele>436.7</ele>
        <time>2021-12-21T16:03:03Z</time>
      </trkpt>
      <trkpt lat="43.2531910" lon="-4.8498810">
        <ele>436.3</ele>
        <time>2021-12-21T16:03:05Z</time>
      </trkpt>
      <trkpt lat="43.2532160" lon="-4.8498480">
        <ele>435.7</ele>
        <time>2021-12-21T16:03:08Z</time>
      </trkpt>
      <trkpt lat="43.2532530" lon="-4.8497880">
        <ele>434.9</ele>
        <time>2021-12-21T16:03:10Z</time>
      </trkpt>
      <trkpt lat="43.2532690" lon="-4.8497660">
        <ele>434.5</ele>
        <time>2021-12-21T16:03:13Z</time>
      </trkpt>
      <trkpt lat="43.2532810" lon="-4.8497580">
        <ele>434.3</ele>
        <time>2021-12-21T16:03:18Z</time>
      </trkpt>
      <trkpt lat="43.2533170" lon="-4.8496980">
        <ele>433.4</ele>
        <time>2021-12-21T16:03:23Z</time>
      </trkpt>
      <trkpt lat="43.2533360" lon="-4.8496320">
        <ele>432.6</ele>
        <time>2021-12-21T16:03:26Z</time>
      </trkpt>
      <trkpt lat="43.2533400" lon="-4.8495990">
        <ele>432.2</ele>
        <time>2021-12-21T16:03:31Z</time>
      </trkpt>
      <trkpt lat="43.2533540" lon="-4.8495410">
        <ele>431.5</ele>
        <time>2021-12-21T16:03:36Z</time>
      </trkpt>
      <trkpt lat="43.2533730" lon="-4.8494810">
        <ele>430.8</ele>
        <time>2021-12-21T16:03:39Z</time>
      </trkpt>
      <trkpt lat="43.2533880" lon="-4.8494020">
        <ele>429.9</ele>
        <time>2021-12-21T16:03:44Z</time>
      </trkpt>
      <trkpt lat="43.2533830" lon="-4.8493510">
        <ele>429.3</ele>
        <time>2021-12-21T16:03:49Z</time>
      </trkpt>
      <trkpt lat="43.2533700" lon="-4.8493020">
        <ele>428.7</ele>
        <time>2021-12-21T16:03:54Z</time>
      </trkpt>
      <trkpt lat="43.2533690" lon="-4.8492700">
        <ele>428.3</ele>
        <time>2021-12-21T16:04:00Z</time>
      </trkpt>
      <trkpt lat="43.2533620" lon="-4.8492220">
        <ele>427.8</ele>
        <time>2021-12-21T16:04:05Z</time>
      </trkpt>
      <trkpt lat="43.2533680" lon="-4.8492060">
        <ele>427.6</ele>
        <time>2021-12-21T16:04:10Z</time>
      </trkpt>
      <trkpt lat="43.2533920" lon="-4.8491530">
        <ele>426.9</ele>
        <time>2021-12-21T16:04:15Z</time>
      </trkpt>
      <trkpt lat="43.2534050" lon="-4.8491070">
        <ele>426.3</ele>
        <time>2021-12-21T16:04:20Z</time>
      </trkpt>
      <trkpt lat="43.2534250" lon="-4.8490600">
        <ele>425.7</ele>
        <time>2021-12-21T16:04:25Z</time>
      </trkpt>
      <trkpt lat="43.2534530" lon="-4.8489990">
        <ele>424.9</ele>
        <time>2021-12-21T16:04:30Z</time>
      </trkpt>
      <trkpt lat="43.2534690" lon="-4.8489830">
        <ele>424.6</ele>
        <time>2021-12-21T16:04:36Z</time>
      </trkpt>
      <trkpt lat="43.2534750" lon="-4.8489480">
        <ele>424.2</ele>
        <time>2021-12-21T16:04:39Z</time>
      </trkpt>
      <trkpt lat="43.2534790" lon="-4.8488690">
        <ele>423.3</ele>
        <time>2021-12-21T16:04:43Z</time>
      </trkpt>
      <trkpt lat="43.2534710" lon="-4.8488380">
        <ele>422.9</ele>
        <time>2021-12-21T16:04:46Z</time>
      </trkpt>
      <trkpt lat="43.2534540" lon="-4.8487940">
        <ele>422.3</ele>
        <time>2021-12-21T16:04:51Z</time>
      </trkpt>
      <trkpt lat="43.2534390" lon="-4.8487320">
        <ele>421.6</ele>
        <time>2021-12-21T16:04:59Z</time>
      </trkpt>
      <trkpt lat="43.2534230" lon="-4.8486630">
        <ele>420.8</ele>
        <time>2021-12-21T16:05:04Z</time>
      </trkpt>
      <trkpt lat="43.2534110" lon="-4.8486220">
        <ele>420.3</ele>
        <time>2021-12-21T16:05:25Z</time>
      </trkpt>
      <trkpt lat="43.2534200" lon="-4.8485850">
        <ele>419.8</ele>
        <time>2021-12-21T16:05:30Z</time>
      </trkpt>
      <trkpt lat="43.2534360" lon="-4.8485480">
        <ele>419.4</ele>
        <time>2021-12-21T16:05:35Z</time>
      </trkpt>
      <trkpt lat="43.2534490" lon="-4.8484990">
        <ele>418.8</ele>
        <time>2021-12-21T16:05:40Z</time>
      </trkpt>
      <trkpt lat="43.2534470" lon="-4.8484660">
        <ele>418.4</ele>
        <time>2021-12-21T16:05:45Z</time>
      </trkpt>
      <trkpt lat="43.2534550" lon="-4.8484320">
        <ele>418.0</ele>
        <time>2021-12-21T16:05:50Z</time>
      </trkpt>
      <trkpt lat="43.2534480" lon="-4.8483730">
        <ele>417.3</ele>
        <time>2021-12-21T16:05:55Z</time>
      </trkpt>
      <trkpt lat="43.2534350" lon="-4.8483050">
        <ele>416.5</ele>
        <time>2021-12-21T16:06:01Z</time>
      </trkpt>
      <trkpt lat="43.2534640" lon="-4.8482390">
        <ele>415.6</ele>
        <time>2021-12-21T16:06:06Z</time>
      </trkpt>
      <trkpt lat="43.2534680" lon="-4.8482320">
        <ele>415.5</ele>
        <time>2021-12-21T16:06:11Z</time>
      </trkpt>
      <trkpt lat="43.2534740" lon="-4.8482010">
        <ele>415.2</ele>
        <time>2021-12-21T16:06:16Z</time>
      </trkpt>
      <trkpt lat="43.2534830" lon="-4.8481860">
        <ele>415.0</ele>
        <time>2021-12-21T16:06:21Z</time>
      </trkpt>
      <trkpt lat="43.2534840" lon="-4.8481470">
        <ele>414.5</ele>
        <time>2021-12-21T16:06:26Z</time>
      </trkpt>
      <trkpt lat="43.2534960" lon="-4.8481240">
        <ele>414.2</ele>
        <time>2021-12-21T16:06:32Z</time>
      </trkpt>
      <trkpt lat="43.2535040" lon="-4.8480990">
        <ele>413.9</ele>
        <time>2021-12-21T16:06:37Z</time>
      </trkpt>
      <trkpt lat="43.2534960" lon="-4.8480530">
        <ele>413.3</ele>
        <time>2021-12-21T16:06:42Z</time>
      </trkpt>
      <trkpt lat="43.2534970" lon="-4.8480400">
        <ele>413.2</ele>
        <time>2021-12-21T16:06:52Z</time>
      </trkpt>
      <trkpt lat="43.2534900" lon="-4.8480100">
        <ele>412.8</ele>
        <time>2021-12-21T16:07:20Z</time>
      </trkpt>
      <trkpt lat="43.2534770" lon="-4.8479690">
        <ele>412.3</ele>
        <time>2021-12-21T16:07:23Z</time>
      </trkpt>
      <trkpt lat="43.2534750" lon="-4.8479130">
        <ele>411.7</ele>
        <time>2021-12-21T16:07:59Z</time>
      </trkpt>
      <trkpt lat="43.2534720" lon="-4.8478780">
        <ele>411.3</ele>
        <time>2021-12-21T16:08:04Z</time>
      </trkpt>
      <trkpt lat="43.2534640" lon="-4.8478190">
        <ele>410.6</ele>
        <time>2021-12-21T16:08:15Z</time>
      </trkpt>
      <trkpt lat="43.2534530" lon="-4.8477580">
        <ele>409.9</ele>
        <time>2021-12-21T16:08:17Z</time>
      </trkpt>
      <trkpt lat="43.2534550" lon="-4.8477250">
        <ele>409.5</ele>
        <time>2021-12-21T16:08:20Z</time>
      </trkpt>
      <trkpt lat="43.2534790" lon="-4.8476860">
        <ele>409.0</ele>
        <time>2021-12-21T16:08:22Z</time>
      </trkpt>
      <trkpt lat="43.2534930" lon="-4.8476590">
        <ele>408.6</ele>
        <time>2021-12-21T16:08:25Z</time>
      </trkpt>
      <trkpt lat="43.2535080" lon="-4.8476120">
        <ele>408.0</ele>
        <time>2021-12-21T16:08:30Z</time>
      </trkpt>
      <trkpt lat="43.2535230" lon="-4.8475600">
        <ele>407.4</ele>
        <time>2021-12-21T16:08:53Z</time>
      </trkpt>
      <trkpt lat="43.2535310" lon="-4.8475130">
        <ele>406.8</ele>
        <time>2021-12-21T16:08:58Z</time>
      </trkpt>
      <trkpt lat="43.2535330" lon="-4.8474590">
        <ele>406.2</ele>
        <time>2021-12-21T16:09:04Z</time>
      </trkpt>
      <trkpt lat="43.2535290" lon="-4.8474040">
        <ele>405.6</ele>
        <time>2021-12-21T16:09:06Z</time>
      </trkpt>
      <trkpt lat="43.2535230" lon="-4.8473420">
        <ele>404.9</ele>
        <time>2021-12-21T16:09:09Z</time>
      </trkpt>
      <trkpt lat="43.2535150" lon="-4.8472830">
        <ele>404.2</ele>
        <time>2021-12-21T16:09:11Z</time>
      </trkpt>
      <trkpt lat="43.2535190" lon="-4.8472370">
        <ele>403.7</ele>
        <time>2021-12-21T16:09:17Z</time>
      </trkpt>
      <trkpt lat="43.2535090" lon="-4.8471650">
        <ele>402.8</ele>
        <time>2021-12-21T16:09:22Z</time>
      </trkpt>
      <trkpt lat="43.2535010" lon="-4.8471440">
        <ele>402.6</ele>
        <time>2021-12-21T16:09:29Z</time>
      </trkpt>
      <trkpt lat="43.2534910" lon="-4.8470960">
        <ele>402.0</ele>
        <time>2021-12-21T16:09:35Z</time>
      </trkpt>
      <trkpt lat="43.2534890" lon="-4.8470630">
        <ele>401.6</ele>
        <time>2021-12-21T16:09:40Z</time>
      </trkpt>
      <trkpt lat="43.2534840" lon="-4.8470360">
        <ele>401.3</ele>
        <time>2021-12-21T16:09:47Z</time>
      </trkpt>
      <trkpt lat="43.2534730" lon="-4.8469700">
        <ele>400.6</ele>
        <time>2021-12-21T16:09:55Z</time>
      </trkpt>
      <trkpt lat="43.2534750" lon="-4.8469360">
        <ele>400.2</ele>
        <time>2021-12-21T16:09:58Z</time>
      </trkpt>
      <trkpt lat="43.2534800" lon="-4.8468300">
        <ele>399.0</ele>
        <time>2021-12-21T16:10:03Z</time>
      </trkpt>
      <trkpt lat="43.2534880" lon="-4.8468070">
        <ele>398.7</ele>
        <time>2021-12-21T16:10:24Z</time>
      </trkpt>
      <trkpt lat="43.2534910" lon="-4.8467500">
        <ele>398.0</ele>
        <time>2021-12-21T16:10:29Z</time>
      </trkpt>
      <trkpt lat="43.2534800" lon="-4.8466930">
        <ele>397.4</ele>
        <time>2021-12-21T16:10:31Z</time>
      </trkpt>
      <trkpt lat="43.2534800" lon="-4.8466450">
        <ele>396.8</ele>
        <time>2021-12-21T16:10:34Z</time>
      </trkpt>
      <trkpt lat="43.2534740" lon="-4.8465960">
        <ele>396.3</ele>
        <time>2021-12-21T16:10:37Z</time>
      </trkpt>
      <trkpt lat="43.2534680" lon="-4.8465440">
        <ele>395.7</ele>
        <time>2021-12-21T16:10:42Z</time>
      </trkpt>
      <trkpt lat="43.2534610" lon="-4.8464830">
        <ele>395.0</ele>
        <time>2021-12-21T16:10:49Z</time>
      </trkpt>
      <trkpt lat="43.2534410" lon="-4.8464290">
        <ele>394.3</ele>
        <time>2021-12-21T16:11:00Z</time>
      </trkpt>
      <trkpt lat="43.2534270" lon="-4.8463830">
        <ele>393.7</ele>
        <time>2021-12-21T16:11:05Z</time>
      </trkpt>
      <trkpt lat="43.2534170" lon="-4.8463450">
        <ele>393.3</ele>
        <time>2021-12-21T16:11:23Z</time>
      </trkpt>
      <trkpt lat="43.2534100" lon="-4.8463050">
        <ele>392.8</ele>
        <time>2021-12-21T16:11:28Z</time>
      </trkpt>
      <trkpt lat="43.2533990" lon="-4.8462640">
        <ele>392.3</ele>
        <time>2021-12-21T16:11:33Z</time>
      </trkpt>
      <trkpt lat="43.2533860" lon="-4.8462070">
        <ele>391.6</ele>
        <time>2021-12-21T16:11:36Z</time>
      </trkpt>
      <trkpt lat="43.2533830" lon="-4.8461480">
        <ele>391.0</ele>
        <time>2021-12-21T16:11:41Z</time>
      </trkpt>
      <trkpt lat="43.2533880" lon="-4.8461130">
        <ele>390.5</ele>
        <time>2021-12-21T16:12:17Z</time>
      </trkpt>
      <trkpt lat="43.2533850" lon="-4.8460480">
        <ele>389.8</ele>
        <time>2021-12-21T16:12:32Z</time>
      </trkpt>
      <trkpt lat="43.2533570" lon="-4.8459040">
        <ele>388.1</ele>
        <time>2021-12-21T16:12:53Z</time>
      </trkpt>
      <trkpt lat="43.2533460" lon="-4.8458750">
        <ele>387.8</ele>
        <time>2021-12-21T16:13:11Z</time>
      </trkpt>
      <trkpt lat="43.2532780" lon="-4.8457830">
        <ele>386.3</ele>
        <time>2021-12-21T16:13:16Z</time>
      </trkpt>
      <trkpt lat="43.2532650" lon="-4.8457570">
        <ele>385.9</ele>
        <time>2021-12-21T16:13:19Z</time>
      </trkpt>
      <trkpt lat="43.2532270" lon="-4.8457080">
        <ele>385.1</ele>
        <time>2021-12-21T16:13:21Z</time>
      </trkpt>
      <trkpt lat="43.2532260" lon="-4.8457000">
        <ele>385.0</ele>
        <time>2021-12-21T16:13:27Z</time>
      </trkpt>
      <trkpt lat="43.2532200" lon="-4.8456820">
        <ele>384.8</ele>
        <time>2021-12-21T16:13:32Z</time>
      </trkpt>
      <trkpt lat="43.2532170" lon="-4.8456790">
        <ele>384.7</ele>
        <time>2021-12-21T16:13:37Z</time>
      </trkpt>
      <trkpt lat="43.2532070" lon="-4.8456680">
        <ele>384.5</ele>
        <time>2021-12-21T16:13:45Z</time>
      </trkpt>
      <trkpt lat="43.2532020" lon="-4.8456530">
        <ele>384.3</ele>
        <time>2021-12-21T16:13:50Z</time>
      </trkpt>
      <trkpt lat="43.2531500" lon="-4.8455630">
        <ele>383.0</ele>
        <time>2021-12-21T16:13:55Z</time>
      </trkpt>
      <trkpt lat="43.2531300" lon="-4.8455420">
        <ele>382.6</ele>
        <time>2021-12-21T16:14:00Z</time>
      </trkpt>
      <trkpt lat="43.2531020" lon="-4.8455130">
        <ele>382.1</ele>
        <time>2021-12-21T16:14:03Z</time>
      </trkpt>
      <trkpt lat="43.2530930" lon="-4.8455000">
        <ele>381.9</ele>
        <time>2021-12-21T16:14:05Z</time>
      </trkpt>
      <trkpt lat="43.2530890" lon="-4.8454890">
        <ele>381.8</ele>
        <time>2021-12-21T16:16:17Z</time>
      </trkpt>
      <trkpt lat="43.2530710" lon="-4.8454730">
        <ele>381.4</ele>
        <time>2021-12-21T16:16:19Z</time>
      </trkpt>
      <trkpt lat="43.2530380" lon="-4.8454300">
        <ele>380.7</ele>
        <time>2021-12-21T16:16:22Z</time>
      </trkpt>
      <trkpt lat="43.2530340" lon="-4.8454040">
        <ele>380.4</ele>
        <time>2021-12-21T16:16:58Z</time>
      </trkpt>
      <trkpt lat="43.2530270" lon="-4.8453730">
        <ele>380.1</ele>
        <time>2021-12-21T16:17:03Z</time>
      </trkpt>
      <trkpt lat="43.2530290" lon="-4.8453410">
        <ele>379.7</ele>
        <time>2021-12-21T16:17:08Z</time>
      </trkpt>
      <trkpt lat="43.2530430" lon="-4.8453130">
        <ele>379.3</ele>
        <time>2021-12-21T16:17:14Z</time>
      </trkpt>
      <trkpt lat="43.2530620" lon="-4.8452730">
        <ele>378.8</ele>
        <time>2021-12-21T16:17:16Z</time>
      </trkpt>
      <trkpt lat="43.2531020" lon="-4.8452080">
        <ele>377.8</ele>
        <time>2021-12-21T16:17:21Z</time>
      </trkpt>
      <trkpt lat="43.2531230" lon="-4.8451890">
        <ele>377.4</ele>
        <time>2021-12-21T16:17:26Z</time>
      </trkpt>
      <trkpt lat="43.2531380" lon="-4.8451650">
        <ele>377.1</ele>
        <time>2021-12-21T16:17:29Z</time>
      </trkpt>
      <trkpt lat="43.2531840" lon="-4.8451160">
        <ele>376.1</ele>
        <time>2021-12-21T16:17:34Z</time>
      </trkpt>
      <trkpt lat="43.2531650" lon="-4.8450670">
        <ele>375.5</ele>
        <time>2021-12-21T16:17:39Z</time>
      </trkpt>
      <trkpt lat="43.2531630" lon="-4.8450540">
        <ele>375.4</ele>
        <time>2021-12-21T16:17:44Z</time>
      </trkpt>
      <trkpt lat="43.2531580" lon="-4.8450390">
        <ele>375.2</ele>
        <time>2021-12-21T16:17:50Z</time>
      </trkpt>
      <trkpt lat="43.2531430" lon="-4.8450110">
        <ele>374.8</ele>
        <time>2021-12-21T16:17:55Z</time>
      </trkpt>
      <trkpt lat="43.2531340" lon="-4.8449830">
        <ele>374.4</ele>
        <time>2021-12-21T16:17:57Z</time>
      </trkpt>
      <trkpt lat="43.2531250" lon="-4.8449600">
        <ele>374.1</ele>
        <time>2021-12-21T16:18:02Z</time>
      </trkpt>
      <trkpt lat="43.2531320" lon="-4.8449060">
        <ele>373.5</ele>
        <time>2021-12-21T16:18:08Z</time>
      </trkpt>
      <trkpt lat="43.2531350" lon="-4.8449160">
        <ele>373.4</ele>
        <time>2021-12-21T16:18:13Z</time>
      </trkpt>
      <trkpt lat="43.2530630" lon="-4.8448720">
        <ele>372.2</ele>
        <time>2021-12-21T16:18:18Z</time>
      </trkpt>
      <trkpt lat="43.2530260" lon="-4.8448640">
        <ele>371.6</ele>
        <time>2021-12-21T16:18:33Z</time>
      </trkpt>
      <trkpt lat="43.2530160" lon="-4.8448460">
        <ele>371.3</ele>
        <time>2021-12-21T16:18:39Z</time>
      </trkpt>
      <trkpt lat="43.2530150" lon="-4.8448350">
        <ele>371.2</ele>
        <time>2021-12-21T16:18:44Z</time>
      </trkpt>
      <trkpt lat="43.2530130" lon="-4.8447950">
        <ele>370.8</ele>
        <time>2021-12-21T16:18:49Z</time>
      </trkpt>
      <trkpt lat="43.2530250" lon="-4.8447660">
        <ele>370.4</ele>
        <time>2021-12-21T16:18:54Z</time>
      </trkpt>
      <trkpt lat="43.2530460" lon="-4.8446900">
        <ele>369.5</ele>
        <time>2021-12-21T16:18:59Z</time>
      </trkpt>
      <trkpt lat="43.2530500" lon="-4.8446050">
        <ele>368.5</ele>
        <time>2021-12-21T16:19:02Z</time>
      </trkpt>
      <trkpt lat="43.2530610" lon="-4.8444920">
        <ele>367.2</ele>
        <time>2021-12-21T16:20:16Z</time>
      </trkpt>
      <trkpt lat="43.2530540" lon="-4.8444290">
        <ele>366.5</ele>
        <time>2021-12-21T16:20:19Z</time>
      </trkpt>
      <trkpt lat="43.2530570" lon="-4.8443890">
        <ele>366.0</ele>
        <time>2021-12-21T16:20:24Z</time>
      </trkpt>
      <trkpt lat="43.2530580" lon="-4.8443760">
        <ele>365.9</ele>
        <time>2021-12-21T16:20:27Z</time>
      </trkpt>
      <trkpt lat="43.2530670" lon="-4.8443270">
        <ele>365.3</ele>
        <time>2021-12-21T16:20:32Z</time>
      </trkpt>
      <trkpt lat="43.2530700" lon="-4.8442850">
        <ele>364.8</ele>
        <time>2021-12-21T16:20:35Z</time>
      </trkpt>
      <trkpt lat="43.2530600" lon="-4.8442980">
        <ele>364.6</ele>
        <time>2021-12-21T16:20:40Z</time>
      </trkpt>
      <trkpt lat="43.2530490" lon="-4.8443560">
        <ele>363.9</ele>
        <time>2021-12-21T16:20:45Z</time>
      </trkpt>
      <trkpt lat="43.2530280" lon="-4.8443570">
        <ele>363.6</ele>
        <time>2021-12-21T16:20:50Z</time>
      </trkpt>
      <trkpt lat="43.2530150" lon="-4.8443240">
        <ele>363.2</ele>
        <time>2021-12-21T16:20:55Z</time>
      </trkpt>
      <trkpt lat="43.2529880" lon="-4.8443000">
        <ele>362.7</ele>
        <time>2021-12-21T16:21:00Z</time>
      </trkpt>
      <trkpt lat="43.2529770" lon="-4.8442650">
        <ele>362.3</ele>
        <time>2021-12-21T16:21:05Z</time>
      </trkpt>
      <trkpt lat="43.2529790" lon="-4.8442480">
        <ele>362.1</ele>
        <time>2021-12-21T16:21:11Z</time>
      </trkpt>
      <trkpt lat="43.2531540" lon="-4.8440010">
        <ele>358.2</ele>
        <time>2021-12-21T16:21:16Z</time>
      </trkpt>
      <trkpt lat="43.2531690" lon="-4.8440000">
        <ele>357.9</ele>
        <time>2021-12-21T16:21:21Z</time>
      </trkpt>
      <trkpt lat="43.2531740" lon="-4.8439910">
        <ele>357.8</ele>
        <time>2021-12-21T16:21:26Z</time>
      </trkpt>
      <trkpt lat="43.2532220" lon="-4.8439100">
        <ele>356.6</ele>
        <time>2021-12-21T16:21:31Z</time>
      </trkpt>
      <trkpt lat="43.2532420" lon="-4.8438900">
        <ele>356.2</ele>
        <time>2021-12-21T16:21:36Z</time>
      </trkpt>
      <trkpt lat="43.2532450" lon="-4.8438600">
        <ele>355.9</ele>
        <time>2021-12-21T16:21:41Z</time>
      </trkpt>
      <trkpt lat="43.2532600" lon="-4.8438030">
        <ele>355.2</ele>
        <time>2021-12-21T16:21:49Z</time>
      </trkpt>
      <trkpt lat="43.2532720" lon="-4.8437810">
        <ele>354.9</ele>
        <time>2021-12-21T16:21:54Z</time>
      </trkpt>
      <trkpt lat="43.2532880" lon="-4.8437260">
        <ele>354.2</ele>
        <time>2021-12-21T16:22:00Z</time>
      </trkpt>
      <trkpt lat="43.2532970" lon="-4.8436510">
        <ele>353.4</ele>
        <time>2021-12-21T16:22:05Z</time>
      </trkpt>
      <trkpt lat="43.2533060" lon="-4.8436210">
        <ele>353.0</ele>
        <time>2021-12-21T16:22:10Z</time>
      </trkpt>
      <trkpt lat="43.2533100" lon="-4.8435760">
        <ele>352.5</ele>
        <time>2021-12-21T16:22:13Z</time>
      </trkpt>
      <trkpt lat="43.2533290" lon="-4.8435330">
        <ele>351.9</ele>
        <time>2021-12-21T16:22:18Z</time>
      </trkpt>
      <trkpt lat="43.2533410" lon="-4.8434850">
        <ele>351.3</ele>
        <time>2021-12-21T16:22:23Z</time>
      </trkpt>
      <trkpt lat="43.2533430" lon="-4.8434230">
        <ele>350.6</ele>
        <time>2021-12-21T16:22:28Z</time>
      </trkpt>
      <trkpt lat="43.2533530" lon="-4.8433620">
        <ele>349.9</ele>
        <time>2021-12-21T16:22:33Z</time>
      </trkpt>
      <trkpt lat="43.2533610" lon="-4.8433390">
        <ele>349.6</ele>
        <time>2021-12-21T16:22:38Z</time>
      </trkpt>
      <trkpt lat="43.2533730" lon="-4.8432990">
        <ele>349.2</ele>
        <time>2021-12-21T16:22:43Z</time>
      </trkpt>
      <trkpt lat="43.2533740" lon="-4.8432480">
        <ele>348.6</ele>
        <time>2021-12-21T16:22:49Z</time>
      </trkpt>
      <trkpt lat="43.2533730" lon="-4.8432090">
        <ele>348.1</ele>
        <time>2021-12-21T16:22:54Z</time>
      </trkpt>
      <trkpt lat="43.2533780" lon="-4.8431700">
        <ele>347.7</ele>
        <time>2021-12-21T16:22:59Z</time>
      </trkpt>
      <trkpt lat="43.2533800" lon="-4.8430850">
        <ele>346.7</ele>
        <time>2021-12-21T16:23:04Z</time>
      </trkpt>
      <trkpt lat="43.2534000" lon="-4.8430220">
        <ele>345.9</ele>
        <time>2021-12-21T16:23:07Z</time>
      </trkpt>
      <trkpt lat="43.2533870" lon="-4.8429530">
        <ele>345.1</ele>
        <time>2021-12-21T16:23:12Z</time>
      </trkpt>
      <trkpt lat="43.2533770" lon="-4.8428940">
        <ele>344.5</ele>
        <time>2021-12-21T16:23:17Z</time>
      </trkpt>
      <trkpt lat="43.2533680" lon="-4.8428260">
        <ele>343.7</ele>
        <time>2021-12-21T16:23:20Z</time>
      </trkpt>
      <trkpt lat="43.2533520" lon="-4.8427450">
        <ele>342.7</ele>
        <time>2021-12-21T16:23:25Z</time>
      </trkpt>
      <trkpt lat="43.2533620" lon="-4.8427250">
        <ele>342.4</ele>
        <time>2021-12-21T16:23:30Z</time>
      </trkpt>
      <trkpt lat="43.2533700" lon="-4.8427260">
        <ele>342.3</ele>
        <time>2021-12-21T16:23:35Z</time>
      </trkpt>
      <trkpt lat="43.2533520" lon="-4.8426780">
        <ele>341.7</ele>
        <time>2021-12-21T16:23:40Z</time>
      </trkpt>
      <trkpt lat="43.2533270" lon="-4.8426130">
        <ele>340.9</ele>
        <time>2021-12-21T16:23:45Z</time>
      </trkpt>
      <trkpt lat="43.2533010" lon="-4.8425780">
        <ele>340.3</ele>
        <time>2021-12-21T16:23:50Z</time>
      </trkpt>
      <trkpt lat="43.2532920" lon="-4.8424950">
        <ele>339.4</ele>
        <time>2021-12-21T16:23:56Z</time>
      </trkpt>
      <trkpt lat="43.2532970" lon="-4.8424520">
        <ele>338.9</ele>
        <time>2021-12-21T16:24:01Z</time>
      </trkpt>
      <trkpt lat="43.2532910" lon="-4.8423850">
        <ele>338.1</ele>
        <time>2021-12-21T16:24:06Z</time>
      </trkpt>
      <trkpt lat="43.2532990" lon="-4.8423250">
        <ele>337.4</ele>
        <time>2021-12-21T16:24:11Z</time>
      </trkpt>
      <trkpt lat="43.2533230" lon="-4.8422800">
        <ele>336.8</ele>
        <time>2021-12-21T16:24:16Z</time>
      </trkpt>
      <trkpt lat="43.2533320" lon="-4.8422270">
        <ele>336.2</ele>
        <time>2021-12-21T16:24:21Z</time>
      </trkpt>
      <trkpt lat="43.2533470" lon="-4.8421740">
        <ele>335.5</ele>
        <time>2021-12-21T16:24:27Z</time>
      </trkpt>
      <trkpt lat="43.2533600" lon="-4.8421180">
        <ele>334.9</ele>
        <time>2021-12-21T16:24:34Z</time>
      </trkpt>
      <trkpt lat="43.2533760" lon="-4.8420660">
        <ele>334.2</ele>
        <time>2021-12-21T16:24:39Z</time>
      </trkpt>
      <trkpt lat="43.2533840" lon="-4.8420210">
        <ele>333.7</ele>
        <time>2021-12-21T16:24:45Z</time>
      </trkpt>
      <trkpt lat="43.2533990" lon="-4.8419750">
        <ele>333.1</ele>
        <time>2021-12-21T16:24:50Z</time>
      </trkpt>
      <trkpt lat="43.2534120" lon="-4.8419090">
        <ele>332.4</ele>
        <time>2021-12-21T16:24:55Z</time>
      </trkpt>
      <trkpt lat="43.2534180" lon="-4.8418640">
        <ele>331.8</ele>
        <time>2021-12-21T16:25:00Z</time>
      </trkpt>
      <trkpt lat="43.2534240" lon="-4.8418210">
        <ele>331.3</ele>
        <time>2021-12-21T16:25:05Z</time>
      </trkpt>
      <trkpt lat="43.2534210" lon="-4.8417790">
        <ele>330.9</ele>
        <time>2021-12-21T16:25:10Z</time>
      </trkpt>
      <trkpt lat="43.2534260" lon="-4.8416980">
        <ele>329.9</ele>
        <time>2021-12-21T16:25:13Z</time>
      </trkpt>
      <trkpt lat="43.2534100" lon="-4.8416350">
        <ele>329.2</ele>
        <time>2021-12-21T16:25:18Z</time>
      </trkpt>
      <trkpt lat="43.2533930" lon="-4.8415590">
        <ele>328.3</ele>
        <time>2021-12-21T16:25:21Z</time>
      </trkpt>
      <trkpt lat="43.2533890" lon="-4.8414970">
        <ele>327.6</ele>
        <time>2021-12-21T16:25:26Z</time>
      </trkpt>
      <trkpt lat="43.2533640" lon="-4.8414270">
        <ele>326.7</ele>
        <time>2021-12-21T16:25:31Z</time>
      </trkpt>
      <trkpt lat="43.2533600" lon="-4.8413800">
        <ele>326.2</ele>
        <time>2021-12-21T16:25:36Z</time>
      </trkpt>
      <trkpt lat="43.2533480" lon="-4.8413190">
        <ele>325.4</ele>
        <time>2021-12-21T16:25:41Z</time>
      </trkpt>
      <trkpt lat="43.2533550" lon="-4.8412710">
        <ele>324.9</ele>
        <time>2021-12-21T16:26:46Z</time>
      </trkpt>
      <trkpt lat="43.2533770" lon="-4.8412360">
        <ele>324.4</ele>
        <time>2021-12-21T16:26:51Z</time>
      </trkpt>
      <trkpt lat="43.2533980" lon="-4.8412020">
        <ele>323.9</ele>
        <time>2021-12-21T16:26:56Z</time>
      </trkpt>
      <trkpt lat="43.2534100" lon="-4.8411630">
        <ele>323.4</ele>
        <time>2021-12-21T16:27:01Z</time>
      </trkpt>
      <trkpt lat="43.2534170" lon="-4.8411070">
        <ele>322.7</ele>
        <time>2021-12-21T16:27:09Z</time>
      </trkpt>
      <trkpt lat="43.2534150" lon="-4.8410480">
        <ele>322.1</ele>
        <time>2021-12-21T16:27:14Z</time>
      </trkpt>
      <trkpt lat="43.2534080" lon="-4.8409980">
        <ele>321.5</ele>
        <time>2021-12-21T16:27:19Z</time>
      </trkpt>
      <trkpt lat="43.2533850" lon="-4.8409530">
        <ele>320.9</ele>
        <time>2021-12-21T16:27:24Z</time>
      </trkpt>
      <trkpt lat="43.2533480" lon="-4.8408840">
        <ele>319.9</ele>
        <time>2021-12-21T16:27:32Z</time>
      </trkpt>
      <trkpt lat="43.2533580" lon="-4.8408480">
        <ele>319.5</ele>
        <time>2021-12-21T16:27:37Z</time>
      </trkpt>
      <trkpt lat="43.2533520" lon="-4.8407860">
        <ele>318.8</ele>
        <time>2021-12-21T16:27:42Z</time>
      </trkpt>
      <trkpt lat="43.2533140" lon="-4.8407300">
        <ele>317.9</ele>
        <time>2021-12-21T16:27:50Z</time>
      </trkpt>
      <trkpt lat="43.2533000" lon="-4.8406970">
        <ele>317.5</ele>
        <time>2021-12-21T16:27:55Z</time>
      </trkpt>
      <trkpt lat="43.2532650" lon="-4.8406660">
        <ele>316.8</ele>
        <time>2021-12-21T16:28:03Z</time>
      </trkpt>
      <trkpt lat="43.2532360" lon="-4.8406470">
        <ele>316.3</ele>
        <time>2021-12-21T16:28:08Z</time>
      </trkpt>
      <trkpt lat="43.2532130" lon="-4.8405840">
        <ele>315.5</ele>
        <time>2021-12-21T16:28:11Z</time>
      </trkpt>
      <trkpt lat="43.2532190" lon="-4.8405290">
        <ele>314.9</ele>
        <time>2021-12-21T16:28:16Z</time>
      </trkpt>
      <trkpt lat="43.2532210" lon="-4.8404740">
        <ele>314.3</ele>
        <time>2021-12-21T16:28:21Z</time>
      </trkpt>
      <trkpt lat="43.2532210" lon="-4.8404280">
        <ele>313.7</ele>
        <time>2021-12-21T16:28:26Z</time>
      </trkpt>
      <trkpt lat="43.2532290" lon="-4.8403550">
        <ele>312.9</ele>
        <time>2021-12-21T16:28:29Z</time>
      </trkpt>
      <trkpt lat="43.2532270" lon="-4.8403080">
        <ele>312.4</ele>
        <time>2021-12-21T16:28:34Z</time>
      </trkpt>
      <trkpt lat="43.2532520" lon="-4.8402640">
        <ele>311.7</ele>
        <time>2021-12-21T16:28:39Z</time>
      </trkpt>
      <trkpt lat="43.2532860" lon="-4.8402250">
        <ele>311.1</ele>
        <time>2021-12-21T16:28:44Z</time>
      </trkpt>
      <trkpt lat="43.2533190" lon="-4.8402080">
        <ele>310.5</ele>
        <time>2021-12-21T16:28:52Z</time>
      </trkpt>
      <trkpt lat="43.2533200" lon="-4.8401710">
        <ele>310.1</ele>
        <time>2021-12-21T16:28:57Z</time>
      </trkpt>
      <trkpt lat="43.2533460" lon="-4.8401310">
        <ele>309.5</ele>
        <time>2021-12-21T16:29:10Z</time>
      </trkpt>
      <trkpt lat="43.2533710" lon="-4.8400580">
        <ele>308.6</ele>
        <time>2021-12-21T16:29:18Z</time>
      </trkpt>
      <trkpt lat="43.2533850" lon="-4.8399990">
        <ele>307.9</ele>
        <time>2021-12-21T16:29:23Z</time>
      </trkpt>
      <trkpt lat="43.2533970" lon="-4.8399520">
        <ele>307.3</ele>
        <time>2021-12-21T16:29:28Z</time>
      </trkpt>
      <trkpt lat="43.2534180" lon="-4.8399120">
        <ele>306.7</ele>
        <time>2021-12-21T16:29:33Z</time>
      </trkpt>
      <trkpt lat="43.2534370" lon="-4.8398510">
        <ele>306.0</ele>
        <time>2021-12-21T16:29:38Z</time>
      </trkpt>
      <trkpt lat="43.2534590" lon="-4.8397900">
        <ele>305.2</ele>
        <time>2021-12-21T16:29:41Z</time>
      </trkpt>
      <trkpt lat="43.2534540" lon="-4.8397350">
        <ele>304.6</ele>
        <time>2021-12-21T16:29:46Z</time>
      </trkpt>
      <trkpt lat="43.2534430" lon="-4.8396670">
        <ele>303.8</ele>
        <time>2021-12-21T16:29:51Z</time>
      </trkpt>
      <trkpt lat="43.2534440" lon="-4.8396300">
        <ele>303.4</ele>
        <time>2021-12-21T16:29:56Z</time>
      </trkpt>
      <trkpt lat="43.2534210" lon="-4.8395730">
        <ele>302.7</ele>
        <time>2021-12-21T16:30:02Z</time>
      </trkpt>
      <trkpt lat="43.2533960" lon="-4.8395370">
        <ele>302.1</ele>
        <time>2021-12-21T16:30:07Z</time>
      </trkpt>
      <trkpt lat="43.2533710" lon="-4.8395000">
        <ele>301.5</ele>
        <time>2021-12-21T16:30:12Z</time>
      </trkpt>
      <trkpt lat="43.2533670" lon="-4.8394480">
        <ele>300.9</ele>
        <time>2021-12-21T16:30:22Z</time>
      </trkpt>
      <trkpt lat="43.2533700" lon="-4.8393970">
        <ele>300.3</ele>
        <time>2021-12-21T16:30:25Z</time>
      </trkpt>
      <trkpt lat="43.2533490" lon="-4.8393730">
        <ele>299.9</ele>
        <time>2021-12-21T16:30:30Z</time>
      </trkpt>
      <trkpt lat="43.2533210" lon="-4.8391810">
        <ele>299.2</ele>
        <time>2021-12-21T16:30:35Z</time>
      </trkpt>
      <trkpt lat="43.2533260" lon="-4.8391270">
        <ele>299.3</ele>
        <time>2021-12-21T16:30:40Z</time>
      </trkpt>
      <trkpt lat="43.2533340" lon="-4.8390750">
        <ele>299.2</ele>
        <time>2021-12-21T16:30:45Z</time>
      </trkpt>
      <trkpt lat="43.2533180" lon="-4.8390430">
        <ele>299.1</ele>
        <time>2021-12-21T16:30:51Z</time>
      </trkpt>
      <trkpt lat="43.2533330" lon="-4.8389700">
        <ele>298.7</ele>
        <time>2021-12-21T16:30:56Z</time>
      </trkpt>
      <trkpt lat="43.2533570" lon="-4.8389440">
        <ele>298.5</ele>
        <time>2021-12-21T16:31:01Z</time>
      </trkpt>
      <trkpt lat="43.2533720" lon="-4.8389160">
        <ele>298.2</ele>
        <time>2021-12-21T16:33:38Z</time>
      </trkpt>
      <trkpt lat="43.2534020" lon="-4.8389070">
        <ele>298.0</ele>
        <time>2021-12-21T16:33:41Z</time>
      </trkpt>
      <trkpt lat="43.2534450" lon="-4.8388890">
        <ele>297.7</ele>
        <time>2021-12-21T16:33:43Z</time>
      </trkpt>
      <trkpt lat="43.2534860" lon="-4.8388720">
        <ele>297.4</ele>
        <time>2021-12-21T16:33:46Z</time>
      </trkpt>
      <trkpt lat="43.2535250" lon="-4.8388480">
        <ele>297.3</ele>
        <time>2021-12-21T16:33:49Z</time>
      </trkpt>
      <trkpt lat="43.2535760" lon="-4.8387960">
        <ele>297.2</ele>
        <time>2021-12-21T16:33:54Z</time>
      </trkpt>
      <trkpt lat="43.2536020" lon="-4.8387630">
        <ele>297.3</ele>
        <time>2021-12-21T16:33:59Z</time>
      </trkpt>
      <trkpt lat="43.2536430" lon="-4.8387010">
        <ele>297.4</ele>
        <time>2021-12-21T16:34:06Z</time>
      </trkpt>
      <trkpt lat="43.2536690" lon="-4.8386470">
        <ele>297.5</ele>
        <time>2021-12-21T16:34:09Z</time>
      </trkpt>
      <trkpt lat="43.2536830" lon="-4.8386130">
        <ele>297.6</ele>
        <time>2021-12-21T16:34:12Z</time>
      </trkpt>
      <trkpt lat="43.2537070" lon="-4.8385610">
        <ele>297.8</ele>
        <time>2021-12-21T16:34:14Z</time>
      </trkpt>
      <trkpt lat="43.2537250" lon="-4.8385160">
        <ele>297.9</ele>
        <time>2021-12-21T16:34:19Z</time>
      </trkpt>
      <trkpt lat="43.2537630" lon="-4.8384760">
        <ele>298.1</ele>
        <time>2021-12-21T16:34:25Z</time>
      </trkpt>
      <trkpt lat="43.2537940" lon="-4.8384560">
        <ele>298.2</ele>
        <time>2021-12-21T16:34:30Z</time>
      </trkpt>
      <trkpt lat="43.2538280" lon="-4.8384140">
        <ele>298.4</ele>
        <time>2021-12-21T16:34:32Z</time>
      </trkpt>
      <trkpt lat="43.2538390" lon="-4.8383820">
        <ele>298.4</ele>
        <time>2021-12-21T16:34:38Z</time>
      </trkpt>
      <trkpt lat="43.2538430" lon="-4.8383490">
        <ele>298.4</ele>
        <time>2021-12-21T16:34:40Z</time>
      </trkpt>
      <trkpt lat="43.2538380" lon="-4.8382760">
        <ele>298.4</ele>
        <time>2021-12-21T16:34:43Z</time>
      </trkpt>
      <trkpt lat="43.2538560" lon="-4.8382600">
        <ele>298.4</ele>
        <time>2021-12-21T16:34:45Z</time>
      </trkpt>
      <trkpt lat="43.2538810" lon="-4.8381690">
        <ele>298.2</ele>
        <time>2021-12-21T16:34:48Z</time>
      </trkpt>
      <trkpt lat="43.2538840" lon="-4.8380930">
        <ele>298.0</ele>
        <time>2021-12-21T16:34:53Z</time>
      </trkpt>
      <trkpt lat="43.2538800" lon="-4.8380500">
        <ele>297.9</ele>
        <time>2021-12-21T16:34:56Z</time>
      </trkpt>
      <trkpt lat="43.2538950" lon="-4.8379970">
        <ele>297.7</ele>
        <time>2021-12-21T16:35:01Z</time>
      </trkpt>
      <trkpt lat="43.2539150" lon="-4.8379410">
        <ele>297.6</ele>
        <time>2021-12-21T16:35:03Z</time>
      </trkpt>
      <trkpt lat="43.2539400" lon="-4.8378850">
        <ele>297.4</ele>
        <time>2021-12-21T16:35:08Z</time>
      </trkpt>
      <trkpt lat="43.2539510" lon="-4.8378480">
        <ele>297.3</ele>
        <time>2021-12-21T16:35:11Z</time>
      </trkpt>
      <trkpt lat="43.2539690" lon="-4.8377920">
        <ele>297.3</ele>
        <time>2021-12-21T16:35:14Z</time>
      </trkpt>
      <trkpt lat="43.2539850" lon="-4.8377440">
        <ele>297.2</ele>
        <time>2021-12-21T16:35:16Z</time>
      </trkpt>
      <trkpt lat="43.2540070" lon="-4.8376940">
        <ele>297.1</ele>
        <time>2021-12-21T16:35:19Z</time>
      </trkpt>
      <trkpt lat="43.2540270" lon="-4.8376400">
        <ele>297.0</ele>
        <time>2021-12-21T16:35:21Z</time>
      </trkpt>
      <trkpt lat="43.2540490" lon="-4.8375960">
        <ele>296.8</ele>
        <time>2021-12-21T16:35:24Z</time>
      </trkpt>
      <trkpt lat="43.2540340" lon="-4.8375940">
        <ele>296.8</ele>
        <time>2021-12-21T16:35:29Z</time>
      </trkpt>
      <trkpt lat="43.2540080" lon="-4.8376400">
        <ele>296.6</ele>
        <time>2021-12-21T16:35:32Z</time>
      </trkpt>
      <trkpt lat="43.2539980" lon="-4.8376570">
        <ele>296.5</ele>
        <time>2021-12-21T16:35:34Z</time>
      </trkpt>
      <trkpt lat="43.2539670" lon="-4.8376820">
        <ele>296.3</ele>
        <time>2021-12-21T16:35:39Z</time>
      </trkpt>
      <trkpt lat="43.2539270" lon="-4.8377060">
        <ele>296.1</ele>
        <time>2021-12-21T16:35:45Z</time>
      </trkpt>
      <trkpt lat="43.2538950" lon="-4.8377410">
        <ele>295.8</ele>
        <time>2021-12-21T16:35:47Z</time>
      </trkpt>
      <trkpt lat="43.2538690" lon="-4.8377680">
        <ele>295.6</ele>
        <time>2021-12-21T16:35:50Z</time>
      </trkpt>
      <trkpt lat="43.2538440" lon="-4.8378120">
        <ele>295.4</ele>
        <time>2021-12-21T16:35:52Z</time>
      </trkpt>
      <trkpt lat="43.2538170" lon="-4.8378460">
        <ele>295.1</ele>
        <time>2021-12-21T16:35:55Z</time>
      </trkpt>
      <trkpt lat="43.2537830" lon="-4.8378830">
        <ele>292.9</ele>
        <time>2021-12-21T16:35:57Z</time>
      </trkpt>
      <trkpt lat="43.2538690" lon="-4.8374810">
        <ele>289.3</ele>
        <time>2021-12-21T16:36:03Z</time>
      </trkpt>
      <trkpt lat="43.2539020" lon="-4.8374650">
        <ele>288.8</ele>
        <time>2021-12-21T16:36:05Z</time>
      </trkpt>
      <trkpt lat="43.2539210" lon="-4.8374400">
        <ele>288.5</ele>
        <time>2021-12-21T16:36:08Z</time>
      </trkpt>
      <trkpt lat="43.2539540" lon="-4.8374140">
        <ele>288.0</ele>
        <time>2021-12-21T16:36:13Z</time>
      </trkpt>
      <trkpt lat="43.2539870" lon="-4.8373820">
        <ele>287.5</ele>
        <time>2021-12-21T16:36:18Z</time>
      </trkpt>
      <trkpt lat="43.2540100" lon="-4.8373430">
        <ele>287.1</ele>
        <time>2021-12-21T16:36:21Z</time>
      </trkpt>
      <trkpt lat="43.2540520" lon="-4.8372980">
        <ele>286.4</ele>
        <time>2021-12-21T16:36:23Z</time>
      </trkpt>
      <trkpt lat="43.2541270" lon="-4.8372130">
        <ele>285.3</ele>
        <time>2021-12-21T16:36:26Z</time>
      </trkpt>
      <trkpt lat="43.2541520" lon="-4.8371850">
        <ele>284.9</ele>
        <time>2021-12-21T16:36:28Z</time>
      </trkpt>
      <trkpt lat="43.2541790" lon="-4.8371530">
        <ele>284.5</ele>
        <time>2021-12-21T16:36:31Z</time>
      </trkpt>
      <trkpt lat="43.2541960" lon="-4.8371370">
        <ele>284.2</ele>
        <time>2021-12-21T16:36:33Z</time>
      </trkpt>
      <trkpt lat="43.2542220" lon="-4.8370820">
        <ele>283.7</ele>
        <time>2021-12-21T16:36:39Z</time>
      </trkpt>
      <trkpt lat="43.2542680" lon="-4.8370260">
        <ele>283.0</ele>
        <time>2021-12-21T16:36:44Z</time>
      </trkpt>
      <trkpt lat="43.2543160" lon="-4.8369780">
        <ele>282.3</ele>
        <time>2021-12-21T16:36:46Z</time>
      </trkpt>
      <trkpt lat="43.2543330" lon="-4.8369660">
        <ele>282.1</ele>
      </trkpt>
      <trkpt lat="43.2543850" lon="-4.8368950">
        <ele>281.1</ele>
      </trkpt>
      <trkpt lat="43.2544000" lon="-4.8368780">
        <ele>280.9</ele>
      </trkpt>
      <trkpt lat="43.2544240" lon="-4.8368480">
        <ele>280.8</ele>
      </trkpt>
      <trkpt lat="43.2544410" lon="-4.8368250">
        <ele>280.9</ele>
      </trkpt>
      <trkpt lat="43.2544670" lon="-4.8367980">
        <ele>281.1</ele>
      </trkpt>
      <trkpt lat="43.2545130" lon="-4.8367520">
        <ele>281.3</ele>
      </trkpt>
      <trkpt lat="43.2545410" lon="-4.8367280">
        <ele>281.4</ele>
      </trkpt>
      <trkpt lat="43.2545890" lon="-4.8366730">
        <ele>281.8</ele>
      </trkpt>
      <trkpt lat="43.2546110" lon="-4.8366550">
        <ele>281.9</ele>
      </trkpt>
      <trkpt lat="43.2546620" lon="-4.8366130">
        <ele>282.2</ele>
      </trkpt>
      <trkpt lat="43.2546870" lon="-4.8365840">
        <ele>282.3</ele>
      </trkpt>
      <trkpt lat="43.2547200" lon="-4.8365680">
        <ele>282.5</ele>
      </trkpt>
      <trkpt lat="43.2547470" lon="-4.8365410">
        <ele>282.6</ele>
      </trkpt>
      <trkpt lat="43.2547770" lon="-4.8365140">
        <ele>282.8</ele>
      </trkpt>
      <trkpt lat="43.2547930" lon="-4.8364940">
        <ele>282.8</ele>
      </trkpt>
      <trkpt lat="43.2548180" lon="-4.8364750">
        <ele>283.0</ele>
      </trkpt>
      <trkpt lat="43.2548710" lon="-4.8364210">
        <ele>283.3</ele>
      </trkpt>
      <trkpt lat="43.2548890" lon="-4.8364030">
        <ele>283.4</ele>
      </trkpt>
      <trkpt lat="43.2549070" lon="-4.8363760">
        <ele>283.6</ele>
      </trkpt>
      <trkpt lat="43.2549530" lon="-4.8363250">
        <ele>283.9</ele>
      </trkpt>
      <trkpt lat="43.2550090" lon="-4.8362530">
        <ele>284.3</ele>
      </trkpt>
      <trkpt lat="43.2550260" lon="-4.8362280">
        <ele>284.4</ele>
      </trkpt>
      <trkpt lat="43.2550580" lon="-4.8361980">
        <ele>284.6</ele>
      </trkpt>
      <trkpt lat="43.2550790" lon="-4.8361750">
        <ele>284.7</ele>
      </trkpt>
      <trkpt lat="43.2551000" lon="-4.8361450">
        <ele>284.9</ele>
      </trkpt>
      <trkpt lat="43.2551220" lon="-4.8361260">
        <ele>285.0</ele>
      </trkpt>
      <trkpt lat="43.2551820" lon="-4.8360800">
        <ele>285.3</ele>
      </trkpt>
      <trkpt lat="43.2552040" lon="-4.8360540">
        <ele>285.4</ele>
      </trkpt>
      <trkpt lat="43.2552300" lon="-4.8360360">
        <ele>285.6</ele>
      </trkpt>
      <trkpt lat="43.2552800" lon="-4.8359780">
        <ele>285.9</ele>
      </trkpt>
      <trkpt lat="43.2553420" lon="-4.8359360">
        <ele>286.2</ele>
      </trkpt>
      <trkpt lat="43.2553760" lon="-4.8359130">
        <ele>286.4</ele>
      </trkpt>
      <trkpt lat="43.2554050" lon="-4.8358960">
        <ele>286.6</ele>
      </trkpt>
      <trkpt lat="43.2554380" lon="-4.8358640">
        <ele>286.8</ele>
      </trkpt>
      <trkpt lat="43.2554630" lon="-4.8358460">
        <ele>287.0</ele>
      </trkpt>
      <trkpt lat="43.2554870" lon="-4.8358300">
        <ele>287.1</ele>
      </trkpt>
      <trkpt lat="43.2555120" lon="-4.8358180">
        <ele>287.3</ele>
      </trkpt>
      <trkpt lat="43.2555840" lon="-4.8357790">
        <ele>287.9</ele>
      </trkpt>
      <trkpt lat="43.2556240" lon="-4.8357340">
        <ele>288.2</ele>
      </trkpt>
      <trkpt lat="43.2556270" lon="-4.8357190">
        <ele>288.3</ele>
      </trkpt>
      <trkpt lat="43.25564000000001" lon="-4.8357600000000005">
        <ele>288.55</ele>
      </trkpt>
      <trkpt lat="43.255950000000006" lon="-4.83549">
        <ele>292.89000000000004</ele>
      </trkpt>
      <trkpt lat="43.25603" lon="-4.83532">
        <ele>293.45000000000005</ele>
      </trkpt>
      <trkpt lat="43.256170000000004" lon="-4.8349400000000005">
        <ele>294.18</ele>
      </trkpt>
      <trkpt lat="43.2565" lon="-4.83439">
        <ele>294.31</ele>
      </trkpt>
      <trkpt lat="43.25654" lon="-4.83422">
        <ele>294.21000000000004</ele>
      </trkpt>
      <trkpt lat="43.256550000000004" lon="-4.83406">
        <ele>294.07</ele>
      </trkpt>
      <trkpt lat="43.25659" lon="-4.83352">
        <ele>292.33000000000004</ele>
      </trkpt>
      <trkpt lat="43.256620000000005" lon="-4.83342">
        <ele>292.08</ele>
      </trkpt>
      <trkpt lat="43.25694" lon="-4.832940000000001">
        <ele>289.04</ele>
      </trkpt>
      <trkpt lat="43.257340000000006" lon="-4.832210000000001">
        <ele>258.67</ele>
      </trkpt>
      <trkpt lat="43.25748" lon="-4.83195">
        <ele>250.92000000000002</ele>
      </trkpt>
      <trkpt lat="43.257830000000006" lon="-4.83141">
        <ele>236.28</ele>
      </trkpt>
      <trkpt lat="43.258030000000005" lon="-4.83115">
        <ele>230.20000000000002</ele>
      </trkpt>
      <trkpt lat="43.258340000000004" lon="-4.83082">
        <ele>220.35000000000002</ele>
      </trkpt>
      <trkpt lat="43.258120000000005" lon="-4.83044">
        <ele>220.21</ele>
      </trkpt>
    </trkseg>
  </trk>
</gpx>
